
Distance (Route):
Temperature : 17.4°C
Humidity : 68.1%
Pressure : 950.4hPa| Receiver | Frames | First received | Last received |
|---|---|---|---|
| AA1-15 | 490 | 2026-08-30 23:00:57 | 2026-08-31 00:45:06 |
| DB0DAN | 247 | 2026-08-30 22:52:40 | 2026-08-31 00:47:55 |
| KRY50SP-1 | 190 | 2026-08-30 23:04:00 | 2026-08-31 00:48:39 |
| SONDE2-12 | 170 | 2026-08-30 22:47:29 | 2026-08-31 00:40:15 |
| DL1XH-west | 119 | 2026-08-30 23:24:31 | 2026-08-30 23:48:45 |
| DM0DOS-11 | 100 | 2026-08-30 23:42:55 | 2026-08-31 00:28:12 |
| EDDB2-11 | 96 | 2026-08-30 22:45:42 | 2026-08-31 00:50:52 |
| SONDE2-11 | 88 | 2026-08-30 22:45:35 | 2026-08-31 00:51:52 |
| EDDB2-12 | 81 | 2026-08-30 22:45:17 | 2026-08-31 00:52:03 |
| DO2SHX-10 | 81 | 2026-08-30 23:47:48 | 2026-08-31 00:28:21 |
| 13BRC | 62 | 2026-08-30 22:52:43 | 2026-08-31 00:43:28 |
| SP3BTT-10 | 55 | 2026-08-30 22:51:03 | 2026-08-31 00:53:16 |
| DL1XH1-15 | 55 | 2026-08-30 23:27:55 | 2026-08-30 23:47:48 |
| SP3WXH-11 | 52 | 2026-08-30 23:13:34 | 2026-08-31 00:51:50 |
| DF8AY | 49 | 2026-08-30 23:16:23 | 2026-08-30 23:33:18 |
| DAC517 | 45 | 2026-08-30 22:52:04 | 2026-08-31 00:05:40 |
| SP6BVK | 38 | 2026-08-30 23:02:43 | 2026-08-31 00:40:58 |
| DL2RXE-15 | 30 | 2026-08-30 22:55:03 | 2026-08-31 00:34:43 |
| 3Z3Z-3 | 27 | 2026-08-30 23:41:58 | 2026-08-31 00:35:57 |
| S3001 | 26 | 2026-08-30 22:57:20 | 2026-08-31 00:44:57 |
| MECKS9 | 14 | 2026-08-30 23:07:54 | 2026-08-31 00:38:28 |
| D01LWL | 8 | 2026-08-31 00:05:57 | 2026-08-31 00:31:50 |
| SONCRA | 7 | 2026-08-30 23:20:43 | 2026-08-30 23:29:01 |
| DC4HF-4 | 6 | 2026-08-30 23:59:28 | 2026-08-31 00:04:53 |
| DJ2DS-15 | 3 | 2026-08-30 23:59:11 | 2026-08-31 00:00:13 |
| DL1JHR | 1 | 2026-08-30 23:59:40 | 2026-08-30 23:59:40 |
| Receiver | Date | Latitude | Longitude | Direction | Speed | Altitude | Climb | Temperature | Humidity | Pressure | Voltage | Killtimer | Uptime | BKT | XDATA |
|---|---|---|---|---|---|---|---|---|---|---|---|---|---|---|---|
| SP3BTT-10 | 2026-08-31 00:53:16 | 52.54729 | 15.31380 | 79° | 18km/h | 583m | -9.6m/s | 17.4°C | 68.1% | 950.4hPa | 2.6V | 00:00:00 | 00:00:00 | 00:00:00 | |
| SP3BTT-10 | 2026-08-31 00:53:10 | 52.54723 | 15.31332 | 77° | 18km/h | 639m | -9.6m/s | 17.0°C | 68.8% | 944.0hPa | 2.6V | 00:00:00 | 00:00:00 | 00:00:00 | |
| SP3BTT-10 | 2026-08-31 00:53:04 | 52.54716 | 15.31286 | 76° | 18km/h | 697m | -9.8m/s | 16.5°C | 69.9% | 937.8hPa | 2.6V | 08:05:00 | 00:00:00 | 00:00:00 | |
| SP3BTT-10 | 2026-08-31 00:52:58 | 52.54709 | 15.31240 | 76° | 20km/h | 756m | -9.4m/s | 16.0°C | 70.2% | 931.5hPa | 2.6V | 00:00:00 | 00:00:00 | 00:00:00 | |
| SP3BTT-10 | 2026-08-31 00:52:52 | 52.54699 | 15.31194 | 77° | 22km/h | 813m | -9.3m/s | 15.5°C | 71.8% | 925.4hPa | 2.6V | 00:00:00 | 00:00:00 | 00:00:00 | |
| SP3BTT-10 | 2026-08-31 00:52:46 | 52.54690 | 15.31142 | 79° | 24km/h | 869m | -9.4m/s | 15.0°C | 73.4% | 919.2hPa | 2.6V | 00:00:00 | 00:00:00 | 00:00:00 | |
| SP3BTT-10 | 2026-08-31 00:52:40 | 52.54681 | 15.31086 | 78° | 26km/h | 926m | -9.6m/s | 14.7°C | 73.4% | 912.9hPa | 2.6V | 00:00:00 | 00:00:00 | 00:00:00 | |
| SP3BTT-10 | 2026-08-31 00:52:34 | 52.54672 | 15.31025 | 82° | 29km/h | 983m | -9.5m/s | 14.5°C | 71.1% | 906.7hPa | 2.6V | 00:00:00 | 00:00:00 | 00:00:00 | |
| SP3BTT-10 | 2026-08-31 00:52:28 | 52.54666 | 15.30956 | 84° | 31km/h | 1040m | -9.5m/s | 14.2°C | 70.6% | 900.7hPa | 2.6V | 00:00:00 | 00:00:00 | 00:00:00 | |
| SP3BTT-10 | 2026-08-31 00:52:22 | 52.54662 | 15.30879 | 85° | 37km/h | 1096m | -9.6m/s | 13.8°C | 69.2% | 894.7hPa | 2.6V | 00:00:00 | 00:00:00 | 00:00:00 | |
| SP3BTT-10 | 2026-08-31 00:52:04 | 52.54638 | 15.30614 | 84° | 42km/h | 1270m | -9.9m/s | 12.5°C | 69.7% | 876.4hPa | 2.6V | 00:00:00 | 00:00:00 | 00:00:00 | |
| EDDB2-12 | 2026-08-31 00:52:03 | 52.54624 | 15.30370 | 85° | 44km/h | 1414m | -9.6m/s | 11.4°C | 73.7% | 861.5hPa | 2.6V | 00:00:00 | 00:00:00 | 00:00:00 | |
| SONDE2-11 | 2026-08-31 00:51:52 | 52.54624 | 15.30370 | 85° | 44km/h | 1414m | -9.6m/s | 11.4°C | 73.7% | 861.5hPa | 2.6V | 00:00:00 | 00:00:00 | 00:00:00 | |
| SP3WXH-11 | 2026-08-31 00:51:50 | 52.54624 | 15.30370 | 85° | 44km/h | 1414m | -9.6m/s | 11.4°C | 73.7% | 861.5hPa | 2.6V | 00:00:00 | 00:00:00 | 00:00:00 | |
| SP3BTT-10 | 2026-08-31 00:51:44 | 52.54619 | 15.30278 | 84° | 51km/h | 1462m | -9.9m/s | 11.0°C | 73.9% | 856.5hPa | 2.6V | 08:06:00 | 00:00:00 | 00:00:00 | |
| EDDB2-12 | 2026-08-31 00:51:32 | 52.54595 | 15.30041 | 77° | 51km/h | 1580m | -10.1m/s | 10.5°C | 71.0% | 844.3hPa | 2.5V | 00:00:00 | 00:00:00 | 00:00:00 | |
| SP3BTT-10 | 2026-08-31 00:51:24 | 52.54570 | 15.29870 | 79° | 60km/h | 1662m | -9.9m/s | 9.7°C | 74.7% | 836.3hPa | 2.5V | 00:00:00 | 00:00:00 | 00:00:00 | |
| SONDE2-11 | 2026-08-31 00:51:21 | 52.54560 | 15.29802 | 77° | 57km/h | 1692m | -10.2m/s | 9.5°C | 73.9% | 833.3hPa | 2.5V | 00:00:00 | 00:00:00 | 00:00:00 | |
| SP3WXH-11 | 2026-08-31 00:51:19 | 52.54550 | 15.29731 | 77° | 60km/h | 1723m | -10.5m/s | 9.3°C | 74.0% | 830.0hPa | 2.5V | 00:00:00 | 00:00:00 | 00:00:00 | |
| SP3BTT-10 | 2026-08-31 00:51:04 | 52.54496 | 15.29382 | 76° | 62km/h | 1870m | -10.3m/s | 8.1°C | 82.2% | 815.5hPa | 2.5V | 00:00:00 | 00:00:00 | 00:00:00 | |
| EDDB2-12 | 2026-08-31 00:51:01 | 52.54485 | 15.29307 | 76° | 62km/h | 1900m | -10.1m/s | 7.9°C | 81.0% | 812.5hPa | 2.5V | 00:00:00 | 00:00:00 | 00:00:00 | |
| EDDB2-11 | 2026-08-31 00:50:52 | 52.54446 | 15.29079 | 71° | 60km/h | 1993m | -10.9m/s | 7.2°C | 77.8% | 803.3hPa | 2.5V | 00:00:00 | 00:00:00 | 00:00:00 | |
| SONDE2-11 | 2026-08-31 00:50:50 | 52.54436 | 15.29031 | 70° | 58km/h | 2014m | -11.0m/s | 7.1°C | 77.9% | 801.4hPa | 2.5V | 00:00:00 | 00:00:00 | 00:00:00 | |
| SP3WXH-11 | 2026-08-31 00:50:48 | 52.54426 | 15.28984 | 69° | 58km/h | 2036m | -10.7m/s | 6.9°C | 77.3% | 799.3hPa | 2.5V | 00:00:00 | 00:00:00 | 00:00:00 | |
| SP3BTT-10 | 2026-08-31 00:50:44 | 52.54404 | 15.28891 | 70° | 60km/h | 2078m | -10.2m/s | 6.5°C | 79.9% | 795.2hPa | 2.5V | 00:00:00 | 00:00:00 | 00:00:00 | |
| EDDB2-12 | 2026-08-31 00:50:30 | 52.54319 | 15.28564 | 62° | 58km/h | 2221m | -11.0m/s | 5.4°C | 84.3% | 781.1hPa | 2.6V | 00:00:00 | 00:00:00 | 00:00:00 | |
| SP3BTT-10 | 2026-08-31 00:50:24 | 52.54277 | 15.28435 | 64° | 57km/h | 2284m | -10.4m/s | 5.0°C | 83.2% | 775.1hPa | 2.6V | 00:00:00 | 00:00:00 | 00:00:00 | |
| EDDB2-11 | 2026-08-31 00:50:21 | 52.54257 | 15.28369 | 62° | 60km/h | 2314m | -10.7m/s | 4.8°C | 84.5% | 772.2hPa | 2.6V | 00:00:00 | 00:00:00 | 00:00:00 | |
| SONDE2-11 | 2026-08-31 00:50:19 | 52.54242 | 15.28324 | 61° | 58km/h | 2335m | -10.8m/s | 4.7°C | 79.1% | 770.1hPa | 2.6V | 00:00:00 | 00:00:00 | 00:00:00 | |
| SP3WXH-11 | 2026-08-31 00:50:17 | 52.54228 | 15.28281 | 61° | 57km/h | 2356m | -10.7m/s | 4.6°C | 77.8% | 768.0hPa | 2.6V | 00:00:00 | 00:00:00 | 00:00:00 | |
| SP3BTT-10 | 2026-08-31 00:50:04 | 52.54141 | 15.28029 | 60° | 37km/h | 2495m | -10.1m/s | 4.4°C | 66.4% | 755.4hPa | 2.6V | 00:00:00 | 00:00:00 | 00:00:00 | |
| EDDB2-12 | 2026-08-31 00:49:59 | 52.54113 | 15.27951 | 63° | 40km/h | 2548m | -9.9m/s | 4.6°C | 50.2% | 751.1hPa | 2.6V | 00:00:00 | 00:00:00 | 00:00:00 | |
| SONDE2-11 | 2026-08-31 00:49:48 | 52.54063 | 15.27809 | 56° | 31km/h | 2660m | -10.5m/s | 5.2°C | 29.7% | 740.7hPa | 2.6V | 00:00:00 | 00:00:00 | 00:00:00 | |
| SP3WXH-11 | 2026-08-31 00:49:46 | 52.54050 | 15.27776 | 56° | 29km/h | 2691m | -10.6m/s | 5.3°C | 24.7% | 737.9hPa | 2.6V | 00:00:00 | 00:00:00 | 00:00:00 | |
| SP3BTT-10 | 2026-08-31 00:49:44 | 52.54046 | 15.27765 | 59° | 29km/h | 2702m | -10.4m/s | 5.2°C | 24.5% | 736.8hPa | 2.6V | 00:00:00 | 00:00:00 | 00:00:00 | |
| EDDB2-12 | 2026-08-31 00:49:28 | 52.53997 | 15.27586 | 70° | 27km/h | 2866m | -10.3m/s | 4.9°C | 20.1% | 722.1hPa | 2.6V | 00:00:00 | 00:00:00 | 00:00:00 | |
| SP3BTT-10 | 2026-08-31 00:49:24 | 52.53986 | 15.27539 | 70° | 29km/h | 2907m | -10.6m/s | 4.6°C | 21.5% | 718.4hPa | 2.6V | 00:00:00 | 00:00:00 | 00:00:00 | |
| EDDB2-11 | 2026-08-31 00:49:19 | 52.53971 | 15.27471 | 69° | 26km/h | 2970m | -10.4m/s | 4.4°C | 19.0% | 713.1hPa | 2.6V | 00:00:00 | 00:00:00 | 00:00:00 | |
| SONDE2-11 | 2026-08-31 00:49:17 | 52.53968 | 15.27460 | 69° | 27km/h | 2980m | -10.3m/s | 4.3°C | 18.9% | 712.2hPa | 2.6V | 00:00:00 | 00:00:00 | 00:00:00 | |
| SP3WXH-11 | 2026-08-31 00:49:15 | 52.53962 | 15.27426 | 76° | 29km/h | 3010m | -10.3m/s | 4.2°C | 18.5% | 709.5hPa | 2.6V | 00:00:00 | 00:00:00 | 00:00:00 | |
| SP3BTT-10 | 2026-08-31 00:49:04 | 52.53936 | 15.27306 | 70° | 33km/h | 3114m | -10.1m/s | 4.0°C | 15.3% | 700.6hPa | 2.6V | 00:00:00 | 00:00:00 | 00:00:00 | |
| EDDB2-12 | 2026-08-31 00:48:57 | 52.53919 | 15.27217 | 69° | 33km/h | 3185m | -10.8m/s | 3.8°C | 13.2% | 694.2hPa | 2.6V | 00:00:00 | 00:00:00 | 00:00:00 | |
| EDDB2-11 | 2026-08-31 00:48:48 | 52.53889 | 15.27090 | 69° | 33km/h | 3291m | -10.6m/s | 3.3°C | 13.6% | 685.4hPa | 2.6V | 00:00:00 | 00:00:00 | 00:00:00 | |
| SONDE2-11 | 2026-08-31 00:48:47 | 52.53886 | 15.27077 | 67° | 35km/h | 3301m | -10.8m/s | 3.2°C | 13.4% | 684.4hPa | 2.6V | 00:00:00 | 00:00:00 | 00:00:00 | |
| SP3WXH-11 | 2026-08-31 00:48:44 | 52.53875 | 15.27037 | 62° | 35km/h | 3334m | -10.8m/s | 3.2°C | 13.2% | 681.9hPa | 2.6V | 00:00:00 | 00:00:00 | 00:00:00 | |
| KRY50SP-1 | 2026-08-31 00:48:39 | 52.53863 | 15.26999 | 66° | 33km/h | 3366m | -10.7m/s | 3.0°C | 13.0% | 679.1hPa | 2.6V | 08:10:00 | 00:00:00 | 00:00:00 | |
| SP3BTT-10 | 2026-08-31 00:48:38 | 52.53856 | 15.26974 | 68° | 40km/h | 3387m | -10.4m/s | 2.9°C | 12.1% | 677.4hPa | 2.6V | 08:09:00 | 00:00:00 | 00:00:00 | |
| KRY50SP-1 | 2026-08-31 00:48:30 | 52.53832 | 15.26876 | 66° | 38km/h | 3461m | -11.2m/s | 2.5°C | 12.0% | 671.1hPa | 2.6V | 08:10:00 | 00:00:00 | 00:00:00 | |
| EDDB2-12 | 2026-08-31 00:48:26 | 52.53812 | 15.26805 | 63° | 37km/h | 3516m | -10.6m/s | 2.1°C | 12.2% | 666.6hPa | 2.6V | 00:00:00 | 00:00:00 | 00:00:00 | |
| KRY50SP-1 | 2026-08-31 00:48:24 | 52.53807 | 15.26791 | 66° | 38km/h | 3527m | -10.7m/s | 2.1°C | 12.5% | 665.8hPa | 2.6V | 08:10:00 | 00:00:00 | 00:00:00 | |
| KRY50SP-1 | 2026-08-31 00:48:19 | 52.53781 | 15.26699 | 63° | 42km/h | 3591m | -11.3m/s | 1.8°C | 11.9% | 660.4hPa | 2.6V | 08:10:00 | 00:00:00 | 00:00:00 | |
| EDDB2-11 | 2026-08-31 00:48:17 | 52.53766 | 15.26654 | 60° | 40km/h | 3624m | -11.2m/s | 1.6°C | 11.6% | 657.7hPa | 2.6V | 00:00:00 | 00:00:00 | 00:00:00 | |
| SONDE2-11 | 2026-08-31 00:48:16 | 52.53756 | 15.26624 | 60° | 40km/h | 3646m | -10.9m/s | 1.5°C | 11.8% | 655.9hPa | 2.6V | 00:00:00 | 00:00:00 | 00:00:00 | |
| SP3WXH-11 | 2026-08-31 00:48:13 | 52.53746 | 15.26594 | 63° | 42km/h | 3667m | -10.9m/s | 1.4°C | 13.0% | 654.2hPa | 2.6V | 00:00:00 | 00:00:00 | 00:00:00 | |
| KRY50SP-1 | 2026-08-31 00:48:10 | 52.53741 | 15.26577 | 66° | 44km/h | 3678m | -10.8m/s | 1.3°C | 13.3% | 653.1hPa | 2.6V | 08:10:00 | 00:00:00 | 00:00:00 | |
| SP3BTT-10 | 2026-08-31 00:48:08 | 52.53726 | 15.26527 | 64° | 47km/h | 3711m | -11.3m/s | 1.0°C | 15.4% | 650.5hPa | 2.6V | 00:00:00 | 00:00:00 | 00:00:00 | |
| KRY50SP-1 | 2026-08-31 00:48:04 | 52.53710 | 15.26476 | 62° | 44km/h | 3745m | -11.7m/s | 0.9°C | 17.9% | 647.9hPa | 2.6V | 08:10:00 | 00:00:00 | 00:00:00 | |
| KRY50SP-1 | 2026-08-31 00:48:00 | 52.53683 | 15.26394 | 65° | 46km/h | 3800m | -11.0m/s | 0.5°C | 19.2% | 643.5hPa | 2.6V | 08:11:00 | 00:00:00 | 00:00:00 | |
| DB0DAN | 2026-08-31 00:47:55 | 52.53655 | 15.26306 | 60° | 46km/h | 3855m | -11.4m/s | 0.2°C | 19.5% | 639.02hPa | 2.6V | 00:00:00 | 00:00:00 | 00:00:00 | |
| EDDB2-11 | 2026-08-31 00:47:45 | 52.53595 | 15.26134 | 59° | 47km/h | 3966m | -11.4m/s | -0.4°C | 13.2% | 630.3hPa | 2.4V | 00:00:00 | 00:00:00 | 00:00:00 | |
| KRY50SP-1 | 2026-08-31 00:47:43 | 52.53588 | 15.26116 | 60° | 47km/h | 3977m | -11.4m/s | -0.5°C | 15.0% | 629.3hPa | 2.4V | 08:11:00 | 00:00:00 | 00:00:00 | |
| DB0DAN | 2026-08-31 00:47:40 | 52.53563 | 15.26050 | 58° | 44km/h | 4022m | -11.2m/s | -1°C | 19.6% | 625.83hPa | 2.4V | 00:00:00 | 00:00:00 | 00:00:00 | |
| SP3BTT-10 | 2026-08-31 00:47:38 | 52.53551 | 15.26016 | 62° | 55km/h | 4044m | -11.0m/s | -1.1°C | 20.0% | 624.1hPa | 2.5V | 00:00:00 | 00:00:00 | 00:00:00 | |
| KRY50SP-1 | 2026-08-31 00:47:37 | 52.53551 | 15.26016 | 63° | 47km/h | 4044m | -11.0m/s | -1.1°C | 19.2% | 624.1hPa | 2.5V | 08:11:00 | 00:00:00 | 00:00:00 | |
| KRY50SP-1 | 2026-08-31 00:47:32 | 52.53521 | 15.25926 | 62° | 49km/h | 4101m | -11.9m/s | -1.2°C | 10.8% | 619.7hPa | 2.5V | 08:11:00 | 00:00:00 | 00:00:00 | |
| DB0DAN | 2026-08-31 00:47:25 | 52.53474 | 15.25785 | 64° | 49km/h | 4190m | -11.7m/s | -1.9°C | 11% | 612.73hPa | 2.5V | 00:00:00 | 00:00:00 | 00:00:00 | |
| EDDB2-12 | 2026-08-31 00:47:24 | 52.53468 | 15.25766 | 63° | 51km/h | 4202m | -11.9m/s | -2.0°C | 10.9% | 611.8hPa | 2.4V | 00:00:00 | 00:00:00 | 00:00:00 | |
| KRY50SP-1 | 2026-08-31 00:47:21 | 52.53456 | 15.25727 | 63° | 51km/h | 4225m | -11.6m/s | -2.2°C | 11.1% | 610.1hPa | 2.4V | 08:11:00 | 00:00:00 | 00:00:00 | |
| KRY50SP-1 | 2026-08-31 00:47:15 | 52.53421 | 15.25612 | 68° | 53km/h | 4293m | -11.2m/s | -2.7°C | 11.8% | 605.0hPa | 2.4V | 08:11:00 | 00:00:00 | 00:00:00 | |
| EDDB2-11 | 2026-08-31 00:47:14 | 52.53411 | 15.25571 | 66° | 55km/h | 4315m | -11.4m/s | -2.8°C | 12.0% | 603.3hPa | 2.4V | 00:00:00 | 00:00:00 | 00:00:00 | |
| DB0DAN | 2026-08-31 00:47:10 | 52.53386 | 15.25487 | 63° | 53km/h | 4361m | -11.9m/s | -3.2°C | 13% | 599.67hPa | 2.4V | 00:00:00 | 00:00:00 | 00:00:00 | |
| KRY50SP-1 | 2026-08-31 00:47:10 | 52.53386 | 15.25487 | 64° | 55km/h | 4361m | -11.9m/s | -3.2°C | 13.1% | 599.7hPa | 2.6V | 08:11:00 | 00:00:00 | 00:00:00 | |
| KRY50SP-1 | 2026-08-31 00:47:03 | 52.53348 | 15.25365 | 65° | 58km/h | 4428m | -11.0m/s | -3.7°C | 14.1% | 594.7hPa | 2.6V | 08:11:00 | 00:00:00 | 00:00:00 | |
| KRY50SP-1 | 2026-08-31 00:46:58 | 52.53313 | 15.25259 | 60° | 57km/h | 4486m | -12.0m/s | -4.1°C | 14.9% | 590.4hPa | 2.6V | 08:11:00 | 00:00:00 | 00:00:00 | |
| DB0DAN | 2026-08-31 00:46:55 | 52.53284 | 15.25179 | 60° | 55km/h | 4531m | -11.1m/s | -4.5°C | 15.6% | 586.97hPa | 2.6V | 00:00:00 | 00:00:00 | 00:00:00 | |
| EDDB2-12 | 2026-08-31 00:46:53 | 52.53261 | 15.25117 | 58° | 58km/h | 4564m | -11.8m/s | -4.8°C | 15.8% | 584.4hPa | 2.4V | 00:00:00 | 00:00:00 | 00:00:00 | |
| KRY50SP-1 | 2026-08-31 00:46:46 | 52.53220 | 15.25018 | 54° | 57km/h | 4623m | -11.6m/s | -4.9°C | 8.0% | 580.2hPa | 2.4V | 08:11:00 | 00:00:00 | 00:00:00 | |
| EDDB2-11 | 2026-08-31 00:46:43 | 52.53186 | 15.24942 | 54° | 57km/h | 4668m | -12.0m/s | -5.0°C | 6.1% | 576.7hPa | 2.4V | 00:00:00 | 00:00:00 | 00:00:00 | |
| KRY50SP-1 | 2026-08-31 00:46:41 | 52.53177 | 15.24922 | 55° | 57km/h | 4680m | -11.9m/s | -5.0°C | 6.2% | 576.0hPa | 2.4V | 08:11:00 | 00:00:00 | 00:00:00 | |
| SP3WXH-11 | 2026-08-31 00:46:40 | 52.53152 | 15.24867 | 51° | 53km/h | 4715m | -11.7m/s | -5.3°C | 6.4% | 573.3hPa | 2.4V | 00:00:00 | 00:00:00 | 00:00:00 | |
| KRY50SP-1 | 2026-08-31 00:46:35 | 52.53127 | 15.24814 | 55° | 53km/h | 4749m | -11.7m/s | -5.5°C | 6.5% | 570.9hPa | 2.4V | 08:11:00 | 00:00:00 | 00:00:00 | |
| KRY50SP-1 | 2026-08-31 00:46:29 | 52.53080 | 15.24706 | 54° | 53km/h | 4818m | -12.1m/s | -5.9°C | 7.3% | 565.8hPa | 2.4V | 08:11:00 | 00:00:00 | 00:00:00 | |
| DB0DAN | 2026-08-31 00:46:25 | 52.53041 | 15.24619 | 57° | 49km/h | 4877m | -11.5m/s | -6.2°C | 8.7% | 561.59hPa | 2.4V | 00:00:00 | 00:00:00 | 00:00:00 | |
| KRY50SP-1 | 2026-08-31 00:46:24 | 52.53041 | 15.24619 | 58° | 53km/h | 4877m | -11.5m/s | -6.2°C | 8.7% | 561.6hPa | 2.6V | 08:11:00 | 00:00:00 | 00:00:00 | |
| EDDB2-12 | 2026-08-31 00:46:22 | 52.53010 | 15.24546 | 53° | 53km/h | 4923m | -11.8m/s | -6.5°C | 8.7% | 558.3hPa | 2.6V | 00:00:00 | 00:00:00 | 00:00:00 | |
| KRY50SP-1 | 2026-08-31 00:46:18 | 52.52995 | 15.24511 | 54° | 51km/h | 4946m | -11.3m/s | -6.7°C | 8.5% | 556.6hPa | 2.6V | 08:12:00 | 00:00:00 | 00:00:00 | |
| KRY50SP-1 | 2026-08-31 00:46:13 | 52.52956 | 15.24420 | 56° | 57km/h | 5003m | -11.9m/s | -7.2°C | 9.3% | 552.5hPa | 2.6V | 08:12:00 | 00:00:00 | 00:00:00 | |
| DB0DAN | 2026-08-31 00:46:10 | 52.52924 | 15.24346 | 54° | 51km/h | 5051m | -11.5m/s | -7.5°C | 9.2% | 549.27hPa | 2.6V | 00:00:00 | 00:00:00 | 00:00:00 | |
| KRY50SP-1 | 2026-08-31 00:46:08 | 52.52916 | 15.24328 | 56° | 55km/h | 5062m | -11.4m/s | -7.6°C | 9.0% | 548.5hPa | 2.6V | 08:12:00 | 00:00:00 | 00:00:00 | |
| KRY50SP-1 | 2026-08-31 00:46:02 | 52.52868 | 15.24212 | 55° | 55km/h | 5132m | -12.2m/s | -8.1°C | 7.6% | 543.6hPa | 2.6V | 08:12:00 | 00:00:00 | 00:00:00 | |
| DB0DAN | 2026-08-31 00:45:55 | 52.52802 | 15.24055 | 55° | 55km/h | 5226m | -11.9m/s | -8.6°C | 6.1% | 536.9hPa | 2.6V | 00:00:00 | 00:00:00 | 00:00:00 | |
| EDDB2-12 | 2026-08-31 00:45:51 | 52.52763 | 15.23959 | 59° | 55km/h | 5285m | -12.0m/s | -9.1°C | 5.9% | 532.8hPa | 2.6V | 00:00:00 | 00:00:00 | 00:00:00 | |
| KRY50SP-1 | 2026-08-31 00:45:50 | 52.52771 | 15.23979 | 58° | 55km/h | 5273m | -11.8m/s | -9.0°C | 5.9% | 533.6hPa | 2.6V | 08:12:00 | 00:00:00 | 00:00:00 | |
| KRY50SP-1 | 2026-08-31 00:45:45 | 52.52734 | 15.23878 | 59° | 57km/h | 5332m | -12.0m/s | -9.5°C | 5.8% | 529.5hPa | 2.6V | 08:12:00 | 00:00:00 | 00:00:00 | |
| EDDB2-11 | 2026-08-31 00:45:41 | 52.52698 | 15.23780 | 61° | 55km/h | 5391m | -11.4m/s | -9.9°C | 5.5% | 525.5hPa | 2.6V | 00:00:00 | 00:00:00 | 00:00:00 | |
| KRY50SP-1 | 2026-08-31 00:45:39 | 52.52690 | 15.23759 | 62° | 58km/h | 5402m | -11.8m/s | -10.0°C | 5.5% | 524.7hPa | 2.6V | 08:12:00 | 00:00:00 | 00:00:00 | |
| SP3WXH-11 | 2026-08-31 00:45:38 | 52.52668 | 15.23697 | 57° | 57km/h | 5438m | -12.3m/s | -10.2°C | 5.1% | 522.2hPa | 2.6V | 00:00:00 | 00:00:00 | 00:00:00 | |
| KRY50SP-1 | 2026-08-31 00:45:34 | 52.52652 | 15.23656 | 58° | 57km/h | 5462m | -12.2m/s | -10.4°C | 5.2% | 520.6hPa | 2.6V | 08:12:00 | 00:00:00 | 00:00:00 | |
| DB0DAN | 2026-08-31 00:45:25 | 52.52572 | 15.23451 | 58° | 55km/h | 5584m | -11.9m/s | -11.3°C | 7.1% | 512.49hPa | 2.6V | 00:00:00 | 00:00:00 | 00:00:00 | |
| KRY50SP-1 | 2026-08-31 00:45:23 | 52.52564 | 15.23431 | 60° | 58km/h | 5596m | -12.0m/s | -11.4°C | 7.3% | 511.7hPa | 2.4V | 08:13:00 | 00:00:00 | 00:00:00 | |
| EDDB2-12 | 2026-08-31 00:45:20 | 52.52523 | 15.23324 | 55° | 60km/h | 5657m | -12.6m/s | -11.8°C | 7.8% | 507.6hPa | 2.4V | 00:00:00 | 00:00:00 | 00:00:00 | |
| KRY50SP-1 | 2026-08-31 00:45:17 | 52.52514 | 15.23303 | 57° | 60km/h | 5670m | -12.3m/s | -11.8°C | 8.5% | 506.8hPa | 2.4V | 08:13:00 | 00:00:00 | 00:00:00 | |
| DB0DAN | 2026-08-31 00:45:10 | 52.52446 | 15.23129 | 56° | 58km/h | 5767m | -12.7m/s | -12.7°C | 15.9% | 500.43hPa | 2.4V | 00:00:00 | 00:00:00 | 00:00:00 | |
| AA1-15 | 2026-08-31 00:45:06 | 52.52413 | 15.23042 | 60° | 64km/h | 5816m | -12.2m/s | -13.1°C | 17.1% | 497.1hPa | 2.6V | 08:17:00 | 02:35:09 | 00:00:00 | |
| KRY50SP-1 | 2026-08-31 00:45:05 | 52.52413 | 15.23042 | 61° | 62km/h | 5816m | -12.2m/s | -13.1°C | 13.9% | 497.1hPa | 2.6V | 08:13:00 | 00:00:00 | 00:00:00 | |
| S3001 | 2026-08-31 00:44:57 | 52.52338 | 15.22843 | 59° | 62km/h | 5927m | -12.6m/s | -14.0°C | 10.4% | 490.0hPa | 2.6V | 00:00:00 | 00:00:00 | 00:00:00 | |
| EDDB2-12 | 2026-08-31 00:44:49 | 52.52266 | 15.22652 | 59° | 60km/h | 6039m | -12.8m/s | -14.7°C | 9.9% | 482.8hPa | 2.6V | 00:00:00 | 00:00:00 | 00:00:00 | |
| KRY50SP-1 | 2026-08-31 00:44:44 | 52.52242 | 15.22587 | 58° | 58km/h | 6077m | -12.6m/s | -15.0°C | 10.5% | 480.4hPa | 2.6V | 08:13:00 | 00:00:00 | 00:00:00 | |
| DB0DAN | 2026-08-31 00:44:40 | 52.52204 | 15.22482 | 61° | 58km/h | 6139m | -12.6m/s | -15.5°C | 11.3% | 476.45hPa | 2.6V | 00:00:00 | 00:00:00 | 00:00:00 | |
| AA1-15 | 2026-08-31 00:44:25 | 52.52092 | 15.22150 | 63° | 62km/h | 6324m | -12.6m/s | -17.1°C | 16.1% | 464.8hPa | 2.4V | 08:17:00 | 02:34:28 | 00:00:00 | |
| DB0DAN | 2026-08-31 00:44:25 | 52.52092 | 15.22150 | 63° | 58km/h | 6325m | -12.6m/s | -17.1°C | 13.1% | 464.79hPa | 2.4V | 00:00:00 | 00:00:00 | 00:00:00 | |
| KRY50SP-1 | 2026-08-31 00:44:21 | 52.52070 | 15.22082 | 62° | 62km/h | 6363m | -12.8m/s | -17.4°C | 13.4% | 462.4hPa | 2.4V | 08:14:00 | 00:00:00 | 00:00:00 | |
| EDDB2-12 | 2026-08-31 00:44:17 | 52.52033 | 15.21972 | 63° | 60km/h | 6425m | -12.3m/s | -18.0°C | 12.1% | 458.6hPa | 2.4V | 00:00:00 | 00:00:00 | 00:00:00 | |
| KRY50SP-1 | 2026-08-31 00:44:16 | 52.52033 | 15.21972 | 64° | 62km/h | 6425m | -12.3m/s | -18.0°C | 12.1% | 458.6hPa | 2.4V | 08:14:00 | 00:00:00 | 00:00:00 | |
| KRY50SP-1 | 2026-08-31 00:44:11 | 52.51995 | 15.21862 | 60° | 58km/h | 6488m | -12.7m/s | -18.5°C | 11.0% | 454.8hPa | 2.4V | 08:14:00 | 00:00:00 | 00:00:00 | |
| EDDB2-11 | 2026-08-31 00:44:08 | 52.51966 | 15.21775 | 60° | 62km/h | 6537m | -12.6m/s | -19.0°C | 10.4% | 451.7hPa | 2.4V | 00:00:00 | 00:00:00 | 00:00:00 | |
| SONDE2-11 | 2026-08-31 00:44:06 | 52.51950 | 15.21731 | 59° | 62km/h | 6562m | -12.9m/s | -19.2°C | 10.0% | 450.3hPa | 2.4V | 00:00:00 | 00:00:00 | 00:00:00 | |
| SP3WXH-11 | 2026-08-31 00:44:04 | 52.51933 | 15.21687 | 58° | 60km/h | 6588m | -12.6m/s | -19.3°C | 9.5% | 448.7hPa | 2.4V | 00:00:00 | 00:00:00 | 00:00:00 | |
| KRY50SP-1 | 2026-08-31 00:44:00 | 52.51909 | 15.21619 | 62° | 64km/h | 6625m | -12.1m/s | -19.6°C | 8.6% | 446.5hPa | 2.4V | 08:14:00 | 00:00:00 | 00:00:00 | |
| DB0DAN | 2026-08-31 00:43:55 | 52.51856 | 15.21477 | 59° | 64km/h | 6700m | -11.9m/s | -20.2°C | 8.4% | 442.05hPa | 2.4V | 00:00:00 | 00:00:00 | 00:00:00 | |
| EDDB2-12 | 2026-08-31 00:43:46 | 52.51771 | 15.21250 | 59° | 73km/h | 6811m | -12.3m/s | -20.9°C | 12.5% | 435.4hPa | 2.4V | 00:00:00 | 00:00:00 | 00:00:00 | |
| KRY50SP-1 | 2026-08-31 00:43:44 | 52.51761 | 15.21224 | 60° | 75km/h | 6823m | -12.8m/s | -21.0°C | 12.6% | 434.7hPa | 2.4V | 08:15:00 | 00:00:00 | 00:00:00 | |
| KRY50SP-1 | 2026-08-31 00:43:39 | 52.51712 | 15.21094 | 61° | 73km/h | 6886m | -12.4m/s | -21.5°C | 19.8% | 431.1hPa | 2.4V | 08:15:00 | 00:00:00 | 00:00:00 | |
| SP3BTT-10 | 2026-08-31 00:43:37 | 52.51684 | 15.21013 | 60° | 84km/h | 6924m | -12.8m/s | -21.8°C | 24.7% | 428.8hPa | 2.4V | 00:00:00 | 00:00:00 | 00:00:00 | |
| SONDE2-11 | 2026-08-31 00:43:35 | 52.51665 | 15.20959 | 58° | 73km/h | 6949m | -12.8m/s | -22.1°C | 23.6% | 427.4hPa | 2.4V | 00:00:00 | 00:00:00 | 00:00:00 | |
| KRY50SP-1 | 2026-08-31 00:43:34 | 52.51664 | 15.20959 | 59° | 75km/h | 6949m | -12.8m/s | -22.1°C | 23.7% | 427.4hPa | 2.4V | 08:15:00 | 00:00:00 | 00:00:00 | |
| SP3WXH-11 | 2026-08-31 00:43:33 | 52.51645 | 15.20907 | 59° | 73km/h | 6974m | -12.3m/s | -22.4°C | 25.2% | 426.0hPa | 2.4V | 00:00:00 | 00:00:00 | 00:00:00 | |
| KRY50SP-1 | 2026-08-31 00:43:29 | 52.51617 | 15.20826 | 62° | 77km/h | 7012m | -12.6m/s | -22.7°C | 32.0% | 423.7hPa | 2.4V | 08:15:00 | 00:00:00 | 00:00:00 | |
| 13BRC | 2026-08-31 00:43:28 | 52.51608 | 15.20798 | 61° | 77km/h | 7025m | -13.4m/s | -22.8°C | 34.0% | 423.1hPa | 2.4V | 08:15:00 | 00:00:00 | 00:00:00 | |
| DB0DAN | 2026-08-31 00:43:25 | 52.51569 | 15.20690 | 60° | 71km/h | 7077m | -12.7m/s | -23.3°C | 41.4% | 420.06hPa | 2.4V | 00:00:00 | 00:00:00 | 00:00:00 | |
| AA1-15 | 2026-08-31 00:43:13 | 52.51456 | 15.20357 | 61° | 78km/h | 7234m | -13.5m/s | -24.9°C | 53.1% | 411.1hPa | 2.5V | 08:17:00 | 02:33:16 | 00:00:00 | |
| DB0DAN | 2026-08-31 00:43:10 | 52.51427 | 15.20274 | 60° | 71km/h | 7274m | -13.3m/s | -25.3°C | 49.1% | 408.86hPa | 2.4V | 00:00:00 | 00:00:00 | 00:00:00 | |
| EDDB2-11 | 2026-08-31 00:43:06 | 52.51390 | 15.20164 | 61° | 77km/h | 7325m | -13.1m/s | -25.8°C | 55.5% | 405.9hPa | 2.4V | 00:00:00 | 00:00:00 | 00:00:00 | |
| KRY50SP-1 | 2026-08-31 00:43:05 | 52.51390 | 15.20164 | 63° | 77km/h | 7325m | -13.1m/s | -25.8°C | 55.6% | 405.9hPa | 2.4V | 08:15:00 | 00:00:00 | 00:00:00 | |
| SONDE2-11 | 2026-08-31 00:43:04 | 52.51371 | 15.20108 | 59° | 77km/h | 7351m | -13.5m/s | -26.0°C | 54.9% | 404.4hPa | 2.4V | 00:00:00 | 00:00:00 | 00:00:00 | |
| SP3WXH-11 | 2026-08-31 00:43:02 | 52.51351 | 15.20053 | 59° | 75km/h | 7378m | -13.2m/s | -26.3°C | 52.8% | 403.1hPa | 2.4V | 00:00:00 | 00:00:00 | 00:00:00 | |
| S3001 | 2026-08-31 00:42:53 | 52.51263 | 15.19801 | 60° | 75km/h | 7495m | -12.5m/s | -27.5°C | 64.1% | 396.5hPa | 2.4V | 00:00:00 | 00:00:00 | 00:00:00 | |
| KRY50SP-1 | 2026-08-31 00:42:49 | 52.51225 | 15.19687 | 62° | 80km/h | 7547m | -13.5m/s | -28.0°C | 68.8% | 393.7hPa | 2.4V | 08:16:00 | 00:00:00 | 00:00:00 | |
| EDDB2-12 | 2026-08-31 00:42:44 | 52.51176 | 15.19541 | 63° | 80km/h | 7612m | -12.8m/s | -28.1°C | 74.4% | 390.2hPa | 2.4V | 00:00:00 | 00:00:00 | 00:00:00 | |
| KRY50SP-1 | 2026-08-31 00:42:42 | 52.51167 | 15.19510 | 64° | 84km/h | 7625m | -13.1m/s | -28.2°C | 75.1% | 389.4hPa | 2.4V | 08:16:00 | 00:00:00 | 00:00:00 | |
| DB0DAN | 2026-08-31 00:42:40 | 52.51137 | 15.19416 | 63° | 82km/h | 7664m | -13m/s | -28.4°C | 76.3% | 387.33hPa | 2.4V | 00:00:00 | 00:00:00 | 00:00:00 | |
| KRY50SP-1 | 2026-08-31 00:42:37 | 52.51118 | 15.19353 | 64° | 84km/h | 7689m | -13.0m/s | -28.5°C | 77.1% | 385.9hPa | 2.4V | 08:16:00 | 00:00:00 | 00:00:00 | |
| EDDB2-11 | 2026-08-31 00:42:35 | 52.51091 | 15.19257 | 66° | 86km/h | 7728m | -13.0m/s | -28.5°C | 77.0% | 383.9hPa | 2.4V | 00:00:00 | 00:00:00 | 00:00:00 | |
| SONDE2-11 | 2026-08-31 00:42:33 | 52.51073 | 15.19191 | 65° | 86km/h | 7754m | -13.4m/s | -28.2°C | 77.3% | 382.4hPa | 2.4V | 00:00:00 | 00:00:00 | 00:00:00 | |
| SP3WXH-11 | 2026-08-31 00:42:31 | 52.51055 | 15.19126 | 65° | 84km/h | 7780m | -13.4m/s | -28.2°C | 77.3% | 381.1hPa | 2.4V | 00:00:00 | 00:00:00 | 00:00:00 | |
| DB0DAN | 2026-08-31 00:42:25 | 52.51002 | 15.18925 | 66° | 86km/h | 7861m | -13.8m/s | -28.5°C | 77.7% | 376.87hPa | 2.4V | 00:00:00 | 00:00:00 | 00:00:00 | |
| SP3BTT-10 | 2026-08-31 00:42:22 | 52.50974 | 15.18823 | 66° | 80km/h | 7902m | -13.9m/s | -28.8°C | 88.5% | 374.7hPa | 2.4V | 00:00:00 | 00:00:00 | 00:00:00 | |
| 13BRC | 2026-08-31 00:42:19 | 52.50956 | 15.18756 | 67° | 88km/h | 7929m | -13.3m/s | -29.1°C | 77.8% | 373.3hPa | 2.4V | 08:16:00 | 00:00:00 | 00:00:00 | |
| KRY50SP-1 | 2026-08-31 00:42:14 | 52.50902 | 15.18551 | 67° | 89km/h | 8011m | -14.3m/s | -29.7°C | 78.1% | 369.1hPa | 2.4V | 08:16:00 | 00:00:00 | 00:00:00 | |
| EDDB2-12 | 2026-08-31 00:42:13 | 52.50893 | 15.18517 | 65° | 88km/h | 8025m | -14.2m/s | -29.8°C | 77.9% | 368.4hPa | 2.4V | 00:00:00 | 00:00:00 | 00:00:00 | |
| DB0DAN | 2026-08-31 00:42:10 | 52.50865 | 15.18418 | 65° | 82km/h | 8067m | -13.9m/s | -30.2°C | 78.5% | 366.18hPa | 2.4V | 00:00:00 | 00:00:00 | 00:00:00 | |
| KRY50SP-1 | 2026-08-31 00:42:07 | 52.50847 | 15.18352 | 67° | 88km/h | 8095m | -13.3m/s | -30.4°C | 78.8% | 364.8hPa | 2.5V | 08:16:00 | 00:00:00 | 00:00:00 | |
| EDDB2-11 | 2026-08-31 00:42:04 | 52.50811 | 15.18218 | 66° | 88km/h | 8149m | -13.5m/s | -30.8°C | 78.4% | 362.0hPa | 2.5V | 00:00:00 | 00:00:00 | 00:00:00 | |
| SONDE2-11 | 2026-08-31 00:42:02 | 52.50793 | 15.18150 | 65° | 88km/h | 8176m | -14.2m/s | -31.0°C | 78.5% | 360.6hPa | 2.5V | 00:00:00 | 00:00:00 | 00:00:00 | |
| SP3WXH-11 | 2026-08-31 00:42:00 | 52.50775 | 15.18084 | 65° | 86km/h | 8204m | -14.0m/s | -31.3°C | 78.5% | 359.3hPa | 2.5V | 00:00:00 | 00:00:00 | 00:00:00 | |
| 13BRC | 2026-08-31 00:41:58 | 52.50766 | 15.18052 | 66° | 84km/h | 8218m | -14.0m/s | -31.4°C | 78.3% | 358.5hPa | 2.5V | 08:17:00 | 00:00:00 | 00:00:00 | |
| DB0DAN | 2026-08-31 00:41:55 | 52.50731 | 15.17926 | 67° | 78km/h | 8273m | -13.4m/s | -31.7°C | 77.7% | 355.65hPa | 2.5V | 00:00:00 | 00:00:00 | 00:00:00 | |
| S3001 | 2026-08-31 00:41:51 | 52.50697 | 15.17799 | 65° | 82km/h | 8328m | -14.4m/s | -32.1°C | 76.8% | 352.9hPa | 2.4V | 00:00:00 | 00:00:00 | 00:00:00 | |
| KRY50SP-1 | 2026-08-31 00:41:45 | 52.50654 | 15.17648 | 66° | 78km/h | 8399m | -13.9m/s | -32.6°C | 76.7% | 349.4hPa | 2.4V | 08:17:00 | 00:00:00 | 00:00:00 | |
| DB0DAN | 2026-08-31 00:41:40 | 52.50603 | 15.17470 | 63° | 75km/h | 8482m | -14.7m/s | -33.2°C | 74.7% | 345.24hPa | 2.4V | 00:00:00 | 00:00:00 | 00:00:00 | |
| AA1-15 | 2026-08-31 00:41:33 | 52.50539 | 15.17273 | 63° | 77km/h | 8585m | -14.9m/s | -34°C | 81.5% | 340.3hPa | 2.4V | 08:17:00 | 02:31:36 | 00:00:00 | |
| EDDB2-11 | 2026-08-31 00:41:33 | 52.50539 | 15.17273 | 63° | 75km/h | 8585m | -14.9m/s | -34.0°C | 74.3% | 340.3hPa | 2.5V | 00:00:00 | 00:00:00 | 00:00:00 | |
| SONDE2-11 | 2026-08-31 00:41:31 | 52.50522 | 15.17218 | 62° | 75km/h | 8614m | -14.7m/s | -34.2°C | 73.5% | 338.8hPa | 2.5V | 00:00:00 | 00:00:00 | 00:00:00 | |
| KRY50SP-1 | 2026-08-31 00:41:30 | 52.50513 | 15.17190 | 64° | 77km/h | 8629m | -14.8m/s | -34.3°C | 73.4% | 338.1hPa | 2.5V | 08:17:00 | 00:00:00 | 00:00:00 | |
| SP3WXH-11 | 2026-08-31 00:41:29 | 52.50504 | 15.17161 | 62° | 77km/h | 8643m | -14.8m/s | -34.4°C | 73.2% | 337.5hPa | 2.5V | 00:00:00 | 00:00:00 | 00:00:00 | |
| DB0DAN | 2026-08-31 00:41:25 | 52.50465 | 15.17047 | 60° | 75km/h | 8701m | -14.1m/s | -34.9°C | 73.1% | 334.66hPa | 2.5V | 00:00:00 | 00:00:00 | 00:00:00 | |
| AA1-15 | 2026-08-31 00:41:22 | 52.50436 | 15.16964 | 62° | 78km/h | 8741m | -13.5m/s | -35.2°C | 79.8% | 332.7hPa | 2.4V | 08:17:00 | 02:31:25 | 00:00:00 | |
| AA1-15 | 2026-08-31 00:41:12 | 52.50344 | 15.16663 | 67° | 84km/h | 8886m | -14.5m/s | -36.2°C | 80.2% | 325.8hPa | 2.6V | 08:18:42 | 02:31:15 | 00:00:00 | |
| AA1-15 | 2026-08-31 00:41:01 | 52.50262 | 15.16301 | 72° | 82km/h | 9044m | -15.2m/s | -37.2°C | 78.8% | 318.5hPa | 2.4V | 08:18:42 | 02:31:04 | 00:00:00 | |
| SONDE2-11 | 2026-08-31 00:41:00 | 52.50256 | 15.16269 | 72° | 80km/h | 9059m | -14.9m/s | -37.3°C | 69.0% | 317.8hPa | 2.4V | 00:00:00 | 00:00:00 | 00:00:00 | |
| SP6BVK | 2026-08-31 00:40:58 | 52.50245 | 15.16204 | 76° | 82km/h | 9088m | -14.5m/s | -37.6°C | 67.8% | 316.4hPa | 2.4V | 08:17:00 | 00:00:00 | 00:00:00 | |
| 13BRC | 2026-08-31 00:40:57 | 52.50245 | 15.16204 | 76° | 82km/h | 9088m | -14.5m/s | -37.6°C | 67.8% | 316.4hPa | 2.4V | 08:17:00 | 00:00:00 | 00:00:00 | |
| DB0DAN | 2026-08-31 00:40:55 | 52.50228 | 15.16103 | 74° | 80km/h | 9131m | -14.8m/s | -38°C | 67.4% | 314.46hPa | 2.4V | 00:00:00 | 00:00:00 | 00:00:00 | |
| S3001 | 2026-08-31 00:40:49 | 52.50195 | 15.15906 | 75° | 82km/h | 9217m | -14.8m/s | -38.7°C | 65.7% | 310.5hPa | 2.4V | 00:00:00 | 00:00:00 | 00:00:00 | |
| KRY50SP-1 | 2026-08-31 00:40:45 | 52.50179 | 15.15806 | 75° | 82km/h | 9260m | -15.2m/s | -39.1°C | 65.5% | 308.5hPa | 2.4V | 08:17:00 | 00:00:00 | 00:00:00 | |
| DB0DAN | 2026-08-31 00:40:40 | 52.50146 | 15.15602 | 74° | 84km/h | 9345m | -15.1m/s | -39.9°C | 66.2% | 304.52hPa | 2.4V | 00:00:00 | 00:00:00 | 00:00:00 | |
| KRY50SP-1 | 2026-08-31 00:40:39 | 52.50146 | 15.15602 | 75° | 88km/h | 9345m | -15.1m/s | -39.9°C | 66.3% | 304.5hPa | 2.4V | 08:17:00 | 00:00:00 | 00:00:00 | |
| AA1-15 | 2026-08-31 00:40:22 | 52.50019 | 15.14993 | 67° | 84km/h | 9611m | -15.3m/s | -42°C | 74.4% | 292.8hPa | 2.4V | 08:18:42 | 02:30:25 | 00:00:00 | |
| SONDE2-12 | 2026-08-31 00:40:15 | 52.49960 | 15.14767 | 64° | 84km/h | 9717m | -15.5m/s | -42.8°C | 75.4% | 288.3hPa | 2.4V | 00:00:00 | 00:00:00 | 00:00:00 | |
| DB0DAN | 2026-08-31 00:40:10 | 52.49914 | 15.14606 | 65° | 84km/h | 9792m | -15.5m/s | -43.5°C | 64.2% | 285.11hPa | 2.4V | 00:00:00 | 00:00:00 | 00:00:00 | |
| EDDB2-12 | 2026-08-31 00:40:09 | 52.49904 | 15.14574 | 62° | 84km/h | 9808m | -15.8m/s | -43.6°C | 64.4% | 284.5hPa | 2.5V | 00:00:00 | 00:00:00 | 00:00:00 | |
| KRY50SP-1 | 2026-08-31 00:40:06 | 52.49884 | 15.14510 | 64° | 86km/h | 9839m | -15.1m/s | -43.9°C | 64.8% | 283.2hPa | 2.5V | 08:18:00 | 00:00:00 | 00:00:00 | |
| EDDB2-11 | 2026-08-31 00:40:00 | 52.49816 | 15.14282 | 63° | 88km/h | 9946m | -16.3m/s | -44.9°C | 65.7% | 278.6hPa | 2.5V | 00:00:00 | 00:00:00 | 00:00:00 | |
| SONDE2-11 | 2026-08-31 00:39:58 | 52.49795 | 15.14215 | 63° | 88km/h | 9977m | -15.8m/s | -45.1°C | 66.7% | 277.3hPa | 2.5V | 00:00:00 | 00:00:00 | 00:00:00 | |
| SP3WXH-11 | 2026-08-31 00:39:56 | 52.49775 | 15.14149 | 64° | 89km/h | 10008m | -15.3m/s | -45.4°C | 67.7% | 276.0hPa | 2.5V | 00:00:00 | 00:00:00 | 00:00:00 | |
| DB0DAN | 2026-08-31 00:39:55 | 52.49765 | 15.14115 | 66° | 88km/h | 10024m | -15.3m/s | -45.5°C | 67.9% | 275.31hPa | 2.5V | 00:00:00 | 00:00:00 | 00:00:00 | |
| S3001 | 2026-08-31 00:39:47 | 52.49685 | 15.13827 | 67° | 95km/h | 10146m | -15.4m/s | -46.5°C | 68.7% | 270.3hPa | 2.5V | 00:00:00 | 00:00:00 | 00:00:00 | |
| SONDE2-12 | 2026-08-31 00:39:44 | 52.49655 | 15.13715 | 67° | 99km/h | 10193m | -16.0m/s | -46.9°C | 82.3% | 268.3hPa | 2.5V | 00:00:00 | 00:00:00 | 00:00:00 | |
| DB0DAN | 2026-08-31 00:39:40 | 52.49617 | 15.13567 | 68° | 91km/h | 10256m | -15.1m/s | -47.5°C | 69% | 265.85hPa | 2.5V | 00:00:00 | 00:00:00 | 00:00:00 | |
| AA1-15 | 2026-08-31 00:39:28 | 52.49511 | 15.13112 | 68° | 102km/h | 10442m | -16.4m/s | -49.3°C | 83% | 258.5hPa | 2.4V | 08:20:24 | 02:29:31 | 00:00:00 | |
| DB0DAN | 2026-08-31 00:39:25 | 52.49484 | 15.12995 | 69° | 95km/h | 10492m | -15.4m/s | -49.7°C | 71.7% | 256.58hPa | 2.6V | 00:00:00 | 00:00:00 | 00:00:00 | |
| AA1-15 | 2026-08-31 00:39:17 | 52.49407 | 15.12678 | 68° | 102km/h | 10619m | -15.6m/s | -50.7°C | 82.8% | 251.7hPa | 2.6V | 08:20:24 | 02:29:20 | 00:00:00 | |
| SONDE2-12 | 2026-08-31 00:39:13 | 52.49357 | 15.12477 | 66° | 106km/h | 10699m | -16.3m/s | -51.4°C | 81.8% | 248.6hPa | 2.6V | 00:00:00 | 00:00:00 | 00:00:00 | |
| AA1-15 | 2026-08-31 00:39:02 | 52.49252 | 15.12076 | 67° | 104km/h | 10860m | -15.8m/s | -52.7°C | 72% | 242.7hPa | 2.6V | 08:20:24 | 02:29:05 | 00:00:00 | |
| EDDB2-11 | 2026-08-31 00:38:58 | 52.49200 | 15.11872 | 67° | 106km/h | 10938m | -16.0m/s | -53.5°C | 57.0% | 239.7hPa | 2.4V | 00:00:00 | 00:00:00 | 00:00:00 | |
| SONDE2-11 | 2026-08-31 00:38:56 | 52.49180 | 15.11792 | 67° | 104km/h | 10969m | -15.8m/s | -53.6°C | 54.8% | 238.5hPa | 2.4V | 00:00:00 | 00:00:00 | 00:00:00 | |
| DB0DAN | 2026-08-31 00:38:55 | 52.49180 | 15.11792 | 68° | 99km/h | 10969m | -15.8m/s | -53.6°C | 54.8% | 238.53hPa | 2.4V | 00:00:00 | 00:00:00 | 00:00:00 | |
| AA1-15 | 2026-08-31 00:38:48 | 52.49099 | 15.11467 | 68° | 104km/h | 11095m | -15.8m/s | -54.6°C | 55.1% | 233.8hPa | 2.4V | 08:20:24 | 02:28:50 | 00:00:00 | |
| KRY50SP-1 | 2026-08-31 00:38:46 | 52.49089 | 15.11427 | 70° | 106km/h | 11111m | -15.8m/s | -54.7°C | 45.5% | 233.2hPa | 2.5V | 08:19:00 | 00:00:00 | 00:00:00 | |
| S3001 | 2026-08-31 00:38:45 | 52.49072 | 15.11343 | 68° | 110km/h | 11142m | -16.5m/s | -54.9°C | 42.6% | 232.0hPa | 2.5V | 00:00:00 | 00:00:00 | 00:00:00 | |
| DB0DAN | 2026-08-31 00:38:40 | 52.49033 | 15.11172 | 70° | 104km/h | 11206m | -15.9m/s | -55.1°C | 36.6% | 229.73hPa | 2.5V | 00:00:00 | 00:00:00 | 00:00:00 | |
| AA1-15 | 2026-08-31 00:38:32 | 52.48956 | 15.10819 | 71° | 111km/h | 11333m | -16.3m/s | -55.5°C | 34.4% | 225.1hPa | 2.4V | 08:20:24 | 02:28:35 | 00:00:00 | |
| 13BRC | 2026-08-31 00:38:31 | 52.48956 | 15.10819 | 72° | 111km/h | 11333m | -16.3m/s | -55.5°C | 28.2% | 225.1hPa | 2.4V | 08:20:00 | 00:00:00 | 00:00:00 | |
| KRY50SP-1 | 2026-08-31 00:38:29 | 52.48938 | 15.10731 | 72° | 113km/h | 11365m | -17.2m/s | -55.6°C | 26.5% | 223.9hPa | 2.4V | 08:20:00 | 00:00:00 | 00:00:00 | |
| MECKS9 | 2026-08-31 00:38:28 | 52.48928 | 15.10686 | 71° | 113km/h | 11382m | -17.7m/s | -55.5°C | 25.9% | 223.4hPa | 2.4V | 08:20:00 | 00:00:00 | 00:00:00 | |
| DB0DAN | 2026-08-31 00:38:25 | 52.48890 | 15.10515 | 72° | 104km/h | 11452m | -17.9m/s | -55.9°C | 24.4% | 220.89hPa | 2.4V | 00:00:00 | 00:00:00 | 00:00:00 | |
| AA1-15 | 2026-08-31 00:38:22 | 52.48847 | 15.10298 | 72° | 113km/h | 11540m | -17.9m/s | -56.1°C | 26.6% | 217.8hPa | 2.5V | 08:20:24 | 02:28:23 | 00:00:00 | |
| KRY50SP-1 | 2026-08-31 00:38:20 | 52.48847 | 15.10298 | 73° | 113km/h | 11540m | -17.9m/s | -56.1°C | 22.0% | 217.8hPa | 2.4V | 08:20:00 | 00:00:00 | 00:00:00 | |
| SP3BTT-10 | 2026-08-31 00:38:19 | 52.48838 | 15.10253 | 72° | 100km/h | 11558m | -18.4m/s | -56.0°C | 31.0% | 217.2hPa | 2.4V | 00:00:00 | 00:00:00 | 00:00:00 | |
| KRY50SP-1 | 2026-08-31 00:38:15 | 52.48804 | 15.10082 | 73° | 108km/h | 11631m | -17.8m/s | -56.2°C | 18.3% | 214.8hPa | 2.4V | 08:20:00 | 00:00:00 | 00:00:00 | |
| SONDE2-12 | 2026-08-31 00:38:11 | 52.48650 | 15.09301 | 72° | 111km/h | 11956m | -17.9m/s | -55.0°C | 10.4% | 204.3hPa | 2.4V | 00:00:00 | 00:00:00 | 00:00:00 | |
| DB0DAN | 2026-08-31 00:38:10 | 52.48764 | 15.09869 | 72° | 104km/h | 11720m | -19.4m/s | -55.9°C | 14.1% | 211.87hPa | 2.4V | 00:00:00 | 00:00:00 | 00:00:00 | |
| AA1-15 | 2026-08-31 00:38:09 | 52.48756 | 15.09826 | 72° | 111km/h | 11739m | -19m/s | -55.9°C | 17.1% | 211.2hPa | 2.4V | 08:20:24 | 02:28:12 | 00:00:00 | |
| AA1-15 | 2026-08-31 00:37:59 | 52.48658 | 15.09345 | 72° | 111km/h | 11938m | -17.9m/s | -55°C | 11.3% | 204.8hPa | 2.5V | 08:20:24 | 02:28:01 | 00:00:00 | |
| AA1-15 | 2026-08-31 00:37:48 | 52.48584 | 15.08903 | 77° | 110km/h | 12113m | -17.5m/s | -54.9°C | 9% | 199.3hPa | 2.4V | 08:21:15 | 02:27:51 | 00:00:00 | |
| KRY50SP-1 | 2026-08-31 00:37:46 | 52.48577 | 15.08858 | 78° | 110km/h | 12131m | -17.2m/s | -54.9°C | 6.8% | 198.8hPa | 2.4V | 08:21:00 | 00:00:00 | 00:00:00 | |
| DB0DAN | 2026-08-31 00:37:40 | 52.48532 | 15.08537 | 78° | 110km/h | 12251m | -17.3m/s | -54.9°C | 5.9% | 194.95hPa | 2.4V | 00:00:00 | 00:00:00 | 00:00:00 | |
| AA1-15 | 2026-08-31 00:37:38 | 52.48514 | 15.08397 | 78° | 115km/h | 12302m | -18m/s | -54.8°C | 7.1% | 193.3hPa | 2.5V | 08:21:15 | 02:27:40 | 00:00:00 | |
| AA1-15 | 2026-08-31 00:37:27 | 52.48452 | 15.07894 | 79° | 108km/h | 12499m | -17.2m/s | -54.7°C | 6.1% | 187.5hPa | 2.4V | 08:21:15 | 02:27:29 | 00:00:00 | |
| DB0DAN | 2026-08-31 00:37:25 | 52.48447 | 15.07851 | 79° | 102km/h | 12516m | -17.8m/s | -54.7°C | 4.9% | 186.95hPa | 2.4V | 00:00:00 | 00:00:00 | 00:00:00 | |
| AA1-15 | 2026-08-31 00:37:16 | 52.48392 | 15.07478 | 74° | 102km/h | 12680m | -18.3m/s | -55.1°C | 5.6% | 182.3hPa | 2.5V | 08:21:15 | 02:27:19 | 00:00:00 | |
| KRY50SP-1 | 2026-08-31 00:37:14 | 52.48378 | 15.07396 | 73° | 99km/h | 12717m | -18.2m/s | -55.2°C | 4.4% | 181.3hPa | 2.6V | 08:21:00 | 00:00:00 | 00:00:00 | |
| DB0DAN | 2026-08-31 00:37:10 | 52.48350 | 15.07239 | 73° | 93km/h | 12789m | -18.4m/s | -55.1°C | 4% | 179.23hPa | 2.6V | 00:00:00 | 00:00:00 | 00:00:00 | |
| SONDE2-12 | 2026-08-31 00:37:09 | 52.48334 | 15.07163 | 73° | 95km/h | 12826m | -18.0m/s | -54.4°C | 4.5% | 178.2hPa | 2.4V | 00:00:00 | 00:00:00 | 00:00:00 | |
| AA1-15 | 2026-08-31 00:37:05 | 52.48314 | 15.07052 | 74° | 93km/h | 12882m | -18.6m/s | -53.7°C | 3.5% | 176.7hPa | 2.4V | 08:21:15 | 02:27:08 | 00:00:00 | |
| AA1-15 | 2026-08-31 00:36:54 | 52.48241 | 15.06674 | 71° | 84km/h | 13083m | -18.9m/s | -53.8°C | 2.9% | 171.2hPa | 2.4V | 08:22:06 | 02:26:57 | 00:00:00 | |
| EDDB2-11 | 2026-08-31 00:36:54 | 52.48234 | 15.06640 | 71° | 86km/h | 13102m | -18.5m/s | -53.4°C | 2.7% | 170.7hPa | 2.6V | 00:00:00 | 00:00:00 | 00:00:00 | |
| SONDE2-11 | 2026-08-31 00:36:51 | 52.48220 | 15.06572 | 71° | 88km/h | 13138m | -18.7m/s | -53.3°C | 2.6% | 169.7hPa | 2.6V | 00:00:00 | 00:00:00 | 00:00:00 | |
| SP3WXH-11 | 2026-08-31 00:36:50 | 52.48213 | 15.06537 | 72° | 88km/h | 13156m | -18.7m/s | -53.4°C | 2.6% | 169.2hPa | 2.6V | 00:00:00 | 00:00:00 | 00:00:00 | |
| AA1-15 | 2026-08-31 00:36:43 | 52.48166 | 15.06297 | 76° | 88km/h | 13286m | -18.7m/s | -53.6°C | 2.4% | 165.8hPa | 2.6V | 08:22:06 | 02:26:46 | 00:00:00 | |
| DB0DAN | 2026-08-31 00:36:40 | 52.48150 | 15.06191 | 76° | 82km/h | 13342m | -18.4m/s | -53.4°C | 2.4% | 164.37hPa | 2.4V | 00:00:00 | 00:00:00 | 00:00:00 | |
| AA1-15 | 2026-08-31 00:36:33 | 52.48113 | 15.05947 | 75° | 82km/h | 13477m | -18.9m/s | -53.1°C | 2.1% | 161hPa | 2.4V | 08:22:06 | 02:26:36 | 00:00:00 | |
| AA1-15 | 2026-08-31 00:36:23 | 52.48049 | 15.05602 | 73° | 73km/h | 13687m | -19.2m/s | -53.4°C | 2% | 155.9hPa | 2.6V | 08:22:06 | 02:26:25 | 00:00:00 | |
| AA1-15 | 2026-08-31 00:36:12 | 52.47995 | 15.05325 | 69° | 69km/h | 13879m | -19.7m/s | -53.3°C | 1.7% | 151.3hPa | 2.4V | 08:22:06 | 02:26:15 | 00:00:00 | |
| DB0DAN | 2026-08-31 00:36:10 | 52.47981 | 15.05272 | 67° | 68km/h | 13918m | -20.1m/s | -53.2°C | 2% | 150.31hPa | 2.6V | 00:00:00 | 00:00:00 | 00:00:00 | |
| SONDE2-12 | 2026-08-31 00:36:07 | 52.47961 | 15.05191 | 68° | 71km/h | 13979m | -19.4m/s | -53.1°C | 2.3% | 149.0hPa | 2.4V | 00:00:00 | 00:00:00 | 00:00:00 | |
| AA1-15 | 2026-08-31 00:36:02 | 52.47926 | 15.05043 | 70° | 77km/h | 14078m | -19.1m/s | -53.6°C | 1.6% | 146.7hPa | 2.4V | 08:22:57 | 02:26:05 | 00:00:00 | |
| EDDB2-12 | 2026-08-31 00:36:01 | 52.47913 | 15.04982 | 70° | 78km/h | 14117m | -20.3m/s | -53.9°C | 1.9% | 145.8hPa | 2.4V | 00:00:00 | 00:00:00 | 00:00:00 | |
| 3Z3Z-3 | 2026-08-31 00:35:57 | 52.47899 | 15.04921 | 70° | 77km/h | 14158m | -20.1m/s | -54.0°C | 1.9% | 145.0hPa | 2.4V | 00:00:00 | 00:00:00 | 00:00:00 | |
| DB0DAN | 2026-08-31 00:35:55 | 52.47880 | 15.04835 | 70° | 69km/h | 14218m | -19.8m/s | -53.7°C | 1.9% | 143.65hPa | 2.4V | 00:00:00 | 00:00:00 | 00:00:00 | |
| EDDB2-11 | 2026-08-31 00:35:52 | 52.47855 | 15.04728 | 67° | 66km/h | 14298m | -20.3m/s | -53.6°C | 1.9% | 141.8hPa | 2.6V | 00:00:00 | 00:00:00 | 00:00:00 | |
| AA1-15 | 2026-08-31 00:35:52 | 52.47855 | 15.04728 | 68° | 68km/h | 14298m | -20.3m/s | -53.6°C | 1.5% | 141.8hPa | 2.6V | 08:22:57 | 02:25:54 | 00:00:00 | |
| SONDE2-11 | 2026-08-31 00:35:49 | 52.47842 | 15.04678 | 67° | 66km/h | 14337m | -20.0m/s | -53.8°C | 1.9% | 141.0hPa | 2.6V | 00:00:00 | 00:00:00 | 00:00:00 | |
| SP3WXH-11 | 2026-08-31 00:35:48 | 52.47829 | 15.04627 | 65° | 68km/h | 14378m | -20.8m/s | -54.0°C | 1.9% | 140.1hPa | 2.6V | 00:00:00 | 00:00:00 | 00:00:00 | |
| AA1-15 | 2026-08-31 00:35:41 | 52.47772 | 15.04423 | 64° | 68km/h | 14544m | -20.7m/s | -54°C | 1.5% | 136.6hPa | 2.6V | 08:22:57 | 02:25:42 | 00:00:00 | |
| DB0DAN | 2026-08-31 00:35:40 | 52.47779 | 15.04448 | 64° | 66km/h | 14523m | -20.9m/s | -54.1°C | 1.9% | 137.07hPa | 2.4V | 00:00:00 | 00:00:00 | 00:00:00 | |
| SONDE2-12 | 2026-08-31 00:35:36 | 52.47750 | 15.04346 | 64° | 68km/h | 14607m | -20.3m/s | -53.9°C | 2.3% | 135.3hPa | 2.4V | 00:00:00 | 00:00:00 | 00:00:00 | |
| AA1-15 | 2026-08-31 00:35:28 | 52.47681 | 15.04148 | 57° | 69km/h | 14765m | -19.8m/s | -53.2°C | 1.5% | 131.8hPa | 2.4V | 08:22:57 | 02:25:31 | 00:00:00 | |
| AA1-15 | 2026-08-31 00:35:17 | 52.47589 | 15.03864 | 66° | 75km/h | 14989m | -21.5m/s | -53.1°C | 1.4% | 127.2hPa | 2.4V | 08:23:48 | 02:25:20 | 00:00:00 | |
| SP3WXH-11 | 2026-08-31 00:35:17 | 52.47582 | 15.03835 | 67° | 75km/h | 15010m | -20.7m/s | -53.1°C | 1.7% | 126.8hPa | 2.4V | 00:00:00 | 00:00:00 | 00:00:00 | |
| KRY50SP-1 | 2026-08-31 00:35:13 | 52.47561 | 15.03743 | 73° | 80km/h | 15071m | -21.2m/s | -53.2°C | 1.7% | 125.6hPa | 2.4V | 08:23:00 | 00:00:00 | 00:00:00 | |
| DB0DAN | 2026-08-31 00:35:10 | 52.47543 | 15.03646 | 73° | 75km/h | 15135m | -21.3m/s | -53.4°C | 1.6% | 124.4hPa | 2.4V | 00:00:00 | 00:00:00 | 00:00:00 | |
| AA1-15 | 2026-08-31 00:35:07 | 52.47526 | 15.03525 | 78° | 69km/h | 15221m | -21.7m/s | -52.7°C | 0.9% | 122.8hPa | 2.4V | 08:23:48 | 02:25:09 | 00:00:00 | |
| SONDE2-12 | 2026-08-31 00:35:05 | 52.47523 | 15.03498 | 80° | 66km/h | 15243m | -21.8m/s | -52.7°C | 1.7% | 122.4hPa | 2.6V | 00:00:00 | 00:00:00 | 00:00:00 | |
| AA1-15 | 2026-08-31 00:34:56 | 52.47505 | 15.03287 | 75° | 42km/h | 15470m | -24.5m/s | -52°C | 0.6% | 118.2hPa | 2.6V | 08:23:48 | 02:24:58 | 00:00:00 | |
| EDDB2-11 | 2026-08-31 00:34:49 | 52.47482 | 15.03201 | 59° | 37km/h | 15613m | -22.9m/s | -52.3°C | 1.3% | 115.6hPa | 2.6V | 00:00:00 | 00:00:00 | 00:00:00 | |
| SONDE2-11 | 2026-08-31 00:34:47 | 52.47472 | 15.03175 | 57° | 38km/h | 15659m | -23.8m/s | -52.6°C | 1.4% | 114.8hPa | 2.6V | 00:00:00 | 00:00:00 | 00:00:00 | |
| SP3WXH-11 | 2026-08-31 00:34:46 | 52.47462 | 15.03148 | 53° | 40km/h | 15706m | -24.4m/s | -52.9°C | 1.4% | 114.0hPa | 2.6V | 00:00:00 | 00:00:00 | 00:00:00 | |
| AA1-15 | 2026-08-31 00:34:45 | 52.47456 | 15.03133 | 53° | 44km/h | 15730m | -24.1m/s | -53°C | 0.8% | 113.6hPa | 2.6V | 08:23:48 | 02:24:47 | 00:00:00 | |
| DL2RXE-15 | 2026-08-31 00:34:43 | 52.47456 | 15.03133 | 54° | 44km/h | 15730m | -24.1m/s | -53.0°C | 1.4% | 113.6hPa | 2.4V | 00:00:00 | 00:00:00 | 00:00:00 | |
| DB0DAN | 2026-08-31 00:34:40 | 52.47429 | 15.03075 | 54° | 44km/h | 15825m | -23.8m/s | -53.3°C | 1.4% | 111.93hPa | 2.4V | 00:00:00 | 00:00:00 | 00:00:00 | |
| AA1-15 | 2026-08-31 00:34:34 | 52.47386 | 15.02962 | 63° | 55km/h | 15976m | -23.6m/s | -52.7°C | 0.7% | 109.4hPa | 2.4V | 08:23:48 | 02:24:37 | 00:00:00 | |
| SONDE2-12 | 2026-08-31 00:34:34 | 52.47386 | 15.02962 | 63° | 53km/h | 15976m | -23.6m/s | -52.7°C | 1.6% | 109.4hPa | 2.4V | 00:00:00 | 00:00:00 | 00:00:00 | |
| AA1-15 | 2026-08-31 00:34:23 | 52.47334 | 15.02761 | 63° | 46km/h | 16247m | -24.8m/s | -51.8°C | 0.4% | 105hPa | 2.4V | 08:24:39 | 02:24:26 | 00:00:00 | |
| AA1-15 | 2026-08-31 00:34:12 | 52.47260 | 15.02591 | 55° | 49km/h | 16527m | -25.4m/s | -52.9°C | 0.6% | 100.6hPa | 2.4V | 08:24:39 | 02:24:15 | 00:00:00 | |
| DB0DAN | 2026-08-31 00:34:10 | 52.47246 | 15.02558 | 56° | 47km/h | 16577m | -25.6m/s | -52.6°C | 1.2% | 99.79hPa | 2.6V | 00:00:00 | 00:00:00 | 00:00:00 | |
| SONDE2-12 | 2026-08-31 00:34:03 | 52.47192 | 15.02441 | 47° | 35km/h | 16780m | -25.9m/s | -51.9°C | 1.4% | 96.7hPa | 2.4V | 00:00:00 | 00:00:00 | 00:00:00 | |
| AA1-15 | 2026-08-31 00:34:01 | 52.47186 | 15.02431 | 44° | 33km/h | 16806m | -25.8m/s | -51.3°C | 0.4% | 96.3hPa | 2.4V | 08:24:39 | 02:24:04 | 00:00:00 | |
| EDDB2-12 | 2026-08-31 00:33:56 | 52.47160 | 15.02389 | 48° | 27km/h | 16933m | -25.9m/s | -51.3°C | 1.0% | 94.4hPa | 2.4V | 00:00:00 | 00:00:00 | 00:00:00 | |
| DB0DAN | 2026-08-31 00:33:55 | 52.47155 | 15.02380 | 50° | 27km/h | 16959m | -25.9m/s | -51.4°C | 1.1% | 94.02hPa | 2.4V | 00:00:00 | 00:00:00 | 00:00:00 | |
| AA1-15 | 2026-08-31 00:33:50 | 52.47132 | 15.02335 | 54° | 27km/h | 17090m | -26m/s | -51.8°C | 0.4% | 92.2hPa | 2.4V | 08:24:39 | 02:23:53 | 00:00:00 | |
| EDDB2-11 | 2026-08-31 00:33:47 | 52.47121 | 15.02306 | 53° | 27km/h | 17168m | -25.3m/s | -52.5°C | 1.1% | 91.0hPa | 2.4V | 00:00:00 | 00:00:00 | 00:00:00 | |
| SONDE2-11 | 2026-08-31 00:33:45 | 52.47113 | 15.02287 | 59° | 27km/h | 17219m | -25.9m/s | -52.9°C | 1.2% | 90.3hPa | 2.4V | 00:00:00 | 00:00:00 | 00:00:00 | |
| AA1-15 | 2026-08-31 00:33:39 | 52.47091 | 15.02221 | 57° | 33km/h | 17373m | -26.7m/s | -52.9°C | 0.7% | 88.2hPa | 2.4V | 08:24:39 | 02:23:42 | 00:00:00 | |
| SONDE2-12 | 2026-08-31 00:33:32 | 52.47051 | 15.02129 | 58° | 35km/h | 17579m | -26.4m/s | -53.1°C | 1.5% | 85.4hPa | 2.4V | 00:00:00 | 00:00:00 | 00:00:00 | |
| AA1-15 | 2026-08-31 00:33:28 | 52.47039 | 15.02087 | 68° | 37km/h | 17655m | -26.6m/s | -53°C | 0.7% | 84.3hPa | 2.4V | 08:25:30 | 02:23:31 | 00:00:00 | |
| AA1-15 | 2026-08-31 00:33:17 | 52.47021 | 15.01974 | 73° | 13km/h | 17959m | -26.7m/s | -51.4°C | 0.3% | 80.5hPa | 2.4V | 08:25:30 | 02:23:20 | 00:00:00 | |
| EDDB2-11 | 2026-08-31 00:33:16 | 52.47020 | 15.01969 | 58° | 15km/h | 17986m | -26.8m/s | -51.5°C | 1.0% | 80.2hPa | 2.4V | 00:00:00 | 00:00:00 | 00:00:00 | |
| KRY50SP-1 | 2026-08-31 00:33:15 | 52.47019 | 15.01969 | 60° | 15km/h | 17986m | -26.8m/s | -51.5°C | 1.0% | 80.2hPa | 2.4V | 08:25:00 | 00:00:00 | 00:00:00 | |
| SONDE2-11 | 2026-08-31 00:33:14 | 52.47015 | 15.01959 | 34° | 13km/h | 18039m | -27.3m/s | -51.8°C | 1.0% | 79.6hPa | 2.4V | 00:00:00 | 00:00:00 | 00:00:00 | |
| DB0DAN | 2026-08-31 00:33:10 | 52.46999 | 15.01950 | 9° | 16km/h | 18151m | -27.6m/s | -52.5°C | 1.1% | 78.23hPa | 2.4V | 00:00:00 | 00:00:00 | 00:00:00 | |
| AA1-15 | 2026-08-31 00:33:07 | 52.46982 | 15.01945 | 13° | 26km/h | 18233m | -26.9m/s | -53.1°C | 0.6% | 77.2hPa | 2.4V | 08:25:30 | 02:23:10 | 00:00:00 | |
| AA1-15 | 2026-08-31 00:32:56 | 52.46905 | 15.01867 | 55° | 38km/h | 18546m | -31.8m/s | -54.5°C | 0.9% | 73.6hPa | 2.4V | 08:25:30 | 02:22:59 | 00:00:00 | |
| DB0DAN | 2026-08-31 00:32:55 | 52.46900 | 15.01854 | 60° | 37km/h | 18577m | -32.1m/s | -54.2°C | 1.3% | 73.21hPa | 2.4V | 00:00:00 | 00:00:00 | 00:00:00 | |
| AA1-15 | 2026-08-31 00:32:45 | 52.46879 | 15.01709 | 95° | 29km/h | 18896m | -30.7m/s | -53.5°C | 0.7% | 69.6hPa | 2.4V | 08:25:30 | 02:22:48 | 00:00:00 | |
| DL2RXE-15 | 2026-08-31 00:32:45 | 52.46880 | 15.01709 | 96° | 29km/h | 18896m | -30.7m/s | -53.5°C | 1.2% | 69.6hPa | 2.4V | 08:25:00 | 00:00:00 | 00:00:00 | |
| 13BRC | 2026-08-31 00:32:44 | 52.46880 | 15.01698 | 93° | 26km/h | 18927m | -31.1m/s | -53.3°C | 1.2% | 69.4hPa | 2.4V | 08:26:00 | 00:00:00 | 00:00:00 | |
| SONDE2-11 | 2026-08-31 00:32:43 | 52.46880 | 15.01689 | 97° | 18km/h | 18958m | -31.0m/s | -53.0°C | 1.2% | 69.0hPa | 2.4V | 00:00:00 | 00:00:00 | 00:00:00 | |
| DB0DAN | 2026-08-31 00:32:40 | 52.46881 | 15.01668 | 91° | 11km/h | 19055m | -32.1m/s | -52.5°C | 1.1% | 68.03hPa | 2.4V | 00:00:00 | 00:00:00 | 00:00:00 | |
| AA1-15 | 2026-08-31 00:32:34 | 52.46879 | 15.01642 | 75° | 13km/h | 19244m | -32.4m/s | -53.3°C | 0.6% | 66hPa | 2.6V | 08:26:21 | 02:22:37 | 00:00:00 | |
| SONDE2-12 | 2026-08-31 00:32:30 | 52.46872 | 15.01615 | 51° | 16km/h | 19412m | -33.1m/s | -52.9°C | 1.4% | 64.4hPa | 2.4V | 00:00:00 | 00:00:00 | 00:00:00 | |
| DB0DAN | 2026-08-31 00:32:25 | 52.46856 | 15.01592 | 31° | 24km/h | 19547m | -35.4m/s | -52.6°C | 1.1% | 63.02hPa | 2.4V | 00:00:00 | 00:00:00 | 00:00:00 | |
| AA1-15 | 2026-08-31 00:32:23 | 52.46845 | 15.01582 | 38° | 26km/h | 19617m | -35.8m/s | -52.8°C | 0.6% | 62.4hPa | 2.6V | 08:26:21 | 02:22:26 | 00:00:00 | |
| AA1-15 | 2026-08-31 00:32:12 | 52.46810 | 15.01529 | 47° | 13km/h | 20001m | -35.1m/s | -53.5°C | 0.8% | 58.8hPa | 2.4V | 08:26:21 | 02:22:15 | 00:00:00 | |
| AA1-15 | 2026-08-31 00:32:01 | 52.46776 | 15.01469 | 51° | 15km/h | 20384m | -35.4m/s | -54°C | 0.9% | 55.4hPa | 2.4V | 08:26:21 | 02:22:04 | 00:00:00 | |
| SONDE2-12 | 2026-08-31 00:31:59 | 52.46769 | 15.01459 | 47° | 7km/h | 20487m | -33.5m/s | -53.9°C | 1.5% | 54.4hPa | 2.4V | 00:00:00 | 00:00:00 | 00:00:00 | |
| SP6BVK | 2026-08-31 00:31:58 | 52.46771 | 15.01461 | 49° | 9km/h | 20453m | -33.7m/s | -54.0°C | 1.2% | 54.7hPa | 2.4V | 08:26:00 | 00:00:00 | 00:00:00 | |
| DB0DAN | 2026-08-31 00:31:55 | 52.46764 | 15.01455 | 1° | 5km/h | 20589m | -35.1m/s | -53.5°C | 1.2% | 53.59hPa | 2.4V | 00:00:00 | 00:00:00 | 00:00:00 | |
| AA1-15 | 2026-08-31 00:31:50 | 52.46754 | 15.01454 | 20° | 9km/h | 20764m | -35.8m/s | -53.5°C | 0.8% | 52.1hPa | 2.4V | 08:27:12 | 02:21:53 | 00:00:00 | |
| D01LWL | 2026-08-31 00:31:50 | 52.46751 | 15.01454 | 32° | 7km/h | 20799m | -35.5m/s | -53.5°C | 1.1% | 51.9hPa | 2.4V | 00:00:00 | 00:00:00 | 00:00:00 | |
| 3Z3Z-3 | 2026-08-31 00:31:48 | 52.46751 | 15.01454 | 34° | 9km/h | 20800m | -35.5m/s | -53.5°C | 1.1% | 51.9hPa | 2.4V | 00:00:00 | 00:00:00 | 00:00:00 | |
| EDDB2-11 | 2026-08-31 00:31:43 | 52.46745 | 15.01416 | 82° | 18km/h | 21014m | -34.7m/s | -53.3°C | 1.1% | 50.1hPa | 2.4V | 00:00:00 | 00:00:00 | 00:00:00 | |
| DB0DAN | 2026-08-31 00:31:40 | 52.46743 | 15.01389 | 85° | 18km/h | 21119m | -35.4m/s | -52.9°C | 1.1% | 49.32hPa | 2.4V | 00:00:00 | 00:00:00 | 00:00:00 | |
| AA1-15 | 2026-08-31 00:31:40 | 52.46743 | 15.01389 | 85° | 20km/h | 21119m | -35.4m/s | -52.9°C | 0.6% | 49.3hPa | 2.4V | 08:27:12 | 02:21:43 | 00:00:00 | |
| AA1-15 | 2026-08-31 00:31:29 | 52.46732 | 15.01348 | 359° | 5km/h | 21509m | -35.1m/s | -53.4°C | 0.7% | 46.5hPa | 2.6V | 08:27:12 | 02:21:32 | 00:00:00 | |
| KRY50SP-1 | 2026-08-31 00:31:27 | 52.46729 | 15.01350 | 341° | 9km/h | 21545m | -35.2m/s | -53.5°C | 1.1% | 46.1hPa | 2.4V | 08:27:00 | 00:00:00 | 00:00:00 | |
| DB0DAN | 2026-08-31 00:31:25 | 52.46722 | 15.01353 | 354° | 9km/h | 21652m | -36.7m/s | -53.5°C | 1.1% | 45.39hPa | 2.4V | 00:00:00 | 00:00:00 | 00:00:00 | |
| AA1-15 | 2026-08-31 00:31:19 | 52.46706 | 15.01350 | 25° | 9km/h | 21874m | -36.4m/s | -53.8°C | 0.8% | 43.9hPa | 2.4V | 08:27:12 | 02:21:22 | 00:00:00 | |
| D01LWL | 2026-08-31 00:31:18 | 52.46704 | 15.01348 | 47° | 9km/h | 21910m | -35.8m/s | -53.8°C | 1.2% | 43.6hPa | 2.4V | 00:00:00 | 00:00:00 | 00:00:00 | |
| SP6BVK | 2026-08-31 00:31:17 | 52.46704 | 15.01348 | 49° | 9km/h | 21910m | -35.8m/s | -53.8°C | 1.2% | 43.6hPa | 2.4V | 08:27:00 | 00:00:00 | 00:00:00 | |
| MECKS9 | 2026-08-31 00:31:15 | 52.46702 | 15.01341 | 50° | 7km/h | 21982m | -37.4m/s | -53.7°C | 1.2% | 43.1hPa | 2.4V | 00:00:00 | 00:00:00 | 00:00:00 | |
| 3Z3Z-3 | 2026-08-31 00:31:12 | 52.46699 | 15.01332 | 92° | 9km/h | 22097m | -37.0m/s | -53.6°C | 1.1% | 42.4hPa | 2.4V | 00:00:00 | 00:00:00 | 00:00:00 | |
| DB0DAN | 2026-08-31 00:31:10 | 52.46702 | 15.01317 | 104° | 13km/h | 22210m | -36.8m/s | -53.8°C | 1.2% | 41.57hPa | 2.4V | 00:00:00 | 00:00:00 | 00:00:00 | |
| AA1-15 | 2026-08-31 00:31:08 | 52.46704 | 15.01307 | 105° | 13km/h | 22283m | -37.7m/s | -53.9°C | 0.8% | 41.1hPa | 2.4V | 08:27:12 | 02:21:11 | 00:00:00 | |
| AA1-15 | 2026-08-31 00:30:57 | 52.46696 | 15.01286 | 28° | 7km/h | 22704m | -38.8m/s | -53.7°C | 0.9% | 38.6hPa | 2.4V | 08:28:03 | 02:21:00 | 00:00:00 | |
| SONDE2-12 | 2026-08-31 00:30:57 | 52.46698 | 15.01252 | 185° | 5km/h | 23224m | -39.8m/s | -53.9°C | 1.4% | 35.5hPa | 2.6V | 00:00:00 | 00:00:00 | 00:00:00 | |
| DB0DAN | 2026-08-31 00:30:55 | 52.46694 | 15.01282 | 71° | 7km/h | 22782m | -39.4m/s | -53.3°C | 1.1% | 38.09hPa | 2.6V | 00:00:00 | 00:00:00 | 00:00:00 | |
| AA1-15 | 2026-08-31 00:30:46 | 52.46696 | 15.01253 | 160° | 4km/h | 23142m | -40.8m/s | -53.8°C | 0.9% | 36hPa | 2.4V | 08:28:03 | 02:20:49 | 00:00:00 | |
| AA1-15 | 2026-08-31 00:30:35 | 52.46714 | 15.01269 | 221° | 9km/h | 23595m | -41.3m/s | -53°C | 0.8% | 33.5hPa | 2.4V | 08:28:03 | 02:20:38 | 00:00:00 | |
| KRY50SP-1 | 2026-08-31 00:30:33 | 52.46716 | 15.01272 | 232° | 11km/h | 23636m | -42.3m/s | -52.9°C | 1.1% | 33.3hPa | 2.6V | 08:28:00 | 00:00:00 | 00:00:00 | |
| KRY50SP-1 | 2026-08-31 00:30:28 | 52.46722 | 15.01284 | 268° | 7km/h | 23851m | -43.7m/s | -52.5°C | 1.1% | 32.2hPa | 2.6V | 08:28:00 | 00:00:00 | 00:00:00 | |
| MECKS9 | 2026-08-31 00:30:27 | 52.46723 | 15.01288 | 263° | 5km/h | 23896m | -43.7m/s | -52.4°C | 1.1% | 32.0hPa | 2.6V | 00:00:00 | 00:00:00 | 00:00:00 | |
| DB0DAN | 2026-08-31 00:30:25 | 52.46725 | 15.01298 | 297° | 9km/h | 24030m | -43.9m/s | -52.5°C | 1.1% | 31.35hPa | 2.6V | 00:00:00 | 00:00:00 | 00:00:00 | |
| AA1-15 | 2026-08-31 00:30:25 | 52.46721 | 15.01307 | 270° | 7km/h | 24161m | -45.1m/s | -52°C | 0.6% | 30.8hPa | 2.4V | 08:28:03 | 02:20:25 | 00:00:00 | |
| AA1-15 | 2026-08-31 00:30:14 | 52.46712 | 15.01324 | 276° | 2km/h | 24515m | -46m/s | -51.8°C | 0.6% | 29.1hPa | 2.6V | 08:28:03 | 02:20:17 | 00:00:00 | |
| DB0DAN | 2026-08-31 00:30:10 | 52.46712 | 15.01330 | 285° | 5km/h | 24706m | -48m/s | -51.9°C | 1% | 28.31hPa | 2.4V | 00:00:00 | 00:00:00 | 00:00:00 | |
| AA1-15 | 2026-08-31 00:30:03 | 52.46706 | 15.01346 | 327° | 4km/h | 25052m | -52.3m/s | -52.3°C | 0.8% | 26.8hPa | 2.6V | 08:28:54 | 02:20:06 | 00:00:00 | |
| SONDE2-12 | 2026-08-31 00:29:54 | 52.46708 | 15.01341 | 186° | 2km/h | 25518m | -50.8m/s | -52.2°C | 1.4% | 24.9hPa | 2.4V | 00:00:00 | 00:00:00 | 00:00:00 | |
| AA1-15 | 2026-08-31 00:29:53 | 52.46709 | 15.01341 | 217° | 5km/h | 25569m | -51m/s | -52.1°C | 0.9% | 24.8hPa | 2.4V | 08:28:54 | 02:19:56 | 00:00:00 | |
| EDDB2-12 | 2026-08-31 00:29:48 | 52.46708 | 15.01349 | 296° | 5km/h | 25825m | -51.3m/s | -51.8°C | 1.1% | 23.7hPa | 2.4V | 00:00:00 | 00:00:00 | 00:00:00 | |
| D01LWL | 2026-08-31 00:29:45 | 52.46706 | 15.01352 | 348° | 4km/h | 25979m | -52.5m/s | -51.1°C | 1.1% | 23.2hPa | 2.4V | 00:00:00 | 00:00:00 | 00:00:00 | |
| AA1-15 | 2026-08-31 00:29:42 | 52.46704 | 15.01351 | 60° | 0km/h | 26137m | -53.4m/s | -50.7°C | 0.8% | 22.7hPa | 2.4V | 08:28:54 | 02:19:45 | 00:00:00 | |
| AA1-15 | 2026-08-31 00:29:31 | 52.46691 | 15.01365 | 332° | 7km/h | 26767m | -61.5m/s | -48.5°C | 0.4% | 20.7hPa | 2.4V | 08:28:54 | 02:19:34 | 00:00:00 | |
| SONDE2-12 | 2026-08-31 00:29:23 | 52.46673 | 15.01355 | 38° | 7km/h | 27277m | -65.6m/s | -48.5°C | 1.1% | 19.1hPa | 2.6V | 00:00:00 | 00:00:00 | 00:00:00 | |
| AA1-15 | 2026-08-31 00:29:20 | 52.46670 | 15.01342 | 63° | 13km/h | 27469m | -63.8m/s | -48.4°C | 0.5% | 18.5hPa | 2.6V | 08:29:45 | 02:19:23 | 00:00:00 | |
| AA1-15 | 2026-08-31 00:29:09 | 52.46663 | 15.01265 | 105° | 22km/h | 28157m | -64.2m/s | -47.6°C | 0.5% | 16.6hPa | 2.6V | 08:29:45 | 02:19:12 | 00:00:00 | |
| AA1-15 | 2026-08-31 00:28:58 | 52.46685 | 15.01217 | 107° | 9km/h | 28880m | -69.3m/s | -45.6°C | 0.3% | 14.9hPa | 2.6V | 08:29:45 | 02:19:01 | 00:00:00 | |
| DB0DAN | 2026-08-31 00:28:55 | 52.46687 | 15.01206 | 87° | 7km/h | 29094m | -74.1m/s | -44.5°C | 0.8% | 14.43hPa | 2.4V | 00:00:00 | 00:00:00 | 00:00:00 | |
| SONDE2-12 | 2026-08-31 00:28:52 | 52.46686 | 15.01197 | 125° | 4km/h | 29316m | -73.6m/s | -44.1°C | 0.9% | 14.0hPa | 2.6V | 00:00:00 | 00:00:00 | 00:00:00 | |
| AA1-15 | 2026-08-31 00:28:47 | 52.46688 | 15.01191 | 159° | 0km/h | 29691m | -75.6m/s | -42.8°C | 0% | 13.2hPa | 2.6V | 08:29:45 | 02:18:50 | 00:00:00 | |
| SP3BTT-10 | 2026-08-31 00:28:46 | 52.46688 | 15.01191 | 279° | 26km/h | 29766m | -74.8m/s | -42.6°C | 3.0% | 13.0hPa | 2.4V | 00:00:00 | 00:00:00 | 00:00:00 | |
| KRY50SP-1 | 2026-08-31 00:28:44 | 52.46688 | 15.01192 | 316° | 4km/h | 29840m | -75.0m/s | -42.7°C | 0.7% | 12.9hPa | 2.4V | 08:29:00 | 00:00:00 | 00:00:00 | |
| D01LWL | 2026-08-31 00:28:43 | 52.46686 | 15.01194 | 330° | 4km/h | 29989m | -73.2m/s | -42.5°C | 0.7% | 12.6hPa | 2.4V | 00:00:00 | 00:00:00 | 00:00:00 | |
| DB0DAN | 2026-08-31 00:28:40 | 52.46682 | 15.01196 | 350° | 9km/h | 30205m | -72.4m/s | -42.8°C | 0.7% | 12.14hPa | 2.4V | 00:00:00 | 00:00:00 | 00:00:00 | |
| AA1-15 | 2026-08-31 00:28:36 | 52.46673 | 15.01197 | 357° | 13km/h | 30493m | -73.5m/s | -42.2°C | 0% | 11.7hPa | 2.6V | 08:29:45 | 02:18:39 | 00:00:00 | |
| AA1-15 | 2026-08-31 00:28:25 | 52.46628 | 15.01172 | 30° | 16km/h | 31461m | -78.9m/s | -40.8°C | 0% | 10hPa | 2.4V | 18:12:15 | 02:18:26 | 00:00:00 | |
| DB0DAN | 2026-08-31 00:28:25 | 52.46634 | 15.01180 | 41° | 15km/h | 31307m | -77.3m/s | -42°C | 0.7% | 10.29hPa | 2.6V | 00:00:00 | 00:00:00 | 00:00:00 | |
| SONDE2-12 | 2026-08-31 00:28:22 | 52.46621 | 15.01163 | 22° | 20km/h | 31620m | -80.7m/s | -40.4°C | 0.7% | 9.8hPa | 2.4V | 00:00:00 | 00:00:00 | 00:00:00 | |
| DO2SHX-10 | 2026-08-31 00:28:21 | 52.46621 | 15.01163 | 23° | 22km/h | 31620m | -80.7m/s | -40.3°C | 2.8% | 9.8hPa | 2.4V | 00:00:00 | 02:18:24 | 00:00:00 | |
| DO2SHX-10 | 2026-08-31 00:28:18 | 52.46609 | 15.01153 | 35° | 18km/h | 31860m | -81.0m/s | -40.4°C | 2.9% | 9.5hPa | 2.4V | 00:00:00 | 02:18:21 | 00:00:00 | |
| KRY50SP-1 | 2026-08-31 00:28:17 | 52.46609 | 15.01153 | 35° | 18km/h | 31860m | -81.0m/s | -40.5°C | 0.7% | 9.5hPa | 2.4V | 00:00:00 | 00:00:00 | 00:00:00 | |
| DO2SHX-10 | 2026-08-31 00:28:15 | 52.46598 | 15.01142 | 36° | 20km/h | 32103m | -82.0m/s | -40.7°C | 3.0% | 9.1hPa | 2.4V | 00:00:00 | 02:18:18 | 08:30:00 | |
| AA1-15 | 2026-08-31 00:28:13 | 52.46436 | 15.01029 | 62° | 15km/h | 34029m | 7.4m/s | -36.7°C | 0% | 6.6hPa | 2.4V | 18:12:15 | 02:17:47 | 00:00:00 | |
| DM0DOS-11 | 2026-08-31 00:28:12 | 52.46573 | 15.01113 | 22° | 20km/h | 32601m | -84.1m/s | -38.1°C | 2.5% | 8.4hPa | 2.4V | 08:30:00 | 02:18:12 | 00:00:00 | |
| DO2SHX-10 | 2026-08-31 00:28:12 | 52.46586 | 15.01125 | 41° | 20km/h | 32350m | -83.1m/s | -39.6°C | 2.9% | 8.8hPa | 2.4V | 00:00:00 | 02:18:15 | 00:00:00 | |
| KRY50SP-1 | 2026-08-31 00:28:10 | 52.46569 | 15.01110 | 18° | 20km/h | 32686m | -83.9m/s | -37.8°C | 0.6% | 8.3hPa | 2.4V | 00:00:00 | 00:00:00 | 00:00:00 | |
| EDDB2-11 | 2026-08-31 00:28:09 | 52.46555 | 15.01103 | 14° | 18km/h | 32929m | -79.4m/s | -37.4°C | 0.5% | 8.0hPa | 2.4V | 00:00:00 | 00:00:00 | 00:00:00 | |
| DO2SHX-10 | 2026-08-31 00:28:07 | 52.46550 | 15.01101 | 16° | 24km/h | 33007m | -78.8m/s | -36.9°C | 2.3% | 7.9hPa | 2.4V | 00:00:00 | 02:18:07 | 00:00:00 | |
| SONDE2-11 | 2026-08-31 00:28:06 | 52.46544 | 15.01098 | 16° | 24km/h | 33086m | -77.5m/s | -36.6°C | 0.5% | 7.8hPa | 2.4V | 00:00:00 | 00:00:00 | 00:00:00 | |
| AA1-15 | 2026-08-31 00:28:04 | 52.46433 | 15.01024 | 48° | 18km/h | 34024m | 4.6m/s | -36.7°C | 0% | 6.6hPa | 2.4V | 18:12:15 | 02:17:46 | 00:00:00 | |
| AA1-15 | 2026-08-31 00:27:43 | 52.46424 | 15.01011 | 38° | 29km/h | 34011m | 7.3m/s | -36.8°C | 0% | 6.6hPa | 2.6V | 18:12:15 | 02:17:44 | 00:00:00 | |
| AA1-15 | 2026-08-31 00:27:31 | 52.46363 | 15.00913 | 67° | 40km/h | 33947m | 6.6m/s | -36.7°C | 0% | 6.6hPa | 2.6V | 18:12:15 | 02:17:34 | 00:00:00 | |
| AA1-15 | 2026-08-31 00:27:20 | 52.46289 | 15.00835 | 40° | 46km/h | 33882m | 7.1m/s | -36.7°C | 0% | 6.7hPa | 2.6V | 18:12:15 | 02:17:23 | 00:00:00 | |
| SONDE2-12 | 2026-08-31 00:27:19 | 52.46272 | 15.00802 | 59° | 58km/h | 33869m | 5.6m/s | -36.7°C | 0.6% | 6.7hPa | 2.6V | 00:00:00 | 00:00:00 | 00:00:00 | |
| AA1-15 | 2026-08-31 00:27:09 | 52.46213 | 15.00719 | 12° | 38km/h | 33814m | 5.3m/s | -36.5°C | 0% | 6.8hPa | 2.6V | 18:12:15 | 02:17:12 | 00:00:00 | |
| AA1-15 | 2026-08-31 00:26:58 | 52.46152 | 15.00607 | 32° | 40km/h | 33751m | 5.5m/s | -36.4°C | 0% | 6.8hPa | 2.6V | 18:12:15 | 02:17:01 | 00:00:00 | |
| AA1-15 | 2026-08-31 00:26:47 | 52.46068 | 15.00577 | 52° | 35km/h | 33682m | 5.2m/s | -36.3°C | 0% | 6.9hPa | 2.5V | 18:12:15 | 02:16:50 | 00:00:00 | |
| AA1-15 | 2026-08-31 00:26:36 | 52.45995 | 15.00531 | 29° | 42km/h | 33615m | 5.9m/s | -36.5°C | 0% | 7hPa | 2.5V | 18:12:15 | 02:16:39 | 00:00:00 | |
| KRY50SP-1 | 2026-08-31 00:26:35 | 52.45995 | 15.00531 | 29° | 42km/h | 33615m | 5.9m/s | -36.5°C | 0.5% | 7.0hPa | 2.6V | 00:00:00 | 00:00:00 | 00:00:00 | |
| DO2SHX-10 | 2026-08-31 00:26:34 | 52.45980 | 15.00514 | 43° | 26km/h | 33601m | 5.9m/s | -36.5°C | 2.1% | 7.0hPa | 2.6V | 00:00:00 | 02:16:37 | 00:00:00 | |
| EDDB2-11 | 2026-08-31 00:26:32 | 52.45970 | 15.00498 | 41° | 22km/h | 33590m | 5.0m/s | -36.7°C | 0.5% | 7.0hPa | 2.5V | 00:00:00 | 00:00:00 | 00:00:00 | |
| DO2SHX-10 | 2026-08-31 00:26:31 | 52.45966 | 15.00492 | 36° | 27km/h | 33585m | 5.4m/s | -36.7°C | 2.2% | 7.0hPa | 2.5V | 00:00:00 | 02:16:34 | 00:00:00 | |
| SONDE2-11 | 2026-08-31 00:26:30 | 52.45960 | 15.00486 | 29° | 26km/h | 33579m | 6.3m/s | -36.8°C | 0.5% | 7.0hPa | 2.5V | 00:00:00 | 00:00:00 | 00:00:00 | |
| SP3WXH-11 | 2026-08-31 00:26:29 | 52.45953 | 15.00481 | 20° | 31km/h | 33573m | 6.1m/s | -36.9°C | 0.5% | 7.0hPa | 2.5V | 00:00:00 | 00:00:00 | 00:00:00 | |
| DO2SHX-10 | 2026-08-31 00:26:28 | 52.45943 | 15.00478 | 11° | 37km/h | 33568m | 5.5m/s | -36.9°C | 2.2% | 7.0hPa | 2.5V | 00:00:00 | 02:16:31 | 00:00:00 | |
| DM0DOS-11 | 2026-08-31 00:26:27 | 52.45891 | 15.00476 | 10° | 37km/h | 33531m | 4.9m/s | -37.1°C | 2.2% | 7.1hPa | 2.5V | 08:30:00 | 02:16:25 | 00:00:00 | |
| AA1-15 | 2026-08-31 00:26:25 | 52.45908 | 15.00477 | 354° | 33km/h | 33541m | 5m/s | -37.1°C | 0% | 7hPa | 2.6V | 18:12:15 | 02:16:27 | 00:00:00 | |
| SONDE2-12 | 2026-08-31 00:26:17 | 52.45845 | 15.00441 | 30° | 35km/h | 33502m | 5.7m/s | -37.3°C | 0.6% | 7.1hPa | 2.6V | 00:00:00 | 00:00:00 | 00:00:00 | |
| AA1-15 | 2026-08-31 00:26:14 | 52.45827 | 15.00433 | 348° | 24km/h | 33482m | 5.6m/s | -37.4°C | 0% | 7.1hPa | 2.6V | 18:12:15 | 02:16:17 | 00:00:00 | |
| AA1-15 | 2026-08-31 00:26:03 | 52.45738 | 15.00409 | 2° | 27km/h | 33415m | 5.3m/s | -38°C | 0% | 7.2hPa | 2.6V | 18:12:15 | 02:16:06 | 00:00:00 | |
| AA1-15 | 2026-08-31 00:25:52 | 52.45659 | 15.00391 | 346° | 31km/h | 33353m | 6.3m/s | -38.4°C | 0% | 7.3hPa | 2.5V | 18:12:15 | 02:15:55 | 00:00:00 | |
| SONDE2-12 | 2026-08-31 00:25:46 | 52.45611 | 15.00376 | 55° | 24km/h | 33320m | 5.9m/s | -38.4°C | 0.6% | 7.3hPa | 2.5V | 00:00:00 | 00:00:00 | 00:00:00 | |
| AA1-15 | 2026-08-31 00:25:41 | 52.45602 | 15.00365 | 333° | 22km/h | 33290m | 5.9m/s | -38.4°C | 0% | 7.3hPa | 2.5V | 18:12:15 | 02:15:44 | 00:00:00 | |
| AA1-15 | 2026-08-31 00:25:31 | 52.45539 | 15.00354 | 331° | 7km/h | 33227m | 5.2m/s | -38.8°C | 0% | 7.4hPa | 2.5V | 18:12:15 | 02:15:34 | 00:00:00 | |
| AA1-15 | 2026-08-31 00:25:20 | 52.45483 | 15.00361 | 282° | 5km/h | 33158m | 5.9m/s | -39.1°C | 0% | 7.5hPa | 2.5V | 18:12:15 | 02:15:23 | 00:00:00 | |
| SONDE2-12 | 2026-08-31 00:25:15 | 52.45472 | 15.00366 | 7° | 18km/h | 33127m | 4.7m/s | -39.2°C | 0.6% | 7.5hPa | 2.5V | 00:00:00 | 00:00:00 | 00:00:00 | |
| AA1-15 | 2026-08-31 00:25:10 | 52.45457 | 15.00350 | 77° | 11km/h | 33097m | 6m/s | -39.6°C | 0% | 7.6hPa | 2.5V | 18:12:15 | 02:15:13 | 00:00:00 | |
| AA1-15 | 2026-08-31 00:24:59 | 52.45429 | 15.00354 | 104° | 7km/h | 33026m | 5.1m/s | -39.9°C | 0% | 7.6hPa | 2.6V | 18:12:15 | 02:15:01 | 00:00:00 | |
| AA1-15 | 2026-08-31 00:24:47 | 52.45408 | 15.00331 | 156° | 18km/h | 32965m | 5.6m/s | -40.5°C | 0% | 7.7hPa | 2.5V | 18:12:15 | 02:14:50 | 00:00:00 | |
| S3001 | 2026-08-31 00:24:46 | 52.45412 | 15.00327 | 136° | 20km/h | 32960m | 5.3m/s | -40.6°C | 0.6% | 7.7hPa | 2.5V | 00:00:00 | 00:00:00 | 00:00:00 | |
| SONDE2-12 | 2026-08-31 00:24:44 | 52.45415 | 15.00312 | 80° | 20km/h | 32948m | 6.1m/s | -40.6°C | 0.7% | 7.7hPa | 2.5V | 00:00:00 | 00:00:00 | 00:00:00 | |
| AA1-15 | 2026-08-31 00:24:37 | 52.45395 | 15.00285 | 96° | 7km/h | 32904m | 5.8m/s | -40.5°C | 0% | 7.8hPa | 2.5V | 18:12:15 | 02:14:40 | 00:00:00 | |
| AA1-15 | 2026-08-31 00:24:26 | 52.45388 | 15.00230 | 25° | 15km/h | 32838m | 4.9m/s | -40.4°C | 0% | 7.9hPa | 2.5V | 18:12:15 | 02:14:29 | 00:00:00 | |
| AA1-15 | 2026-08-31 00:24:14 | 52.45353 | 15.00126 | 33° | 20km/h | 32761m | 5.8m/s | -40.7°C | 0% | 8hPa | 2.6V | 18:12:15 | 02:14:17 | 00:00:00 | |
| SONDE2-12 | 2026-08-31 00:24:13 | 52.45348 | 15.00122 | 26° | 24km/h | 32756m | 5.6m/s | -40.8°C | 0.7% | 8.0hPa | 2.6V | 00:00:00 | 00:00:00 | 00:00:00 | |
| AA1-15 | 2026-08-31 00:24:04 | 52.45300 | 15.00035 | 65° | 35km/h | 32700m | 5m/s | -41°C | 0% | 8hPa | 2.6V | 18:12:15 | 02:14:07 | 00:00:00 | |
| AA1-15 | 2026-08-31 00:23:54 | 52.45256 | 14.99979 | 52° | 24km/h | 32634m | 7m/s | -41.7°C | 0% | 8.1hPa | 2.6V | 18:12:15 | 02:13:56 | 00:00:00 | |
| AA1-15 | 2026-08-31 00:23:43 | 52.45241 | 14.99895 | 28° | 9km/h | 32570m | 5.5m/s | -42.1°C | 0% | 8.2hPa | 2.6V | 18:12:15 | 02:13:46 | 00:00:00 | |
| SONDE2-12 | 2026-08-31 00:23:42 | 52.45239 | 14.99894 | 17° | 11km/h | 32565m | 5.1m/s | -42.1°C | 0.7% | 8.2hPa | 2.5V | 00:00:00 | 00:00:00 | 00:00:00 | |
| AA1-15 | 2026-08-31 00:23:32 | 52.45212 | 14.99841 | 94° | 15km/h | 32503m | 6m/s | -42.4°C | 0% | 8.3hPa | 2.5V | 18:12:15 | 02:13:35 | 00:00:00 | |
| AA1-15 | 2026-08-31 00:23:22 | 52.45163 | 14.99768 | 50° | 24km/h | 32432m | 4.2m/s | -42.7°C | 0% | 8.4hPa | 2.5V | 18:12:15 | 02:13:24 | 00:00:00 | |
| AA1-15 | 2026-08-31 00:23:11 | 52.45130 | 14.99718 | 21° | 35km/h | 32371m | 6.3m/s | -42.7°C | 0% | 8.5hPa | 2.5V | 18:12:15 | 02:13:14 | 00:00:00 | |
| SONDE2-12 | 2026-08-31 00:23:11 | 52.45130 | 14.99718 | 20° | 35km/h | 32371m | 6.3m/s | -42.7°C | 0.7% | 8.5hPa | 2.5V | 00:00:00 | 00:00:00 | 00:00:00 | |
| AA1-15 | 2026-08-31 00:23:00 | 52.45084 | 14.99670 | 38° | 20km/h | 32305m | 6.8m/s | -42.7°C | 0% | 8.6hPa | 2.5V | 18:12:15 | 02:13:03 | 00:00:00 | |
| AA1-15 | 2026-08-31 00:22:49 | 52.45036 | 14.99663 | 350° | 11km/h | 32236m | 5.2m/s | -43.1°C | 0% | 8.7hPa | 2.5V | 18:12:15 | 02:12:52 | 00:00:00 | |
| SONDE2-12 | 2026-08-31 00:22:40 | 52.45006 | 14.99623 | 345° | 11km/h | 32179m | 5.2m/s | -43.5°C | 0.8% | 8.7hPa | 2.5V | 00:00:00 | 00:00:00 | 00:00:00 | |
| AA1-15 | 2026-08-31 00:22:39 | 52.45002 | 14.99626 | 330° | 18km/h | 32173m | 6.4m/s | -43.6°C | 0% | 8.7hPa | 2.5V | 18:12:15 | 02:12:42 | 00:00:00 | |
| AA1-15 | 2026-08-31 00:22:29 | 52.44945 | 14.99617 | 29° | 20km/h | 32089m | 6.2m/s | -43.6°C | 0% | 8.8hPa | 2.6V | 18:12:15 | 02:12:29 | 00:00:00 | |
| KRY50SP-1 | 2026-08-31 00:22:28 | 52.44956 | 14.99636 | 63° | 22km/h | 32108m | 7.1m/s | -43.6°C | 0.7% | 8.8hPa | 2.6V | 00:00:00 | 00:00:00 | 00:00:00 | |
| DB0DAN | 2026-08-31 00:22:25 | 52.44941 | 14.99614 | 11° | 16km/h | 32082m | 7.5m/s | -43.5°C | 0.7% | 8.88hPa | 2.6V | 00:00:00 | 00:00:00 | 00:00:00 | |
| AA1-15 | 2026-08-31 00:22:16 | 52.44896 | 14.99624 | 47° | 15km/h | 32022m | 7.8m/s | -43.3°C | 0% | 8.9hPa | 2.6V | 18:12:15 | 02:12:19 | 00:00:00 | |
| SONDE2-12 | 2026-08-31 00:22:09 | 52.44869 | 14.99602 | 339° | 31km/h | 31976m | 6.1m/s | -43.1°C | 0.8% | 9.0hPa | 2.6V | 00:00:00 | 00:00:00 | 00:00:00 | |
| AA1-15 | 2026-08-31 00:22:05 | 52.44847 | 14.99624 | 328° | 13km/h | 31950m | 5.4m/s | -43.1°C | 0% | 9.1hPa | 2.6V | 18:12:15 | 02:12:08 | 00:00:00 | |
| AA1-15 | 2026-08-31 00:21:54 | 52.44804 | 14.99587 | 341° | 5km/h | 31884m | 5.5m/s | -42.7°C | 0% | 9.1hPa | 2.6V | 18:12:15 | 02:11:57 | 00:00:00 | |
| SONDE2-11 | 2026-08-31 00:21:51 | 52.44788 | 14.99585 | 14° | 26km/h | 31857m | 6.5m/s | -42.6°C | 0.7% | 9.2hPa | 2.6V | 00:00:00 | 00:00:00 | 00:00:00 | |
| SP3WXH-11 | 2026-08-31 00:21:50 | 52.44788 | 14.99585 | 14° | 26km/h | 31857m | 6.5m/s | -42.6°C | 0.7% | 9.2hPa | 2.6V | 00:00:00 | 00:00:00 | 00:00:00 | |
| AA1-15 | 2026-08-31 00:21:43 | 52.44757 | 14.99548 | 62° | 20km/h | 31811m | 5.9m/s | -42.6°C | 0% | 9.3hPa | 2.6V | 18:12:15 | 02:11:46 | 00:00:00 | |
| SONDE2-12 | 2026-08-31 00:21:38 | 52.44750 | 14.99536 | 305° | 4km/h | 31779m | 5.0m/s | -42.5°C | 0.7% | 9.3hPa | 2.6V | 00:00:00 | 00:00:00 | 00:00:00 | |
| AA1-15 | 2026-08-31 00:21:32 | 52.44722 | 14.99513 | 51° | 37km/h | 31741m | 4.6m/s | -42.6°C | 0% | 9.4hPa | 2.6V | 18:12:15 | 02:11:35 | 00:00:00 | |
| AA1-15 | 2026-08-31 00:21:22 | 52.44697 | 14.99480 | 356° | 18km/h | 31677m | 7m/s | -42.7°C | 0% | 9.5hPa | 2.6V | 18:12:15 | 02:11:25 | 00:00:00 | |
| AA1-15 | 2026-08-31 00:21:11 | 52.44658 | 14.99453 | 302° | 18km/h | 31602m | 7.6m/s | -42.5°C | 0% | 9.5hPa | 2.5V | 18:12:15 | 02:11:14 | 00:00:00 | |
| SONDE2-12 | 2026-08-31 00:21:07 | 52.44655 | 14.99480 | 0° | 7km/h | 31572m | 6.7m/s | -42.4°C | 0.7% | 9.6hPa | 2.5V | 00:00:00 | 00:00:00 | 00:00:00 | |
| AA1-15 | 2026-08-31 00:21:02 | 52.44647 | 14.99456 | 94° | 15km/h | 31540m | 6.5m/s | -42.5°C | 0% | 9.7hPa | 2.5V | 18:12:15 | 02:11:04 | 00:00:00 | |
| AA1-15 | 2026-08-31 00:20:50 | 52.44653 | 14.99455 | 207° | 13km/h | 31469m | 5.3m/s | -42.9°C | 0% | 9.7hPa | 2.5V | 18:12:15 | 02:10:53 | 00:00:00 | |
| SONDE2-11 | 2026-08-31 00:20:49 | 52.44655 | 14.99459 | 303° | 2km/h | 31457m | 7.8m/s | -43.0°C | 0.6% | 9.8hPa | 2.5V | 00:00:00 | 00:00:00 | 00:00:00 | |
| SP3WXH-11 | 2026-08-31 00:20:48 | 52.44654 | 14.99459 | 5° | 7km/h | 31449m | 7.1m/s | -43.1°C | 0.6% | 9.8hPa | 2.5V | 00:00:00 | 00:00:00 | 00:00:00 | |
| AA1-15 | 2026-08-31 00:20:40 | 52.44648 | 14.99438 | 177° | 11km/h | 31406m | 5.7m/s | -43.2°C | 0% | 9.8hPa | 2.5V | 18:12:15 | 02:10:43 | 00:00:00 | |
| SONDE2-12 | 2026-08-31 00:20:36 | 52.44655 | 14.99453 | 240° | 7km/h | 31372m | 6.9m/s | -43.5°C | 0.8% | 9.9hPa | 2.5V | 00:00:00 | 00:00:00 | 00:00:00 | |
| AA1-15 | 2026-08-31 00:20:29 | 52.44654 | 14.99442 | 34° | 16km/h | 31333m | 6.5m/s | -43.9°C | 0% | 9.9hPa | 2.5V | 18:12:15 | 02:10:32 | 00:00:00 | |
| AA1-15 | 2026-08-31 00:20:19 | 52.44642 | 14.99423 | 348° | 11km/h | 31263m | 6.2m/s | -44.4°C | 0% | 10.1hPa | 2.6V | 18:12:15 | 02:10:21 | 00:00:00 | |
| AA1-15 | 2026-08-31 00:20:07 | 52.44622 | 14.99368 | 13° | 9km/h | 31194m | 7.5m/s | -44.4°C | 0% | 10.2hPa | 2.5V | 18:12:15 | 02:10:10 | 00:00:00 | |
| SONDE2-12 | 2026-08-31 00:20:05 | 52.44615 | 14.99369 | 1° | 13km/h | 31177m | 5.6m/s | -44.4°C | 0.8% | 10.2hPa | 2.6V | 00:00:00 | 00:00:00 | 00:00:00 | |
| AA1-15 | 2026-08-31 00:19:57 | 52.44576 | 14.99327 | 25° | 20km/h | 31129m | 5.9m/s | -44.2°C | 0% | 10.2hPa | 2.6V | 18:12:15 | 02:09:59 | 00:00:00 | |
| AA1-15 | 2026-08-31 00:19:46 | 52.44532 | 14.99305 | 20° | 27km/h | 31063m | 6.2m/s | -43.9°C | 0% | 10.4hPa | 2.6V | 18:12:15 | 02:09:49 | 00:00:00 | |
| SP3WXH-11 | 2026-08-31 00:19:46 | 52.44525 | 14.99301 | 19° | 29km/h | 31058m | 4.8m/s | -43.8°C | 0.7% | 10.4hPa | 2.5V | 00:00:00 | 00:00:00 | 00:00:00 | |
| AA1-15 | 2026-08-31 00:19:36 | 52.44480 | 14.99297 | 349° | 24km/h | 31002m | 4.9m/s | -43.5°C | 0% | 10.4hPa | 2.5V | 18:12:15 | 02:09:39 | 00:00:00 | |
| SONDE2-12 | 2026-08-31 00:19:34 | 52.44465 | 14.99300 | 0° | 16km/h | 30984m | 6.4m/s | -43.4°C | 0.8% | 10.5hPa | 2.5V | 00:00:00 | 00:00:00 | 00:00:00 | |
| AA1-15 | 2026-08-31 00:19:25 | 52.44420 | 14.99294 | 4° | 15km/h | 30934m | 7.6m/s | -43.4°C | 0% | 10.6hPa | 2.5V | 18:12:15 | 02:09:28 | 00:00:00 | |
| AA1-15 | 2026-08-31 00:19:15 | 52.44360 | 14.99319 | 355° | 26km/h | 30863m | 6.4m/s | -43.1°C | 0% | 10.7hPa | 2.5V | 18:12:15 | 02:09:17 | 00:00:00 | |
| AA1-15 | 2026-08-31 00:19:04 | 52.44316 | 14.99360 | 348° | 18km/h | 30794m | 6m/s | -43°C | 0% | 10.8hPa | 2.5V | 18:12:15 | 02:09:06 | 00:00:00 | |
| SONDE2-12 | 2026-08-31 00:19:03 | 52.44312 | 14.99361 | 356° | 15km/h | 30788m | 7.1m/s | -43.1°C | 0.8% | 10.8hPa | 2.5V | 00:00:00 | 00:00:00 | 00:00:00 | |
| AA1-15 | 2026-08-31 00:18:52 | 52.44287 | 14.99398 | 257° | 4km/h | 30725m | 5.1m/s | -42.9°C | 0% | 10.9hPa | 2.5V | 18:12:15 | 02:08:55 | 00:00:00 | |
| EDDB2-11 | 2026-08-31 00:18:47 | 52.44276 | 14.99399 | 347° | 15km/h | 30696m | 4.9m/s | -43.0°C | 0.7% | 10.9hPa | 2.6V | 00:00:00 | 00:00:00 | 00:00:00 | |
| AA1-15 | 2026-08-31 00:18:42 | 52.44271 | 14.99429 | 255° | 24km/h | 30662m | 6.4m/s | -43.2°C | 0% | 11hPa | 2.6V | 18:12:15 | 02:08:45 | 00:00:00 | |
| AA1-15 | 2026-08-31 00:18:32 | 52.44277 | 14.99465 | 259° | 15km/h | 30597m | 4.7m/s | -44°C | 0% | 11.1hPa | 2.6V | 18:12:15 | 02:08:35 | 00:00:00 | |
| SONDE2-12 | 2026-08-31 00:18:32 | 52.44278 | 14.99471 | 254° | 18km/h | 30593m | 4.5m/s | -44.0°C | 0.8% | 11.1hPa | 2.5V | 00:00:00 | 00:00:00 | 00:00:00 | |
| AA1-15 | 2026-08-31 00:18:22 | 52.44309 | 14.99521 | 47° | 7km/h | 30533m | 5.6m/s | -44°C | 0% | 11.2hPa | 2.5V | 18:12:15 | 02:08:24 | 00:00:00 | |
| AA1-15 | 2026-08-31 00:18:11 | 52.44326 | 14.99554 | 221° | 13km/h | 30473m | 7.2m/s | -44.1°C | 0% | 11.3hPa | 2.5V | 18:12:15 | 02:08:14 | 00:00:00 | |
| AA1-15 | 2026-08-31 00:18:01 | 52.44319 | 14.99538 | 218° | 16km/h | 30403m | 6.5m/s | -44.2°C | 0% | 11.5hPa | 2.6V | 18:12:15 | 02:08:03 | 00:00:00 | |
| AA1-15 | 2026-08-31 00:17:49 | 52.44333 | 14.99532 | 28° | 9km/h | 30332m | 5m/s | -44.4°C | 0% | 11.6hPa | 2.6V | 18:12:15 | 02:07:52 | 00:00:00 | |
| AA1-15 | 2026-08-31 00:17:40 | 52.44334 | 14.99555 | 1° | 5km/h | 30269m | 7.6m/s | -44.6°C | 0% | 11.7hPa | 2.5V | 18:12:15 | 02:07:42 | 00:00:00 | |
| AA1-15 | 2026-08-31 00:17:29 | 52.44310 | 14.99558 | 284° | 7km/h | 30208m | 5.9m/s | -44.5°C | 0% | 11.8hPa | 2.5V | 18:12:15 | 02:07:32 | 00:00:00 | |
| DB0DAN | 2026-08-31 00:17:25 | 52.44311 | 14.99570 | 248° | 7km/h | 30183m | 5.3m/s | -44.4°C | 0.7% | 11.84hPa | 2.6V | 00:00:00 | 00:00:00 | 00:00:00 | |
| AA1-15 | 2026-08-31 00:17:19 | 52.44317 | 14.99570 | 15° | 11km/h | 30133m | 3.8m/s | -44.3°C | 0% | 12hPa | 2.5V | 18:12:15 | 02:07:21 | 00:00:00 | |
| DO2SHX-10 | 2026-08-31 00:17:18 | 52.44317 | 14.99570 | 16° | 11km/h | 30134m | 3.7m/s | -44.2°C | 3.1% | 11.9hPa | 2.5V | 00:00:00 | 02:07:21 | 00:00:00 | |
| DO2SHX-10 | 2026-08-31 00:17:15 | 52.44311 | 14.99575 | 293° | 15km/h | 30118m | 6.7m/s | -44.3°C | 3.1% | 11.9hPa | 2.5V | 00:00:00 | 02:07:18 | 00:00:00 | |
| EDDB2-11 | 2026-08-31 00:17:14 | 52.44309 | 14.99587 | 283° | 16km/h | 30106m | 7.2m/s | -44.3°C | 0.7% | 12.0hPa | 2.5V | 00:00:00 | 00:00:00 | 00:00:00 | |
| DB0DAN | 2026-08-31 00:17:10 | 52.44308 | 14.99606 | 256° | 13km/h | 30086m | 6.9m/s | -44.4°C | 0.7% | 12.03hPa | 2.5V | 00:00:00 | 00:00:00 | 00:00:00 | |
| AA1-15 | 2026-08-31 00:17:07 | 52.44313 | 14.99612 | 171° | 7km/h | 30065m | 5.6m/s | -44.5°C | 0% | 12.1hPa | 2.6V | 18:12:15 | 02:07:10 | 00:00:00 | |
| SONDE2-12 | 2026-08-31 00:16:58 | 52.44317 | 14.99643 | 255° | 16km/h | 30007m | 5.4m/s | -44.4°C | 0.8% | 12.2hPa | 2.5V | 00:00:00 | 00:00:00 | 00:00:00 | |
| AA1-15 | 2026-08-31 00:16:56 | 52.44322 | 14.99656 | 219° | 20km/h | 29995m | 6.7m/s | -44.4°C | 0% | 12.2hPa | 2.5V | 18:12:15 | 02:06:59 | 00:00:00 | |
| DB0DAN | 2026-08-31 00:16:55 | 52.44326 | 14.99660 | 202° | 22km/h | 29987m | 7.9m/s | -44.4°C | 0.7% | 12.23hPa | 2.5V | 00:00:00 | 00:00:00 | 00:00:00 | |
| AA1-15 | 2026-08-31 00:16:45 | 52.44337 | 14.99675 | 276° | 13km/h | 29925m | 5.2m/s | -44.6°C | 0% | 12.3hPa | 2.5V | 18:12:15 | 02:06:48 | 00:00:00 | |
| AA1-15 | 2026-08-31 00:16:35 | 52.44363 | 14.99680 | 354° | 15km/h | 29853m | 6.3m/s | -44.7°C | 0% | 12.5hPa | 2.6V | 18:12:15 | 02:06:37 | 00:00:00 | |
| SONDE2-12 | 2026-08-31 00:16:27 | 52.44361 | 14.99707 | 191° | 15km/h | 29813m | 6.9m/s | -44.7°C | 0.8% | 12.6hPa | 2.6V | 00:00:00 | 00:00:00 | 00:00:00 | |
| AA1-15 | 2026-08-31 00:16:24 | 52.44374 | 14.99700 | 144° | 15km/h | 29789m | 6.3m/s | -44.6°C | 0% | 12.6hPa | 2.6V | 18:12:15 | 02:06:26 | 00:00:00 | |
| AA1-15 | 2026-08-31 00:16:13 | 52.44379 | 14.99701 | 176° | 18km/h | 29727m | 6.9m/s | -44.9°C | 0% | 12.7hPa | 2.5V | 18:12:15 | 02:06:16 | 00:00:00 | |
| AA1-15 | 2026-08-31 00:16:02 | 52.44424 | 14.99675 | 24° | 4km/h | 29658m | 6.8m/s | -45.4°C | 0.1% | 12.9hPa | 2.6V | 18:12:15 | 02:06:05 | 00:00:00 | |
| SONDE2-12 | 2026-08-31 00:15:56 | 52.44427 | 14.99660 | 191° | 7km/h | 29620m | 5.5m/s | -45.5°C | 0.9% | 13.0hPa | 2.6V | 00:00:00 | 00:00:00 | 00:00:00 | |
| AA1-15 | 2026-08-31 00:15:51 | 52.44433 | 14.99653 | 91° | 11km/h | 29591m | 5.6m/s | -45.6°C | 0.1% | 13hPa | 2.6V | 18:12:15 | 02:05:54 | 00:00:00 | |
| EDDB2-12 | 2026-08-31 00:15:49 | 52.44433 | 14.99645 | 112° | 9km/h | 29579m | 7.1m/s | -45.7°C | 0.8% | 13.0hPa | 2.5V | 00:00:00 | 00:00:00 | 00:00:00 | |
| D01LWL | 2026-08-31 00:15:47 | 52.44436 | 14.99639 | 118° | 7km/h | 29567m | 5.1m/s | -45.7°C | 0.8% | 13.1hPa | 2.5V | 00:00:00 | 00:00:00 | 00:00:00 | |
| AA1-15 | 2026-08-31 00:15:40 | 52.44440 | 14.99595 | 114° | 20km/h | 29517m | 5.6m/s | -45.8°C | 0.1% | 13.2hPa | 2.5V | 18:12:15 | 02:05:42 | 00:00:00 | |
| AA1-15 | 2026-08-31 00:15:29 | 52.44450 | 14.99522 | 40° | 11km/h | 29456m | 6.4m/s | -46.1°C | 0.1% | 13.3hPa | 2.5V | 18:12:15 | 02:05:32 | 00:00:00 | |
| SONDE2-12 | 2026-08-31 00:15:25 | 52.44442 | 14.99510 | 73° | 9km/h | 29430m | 4.9m/s | -46.1°C | 0.9% | 13.3hPa | 2.5V | 00:00:00 | 00:00:00 | 00:00:00 | |
| AA1-15 | 2026-08-31 00:15:18 | 52.44449 | 14.99463 | 134° | 18km/h | 29384m | 5m/s | -46.1°C | 0.2% | 13.4hPa | 2.5V | 18:12:15 | 02:05:21 | 00:00:00 | |
| DO2SHX-10 | 2026-08-31 00:15:18 | 52.44449 | 14.99463 | 134° | 16km/h | 29385m | 5.0m/s | -46.1°C | 3.4% | 13.4hPa | 2.6V | 00:00:00 | 02:05:21 | 00:00:00 | |
| D01LWL | 2026-08-31 00:15:17 | 52.44450 | 14.99445 | 70° | 13km/h | 29367m | 5.4m/s | -46.2°C | 0.8% | 13.5hPa | 2.6V | 00:00:00 | 00:00:00 | 00:00:00 | |
| DO2SHX-10 | 2026-08-31 00:15:15 | 52.44450 | 14.99445 | 71° | 13km/h | 29367m | 5.4m/s | -46.1°C | 3.4% | 13.4hPa | 2.6V | 00:00:00 | 02:05:18 | 08:30:00 | |
| DB0DAN | 2026-08-31 00:15:10 | 52.44439 | 14.99431 | 49° | 13km/h | 29336m | 5m/s | -46.3°C | 0.8% | 13.51hPa | 2.6V | 00:00:00 | 00:00:00 | 00:00:00 | |
| AA1-15 | 2026-08-31 00:15:08 | 52.44435 | 14.99418 | 78° | 24km/h | 29324m | 6.1m/s | -46.4°C | 0.2% | 13.6hPa | 2.5V | 18:12:15 | 02:05:11 | 00:00:00 | |
| AA1-15 | 2026-08-31 00:14:57 | 52.44436 | 14.99336 | 29° | 15km/h | 29260m | 7.2m/s | -46.3°C | 0.2% | 13.7hPa | 2.6V | 18:12:15 | 02:05:00 | 00:00:00 | |
| S3001 | 2026-08-31 00:14:57 | 52.44433 | 14.99332 | 34° | 13km/h | 29254m | 5.7m/s | -46.3°C | 0.8% | 13.7hPa | 2.5V | 00:00:00 | 00:00:00 | 00:00:00 | |
| DB0DAN | 2026-08-31 00:14:55 | 52.44430 | 14.99328 | 50° | 13km/h | 29248m | 5.1m/s | -46.3°C | 0.8% | 13.72hPa | 2.5V | 00:00:00 | 00:00:00 | 00:00:00 | |
| SONDE2-12 | 2026-08-31 00:14:54 | 52.44428 | 14.99323 | 57° | 15km/h | 29242m | 6.5m/s | -46.2°C | 0.9% | 13.7hPa | 2.5V | 00:00:00 | 00:00:00 | 00:00:00 | |
| AA1-15 | 2026-08-31 00:14:47 | 52.44431 | 14.99287 | 153° | 9km/h | 29201m | 4.6m/s | -46.1°C | 0.1% | 13.8hPa | 2.5V | 18:12:15 | 02:04:50 | 00:00:00 | |
| AA1-15 | 2026-08-31 00:14:36 | 52.44406 | 14.99262 | 45° | 7km/h | 29134m | 5m/s | -46.5°C | 0.1% | 13.9hPa | 2.6V | 18:12:15 | 02:04:39 | 00:00:00 | |
| AA1-15 | 2026-08-31 00:14:26 | 52.44395 | 14.99248 | 344° | 11km/h | 29068m | 5.8m/s | -47°C | 0.2% | 14.1hPa | 2.6V | 18:12:15 | 02:04:28 | 00:00:00 | |
| DB0DAN | 2026-08-31 00:14:25 | 52.44395 | 14.99248 | 344° | 11km/h | 29068m | 5.8m/s | -47°C | 0.8% | 14.1hPa | 2.6V | 00:00:00 | 00:00:00 | 00:00:00 | |
| SONDE2-12 | 2026-08-31 00:14:23 | 52.44389 | 14.99253 | 328° | 11km/h | 29056m | 5.2m/s | -47.1°C | 0.9% | 14.1hPa | 2.6V | 00:00:00 | 00:00:00 | 00:00:00 | |
| AA1-15 | 2026-08-31 00:14:14 | 52.44402 | 14.99246 | 112° | 7km/h | 29004m | 6.6m/s | -47.5°C | 0.2% | 14.3hPa | 2.6V | 18:12:15 | 02:04:17 | 00:00:00 | |
| D01LWL | 2026-08-31 00:14:14 | 52.44401 | 14.99244 | 71° | 5km/h | 28999m | 5.7m/s | -47.6°C | 0.8% | 14.3hPa | 2.5V | 00:00:00 | 00:00:00 | 00:00:00 | |
| DB0DAN | 2026-08-31 00:14:10 | 52.44398 | 14.99238 | 13° | 4km/h | 28977m | 5.8m/s | -47.7°C | 0.8% | 14.32hPa | 2.5V | 00:00:00 | 00:00:00 | 00:00:00 | |
| AA1-15 | 2026-08-31 00:14:03 | 52.44409 | 14.99226 | 178° | 11km/h | 28928m | 5m/s | -47.8°C | 0.2% | 14.4hPa | 2.5V | 18:12:15 | 02:04:05 | 00:00:00 | |
| DO2SHX-10 | 2026-08-31 00:14:01 | 52.44411 | 14.99225 | 164° | 5km/h | 28922m | 6.9m/s | -47.7°C | 3.6% | 14.4hPa | 2.6V | 00:00:00 | 02:04:04 | 00:00:00 | |
| DO2SHX-10 | 2026-08-31 00:13:58 | 52.44410 | 14.99220 | 25° | 7km/h | 28901m | 5.6m/s | -47.8°C | 3.6% | 14.4hPa | 2.5V | 00:00:00 | 02:04:01 | 00:00:00 | |
| KRY50SP-1 | 2026-08-31 00:13:57 | 52.44410 | 14.99220 | 25° | 9km/h | 28901m | 5.6m/s | -47.9°C | 0.8% | 14.5hPa | 2.5V | 00:00:00 | 00:00:00 | 00:00:00 | |
| DB0DAN | 2026-08-31 00:13:55 | 52.44405 | 14.99219 | 347° | 4km/h | 28884m | 4.6m/s | -47.9°C | 0.8% | 14.53hPa | 2.5V | 00:00:00 | 00:00:00 | 00:00:00 | |
| AA1-15 | 2026-08-31 00:13:52 | 52.44406 | 14.99215 | 130° | 11km/h | 28866m | 5.4m/s | -48°C | 0.3% | 14.6hPa | 2.5V | 18:12:15 | 02:03:55 | 00:00:00 | |
| EDDB2-12 | 2026-08-31 00:13:46 | 52.44426 | 14.99207 | 139° | 7km/h | 28823m | 7.1m/s | -48.2°C | 0.8% | 14.7hPa | 2.5V | 00:00:00 | 00:00:00 | 00:00:00 | |
| AA1-15 | 2026-08-31 00:13:42 | 52.44428 | 14.99195 | 103° | 9km/h | 28804m | 6.4m/s | -48.2°C | 0.3% | 14.7hPa | 2.5V | 18:12:15 | 02:03:45 | 00:00:00 | |
| AA1-15 | 2026-08-31 00:13:31 | 52.44465 | 14.99191 | 158° | 13km/h | 28733m | 6.5m/s | -48.5°C | 0.4% | 14.9hPa | 2.5V | 18:12:15 | 02:03:33 | 00:00:00 | |
| SONDE2-12 | 2026-08-31 00:13:21 | 52.44496 | 14.99156 | 156° | 24km/h | 28680m | 5.4m/s | -48.4°C | 1.0% | 15.0hPa | 2.6V | 00:00:00 | 00:00:00 | 00:00:00 | |
| AA1-15 | 2026-08-31 00:13:20 | 52.44509 | 14.99150 | 170° | 29km/h | 28667m | 6.7m/s | -48.4°C | 0.3% | 15hPa | 2.6V | 18:12:15 | 02:03:22 | 00:00:00 | |
| AA1-15 | 2026-08-31 00:13:09 | 52.44556 | 14.99094 | 110° | 20km/h | 28607m | 6.8m/s | -48.8°C | 0.3% | 15.2hPa | 2.5V | 18:12:15 | 02:03:12 | 00:00:00 | |
| AA1-15 | 2026-08-31 00:12:58 | 52.44601 | 14.98999 | 99° | 26km/h | 28532m | 5.5m/s | -49.1°C | 0.4% | 15.3hPa | 2.5V | 18:12:15 | 02:03:00 | 00:00:00 | |
| SONDE2-12 | 2026-08-31 00:12:50 | 52.44623 | 14.98919 | 130° | 26km/h | 28489m | 5.9m/s | -49.1°C | 1.1% | 15.4hPa | 2.5V | 00:00:00 | 00:00:00 | 00:00:00 | |
| AA1-15 | 2026-08-31 00:12:46 | 52.44637 | 14.98882 | 104° | 31km/h | 28465m | 5.6m/s | -49.1°C | 0.4% | 15.5hPa | 2.5V | 18:12:15 | 02:02:49 | 00:00:00 | |
| AA1-15 | 2026-08-31 00:12:36 | 52.44638 | 14.98733 | 101° | 26km/h | 28394m | 6.2m/s | -49°C | 0.4% | 15.7hPa | 2.5V | 18:12:15 | 02:02:38 | 00:00:00 | |
| AA1-15 | 2026-08-31 00:12:25 | 52.44612 | 14.98594 | 73° | 42km/h | 28331m | 7m/s | -49.2°C | 0.4% | 15.8hPa | 2.5V | 18:12:15 | 02:02:28 | 00:00:00 | |
| SONDE2-12 | 2026-08-31 00:12:19 | 52.44600 | 14.98503 | 63° | 35km/h | 28295m | 5.4m/s | -49.3°C | 1.1% | 15.9hPa | 2.5V | 00:00:00 | 00:00:00 | 00:00:00 | |
| AA1-15 | 2026-08-31 00:12:15 | 52.44571 | 14.98427 | 51° | 47km/h | 28264m | 6.6m/s | -49.3°C | 0.4% | 16hPa | 2.5V | 18:12:15 | 02:02:17 | 00:00:00 | |
| AA1-15 | 2026-08-31 00:12:03 | 52.44518 | 14.98300 | 63° | 31km/h | 28194m | 6.9m/s | -49.8°C | 0.5% | 16.2hPa | 2.6V | 18:12:15 | 02:02:06 | 00:00:00 | |
| AA1-15 | 2026-08-31 00:11:52 | 52.44470 | 14.98205 | 34° | 18km/h | 28124m | 6m/s | -49.8°C | 0.5% | 16.3hPa | 2.5V | 18:12:15 | 02:01:55 | 00:00:00 | |
| SONDE2-12 | 2026-08-31 00:11:48 | 52.44458 | 14.98179 | 73° | 24km/h | 28101m | 6.2m/s | -49.7°C | 1.1% | 16.4hPa | 2.5V | 00:00:00 | 00:00:00 | 00:00:00 | |
| AA1-15 | 2026-08-31 00:11:41 | 52.44436 | 14.98119 | 46° | 15km/h | 28058m | 6.7m/s | -49.5°C | 0.5% | 16.5hPa | 2.5V | 18:12:15 | 02:01:44 | 00:00:00 | |
| AA1-15 | 2026-08-31 00:11:30 | 52.44422 | 14.98083 | 60° | 20km/h | 27991m | 6.3m/s | -49.1°C | 0.4% | 16.7hPa | 2.6V | 18:12:15 | 02:01:33 | 00:00:00 | |
| AA1-15 | 2026-08-31 00:11:20 | 52.44410 | 14.98069 | 145° | 7km/h | 27921m | 5.5m/s | -49.3°C | 0.4% | 16.9hPa | 2.5V | 18:12:15 | 02:01:22 | 00:00:00 | |
| SONDE2-12 | 2026-08-31 00:11:17 | 52.44411 | 14.98062 | 86° | 11km/h | 27910m | 6.9m/s | -49.3°C | 1.1% | 16.9hPa | 2.6V | 00:00:00 | 00:00:00 | 00:00:00 | |
| AA1-15 | 2026-08-31 00:11:08 | 52.44387 | 14.98022 | 25° | 11km/h | 27852m | 5.6m/s | -49.5°C | 0.4% | 17.1hPa | 2.6V | 18:12:15 | 02:01:11 | 00:00:00 | |
| AA1-15 | 2026-08-31 00:10:58 | 52.44379 | 14.98005 | 51° | 15km/h | 27786m | 6.1m/s | -49.7°C | 0.5% | 17.2hPa | 2.5V | 18:12:15 | 02:01:00 | 00:00:00 | |
| DB0DAN | 2026-08-31 00:10:55 | 52.44374 | 14.97994 | 48° | 16km/h | 27774m | 5.5m/s | -49.8°C | 0.9% | 17.25hPa | 2.6V | 00:00:00 | 00:00:00 | 00:00:00 | |
| AA1-15 | 2026-08-31 00:10:47 | 52.44358 | 14.97979 | 358° | 15km/h | 27723m | 6.2m/s | -49.9°C | 0.6% | 17.4hPa | 2.5V | 18:12:15 | 02:00:49 | 00:00:00 | |
| DO2SHX-10 | 2026-08-31 00:10:46 | 52.44358 | 14.97979 | 359° | 16km/h | 27723m | 6.2m/s | -49.8°C | 4.1% | 17.4hPa | 2.5V | 00:00:00 | 02:00:49 | 00:00:00 | |
| KRY50SP-1 | 2026-08-31 00:10:44 | 52.44354 | 14.97979 | 5° | 16km/h | 27718m | 4.9m/s | -49.8°C | 0.9% | 17.4hPa | 2.5V | 00:00:00 | 00:00:00 | 00:00:00 | |
| DO2SHX-10 | 2026-08-31 00:10:43 | 52.44346 | 14.97976 | 18° | 11km/h | 27707m | 6.6m/s | -49.8°C | 4.0% | 17.4hPa | 2.5V | 00:00:00 | 02:00:46 | 00:00:00 | |
| DB0DAN | 2026-08-31 00:10:40 | 52.44339 | 14.97970 | 11° | 5km/h | 27690m | 5.8m/s | -49.8°C | 0.9% | 17.52hPa | 2.5V | 00:00:00 | 00:00:00 | 00:00:00 | |
| AA1-15 | 2026-08-31 00:10:36 | 52.44331 | 14.97973 | 16° | 7km/h | 27659m | 5.9m/s | -49.8°C | 0.5% | 17.6hPa | 2.6V | 18:12:15 | 02:00:38 | 00:00:00 | |
| AA1-15 | 2026-08-31 00:10:25 | 52.44297 | 14.97985 | 346° | 20km/h | 27599m | 6.9m/s | -49.7°C | 0.5% | 17.8hPa | 2.5V | 18:12:15 | 02:00:28 | 00:00:00 | |
| SONDE2-12 | 2026-08-31 00:10:15 | 52.44266 | 14.97998 | 297° | 9km/h | 27537m | 6.5m/s | -49.7°C | 1.1% | 17.9hPa | 2.6V | 00:00:00 | 00:00:00 | 00:00:00 | |
| AA1-15 | 2026-08-31 00:10:14 | 52.44264 | 14.98001 | 307° | 11km/h | 27530m | 4.8m/s | -49.7°C | 0.4% | 17.9hPa | 2.6V | 18:12:15 | 02:00:17 | 00:00:00 | |
| AA1-15 | 2026-08-31 00:10:03 | 52.44220 | 14.98006 | 322° | 9km/h | 27465m | 5.5m/s | -50.1°C | 0.5% | 18.1hPa | 2.5V | 18:12:15 | 02:00:06 | 00:00:00 | |
| AA1-15 | 2026-08-31 00:09:52 | 52.44187 | 14.98022 | 32° | 11km/h | 27402m | 4.4m/s | -50.3°C | 0.5% | 18.3hPa | 2.6V | 18:12:15 | 01:59:55 | 00:00:00 | |
| S3001 | 2026-08-31 00:09:46 | 52.44180 | 14.98028 | 295° | 4km/h | 27370m | 7.1m/s | -50.2°C | 0.9% | 18.4hPa | 2.5V | 00:00:00 | 00:00:00 | 00:00:00 | |
| SONDE2-12 | 2026-08-31 00:09:44 | 52.44179 | 14.98027 | 56° | 5km/h | 27357m | 5.2m/s | -50.3°C | 1.1% | 18.4hPa | 2.5V | 00:00:00 | 00:00:00 | 00:00:00 | |
| AA1-15 | 2026-08-31 00:09:41 | 52.44172 | 14.98022 | 1° | 16km/h | 27340m | 6.2m/s | -50.2°C | 0.5% | 18.5hPa | 2.5V | 18:12:15 | 01:59:44 | 00:00:00 | |
| AA1-15 | 2026-08-31 00:09:31 | 52.44133 | 14.98049 | 36° | 13km/h | 27282m | 7.4m/s | -50.3°C | 0.5% | 18.7hPa | 2.6V | 18:12:15 | 01:59:34 | 00:00:00 | |
| AA1-15 | 2026-08-31 00:09:21 | 52.44101 | 14.98060 | 318° | 7km/h | 27220m | 5m/s | -50.3°C | 0.6% | 18.8hPa | 2.5V | 18:12:15 | 01:59:23 | 00:00:00 | |
| SONDE2-12 | 2026-08-31 00:09:13 | 52.44084 | 14.98063 | 328° | 11km/h | 27178m | 7.2m/s | -50.2°C | 1.1% | 19.0hPa | 2.6V | 00:00:00 | 00:00:00 | 00:00:00 | |
| AA1-15 | 2026-08-31 00:09:10 | 52.44074 | 14.98080 | 302° | 18km/h | 27160m | 6.7m/s | -50.3°C | 0.6% | 19hPa | 2.6V | 18:12:15 | 01:59:13 | 00:00:00 | |
| AA1-15 | 2026-08-31 00:09:00 | 52.44054 | 14.98097 | 343° | 5km/h | 27099m | 6.5m/s | -50.3°C | 0.5% | 19.2hPa | 2.6V | 18:12:15 | 01:59:03 | 00:00:00 | |
| EDDB2-11 | 2026-08-31 00:08:57 | 52.44049 | 14.98108 | 302° | 15km/h | 27081m | 6.5m/s | -50.4°C | 1.0% | 19.2hPa | 2.6V | 00:00:00 | 00:00:00 | 00:00:00 | |
| DB0DAN | 2026-08-31 00:08:55 | 52.44045 | 14.98117 | 297° | 11km/h | 27069m | 4.6m/s | -50.4°C | 0.9% | 19.29hPa | 2.6V | 00:00:00 | 00:00:00 | 00:00:00 | |
| AA1-15 | 2026-08-31 00:08:50 | 52.44032 | 14.98130 | 336° | 11km/h | 27041m | 6.5m/s | -50.3°C | 0.6% | 19.4hPa | 2.6V | 18:12:15 | 01:58:53 | 00:00:00 | |
| SONDE2-12 | 2026-08-31 00:08:42 | 52.44012 | 14.98160 | 311° | 15km/h | 26992m | 5.8m/s | -50.2°C | 1.1% | 19.5hPa | 2.5V | 00:00:00 | 00:00:00 | 00:00:00 | |
| DB0DAN | 2026-08-31 00:08:40 | 52.44007 | 14.98169 | 317° | 15km/h | 26981m | 5.9m/s | -50.1°C | 1% | 19.53hPa | 2.5V | 00:00:00 | 00:00:00 | 00:00:00 | |
| AA1-15 | 2026-08-31 00:08:39 | 52.44005 | 14.98173 | 321° | 18km/h | 26974m | 6.9m/s | -50.1°C | 0.5% | 19.6hPa | 2.6V | 18:12:15 | 01:58:42 | 00:00:00 | |
| AA1-15 | 2026-08-31 00:08:28 | 52.43979 | 14.98225 | 322° | 13km/h | 26907m | 5.3m/s | -50°C | 0.5% | 19.8hPa | 2.6V | 18:12:15 | 01:58:31 | 00:00:00 | |
| AA1-15 | 2026-08-31 00:08:18 | 52.43957 | 14.98277 | 264° | 16km/h | 26847m | 6.3m/s | -49.9°C | 0.4% | 19.9hPa | 2.5V | 18:12:15 | 01:58:21 | 00:00:00 | |
| SONDE2-12 | 2026-08-31 00:08:11 | 52.43947 | 14.98307 | 330° | 20km/h | 26805m | 7.3m/s | -50.1°C | 1.1% | 20.1hPa | 2.6V | 00:00:00 | 00:00:00 | 00:00:00 | |
| AA1-15 | 2026-08-31 00:08:07 | 52.43930 | 14.98329 | 306° | 16km/h | 26782m | 4.9m/s | -50.1°C | 0.6% | 20.1hPa | 2.6V | 18:12:15 | 01:58:10 | 00:00:00 | |
| AA1-15 | 2026-08-31 00:07:56 | 52.43917 | 14.98403 | 307° | 22km/h | 26713m | 6.7m/s | -50°C | 0.4% | 20.4hPa | 2.5V | 18:12:15 | 01:57:59 | 00:00:00 | |
| AA1-15 | 2026-08-31 00:07:45 | 52.43900 | 14.98465 | 302° | 9km/h | 26649m | 5.7m/s | -50.3°C | 0.5% | 20.6hPa | 2.5V | 18:12:15 | 01:57:48 | 00:00:00 | |
| SONDE2-12 | 2026-08-31 00:07:40 | 52.43896 | 14.98487 | 269° | 15km/h | 26621m | 5.4m/s | -50.3°C | 1.1% | 20.7hPa | 2.6V | 00:00:00 | 00:00:00 | 00:00:00 | |
| AA1-15 | 2026-08-31 00:07:34 | 52.43894 | 14.98520 | 309° | 5km/h | 26584m | 5.7m/s | -50.4°C | 0.5% | 20.8hPa | 2.6V | 18:12:15 | 01:57:37 | 00:00:00 | |
| AA1-15 | 2026-08-31 00:07:23 | 52.43879 | 14.98537 | 283° | 13km/h | 26517m | 7.4m/s | -50.6°C | 0.5% | 21hPa | 2.5V | 18:12:15 | 01:57:26 | 00:00:00 | |
| AA1-15 | 2026-08-31 00:07:12 | 52.43870 | 14.98540 | 326° | 15km/h | 26451m | 5.8m/s | -51.1°C | 0.5% | 21.2hPa | 2.6V | 18:12:15 | 01:57:15 | 00:00:00 | |
| SONDE2-12 | 2026-08-31 00:07:09 | 52.43866 | 14.98554 | 257° | 13km/h | 26433m | 5.3m/s | -51.2°C | 1.1% | 21.3hPa | 2.5V | 00:00:00 | 00:00:00 | 00:00:00 | |
| AA1-15 | 2026-08-31 00:07:01 | 52.43873 | 14.98575 | 95° | 13km/h | 26384m | 5.9m/s | -51.6°C | 0.6% | 21.4hPa | 2.5V | 18:12:15 | 01:57:04 | 00:00:00 | |
| AA1-15 | 2026-08-31 00:06:50 | 52.43875 | 14.98548 | 93° | 5km/h | 26313m | 6.5m/s | -51.9°C | 0.7% | 21.7hPa | 2.5V | 18:12:15 | 01:56:52 | 00:00:00 | |
| SONDE2-11 | 2026-08-31 00:06:50 | 52.43875 | 14.98549 | 113° | 2km/h | 26319m | 5.4m/s | -51.8°C | 1.0% | 21.7hPa | 2.6V | 00:00:00 | 00:00:00 | 00:00:00 | |
| AA1-15 | 2026-08-31 00:06:38 | 52.43863 | 14.98528 | 72° | 5km/h | 26246m | 7m/s | -52°C | 0.7% | 21.9hPa | 2.6V | 18:12:15 | 01:56:41 | 00:00:00 | |
| SONDE2-12 | 2026-08-31 00:06:38 | 52.43863 | 14.98526 | 85° | 5km/h | 26240m | 5.6m/s | -52.0°C | 1.2% | 21.9hPa | 2.5V | 00:00:00 | 00:00:00 | 00:00:00 | |
| AA1-15 | 2026-08-31 00:06:27 | 52.43856 | 14.98515 | 25° | 7km/h | 26180m | 4.7m/s | -51.9°C | 0.7% | 22.1hPa | 2.5V | 18:12:15 | 01:56:30 | 00:00:00 | |
| AA1-15 | 2026-08-31 00:06:16 | 52.43842 | 14.98502 | 297° | 13km/h | 26113m | 6.7m/s | -52.1°C | 0.7% | 22.4hPa | 2.6V | 18:12:15 | 01:56:19 | 00:00:00 | |
| DO2SHX-10 | 2026-08-31 00:06:16 | 52.43842 | 14.98502 | 298° | 13km/h | 26113m | 6.7m/s | -52.0°C | 4.4% | 22.3hPa | 2.6V | 00:00:00 | 01:56:19 | 00:00:00 | |
| KRY50SP-1 | 2026-08-31 00:06:15 | 52.43842 | 14.98502 | 298° | 13km/h | 26113m | 6.7m/s | -52.1°C | 1.0% | 22.4hPa | 2.6V | 00:00:00 | 00:00:00 | 00:00:00 | |
| DO2SHX-10 | 2026-08-31 00:06:13 | 52.43837 | 14.98515 | 317° | 13km/h | 26095m | 6.8m/s | -52.1°C | 4.4% | 22.4hPa | 2.6V | 00:00:00 | 01:56:16 | 00:00:00 | |
| DB0DAN | 2026-08-31 00:06:10 | 52.43828 | 14.98521 | 356° | 11km/h | 26077m | 6.5m/s | -52.2°C | 1% | 22.5hPa | 2.6V | 00:00:00 | 00:00:00 | 00:00:00 | |
| SONDE2-12 | 2026-08-31 00:06:07 | 52.43822 | 14.98522 | 326° | 9km/h | 26055m | 6.7m/s | -52.3°C | 1.2% | 22.6hPa | 2.5V | 00:00:00 | 00:00:00 | 00:00:00 | |
| AA1-15 | 2026-08-31 00:06:05 | 52.43819 | 14.98525 | 325° | 15km/h | 26048m | 7m/s | -52.3°C | 0.7% | 22.6hPa | 2.5V | 18:12:15 | 01:56:08 | 00:00:00 | |
| DO2SHX-10 | 2026-08-31 00:06:04 | 52.43816 | 14.98529 | 327° | 18km/h | 26043m | 4.5m/s | -52.3°C | 4.4% | 22.6hPa | 2.6V | 00:00:00 | 01:56:07 | 00:00:00 | |
| SP6BVK | 2026-08-31 00:06:02 | 52.43812 | 14.98533 | 330° | 18km/h | 26037m | 6.0m/s | -52.3°C | 1.0% | 22.6hPa | 2.6V | 00:00:00 | 00:00:00 | 00:00:00 | |
| DM0DOS-11 | 2026-08-31 00:06:01 | 52.43790 | 14.98564 | 332° | 9km/h | 25995m | 7m/s | -52.2°C | 4.4% | 22.8hPa | 2.6V | 08:30:00 | 01:55:59 | 00:00:00 | |
| EDDB2-12 | 2026-08-31 00:05:59 | 52.43798 | 14.98550 | 314° | 20km/h | 26013m | 7.2m/s | -52.2°C | 1.0% | 22.7hPa | 2.6V | 00:00:00 | 00:00:00 | 00:00:00 | |
| D01LWL | 2026-08-31 00:05:57 | 52.43790 | 14.98564 | 332° | 7km/h | 25995m | 7.0m/s | -52.2°C | 1.0% | 22.8hPa | 2.6V | 00:00:00 | 00:00:00 | 00:00:00 | |
| DB0DAN | 2026-08-31 00:05:55 | 52.43789 | 14.98564 | 356° | 4km/h | 25990m | 5m/s | -52.3°C | 1% | 22.82hPa | 2.6V | 00:00:00 | 00:00:00 | 00:00:00 | |
| AA1-15 | 2026-08-31 00:05:54 | 52.43788 | 14.98565 | 345° | 4km/h | 25985m | 6.1m/s | -52.3°C | 0.6% | 22.8hPa | 2.5V | 18:12:15 | 01:55:57 | 00:00:00 | |
| EDDB2-11 | 2026-08-31 00:05:51 | 52.43782 | 14.98571 | 326° | 7km/h | 25958m | 6.1m/s | -52.4°C | 1.0% | 22.9hPa | 2.5V | 00:00:00 | 00:00:00 | 00:00:00 | |
| SONDE2-11 | 2026-08-31 00:05:48 | 52.43779 | 14.98577 | 305° | 13km/h | 25948m | 4.5m/s | -52.4°C | 1.0% | 23.0hPa | 2.5V | 00:00:00 | 00:00:00 | 00:00:00 | |
| AA1-15 | 2026-08-31 00:05:44 | 52.43768 | 14.98604 | 307° | 20km/h | 25924m | 5.6m/s | -52.5°C | 0.7% | 23.1hPa | 2.5V | 18:12:15 | 01:55:47 | 00:00:00 | |
| DO2SHX-10 | 2026-08-31 00:05:42 | 52.43762 | 14.98612 | 339° | 11km/h | 25913m | 5.0m/s | -52.5°C | 4.5% | 23.0hPa | 2.6V | 00:00:00 | 01:55:45 | 08:30:00 | |
| DAC517 | 2026-08-31 00:05:40 | 52.43756 | 14.98615 | 331° | 7km/h | 25902m | 5.0m/s | -52.5°C | 1.0% | 23.1hPa | 2.5V | 00:00:00 | 00:00:00 | 00:00:00 | |
| DM0DOS-11 | 2026-08-31 00:05:39 | 52.43764 | 14.98629 | 223° | 7km/h | 25868m | 4.7m/s | -52.6°C | 4.5% | 23.2hPa | 2.5V | 08:30:00 | 01:55:37 | 00:00:00 | |
| SONDE2-12 | 2026-08-31 00:05:36 | 52.43762 | 14.98627 | 205° | 9km/h | 25873m | 5.5m/s | -52.6°C | 1.3% | 23.2hPa | 2.5V | 00:00:00 | 00:00:00 | 00:00:00 | |
| AA1-15 | 2026-08-31 00:05:33 | 52.43765 | 14.98632 | 264° | 9km/h | 25862m | 6.7m/s | -52.6°C | 0.7% | 23.3hPa | 2.5V | 18:12:15 | 01:55:36 | 00:00:00 | |
| AA1-15 | 2026-08-31 00:05:22 | 52.43773 | 14.98689 | 211° | 18km/h | 25798m | 6.9m/s | -52.7°C | 0.7% | 23.5hPa | 2.6V | 18:12:15 | 01:55:25 | 00:00:00 | |
| DO2SHX-10 | 2026-08-31 00:05:21 | 52.43776 | 14.98692 | 210° | 13km/h | 25792m | 6.3m/s | -52.7°C | 4.5% | 23.5hPa | 2.6V | 00:00:00 | 01:55:24 | 00:00:00 | |
| EDDB2-11 | 2026-08-31 00:05:20 | 52.43779 | 14.98699 | 248° | 9km/h | 25779m | 6.2m/s | -52.7°C | 1.0% | 23.6hPa | 2.6V | 00:00:00 | 00:00:00 | 00:00:00 | |
| DO2SHX-10 | 2026-08-31 00:05:18 | 52.43779 | 14.98703 | 267° | 13km/h | 25772m | 5.8m/s | -52.6°C | 4.5% | 23.5hPa | 2.6V | 00:00:00 | 01:55:21 | 00:00:00 | |
| DAC517 | 2026-08-31 00:05:17 | 52.43779 | 14.98714 | 270° | 13km/h | 25763m | 4.8m/s | -52.6°C | 1.0% | 23.7hPa | 2.6V | 00:00:00 | 00:00:00 | 00:00:00 | |
| DO2SHX-10 | 2026-08-31 00:05:15 | 52.43779 | 14.98718 | 262° | 9km/h | 25757m | 6.6m/s | -52.5°C | 4.5% | 23.6hPa | 2.6V | 00:00:00 | 01:55:18 | 08:30:00 | |
| KRY50SP-1 | 2026-08-31 00:05:14 | 52.43779 | 14.98718 | 262° | 9km/h | 25757m | 6.6m/s | -52.6°C | 1.0% | 23.7hPa | 2.5V | 00:00:00 | 00:00:00 | 00:00:00 | |
| DM0DOS-11 | 2026-08-31 00:05:13 | 52.43814 | 14.98748 | 314° | 4km/h | 25673m | 6.7m/s | -52.9°C | 4.5% | 24hPa | 2.5V | 08:30:00 | 01:55:04 | 00:00:00 | |
| AA1-15 | 2026-08-31 00:05:12 | 52.43815 | 14.98748 | 315° | 4km/h | 25674m | 6.7m/s | -52.9°C | 0.7% | 24hPa | 2.5V | 18:12:15 | 01:55:04 | 00:00:00 | |
| DO2SHX-10 | 2026-08-31 00:05:12 | 52.43785 | 14.98725 | 199° | 20km/h | 25741m | 6.6m/s | -52.4°C | 4.4% | 23.7hPa | 2.5V | 00:00:00 | 01:55:15 | 00:00:00 | |
| DO2SHX-10 | 2026-08-31 00:05:09 | 52.43799 | 14.98732 | 192° | 24km/h | 25723m | 6.4m/s | -52.5°C | 4.4% | 23.8hPa | 2.5V | 00:00:00 | 01:55:12 | 00:00:00 | |
| SP3BTT-10 | 2026-08-31 00:05:08 | 52.43804 | 14.98733 | 182° | 11km/h | 25716m | 6.3m/s | -52.5°C | 4.4% | 23.8hPa | 2.5V | 00:00:00 | 00:00:00 | 00:00:00 | |
| DM0DOS-11 | 2026-08-31 00:05:07 | 52.43823 | 14.98739 | 152° | 18km/h | 25639m | 5.4m/s | -52.9°C | 4.5% | 24.1hPa | 2.5V | 08:30:00 | 01:54:58 | 00:00:00 | |
| AA1-15 | 2026-08-31 00:04:54 | 52.43827 | 14.98734 | 141° | 18km/h | 25633m | 7.3m/s | -52.9°C | 0.7% | 24.1hPa | 2.5V | 18:12:15 | 01:54:57 | 00:00:00 | |
| DC4HF-4 | 2026-08-31 00:04:53 | 52.43831 | 14.98729 | 138° | 20km/h | 25627m | 6.1m/s | -52.9°C | 1.0% | 24.1hPa | 2.5V | 00:00:00 | 00:00:00 | 00:00:00 | |
| EDDB2-11 | 2026-08-31 00:04:49 | 52.43847 | 14.98708 | 131° | 11km/h | 25598m | 7.2m/s | -52.9°C | 1.1% | 24.3hPa | 2.5V | 00:00:00 | 00:00:00 | 00:00:00 | |
| SONDE2-11 | 2026-08-31 00:04:47 | 52.43851 | 14.98701 | 132° | 11km/h | 25586m | 4.9m/s | -52.9°C | 1.0% | 24.3hPa | 2.5V | 00:00:00 | 00:00:00 | 00:00:00 | |
| AA1-15 | 2026-08-31 00:04:43 | 52.43857 | 14.98695 | 159° | 11km/h | 25568m | 4.9m/s | -53°C | 0.8% | 24.4hPa | 2.5V | 18:12:15 | 01:54:46 | 00:00:00 | |
| SONDE2-12 | 2026-08-31 00:04:35 | 52.43869 | 14.98649 | 90° | 13km/h | 25503m | 5.2m/s | -53.1°C | 1.3% | 24.6hPa | 2.6V | 00:00:00 | 00:00:00 | 00:00:00 | |
| AA1-15 | 2026-08-31 00:04:33 | 52.43869 | 14.98644 | 87° | 9km/h | 25497m | 6.4m/s | -53°C | 0.8% | 24.6hPa | 2.6V | 18:12:15 | 01:54:35 | 00:00:00 | |
| AA1-15 | 2026-08-31 00:04:22 | 52.43873 | 14.98605 | 85° | 7km/h | 25440m | 6.5m/s | -52.7°C | 0.7% | 24.9hPa | 2.5V | 18:12:15 | 01:54:25 | 00:00:00 | |
| DO2SHX-10 | 2026-08-31 00:04:20 | 52.43873 | 14.98598 | 71° | 4km/h | 25429m | 6.3m/s | -52.7°C | 4.5% | 24.9hPa | 2.6V | 00:00:00 | 01:54:23 | 08:30:00 | |
| DM0DOS-11 | 2026-08-31 00:04:18 | 52.43879 | 14.98575 | 133° | 13km/h | 25379m | 6.2m/s | -52.7°C | 4.5% | 25.1hPa | 2.5V | 08:30:00 | 01:54:15 | 00:00:00 | |
| AA1-15 | 2026-08-31 00:04:11 | 52.43881 | 14.98572 | 125° | 9km/h | 25373m | 4.7m/s | -52.7°C | 0.7% | 25.1hPa | 2.5V | 18:12:15 | 01:54:14 | 00:00:00 | |
| DO2SHX-10 | 2026-08-31 00:04:11 | 52.43881 | 14.98572 | 125° | 9km/h | 25374m | 4.7m/s | -52.6°C | 4.5% | 25.1hPa | 2.5V | 00:00:00 | 01:54:14 | 00:00:00 | |
| SP3BTT-10 | 2026-08-31 00:04:09 | 52.43882 | 14.98564 | 82° | 16km/h | 25363m | 6.8m/s | -52.6°C | 4.5% | 25.1hPa | 2.5V | 00:00:00 | 00:00:00 | 00:00:00 | |
| DO2SHX-10 | 2026-08-31 00:04:08 | 52.43881 | 14.98561 | 61° | 15km/h | 25357m | 6.5m/s | -52.6°C | 4.4% | 25.1hPa | 2.5V | 00:00:00 | 01:54:11 | 00:00:00 | |
| KRY50SP-1 | 2026-08-31 00:04:07 | 52.43879 | 14.98557 | 40° | 13km/h | 25351m | 6.1m/s | -52.6°C | 1.0% | 25.2hPa | 2.5V | 00:00:00 | 00:00:00 | 00:00:00 | |
| DM0DOS-11 | 2026-08-31 00:04:05 | 52.43866 | 14.98560 | 11° | 5km/h | 25320m | 6.3m/s | -52.6°C | 4.5% | 25.3hPa | 2.5V | 08:30:00 | 01:54:05 | 00:00:00 | |
| SONDE2-12 | 2026-08-31 00:04:03 | 52.43865 | 14.98560 | 11° | 5km/h | 25321m | 6.3m/s | -52.6°C | 1.3% | 25.3hPa | 2.6V | 00:00:00 | 00:00:00 | 00:00:00 | |
| AA1-15 | 2026-08-31 00:04:00 | 52.43864 | 14.98555 | 78° | 9km/h | 25309m | 5.5m/s | -52.7°C | 0.7% | 25.4hPa | 2.6V | 18:12:15 | 01:54:03 | 00:00:00 | |
| SP6BVK | 2026-08-31 00:04:00 | 52.43864 | 14.98555 | 79° | 9km/h | 25310m | 5.5m/s | -52.7°C | 1.0% | 25.4hPa | 2.6V | 00:00:00 | 00:00:00 | 00:00:00 | |
| DO2SHX-10 | 2026-08-31 00:03:59 | 52.43864 | 14.98552 | 73° | 9km/h | 25304m | 6.5m/s | -52.7°C | 4.5% | 25.3hPa | 2.6V | 00:00:00 | 01:54:02 | 00:00:00 | |
| KRY50SP-1 | 2026-08-31 00:03:57 | 52.43863 | 14.98545 | 58° | 11km/h | 25293m | 4.3m/s | -52.9°C | 1.0% | 25.4hPa | 2.6V | 00:00:00 | 00:00:00 | 00:00:00 | |
| DO2SHX-10 | 2026-08-31 00:03:56 | 52.43861 | 14.98541 | 54° | 18km/h | 25288m | 6.2m/s | -52.9°C | 4.6% | 25.4hPa | 2.6V | 00:00:00 | 01:53:59 | 00:00:00 | |
| DM0DOS-11 | 2026-08-31 00:03:55 | 52.43846 | 14.98522 | 20° | 15km/h | 25264m | 5.8m/s | -52.9°C | 4.6% | 25.6hPa | 2.6V | 08:30:00 | 01:53:55 | 00:00:00 | |
| DB0DAN | 2026-08-31 00:03:55 | 52.43859 | 14.98536 | 43° | 18km/h | 25282m | 5.7m/s | -52.9°C | 1.1% | 25.5hPa | 2.5V | 00:00:00 | 00:00:00 | 00:00:00 | |
| AA1-15 | 2026-08-31 00:03:49 | 52.43836 | 14.98517 | 21° | 11km/h | 25247m | 6.7m/s | -52.8°C | 0.8% | 25.6hPa | 2.5V | 18:12:15 | 01:53:52 | 00:00:00 | |
| EDDB2-11 | 2026-08-31 00:03:47 | 52.43830 | 14.98515 | 338° | 5km/h | 25229m | 6.9m/s | -52.9°C | 1.1% | 25.7hPa | 2.5V | 00:00:00 | 00:00:00 | 00:00:00 | |
| DO2SHX-10 | 2026-08-31 00:03:46 | 52.43830 | 14.98514 | 339° | 7km/h | 25229m | 6.8m/s | -52.8°C | 4.6% | 25.7hPa | 2.5V | 00:00:00 | 01:53:49 | 00:00:00 | |
| KRY50SP-1 | 2026-08-31 00:03:45 | 52.43830 | 14.98514 | 340° | 7km/h | 25229m | 6.9m/s | -52.8°C | 1.1% | 25.7hPa | 2.5V | 00:00:00 | 00:00:00 | 00:00:00 | |
| SONDE2-11 | 2026-08-31 00:03:44 | 52.43826 | 14.98520 | 336° | 7km/h | 25212m | 6.1m/s | -52.8°C | 1.1% | 25.8hPa | 2.5V | 00:00:00 | 00:00:00 | 00:00:00 | |
| DO2SHX-10 | 2026-08-31 00:03:43 | 52.43826 | 14.98520 | 337° | 9km/h | 25212m | 6.0m/s | -52.8°C | 4.6% | 25.7hPa | 2.5V | 00:00:00 | 01:53:46 | 00:00:00 | |
| DB0DAN | 2026-08-31 00:03:40 | 52.43818 | 14.98519 | 6° | 9km/h | 25194m | 6m/s | -52.8°C | 1.1% | 25.84hPa | 2.6V | 00:00:00 | 00:00:00 | 00:00:00 | |
| AA1-15 | 2026-08-31 00:03:38 | 52.43814 | 14.98519 | 356° | 7km/h | 25183m | 4.5m/s | -52.8°C | 0.8% | 25.9hPa | 2.5V | 18:12:15 | 01:53:41 | 00:00:00 | |
| DO2SHX-10 | 2026-08-31 00:03:37 | 52.43813 | 14.98519 | 10° | 7km/h | 25179m | 4.9m/s | -52.7°C | 4.6% | 25.9hPa | 2.6V | 00:00:00 | 01:53:40 | 00:00:00 | |
| KRY50SP-1 | 2026-08-31 00:03:36 | 52.43811 | 14.98519 | 26° | 7km/h | 25173m | 6.2m/s | -52.7°C | 1.0% | 25.9hPa | 2.6V | 00:00:00 | 00:00:00 | 00:00:00 | |
| DM0DOS-11 | 2026-08-31 00:03:34 | 52.43806 | 14.98519 | 279° | 7km/h | 25151m | 5.8m/s | -52.6°C | 4.5% | 26.1hPa | 2.6V | 08:30:00 | 01:53:35 | 00:00:00 | |
| SONDE2-12 | 2026-08-31 00:03:33 | 52.43806 | 14.98522 | 281° | 9km/h | 25146m | 5.2m/s | -52.6°C | 1.3% | 26.1hPa | 2.5V | 00:00:00 | 00:00:00 | 00:00:00 | |
| AA1-15 | 2026-08-31 00:03:27 | 52.43802 | 14.98535 | 332° | 11km/h | 25123m | 4.4m/s | -52.6°C | 0.7% | 26.1hPa | 2.5V | 18:12:15 | 01:53:30 | 00:00:00 | |
| DM0DOS-11 | 2026-08-31 00:03:25 | 52.43788 | 14.98552 | 314° | 7km/h | 25092m | 6.7m/s | -52.8°C | 4.6% | 26.2hPa | 2.5V | 08:30:00 | 01:53:25 | 00:00:00 | |
| AA1-15 | 2026-08-31 00:03:16 | 52.43787 | 14.98562 | 256° | 11km/h | 25057m | 4.9m/s | -52.7°C | 0.8% | 26.4hPa | 2.5V | 18:12:15 | 01:53:19 | 00:00:00 | |
| AA1-15 | 2026-08-31 00:03:06 | 52.43779 | 14.98632 | 254° | 13km/h | 24998m | 8m/s | -52.3°C | 0.7% | 26.7hPa | 2.6V | 18:12:15 | 01:53:09 | 00:00:00 | |
| SP3BTT-10 | 2026-08-31 00:03:06 | 52.43779 | 14.98632 | 254° | 11km/h | 24998m | 7.9m/s | -52.2°C | 4.5% | 26.6hPa | 2.6V | 00:00:00 | 00:00:00 | 08:30:00 | |
| DC4HF-4 | 2026-08-31 00:03:05 | 52.43781 | 14.98641 | 230° | 11km/h | 24985m | 4.9m/s | -52.3°C | 1.0% | 26.7hPa | 2.5V | 00:00:00 | 00:00:00 | 00:00:00 | |
| S3001 | 2026-08-31 00:03:03 | 52.43785 | 14.98647 | 204° | 9km/h | 24973m | 6.7m/s | -52.2°C | 1.0% | 26.8hPa | 2.5V | 00:00:00 | 00:00:00 | 00:00:00 | |
| DM0DOS-11 | 2026-08-31 00:03:00 | 52.43793 | 14.98688 | 272° | 18km/h | 24931m | 6.1m/s | -52.4°C | 4.5% | 26.9hPa | 2.5V | 08:30:00 | 01:52:58 | 00:00:00 | |
| AA1-15 | 2026-08-31 00:02:55 | 52.43793 | 14.98688 | 273° | 18km/h | 24931m | 6.1m/s | -52.4°C | 0.7% | 26.9hPa | 2.5V | 18:12:15 | 01:52:58 | 00:00:00 | |
| KRY50SP-1 | 2026-08-31 00:02:55 | 52.43826 | 14.98700 | 133° | 13km/h | 24707m | 5.6m/s | -52.1°C | 1.0% | 27.9hPa | 2.5V | 00:00:00 | 00:00:00 | 00:00:00 | |
| EDDB2-11 | 2026-08-31 00:02:50 | 52.43831 | 14.98696 | 230° | 5km/h | 24690m | 6.7m/s | -52.1°C | 1.0% | 28.0hPa | 2.5V | 00:00:00 | 00:00:00 | 00:00:00 | |
| DO2SHX-10 | 2026-08-31 00:02:49 | 52.43831 | 14.98696 | 231° | 5km/h | 24690m | 6.7m/s | -52.1°C | 4.3% | 27.9hPa | 2.5V | 00:00:00 | 01:52:16 | 00:00:00 | |
| SP3WXH-11 | 2026-08-31 00:02:46 | 52.43830 | 14.98710 | 292° | 13km/h | 24674m | 4.7m/s | -52.2°C | 1.0% | 28.0hPa | 2.5V | 00:00:00 | 00:00:00 | 00:00:00 | |
| AA1-15 | 2026-08-31 00:02:45 | 52.43808 | 14.98733 | 245° | 7km/h | 24855m | 6.7m/s | -52.2°C | 0.7% | 27.2hPa | 2.5V | 18:12:15 | 01:52:45 | 00:00:00 | |
| DAC517 | 2026-08-31 00:02:45 | 52.43824 | 14.98706 | 90° | 16km/h | 24651m | 6.1m/s | -52.3°C | 1.0% | 28.1hPa | 2.5V | 00:00:00 | 00:00:00 | 00:00:00 | |
| DO2SHX-10 | 2026-08-31 00:02:43 | 52.43828 | 14.98714 | 322° | 9km/h | 24668m | 5.8m/s | -52.2°C | 4.4% | 28.0hPa | 2.5V | 00:00:00 | 01:52:12 | 00:00:00 | |
| DB0DAN | 2026-08-31 00:02:40 | 52.43810 | 14.98738 | 250° | 7km/h | 24843m | 6m/s | -52.2°C | 1.1% | 27.32hPa | 2.6V | 00:00:00 | 00:00:00 | 00:00:00 | |
| DM0DOS-11 | 2026-08-31 00:02:37 | 52.43812 | 14.98746 | 87° | 4km/h | 24815m | 4.9m/s | -52.2°C | 4.4% | 27.4hPa | 2.5V | 08:30:00 | 01:52:38 | 00:00:00 | |
| DO2SHX-10 | 2026-08-31 00:02:37 | 52.43824 | 14.98706 | 89° | 16km/h | 24651m | 6.1m/s | -52.3°C | 4.4% | 28.1hPa | 2.5V | 00:00:00 | 01:52:09 | 00:00:00 | |
| KRY50SP-1 | 2026-08-31 00:02:36 | 52.43824 | 14.98706 | 90° | 16km/h | 24651m | 6.1m/s | -52.3°C | 1.0% | 28.1hPa | 2.5V | 00:00:00 | 00:00:00 | 00:00:00 | |
| DO2SHX-10 | 2026-08-31 00:02:34 | 52.43828 | 14.98685 | 116° | 11km/h | 24634m | 4.6m/s | -52.3°C | 4.5% | 28.2hPa | 2.5V | 00:00:00 | 01:52:06 | 00:00:00 | |
| AA1-15 | 2026-08-31 00:02:33 | 52.43821 | 14.98726 | 99° | 4km/h | 24774m | 6.2m/s | -52.2°C | 0.7% | 27.6hPa | 2.5V | 18:12:15 | 01:52:31 | 00:00:00 | |
| DM0DOS-11 | 2026-08-31 00:02:32 | 52.43821 | 14.98726 | 325° | 2km/h | 24757m | 3.8m/s | -52.2°C | 4.4% | 27.6hPa | 2.6V | 08:30:00 | 01:52:28 | 00:00:00 | |
| 13BRC | 2026-08-31 00:02:31 | 52.43830 | 14.98675 | 89° | 9km/h | 24622m | 5.8m/s | -52.4°C | 1.1% | 28.3hPa | 2.6V | 00:00:00 | 00:00:00 | 00:00:00 | |
| SP6BVK | 2026-08-31 00:02:28 | 52.43828 | 14.98669 | 22° | 7km/h | 24611m | 4.8m/s | -52.5°C | 1.1% | 28.3hPa | 2.6V | 00:00:00 | 00:00:00 | 00:00:00 | |
| SONDE2-12 | 2026-08-31 00:02:27 | 52.43825 | 14.98670 | 335° | 7km/h | 24598m | 6.8m/s | -52.5°C | 1.3% | 28.4hPa | 2.6V | 00:00:00 | 00:00:00 | 00:00:00 | |
| DO2SHX-10 | 2026-08-31 00:02:24 | 52.43827 | 14.98669 | 359° | 7km/h | 24606m | 6.8m/s | -52.4°C | 4.5% | 28.3hPa | 2.6V | 00:00:00 | 01:52:01 | 08:30:00 | |
| DAC517 | 2026-08-31 00:02:23 | 52.43803 | 14.98636 | 91° | 7km/h | 24528m | 6.1m/s | -52.3°C | 1.1% | 28.7hPa | 2.5V | 00:00:00 | 00:00:00 | 00:00:00 | |
| AA1-15 | 2026-08-31 00:02:22 | 52.43818 | 14.98722 | 59° | 9km/h | 24741m | 5.3m/s | -52.2°C | 0.7% | 27.8hPa | 2.5V | 18:12:15 | 01:52:25 | 00:00:00 | |
| DC4HF-4 | 2026-08-31 00:02:20 | 52.43808 | 14.98672 | 30° | 11km/h | 24569m | 4.4m/s | -52.4°C | 1.1% | 28.5hPa | 2.5V | 00:00:00 | 00:00:00 | 00:00:00 | |
| DO2SHX-10 | 2026-08-31 00:02:19 | 52.43808 | 14.98672 | 31° | 13km/h | 24569m | 4.3m/s | -52.4°C | 4.5% | 28.4hPa | 2.5V | 00:00:00 | 01:51:55 | 00:00:00 | |
| DM0DOS-11 | 2026-08-31 00:02:19 | 52.43828 | 14.98697 | 136° | 9km/h | 24702m | 4.8m/s | -52.1°C | 4.4% | 27.9hPa | 2.5V | 08:30:00 | 01:52:18 | 00:00:00 | |
| 3Z3Z-3 | 2026-08-31 00:02:18 | 52.43808 | 14.98672 | 31° | 13km/h | 24569m | 4.4m/s | -52.4°C | 1.1% | 28.5hPa | 2.5V | 00:00:00 | 00:00:00 | 00:00:00 | |
| EDDB2-12 | 2026-08-31 00:02:16 | 52.43806 | 14.98669 | 47° | 11km/h | 24562m | 7.4m/s | -52.4°C | 1.0% | 28.5hPa | 2.5V | 00:00:00 | 00:00:00 | 00:00:00 | |
| KRY50SP-1 | 2026-08-31 00:02:14 | 52.43804 | 14.98659 | 89° | 15km/h | 24551m | 4.3m/s | -52.4°C | 1.1% | 28.6hPa | 2.5V | 00:00:00 | 00:00:00 | 00:00:00 | |
| AA1-15 | 2026-08-31 00:02:12 | 52.43831 | 14.98705 | 277° | 13km/h | 24678m | 4.4m/s | -52.2°C | 0.6% | 28hPa | 2.5V | 18:12:15 | 01:52:14 | 00:00:00 | |
| DM0DOS-11 | 2026-08-31 00:02:10 | 52.43825 | 14.98699 | 107° | 18km/h | 24644m | 6.6m/s | -52.3°C | 4.5% | 28.2hPa | 2.5V | 08:30:00 | 01:52:08 | 00:00:00 | |
| DO2SHX-10 | 2026-08-31 00:02:10 | 52.43803 | 14.98636 | 90° | 7km/h | 24528m | 6.1m/s | -52.2°C | 4.5% | 28.6hPa | 2.5V | 00:00:00 | 01:51:48 | 00:00:00 | |
| KRY50SP-1 | 2026-08-31 00:02:06 | 52.43803 | 14.98635 | 317° | 7km/h | 24517m | 6.9m/s | -52.2°C | 1.0% | 28.8hPa | 2.5V | 00:00:00 | 00:00:00 | 00:00:00 | |
| SP3WXH-11 | 2026-08-31 00:02:03 | 52.43793 | 14.98650 | 314° | 11km/h | 24494m | 7.0m/s | -52.1°C | 1.0% | 28.9hPa | 2.5V | 00:00:00 | 00:00:00 | 00:00:00 | |
| 13BRC | 2026-08-31 00:02:02 | 52.43795 | 14.98646 | 318° | 16km/h | 24500m | 4.9m/s | -52.1°C | 1.0% | 28.8hPa | 2.5V | 00:00:00 | 00:00:00 | 00:00:00 | |
| AA1-15 | 2026-08-31 00:02:01 | 52.43830 | 14.98675 | 88° | 9km/h | 24622m | 5.8m/s | -52.4°C | 0.8% | 28.3hPa | 2.5V | 18:12:15 | 01:52:04 | 00:00:00 | |
| 3Z3Z-3 | 2026-08-31 00:02:01 | 52.43792 | 14.98650 | 315° | 13km/h | 24494m | 7.0m/s | -52.1°C | 1.0% | 28.9hPa | 2.5V | 00:00:00 | 00:00:00 | 00:00:00 | |
| SP6BVK | 2026-08-31 00:01:59 | 52.43791 | 14.98653 | 321° | 7km/h | 24487m | 6.3m/s | -52.1°C | 1.0% | 28.9hPa | 2.5V | 00:00:00 | 00:00:00 | 00:00:00 | |
| DM0DOS-11 | 2026-08-31 00:01:58 | 52.43820 | 14.98673 | 346° | 13km/h | 24585m | 6.1m/s | -52.5°C | 4.6% | 28.4hPa | 2.5V | 08:30:00 | 01:51:58 | 00:00:00 | |
| KRY50SP-1 | 2026-08-31 00:01:57 | 52.43790 | 14.98654 | 10° | 5km/h | 24482m | 5.6m/s | -52.1°C | 1.0% | 28.9hPa | 2.5V | 00:00:00 | 00:00:00 | 00:00:00 | |
| DO2SHX-10 | 2026-08-31 00:01:53 | 52.43788 | 14.98653 | 40° | 11km/h | 24475m | 6.6m/s | -52.0°C | 4.3% | 28.9hPa | 2.5V | 00:00:00 | 01:51:39 | 00:00:00 | |
| AA1-15 | 2026-08-31 00:01:52 | 52.43804 | 14.98659 | 88° | 15km/h | 24550m | 4.3m/s | -52.4°C | 0.7% | 28.6hPa | 2.5V | 18:12:15 | 01:51:52 | 00:00:00 | |
| DM0DOS-11 | 2026-08-31 00:01:51 | 52.43803 | 14.98635 | 315° | 7km/h | 24517m | 6.9m/s | -52.2°C | 4.4% | 28.8hPa | 2.5V | 08:30:00 | 01:51:46 | 00:00:00 | |
| KRY50SP-1 | 2026-08-31 00:01:50 | 52.43783 | 14.98638 | 85° | 5km/h | 24451m | 6.2m/s | -52.0°C | 1.0% | 29.0hPa | 2.5V | 00:00:00 | 00:00:00 | 00:00:00 | |
| S3001 | 2026-08-31 00:01:45 | 52.43780 | 14.98641 | 303° | 9km/h | 24432m | 5.4m/s | -52.0°C | 1.0% | 29.1hPa | 2.5V | 00:00:00 | 00:00:00 | 00:00:00 | |
| SONDE2-12 | 2026-08-31 00:01:41 | 52.43777 | 14.98649 | 294° | 13km/h | 24421m | 6.5m/s | -52.0°C | 1.3% | 29.2hPa | 2.5V | 00:00:00 | 00:00:00 | 00:00:00 | |
| AA1-15 | 2026-08-31 00:01:39 | 52.43789 | 14.98654 | 9° | 5km/h | 24482m | 5.6m/s | -52.1°C | 0.7% | 28.9hPa | 2.5V | 18:12:15 | 01:51:40 | 00:00:00 | |
| KRY50SP-1 | 2026-08-31 00:01:37 | 52.43776 | 14.98654 | 277° | 11km/h | 24415m | 6.9m/s | -52.0°C | 1.0% | 29.2hPa | 2.6V | 00:00:00 | 00:00:00 | 00:00:00 | |
| DM0DOS-11 | 2026-08-31 00:01:36 | 52.43785 | 14.98646 | 58° | 13km/h | 24463m | 5m/s | -52°C | 4.4% | 29hPa | 2.6V | 08:30:00 | 01:51:37 | 00:00:00 | |
| DAC517 | 2026-08-31 00:01:35 | 52.43775 | 14.98660 | 299° | 7km/h | 24403m | 6.4m/s | -52.0°C | 1.0% | 29.3hPa | 2.5V | 00:00:00 | 00:00:00 | 00:00:00 | |
| 3Z3Z-3 | 2026-08-31 00:01:34 | 52.43774 | 14.98663 | 318° | 7km/h | 24396m | 5.8m/s | -52.0°C | 1.0% | 29.3hPa | 2.5V | 00:00:00 | 00:00:00 | 00:00:00 | |
| EDDB2-12 | 2026-08-31 00:01:31 | 52.43773 | 14.98665 | 176° | 4km/h | 24378m | 7.0m/s | -52.1°C | 1.0% | 29.4hPa | 2.5V | 00:00:00 | 00:00:00 | 00:00:00 | |
| KRY50SP-1 | 2026-08-31 00:01:30 | 52.43773 | 14.98665 | 178° | 4km/h | 24378m | 7.0m/s | -52.1°C | 1.0% | 29.4hPa | 2.5V | 00:00:00 | 00:00:00 | 00:00:00 | |
| 13BRC | 2026-08-31 00:01:28 | 52.43775 | 14.98665 | 182° | 5km/h | 24373m | 4.3m/s | -52.0°C | 1.0% | 29.4hPa | 2.5V | 00:00:00 | 00:00:00 | 00:00:00 | |
| AA1-15 | 2026-08-31 00:01:28 | 52.43778 | 14.98644 | 298° | 13km/h | 24426m | 4.5m/s | -52°C | 0.6% | 29.1hPa | 2.5V | 18:12:15 | 01:51:31 | 00:00:00 | |
| DO2SHX-10 | 2026-08-31 00:01:27 | 52.43777 | 14.98665 | 206° | 5km/h | 24368m | 5.4m/s | -52.0°C | 4.4% | 29.4hPa | 2.5V | 00:00:00 | 01:51:21 | 00:00:00 | |
| SP6BVK | 2026-08-31 00:01:26 | 52.43777 | 14.98667 | 253° | 4km/h | 24363m | 6.0m/s | -52.0°C | 1.0% | 29.5hPa | 2.5V | 00:00:00 | 00:00:00 | 00:00:00 | |
| DB0DAN | 2026-08-31 00:01:25 | 52.43776 | 14.98658 | 277° | 7km/h | 24408m | 5.8m/s | -52°C | 1% | 29.24hPa | 2.5V | 00:00:00 | 00:00:00 | 00:00:00 | |
| DO2SHX-10 | 2026-08-31 00:01:25 | 52.43778 | 14.98671 | 248° | 9km/h | 24352m | 6.5m/s | -52.0°C | 4.4% | 29.4hPa | 2.6V | 00:00:00 | 01:51:18 | 08:30:00 | |
| KRY50SP-1 | 2026-08-31 00:01:24 | 52.43778 | 14.98671 | 249° | 9km/h | 24352m | 6.6m/s | -52.1°C | 1.0% | 29.5hPa | 2.5V | 00:00:00 | 00:00:00 | 00:00:00 | |
| DM0DOS-11 | 2026-08-31 00:01:23 | 52.43773 | 14.98665 | 176° | 4km/h | 24378m | 7m/s | -52°C | 4.3% | 29.4hPa | 2.5V | 08:30:00 | 01:51:23 | 00:00:00 | |
| DO2SHX-10 | 2026-08-31 00:01:21 | 52.43782 | 14.98686 | 253° | 16km/h | 24333m | 5.7m/s | -52.0°C | 4.3% | 29.5hPa | 2.5V | 00:00:00 | 01:51:15 | 00:00:00 | |
| EDDB2-11 | 2026-08-31 00:01:19 | 52.43783 | 14.98693 | 261° | 16km/h | 24327m | 6.4m/s | -52.1°C | 1.0% | 29.6hPa | 2.5V | 00:00:00 | 00:00:00 | 00:00:00 | |
| AA1-15 | 2026-08-31 00:01:18 | 52.43777 | 14.98667 | 252° | 4km/h | 24362m | 6m/s | -52°C | 0.7% | 29.5hPa | 2.5V | 18:12:15 | 01:51:20 | 00:00:00 | |
| DO2SHX-10 | 2026-08-31 00:01:17 | 52.43784 | 14.98706 | 260° | 11km/h | 24317m | 5.9m/s | -52.0°C | 4.3% | 29.6hPa | 2.6V | 00:00:00 | 01:51:12 | 00:00:00 | |
| KRY50SP-1 | 2026-08-31 00:01:16 | 52.43784 | 14.98706 | 261° | 15km/h | 24317m | 5.9m/s | -52.1°C | 1.0% | 29.7hPa | 2.6V | 00:00:00 | 00:00:00 | 00:00:00 | |
| SONDE2-11 | 2026-08-31 00:01:15 | 52.43785 | 14.98711 | 243° | 9km/h | 24309m | 7.6m/s | -52.1°C | 1.0% | 29.7hPa | 2.6V | 00:00:00 | 00:00:00 | 00:00:00 | |
| 3Z3Z-3 | 2026-08-31 00:01:14 | 52.43785 | 14.98711 | 244° | 11km/h | 24309m | 7.6m/s | -52.1°C | 1.0% | 29.7hPa | 2.6V | 00:00:00 | 00:00:00 | 00:00:00 | |
| DO2SHX-10 | 2026-08-31 00:01:12 | 52.43787 | 14.98716 | 230° | 4km/h | 24297m | 5.9m/s | -52.1°C | 4.4% | 29.7hPa | 2.6V | 00:00:00 | 01:51:09 | 00:00:00 | |
| KRY50SP-1 | 2026-08-31 00:01:11 | 52.43787 | 14.98717 | 20° | 4km/h | 24285m | 4.2m/s | -52.3°C | 1.0% | 29.8hPa | 2.5V | 00:00:00 | 00:00:00 | 00:00:00 | |
| DM0DOS-11 | 2026-08-31 00:01:10 | 52.43787 | 14.98717 | 18° | 4km/h | 24285m | 4.2m/s | -52.2°C | 4.4% | 29.8hPa | 2.5V | 08:30:00 | 01:51:07 | 00:00:00 | |
| DB0DAN | 2026-08-31 00:01:10 | 52.43783 | 14.98700 | 264° | 16km/h | 24322m | 4.1m/s | -52.1°C | 1% | 29.64hPa | 2.5V | 00:00:00 | 00:00:00 | 00:00:00 | |
| AA1-15 | 2026-08-31 00:01:08 | 52.43787 | 14.98716 | 229° | 4km/h | 24297m | 6m/s | -52.1°C | 0.7% | 29.8hPa | 2.6V | 18:12:15 | 01:51:09 | 00:00:00 | |
| S3001 | 2026-08-31 00:01:05 | 52.43787 | 14.98724 | 273° | 9km/h | 24250m | 5.0m/s | -52.4°C | 1.0% | 30.0hPa | 2.5V | 00:00:00 | 00:00:00 | 00:00:00 | |
| 13BRC | 2026-08-31 00:01:04 | 52.43787 | 14.98724 | 275° | 11km/h | 24250m | 5.0m/s | -52.4°C | 1.0% | 30.0hPa | 2.5V | 00:00:00 | 00:00:00 | 00:00:00 | |
| SONDE2-12 | 2026-08-31 00:01:00 | 52.43788 | 14.98733 | 245° | 11km/h | 24237m | 6.7m/s | -52.5°C | 1.3% | 30.0hPa | 2.5V | 00:00:00 | 00:00:00 | 00:00:00 | |
| DO2SHX-10 | 2026-08-31 00:00:59 | 52.43788 | 14.98733 | 246° | 7km/h | 24237m | 6.7m/s | -52.4°C | 4.4% | 30.0hPa | 2.5V | 00:00:00 | 01:50:59 | 00:00:00 | |
| AA1-15 | 2026-08-31 00:00:57 | 52.43787 | 14.98729 | 260° | 11km/h | 24244m | 6.3m/s | -52.4°C | 0.7% | 30hPa | 2.5V | 18:12:15 | 01:51:00 | 00:00:00 | |
| DM0DOS-11 | 2026-08-31 00:00:56 | 52.43791 | 14.98740 | 233° | 7km/h | 24225m | 6.3m/s | -52.5°C | 4.4% | 30.1hPa | 2.6V | 08:30:00 | 01:50:57 | 00:00:00 | |
| KRY50SP-1 | 2026-08-31 00:00:56 | 52.43792 | 14.98742 | 219° | 2km/h | 24219m | 5.7m/s | -52.4°C | 1.0% | 30.1hPa | 2.5V | 00:00:00 | 00:00:00 | 00:00:00 | |
| DO2SHX-10 | 2026-08-31 00:00:55 | 52.43792 | 14.98741 | 121° | 7km/h | 24215m | 3.8m/s | -52.4°C | 4.4% | 30.1hPa | 2.5V | 00:00:00 | 01:50:55 | 00:00:00 | |
| EDDB2-12 | 2026-08-31 00:00:52 | 52.43797 | 14.98732 | 127° | 11km/h | 24197m | 5.1m/s | -52.5°C | 1.0% | 30.2hPa | 2.5V | 00:00:00 | 00:00:00 | 00:00:00 | |
| DM0DOS-11 | 2026-08-31 00:00:51 | 52.43798 | 14.98723 | 243° | 2km/h | 24168m | 7.9m/s | -52.6°C | 4.4% | 30.4hPa | 2.5V | 08:30:00 | 01:50:47 | 00:00:00 | |
| DO2SHX-10 | 2026-08-31 00:00:51 | 52.43797 | 14.98732 | 128° | 11km/h | 24197m | 5.1m/s | -52.4°C | 4.4% | 30.2hPa | 2.5V | 00:00:00 | 01:50:52 | 00:00:00 | |
| AA1-15 | 2026-08-31 00:00:46 | 52.43799 | 14.98724 | 68° | 4km/h | 24181m | 4.6m/s | -52.5°C | 0.7% | 30.3hPa | 2.5V | 18:12:15 | 01:50:49 | 00:00:00 | |
| DC4HF-4 | 2026-08-31 00:00:44 | 52.43797 | 14.98728 | 350° | 7km/h | 24144m | 5.4m/s | -52.6°C | -1.0% | 30.5hPa | 2.6V | 00:00:00 | 00:00:00 | 00:00:00 | |
| EDDB2-11 | 2026-08-31 00:00:43 | 52.43797 | 14.98728 | 350° | 7km/h | 24144m | 5.4m/s | -52.6°C | 1.1% | 30.5hPa | 2.6V | 00:00:00 | 00:00:00 | 00:00:00 | |
| SONDE2-11 | 2026-08-31 00:00:42 | 52.43793 | 14.98726 | 72° | 4km/h | 24125m | 5.8m/s | -52.6°C | 1.1% | 30.6hPa | 2.6V | 00:00:00 | 00:00:00 | 00:00:00 | |
| KRY50SP-1 | 2026-08-31 00:00:40 | 52.43793 | 14.98726 | 74° | 4km/h | 24125m | 5.8m/s | -52.6°C | 1.1% | 30.6hPa | 2.6V | 00:00:00 | 00:00:00 | 00:00:00 | |
| DM0DOS-11 | 2026-08-31 00:00:38 | 52.43790 | 14.98719 | 45° | 9km/h | 24108m | 4.8m/s | -52.7°C | 4.4% | 30.6hPa | 2.6V | 08:30:00 | 01:50:37 | 00:00:00 | |
| DAC517 | 2026-08-31 00:00:37 | 52.43773 | 14.98722 | 328° | 5km/h | 24046m | 5.1m/s | -53.1°C | 1.0% | 30.9hPa | 2.6V | 00:00:00 | 00:00:00 | 00:00:00 | |
| AA1-15 | 2026-08-31 00:00:35 | 52.43791 | 14.98721 | 53° | 7km/h | 24113m | 6.3m/s | -52.6°C | 0.7% | 30.6hPa | 2.6V | 18:12:15 | 01:50:38 | 00:00:00 | |
| KRY50SP-1 | 2026-08-31 00:00:33 | 52.43786 | 14.98712 | 68° | 4km/h | 24090m | 5.0m/s | -52.8°C | 1.0% | 30.7hPa | 2.5V | 00:00:00 | 00:00:00 | 00:00:00 | |
| S3001 | 2026-08-31 00:00:31 | 52.43779 | 14.98713 | 332° | 11km/h | 24069m | 5.2m/s | -53.0°C | 1.1% | 30.8hPa | 2.5V | 00:00:00 | 00:00:00 | 00:00:00 | |
| SONDE2-12 | 2026-08-31 00:00:28 | 52.43775 | 14.98718 | 315° | 7km/h | 24057m | 6.0m/s | -53.1°C | 1.3% | 30.9hPa | 2.5V | 00:00:00 | 00:00:00 | 00:00:00 | |
| 3Z3Z-3 | 2026-08-31 00:00:27 | 52.43771 | 14.98723 | 343° | 7km/h | 24040m | 6.2m/s | -53.1°C | 1.1% | 31.0hPa | 2.5V | 00:00:00 | 00:00:00 | 00:00:00 | |
| DM0DOS-11 | 2026-08-31 00:00:26 | 52.43774 | 14.98721 | 306° | 7km/h | 24051m | 4.8m/s | -53.1°C | 4.5% | 30.9hPa | 2.5V | 08:30:00 | 01:50:27 | 00:00:00 | |
| SP3BTT-10 | 2026-08-31 00:00:26 | 52.43770 | 14.98723 | 21° | 15km/h | 24035m | 4.2m/s | -53.1°C | 4.5% | 30.9hPa | 2.6V | 00:00:00 | 00:00:00 | 00:00:00 | |
| AA1-15 | 2026-08-31 00:00:25 | 52.43773 | 14.98722 | 327° | 5km/h | 24046m | 5.1m/s | -53.1°C | 0.7% | 30.9hPa | 2.5V | 18:12:15 | 01:50:26 | 00:00:00 | |
| KRY50SP-1 | 2026-08-31 00:00:24 | 52.43769 | 14.98722 | 67° | 5km/h | 24030m | 5.0m/s | -53.2°C | 1.0% | 31.0hPa | 2.5V | 00:00:00 | 00:00:00 | 00:00:00 | |
| EDDB2-12 | 2026-08-31 00:00:21 | 52.43770 | 14.98717 | 126° | 7km/h | 24018m | 5.3m/s | -53.3°C | 1.1% | 31.1hPa | 2.5V | 00:00:00 | 00:00:00 | 00:00:00 | |
| DM0DOS-11 | 2026-08-31 00:00:20 | 52.43772 | 14.98716 | 267° | 7km/h | 23997m | 4.9m/s | -53.4°C | 4.6% | 31.1hPa | 2.5V | 08:30:00 | 01:50:17 | 00:00:00 | |
| SP6BVK | 2026-08-31 00:00:15 | 52.43772 | 14.98714 | 269° | 4km/h | 24002m | 4.4m/s | -53.4°C | 1.1% | 31.2hPa | 2.5V | 00:00:00 | 00:00:00 | 00:00:00 | |
| AA1-15 | 2026-08-31 00:00:14 | 52.43773 | 14.98724 | 254° | 13km/h | 23984m | 6.2m/s | -53.4°C | 0.7% | 31.2hPa | 2.5V | 18:12:15 | 01:50:15 | 00:00:00 | |
| DJ2DS-15 | 2026-08-31 00:00:13 | 52.43773 | 14.98724 | 254° | 9km/h | 23985m | 6.2m/s | 0°C | 0% | 0hPa | 2.5V | 00:00:00 | 01:50:15 | 00:00:00 | |
| DAC517 | 2026-08-31 00:00:11 | 52.43782 | 14.98741 | 165° | 9km/h | 23935m | 6.2m/s | -53.7°C | 1.1% | 31.5hPa | 2.5V | 00:00:00 | 00:00:00 | 00:00:00 | |
| KRY50SP-1 | 2026-08-31 00:00:10 | 52.43774 | 14.98739 | 279° | 9km/h | 23968m | 5.3m/s | -53.7°C | 1.1% | 31.3hPa | 2.5V | 00:00:00 | 00:00:00 | 00:00:00 | |
| SP3WXH-11 | 2026-08-31 00:00:09 | 52.43775 | 14.98743 | 176° | 5km/h | 23953m | 6.3m/s | -53.7°C | 1.1% | 31.4hPa | 2.5V | 00:00:00 | 00:00:00 | 00:00:00 | |
| SONDE2-11 | 2026-08-31 00:00:08 | 52.43775 | 14.98743 | 176° | 5km/h | 23953m | 6.3m/s | -53.7°C | 1.1% | 31.4hPa | 2.5V | 00:00:00 | 00:00:00 | 00:00:00 | |
| DC4HF-4 | 2026-08-31 00:00:07 | 52.43780 | 14.98742 | 166° | 9km/h | 23941m | 5.3m/s | -53.7°C | -1.0% | 31.5hPa | 2.5V | 00:00:00 | 00:00:00 | 00:00:00 | |
| DM0DOS-11 | 2026-08-31 00:00:06 | 52.43780 | 14.98742 | 166° | 11km/h | 23940m | 5.3m/s | -53.7°C | 4.8% | 31.5hPa | 2.5V | 08:30:00 | 01:50:07 | 00:00:00 | |
| AA1-15 | 2026-08-31 00:00:04 | 52.43784 | 14.98740 | 174° | 7km/h | 23929m | 4.7m/s | -53.8°C | 0.8% | 31.5hPa | 2.6V | 18:12:15 | 01:50:05 | 00:00:00 | |
| 3Z3Z-3 | 2026-08-31 00:00:01 | 52.43784 | 14.98740 | 175° | 7km/h | 23929m | 4.7m/s | -53.8°C | 1.1% | 31.5hPa | 2.5V | 00:00:00 | 00:00:00 | 00:00:00 | |
| DM0DOS-11 | 2026-08-30 23:59:59 | 52.43800 | 14.98760 | 195° | 4km/h | 23888m | 5.4m/s | -53.9°C | 4.8% | 31.7hPa | 2.5V | 08:30:00 | 01:49:57 | 00:00:00 | |
| 13BRC | 2026-08-30 23:59:57 | 52.43795 | 14.98749 | 224° | 15km/h | 23907m | 4.7m/s | -53.9°C | 1.1% | 31.6hPa | 2.6V | 00:00:00 | 00:00:00 | 00:00:00 | |
| S3001 | 2026-08-30 23:59:56 | 52.43799 | 14.98757 | 246° | 7km/h | 23897m | 4.9m/s | -53.9°C | 1.1% | 31.7hPa | 2.6V | 00:00:00 | 00:00:00 | 00:00:00 | |
| SONDE2-12 | 2026-08-30 23:59:54 | 52.43800 | 14.98760 | 195° | 4km/h | 23888m | 5.4m/s | -53.9°C | 1.4% | 31.7hPa | 2.6V | 00:00:00 | 00:00:00 | 00:00:00 | |
| AA1-15 | 2026-08-30 23:59:51 | 52.43806 | 14.98757 | 150° | 11km/h | 23871m | 4m/s | -53.9°C | 0.8% | 31.8hPa | 2.6V | 18:12:15 | 01:49:54 | 00:00:00 | |
| DJ2DS-15 | 2026-08-30 23:59:51 | 52.43806 | 14.98756 | 151° | 15km/h | 23872m | 3.9m/s | 0°C | 0% | 0hPa | 2.6V | 00:00:00 | 01:49:54 | 00:00:00 | |
| EDDB2-12 | 2026-08-30 23:59:47 | 52.43810 | 14.98755 | 244° | 5km/h | 23851m | 4.9m/s | -53.8°C | 1.1% | 31.9hPa | 2.6V | 00:00:00 | 00:00:00 | 00:00:00 | |
| DM0DOS-11 | 2026-08-30 23:59:46 | 52.43816 | 14.98766 | 216° | 15km/h | 23834m | 4.4m/s | -53.8°C | 4.7% | 32hPa | 2.6V | 08:30:00 | 01:49:47 | 00:00:00 | |
| AA1-15 | 2026-08-30 23:59:41 | 52.43823 | 14.98776 | 221° | 9km/h | 23818m | 5.2m/s | -53.8°C | 0.9% | 32.1hPa | 2.5V | 18:12:15 | 01:49:44 | 00:00:00 | |
| DL1JHR | 2026-08-30 23:59:40 | 52.43823 | 14.98776 | 222° | 9km/h | 23818m | 5.2m/s | 0°C | 0% | 0hPa | 2.5V | 00:00:00 | 00:00:00 | 00:00:00 | |
| 3Z3Z-3 | 2026-08-30 23:59:39 | 52.43825 | 14.98778 | 200° | 11km/h | 23813m | 4.4m/s | -53.9°C | 1.1% | 32.1hPa | 2.5V | 00:00:00 | 00:00:00 | 00:00:00 | |
| EDDB2-11 | 2026-08-30 23:59:38 | 52.43832 | 14.98779 | 177° | 15km/h | 23802m | 6.2m/s | -53.9°C | 1.1% | 32.1hPa | 2.5V | 00:00:00 | 00:00:00 | 00:00:00 | |
| SP3WXH-11 | 2026-08-30 23:59:36 | 52.43847 | 14.98777 | 175° | 18km/h | 23788m | 6.0m/s | -53.8°C | 1.1% | 32.2hPa | 2.5V | 00:00:00 | 00:00:00 | 00:00:00 | |
| SONDE2-11 | 2026-08-30 23:59:35 | 52.43847 | 14.98777 | 175° | 18km/h | 23788m | 6.0m/s | -53.8°C | 1.1% | 32.2hPa | 2.5V | 00:00:00 | 00:00:00 | 00:00:00 | |
| SP6BVK | 2026-08-30 23:59:34 | 52.43847 | 14.98777 | 177° | 18km/h | 23788m | 6.0m/s | -53.8°C | 1.1% | 32.2hPa | 2.5V | 00:00:00 | 00:00:00 | 00:00:00 | |
| DM0DOS-11 | 2026-08-30 23:59:33 | 52.43855 | 14.98776 | 171° | 13km/h | 23777m | 4.1m/s | -53.8°C | 4.7% | 32.3hPa | 2.5V | 08:30:00 | 01:49:36 | 00:00:00 | |
| AA1-15 | 2026-08-30 23:59:31 | 52.43866 | 14.98773 | 174° | 18km/h | 23760m | 5.8m/s | -53.8°C | 0.9% | 32.3hPa | 2.6V | 18:12:15 | 01:49:33 | 00:00:00 | |
| 3Z3Z-3 | 2026-08-30 23:59:30 | 52.43866 | 14.98773 | 175° | 18km/h | 23761m | 5.8m/s | -53.8°C | 1.1% | 32.3hPa | 2.5V | 00:00:00 | 00:00:00 | 00:00:00 | |
| DC4HF-4 | 2026-08-30 23:59:28 | 52.43935 | 14.98779 | 231° | 9km/h | 23660m | 4.7m/s | 0°C | -1.0% | 32.9hPa | 2.5V | 00:00:00 | 00:00:00 | 00:00:00 | |
| S3001 | 2026-08-30 23:59:25 | 52.43891 | 14.98770 | 178° | 13km/h | 23735m | 4.7m/s | -54.0°C | 1.1% | 32.5hPa | 2.5V | 00:00:00 | 00:00:00 | 00:00:00 | |
| KRY50SP-1 | 2026-08-30 23:59:24 | 52.43892 | 14.98769 | 179° | 15km/h | 23735m | 4.7m/s | -54.0°C | 1.1% | 32.5hPa | 2.5V | 00:00:00 | 00:00:00 | 00:00:00 | |
| DAC517 | 2026-08-30 23:59:23 | 52.43919 | 14.98768 | 167° | 11km/h | 23698m | 4.5m/s | -54.0°C | 1.2% | 32.7hPa | 2.5V | 00:00:00 | 00:00:00 | 00:00:00 | |
| SP3BTT-10 | 2026-08-30 23:59:20 | 52.43912 | 14.98770 | 174° | 15km/h | 23709m | 5.6m/s | -54.0°C | 4.8% | 32.6hPa | 2.5V | 00:00:00 | 00:00:00 | 00:00:00 | |
| AA1-15 | 2026-08-30 23:59:19 | 52.43915 | 14.98770 | 170° | 13km/h | 23703m | 6m/s | -54°C | 0.9% | 32.6hPa | 2.5V | 18:12:15 | 01:49:22 | 00:00:00 | |
| 3Z3Z-3 | 2026-08-30 23:59:18 | 52.43916 | 14.98769 | 171° | 13km/h | 23703m | 6.0m/s | -54.0°C | 1.1% | 32.6hPa | 2.5V | 00:00:00 | 00:00:00 | 00:00:00 | |
| EDDB2-12 | 2026-08-30 23:59:16 | 52.43928 | 14.98769 | 203° | 13km/h | 23682m | 5.5m/s | -53.9°C | 1.1% | 32.8hPa | 2.5V | 00:00:00 | 00:00:00 | 00:00:00 | |
| 13BRC | 2026-08-30 23:59:15 | 52.43924 | 14.98767 | 189° | 13km/h | 23688m | 6.2m/s | -53.9°C | 1.1% | 32.7hPa | 2.5V | 00:00:00 | 00:00:00 | 00:00:00 | |
| DO2SHX-10 | 2026-08-30 23:59:12 | 52.43934 | 14.98776 | 233° | 7km/h | 23665m | 4.5m/s | -53.9°C | 4.8% | 32.8hPa | 2.5V | 00:00:00 | 01:49:15 | 00:00:00 | |
| DJ2DS-15 | 2026-08-30 23:59:11 | 52.43935 | 14.98779 | 232° | 15km/h | 23660m | 4.7m/s | 0°C | 0% | 0hPa | 2.5V | 00:00:00 | 01:49:14 | 00:00:00 | |
| AA1-15 | 2026-08-30 23:59:08 | 52.43944 | 14.98788 | 192° | 16km/h | 23642m | 4.8m/s | -54°C | 0.9% | 33hPa | 2.5V | 18:12:15 | 01:49:11 | 00:00:00 | |
| EDDB2-11 | 2026-08-30 23:59:07 | 52.43947 | 14.98789 | 181° | 13km/h | 23636m | 6.7m/s | -54.0°C | 1.1% | 33.0hPa | 2.6V | 00:00:00 | 00:00:00 | 00:00:00 | |
| DM0DOS-11 | 2026-08-30 23:59:06 | 52.43954 | 14.98786 | 156° | 15km/h | 23625m | 5.4m/s | -54°C | 4.8% | 33hPa | 2.6V | 08:30:00 | 01:49:08 | 00:00:00 | |
| SP3WXH-11 | 2026-08-30 23:59:05 | 52.43958 | 14.98783 | 154° | 15km/h | 23619m | 6.9m/s | -54.0°C | 1.1% | 33.1hPa | 2.5V | 00:00:00 | 00:00:00 | 00:00:00 | |
| SONDE2-11 | 2026-08-30 23:59:04 | 52.43958 | 14.98783 | 154° | 15km/h | 23619m | 6.9m/s | -54.0°C | 1.1% | 33.1hPa | 2.5V | 00:00:00 | 00:00:00 | 00:00:00 | |
| DO2SHX-10 | 2026-08-30 23:59:03 | 52.43961 | 14.98780 | 151° | 7km/h | 23613m | 4.9m/s | -54.0°C | 4.8% | 33.1hPa | 2.5V | 00:00:00 | 01:49:06 | 00:00:00 | |
| KRY50SP-1 | 2026-08-30 23:59:02 | 52.43961 | 14.98780 | 152° | 13km/h | 23613m | 4.9m/s | -54.1°C | 1.1% | 33.1hPa | 2.5V | 00:00:00 | 00:00:00 | 00:00:00 | |
| DM0DOS-11 | 2026-08-30 23:58:59 | 52.43965 | 14.98774 | 218° | 5km/h | 23565m | 4.4m/s | -54.2°C | 4.8% | 33.4hPa | 2.5V | 08:30:00 | 01:48:57 | 00:00:00 | |
| AA1-15 | 2026-08-30 23:58:57 | 52.43963 | 14.98770 | 191° | 2km/h | 23581m | 6m/s | -54.1°C | 0.8% | 33.3hPa | 2.5V | 18:12:15 | 01:49:00 | 00:00:00 | |
| SONDE2-12 | 2026-08-30 23:58:52 | 52.43969 | 14.98777 | 193° | 11km/h | 23554m | 6.8m/s | -54.2°C | 1.4% | 33.4hPa | 2.6V | 00:00:00 | 00:00:00 | 00:00:00 | |
| AA1-15 | 2026-08-30 23:58:46 | 52.43984 | 14.98783 | 225° | 9km/h | 23522m | 5.5m/s | -54.4°C | 0.9% | 33.6hPa | 2.6V | 18:12:15 | 01:48:49 | 00:00:00 | |
| DM0DOS-11 | 2026-08-30 23:58:46 | 52.43986 | 14.98791 | 291° | 7km/h | 23507m | 6.2m/s | -54.5°C | 5% | 33.7hPa | 2.5V | 08:30:00 | 01:48:46 | 00:00:00 | |
| AA1-15 | 2026-08-30 23:58:35 | 52.43978 | 14.98815 | 303° | 7km/h | 23463m | 4.3m/s | -54.3°C | 0.9% | 33.9hPa | 2.6V | 18:12:15 | 01:48:38 | 00:00:00 | |
| DM0DOS-11 | 2026-08-30 23:58:33 | 52.43977 | 14.98820 | 273° | 7km/h | 23453m | 5.8m/s | -54.3°C | 4.9% | 33.9hPa | 2.6V | 08:30:00 | 01:48:36 | 00:00:00 | |
| KRY50SP-1 | 2026-08-30 23:58:29 | 52.43982 | 14.98828 | 192° | 9km/h | 23436m | 6.2m/s | -54.2°C | 1.2% | 34.1hPa | 2.5V | 00:00:00 | 00:00:00 | 00:00:00 | |
| DO2SHX-10 | 2026-08-30 23:58:28 | 52.43986 | 14.98827 | 164° | 11km/h | 23425m | 4.6m/s | -54.2°C | 4.8% | 34.0hPa | 2.5V | 00:00:00 | 01:48:31 | 00:00:00 | |
| DM0DOS-11 | 2026-08-30 23:58:26 | 52.43998 | 14.98829 | 200° | 4km/h | 23396m | 5.8m/s | -54.4°C | 4.9% | 34.3hPa | 2.5V | 08:30:00 | 01:48:26 | 00:00:00 | |
| AA1-15 | 2026-08-30 23:58:24 | 52.43997 | 14.98828 | 199° | 7km/h | 23402m | 5.6m/s | -54.3°C | 0.9% | 34.2hPa | 2.5V | 18:12:15 | 01:48:27 | 00:00:00 | |
| SONDE2-12 | 2026-08-30 23:58:21 | 52.43999 | 14.98830 | 258° | 2km/h | 23385m | 6.6m/s | -54.5°C | 1.4% | 34.3hPa | 2.5V | 00:00:00 | 00:00:00 | 00:00:00 | |
| AA1-15 | 2026-08-30 23:58:14 | 52.44013 | 14.98820 | 173° | 16km/h | 23339m | 4.6m/s | -54.7°C | 1% | 34.5hPa | 2.5V | 18:12:15 | 01:48:16 | 00:00:00 | |
| DM0DOS-11 | 2026-08-30 23:58:13 | 52.44020 | 14.98817 | 164° | 16km/h | 23329m | 5.8m/s | -54.6°C | 5% | 34.6hPa | 2.5V | 08:30:00 | 01:48:14 | 00:00:00 | |
| AA1-15 | 2026-08-30 23:58:02 | 52.44057 | 14.98804 | 131° | 13km/h | 23283m | 5.2m/s | -54.5°C | 0.9% | 34.9hPa | 2.5V | 18:12:15 | 01:48:05 | 00:00:00 | |
| SONDE2-11 | 2026-08-30 23:58:02 | 52.44057 | 14.98804 | 130° | 13km/h | 23283m | 5.2m/s | -54.5°C | 1.2% | 34.9hPa | 2.5V | 00:00:00 | 00:00:00 | 00:00:00 | |
| KRY50SP-1 | 2026-08-30 23:58:01 | 52.44056 | 14.98804 | 131° | 13km/h | 23283m | 5.2m/s | -54.5°C | 1.2% | 34.9hPa | 2.5V | 00:00:00 | 00:00:00 | 00:00:00 | |
| DM0DOS-11 | 2026-08-30 23:58:00 | 52.44062 | 14.98779 | 125° | 11km/h | 23246m | 3.7m/s | -54.3°C | 4.9% | 35.1hPa | 2.5V | 08:30:00 | 01:47:58 | 00:00:00 | |
| AA1-15 | 2026-08-30 23:57:52 | 52.44070 | 14.98773 | 172° | 15km/h | 23228m | 4.3m/s | -54.4°C | 0.9% | 35.2hPa | 2.6V | 18:12:15 | 01:47:55 | 00:00:00 | |
| SONDE2-12 | 2026-08-30 23:57:50 | 52.44076 | 14.98769 | 142° | 15km/h | 23218m | 5.6m/s | -54.5°C | 1.5% | 35.2hPa | 2.5V | 00:00:00 | 00:00:00 | 00:00:00 | |
| 3Z3Z-3 | 2026-08-30 23:57:49 | 52.44076 | 14.98769 | 143° | 15km/h | 23218m | 5.6m/s | -54.5°C | 1.2% | 35.2hPa | 2.5V | 00:00:00 | 00:00:00 | 00:00:00 | |
| DO2SHX-10 | 2026-08-30 23:57:48 | 52.44080 | 14.98758 | 108° | 16km/h | 23208m | 5.7m/s | -54.5°C | 5.0% | 35.3hPa | 2.5V | 00:00:00 | 01:47:51 | 00:00:00 | |
| DM0DOS-11 | 2026-08-30 23:57:46 | 52.44080 | 14.98714 | 75° | 24km/h | 23174m | 5.9m/s | -54.4°C | 5% | 35.5hPa | 2.5V | 08:30:00 | 01:47:45 | 00:00:00 | |
| AA1-15 | 2026-08-30 23:57:41 | 52.44078 | 14.98705 | 80° | 22km/h | 23168m | 5.1m/s | -54.4°C | 1% | 35.5hPa | 2.6V | 18:12:15 | 01:47:44 | 00:00:00 | |
| AA1-15 | 2026-08-30 23:57:31 | 52.44089 | 14.98663 | 91° | 16km/h | 23116m | 6.9m/s | -54.2°C | 0.9% | 35.8hPa | 2.5V | 18:12:15 | 01:47:34 | 00:00:00 | |
| AA1-15 | 2026-08-30 23:57:21 | 52.44074 | 14.98608 | 107° | 7km/h | 23059m | 5.4m/s | -54.1°C | 1% | 36.1hPa | 2.6V | 18:12:15 | 01:47:24 | 00:00:00 | |
| AA1-15 | 2026-08-30 23:57:10 | 52.44061 | 14.98550 | 55° | 22km/h | 22994m | 4.8m/s | -53.9°C | 0.9% | 36.5hPa | 2.7V | 18:12:15 | 01:47:13 | 00:00:00 | |
| KRY50SP-1 | 2026-08-30 23:57:07 | 52.44052 | 14.98537 | 48° | 7km/h | 22978m | 6.4m/s | -53.9°C | 1.2% | 36.6hPa | 2.6V | 00:00:00 | 00:00:00 | 00:00:00 | |
| DM0DOS-11 | 2026-08-30 23:57:05 | 52.44050 | 14.98528 | 94° | 4km/h | 22950m | 7m/s | -53.9°C | 4.8% | 36.8hPa | 2.6V | 08:30:00 | 01:47:05 | 00:00:00 | |
| AA1-15 | 2026-08-30 23:56:59 | 52.44048 | 14.98521 | 70° | 11km/h | 22931m | 7m/s | -53.8°C | 0.9% | 36.9hPa | 2.5V | 18:12:15 | 01:47:02 | 00:00:00 | |
| DAC517 | 2026-08-30 23:56:58 | 52.44047 | 14.98516 | 75° | 13km/h | 22925m | 4.6m/s | -53.8°C | 1.2% | 36.9hPa | 2.6V | 00:00:00 | 00:00:00 | 00:00:00 | |
| DM0DOS-11 | 2026-08-30 23:56:55 | 52.44039 | 14.98494 | 60° | 11km/h | 22891m | 4.3m/s | -54°C | 4.8% | 37.1hPa | 2.6V | 08:30:00 | 01:46:55 | 00:00:00 | |
| AA1-15 | 2026-08-30 23:56:48 | 52.44030 | 14.98484 | 25° | 9km/h | 22866m | 5.1m/s | -53.9°C | 0.9% | 37.3hPa | 2.5V | 18:12:15 | 01:46:51 | 00:00:00 | |
| AA1-15 | 2026-08-30 23:56:38 | 52.44019 | 14.98460 | 27° | 4km/h | 22810m | 6.9m/s | -54°C | 0.8% | 37.6hPa | 2.5V | 18:12:15 | 01:46:41 | 00:00:00 | |
| DO2SHX-10 | 2026-08-30 23:56:36 | 52.44016 | 14.98460 | 14° | 7km/h | 22798m | 5.8m/s | -53.9°C | 4.7% | 37.6hPa | 2.6V | 00:00:00 | 01:46:39 | 00:00:00 | |
| DO2SHX-10 | 2026-08-30 23:56:33 | 52.44008 | 14.98457 | 1° | 15km/h | 22782m | 7.2m/s | -53.9°C | 4.7% | 37.7hPa | 2.6V | 00:00:00 | 01:46:36 | 00:00:00 | |
| EDDB2-11 | 2026-08-30 23:56:32 | 52.44004 | 14.98458 | 349° | 16km/h | 22774m | 7.2m/s | -54.0°C | 1.1% | 37.8hPa | 2.6V | 00:00:00 | 00:00:00 | 00:00:00 | |
| DM0DOS-11 | 2026-08-30 23:56:30 | 52.43992 | 14.98459 | 16° | 11km/h | 22758m | 5.3m/s | -54.1°C | 4.8% | 37.9hPa | 2.6V | 08:30:00 | 01:46:32 | 00:00:00 | |
| AA1-15 | 2026-08-30 23:56:27 | 52.43988 | 14.98456 | 17° | 7km/h | 22746m | 7.3m/s | -54.1°C | 0.8% | 38hPa | 2.6V | 18:12:15 | 01:46:30 | 00:00:00 | |
| DO2SHX-10 | 2026-08-30 23:56:26 | 52.43986 | 14.98456 | 2° | 4km/h | 22740m | 6.5m/s | -54.1°C | 4.8% | 38.0hPa | 2.5V | 00:00:00 | 01:46:29 | 00:00:00 | |
| DO2SHX-10 | 2026-08-30 23:56:22 | 52.43987 | 14.98453 | 4° | 5km/h | 22718m | 3.8m/s | -54.3°C | 4.9% | 38.1hPa | 2.5V | 00:00:00 | 01:46:25 | 00:00:00 | |
| 3Z3Z-3 | 2026-08-30 23:56:21 | 52.43987 | 14.98453 | 0° | 0km/h | 22718m | 3.9m/s | -54.3°C | 1.2% | 38.1hPa | 2.5V | 00:00:00 | 00:00:00 | 00:00:00 | |
| DM0DOS-11 | 2026-08-30 23:56:20 | 52.43984 | 14.98458 | 317° | 11km/h | 22700m | 4.6m/s | -54.3°C | 4.9% | 38.2hPa | 2.5V | 08:30:00 | 01:46:22 | 00:00:00 | |
| AA1-15 | 2026-08-30 23:56:16 | 52.43978 | 14.98466 | 318° | 11km/h | 22685m | 5m/s | -54.3°C | 0.9% | 38.3hPa | 2.6V | 18:12:15 | 01:46:19 | 00:00:00 | |
| AA1-15 | 2026-08-30 23:56:06 | 52.43956 | 14.98499 | 351° | 9km/h | 22624m | 5.9m/s | -54.4°C | 0.9% | 38.7hPa | 2.5V | 18:12:15 | 01:46:09 | 00:00:00 | |
| DM0DOS-11 | 2026-08-30 23:56:05 | 52.43951 | 14.98500 | 350° | 11km/h | 22615m | 5.8m/s | -54.4°C | 5% | 38.8hPa | 2.6V | 08:30:00 | 01:46:07 | 00:00:00 | |
| EDDB2-11 | 2026-08-30 23:56:01 | 52.43945 | 14.98506 | 313° | 5km/h | 22596m | 6.1m/s | -54.4°C | 1.2% | 38.8hPa | 2.6V | 00:00:00 | 00:00:00 | 00:00:00 | |
| DM0DOS-11 | 2026-08-30 23:55:59 | 52.43940 | 14.98514 | 27° | 5km/h | 22556m | 5.7m/s | -54.2°C | 4.9% | 39.1hPa | 2.6V | 08:30:00 | 01:45:57 | 00:00:00 | |
| AA1-15 | 2026-08-30 23:55:55 | 52.43941 | 14.98514 | 340° | 5km/h | 22562m | 5.9m/s | -54.2°C | 0.9% | 39hPa | 2.5V | 18:12:15 | 01:45:58 | 00:00:00 | |
| S3001 | 2026-08-30 23:55:48 | 52.43931 | 14.98510 | 49° | 5km/h | 22521m | 7.2m/s | -54.1°C | 1.1% | 39.3hPa | 2.5V | 00:00:00 | 00:00:00 | 00:00:00 | |
| 3Z3Z-3 | 2026-08-30 23:55:47 | 52.43932 | 14.98510 | 50° | 5km/h | 22521m | 7.2m/s | -54.1°C | 1.1% | 39.3hPa | 2.5V | 00:00:00 | 00:00:00 | 00:00:00 | |
| DM0DOS-11 | 2026-08-30 23:55:45 | 52.43933 | 14.98502 | 154° | 4km/h | 22496m | 4.8m/s | -54.1°C | 4.8% | 39.5hPa | 2.5V | 08:30:00 | 01:45:47 | 00:00:00 | |
| AA1-15 | 2026-08-30 23:55:44 | 52.43933 | 14.98502 | 154° | 4km/h | 22496m | 4.8m/s | -54.1°C | 0.9% | 39.5hPa | 2.5V | 18:12:15 | 01:45:47 | 00:00:00 | |
| KRY50SP-1 | 2026-08-30 23:55:42 | 52.43933 | 14.98501 | 127° | 4km/h | 22491m | 6.3m/s | -54.1°C | 1.2% | 39.5hPa | 2.5V | 00:00:00 | 00:00:00 | 00:00:00 | |
| DM0DOS-11 | 2026-08-30 23:55:39 | 52.43938 | 14.98486 | 122° | 13km/h | 22441m | 6.2m/s | -54°C | 4.7% | 39.8hPa | 2.5V | 08:30:00 | 01:45:37 | 00:00:00 | |
| AA1-15 | 2026-08-30 23:55:34 | 52.43938 | 14.98486 | 123° | 13km/h | 22441m | 6.2m/s | -54°C | 0.8% | 39.8hPa | 2.5V | 18:12:15 | 01:45:37 | 00:00:00 | |
| KRY50SP-1 | 2026-08-30 23:55:32 | 52.43940 | 14.98482 | 126° | 11km/h | 22434m | 8.0m/s | -54.0°C | 1.2% | 39.8hPa | 2.5V | 00:00:00 | 00:00:00 | 00:00:00 | |
| EDDB2-11 | 2026-08-30 23:55:30 | 52.43945 | 14.98469 | 115° | 15km/h | 22417m | 4.7m/s | -54.1°C | 1.2% | 40.0hPa | 2.5V | 00:00:00 | 00:00:00 | 00:00:00 | |
| 13BRC | 2026-08-30 23:55:28 | 52.43946 | 14.98463 | 115° | 15km/h | 22413m | 4.6m/s | -54.1°C | 1.2% | 40.0hPa | 2.5V | 00:00:00 | 00:00:00 | 00:00:00 | |
| SONDE2-11 | 2026-08-30 23:55:27 | 52.43948 | 14.98455 | 116° | 7km/h | 22400m | 6.6m/s | -54.2°C | 1.2% | 40.1hPa | 2.5V | 00:00:00 | 00:00:00 | 00:00:00 | |
| 3Z3Z-3 | 2026-08-30 23:55:26 | 52.43948 | 14.98455 | 118° | 7km/h | 22400m | 6.6m/s | -54.2°C | 1.2% | 40.1hPa | 2.5V | 00:00:00 | 00:00:00 | 00:00:00 | |
| DM0DOS-11 | 2026-08-30 23:55:25 | 52.43950 | 14.98446 | 98° | 11km/h | 22384m | 4.6m/s | -54.4°C | 4.9% | 40.2hPa | 2.5V | 08:30:00 | 01:45:27 | 00:00:00 | |
| DB0DAN | 2026-08-30 23:55:25 | 52.43949 | 14.98450 | 100° | 7km/h | 22389m | 5.8m/s | -54.3°C | 1.2% | 40.15hPa | 2.6V | 00:00:00 | 00:00:00 | 00:00:00 | |
| AA1-15 | 2026-08-30 23:55:23 | 52.43950 | 14.98442 | 110° | 9km/h | 22380m | 4.2m/s | -54.4°C | 0.9% | 40.2hPa | 2.5V | 18:12:15 | 01:45:26 | 00:00:00 | |
| AA1-15 | 2026-08-30 23:55:12 | 52.43972 | 14.98373 | 84° | 15km/h | 22322m | 6.3m/s | -54.5°C | 0.9% | 40.6hPa | 2.6V | 18:12:15 | 01:45:15 | 00:00:00 | |
| DB0DAN | 2026-08-30 23:55:10 | 52.43970 | 14.98360 | 73° | 16km/h | 22311m | 3.9m/s | -54.6°C | 1.2% | 40.65hPa | 2.5V | 00:00:00 | 00:00:00 | 00:00:00 | |
| AA1-15 | 2026-08-30 23:55:01 | 52.43962 | 14.98289 | 93° | 22km/h | 22261m | 5.2m/s | -54.5°C | 1% | 41hPa | 2.5V | 18:12:15 | 01:45:04 | 00:00:00 | |
| EDDB2-11 | 2026-08-30 23:54:59 | 52.43962 | 14.98259 | 89° | 22km/h | 22245m | 4.5m/s | -54.5°C | 1.2% | 41.1hPa | 2.5V | 00:00:00 | 00:00:00 | 00:00:00 | |
| SONDE2-11 | 2026-08-30 23:54:56 | 52.43964 | 14.98239 | 106° | 11km/h | 22228m | 3.7m/s | -54.4°C | 1.2% | 41.2hPa | 2.5V | 00:00:00 | 00:00:00 | 00:00:00 | |
| DB0DAN | 2026-08-30 23:54:55 | 52.43964 | 14.98239 | 107° | 11km/h | 22228m | 3.7m/s | -54.4°C | 1.2% | 41.18hPa | 2.5V | 00:00:00 | 00:00:00 | 00:00:00 | |
| DM0DOS-11 | 2026-08-30 23:54:53 | 52.43962 | 14.98220 | 50° | 13km/h | 22206m | 4.2m/s | -54.3°C | 4.9% | 41.3hPa | 2.7V | 08:30:00 | 01:44:54 | 00:00:00 | |
| AA1-15 | 2026-08-30 23:54:50 | 52.43960 | 14.98217 | 38° | 11km/h | 22201m | 6.1m/s | -54.3°C | 0.9% | 41.3hPa | 2.6V | 18:12:15 | 01:44:53 | 00:00:00 | |
| S3001 | 2026-08-30 23:54:46 | 52.43955 | 14.98206 | 91° | 11km/h | 22174m | 5.8m/s | -54.2°C | 1.2% | 41.5hPa | 2.6V | 00:00:00 | 00:00:00 | 00:00:00 | |
| AA1-15 | 2026-08-30 23:54:39 | 52.43955 | 14.98184 | 42° | 4km/h | 22139m | 5.6m/s | -54.2°C | 0.9% | 41.8hPa | 2.6V | 18:12:15 | 01:44:42 | 00:00:00 | |
| DAC517 | 2026-08-30 23:54:38 | 52.43954 | 14.98183 | 37° | 2km/h | 22135m | 3.8m/s | -54.2°C | 1.2% | 41.8hPa | 2.7V | 00:00:00 | 00:00:00 | 00:00:00 | |
| KRY50SP-1 | 2026-08-30 23:54:37 | 52.43954 | 14.98183 | 37° | 2km/h | 22135m | 3.8m/s | -54.2°C | 1.2% | 41.8hPa | 2.7V | 00:00:00 | 00:00:00 | 00:00:00 | |
| EDDB2-12 | 2026-08-30 23:54:36 | 52.43953 | 14.98183 | 335° | 2km/h | 22125m | 6.4m/s | -54.2°C | 1.2% | 41.9hPa | 2.7V | 00:00:00 | 00:00:00 | 00:00:00 | |
| MECKS9 | 2026-08-30 23:54:34 | 52.43952 | 14.98184 | 335° | 2km/h | 22118m | 5.6m/s | -54.2°C | 1.2% | 41.9hPa | 2.7V | 00:00:00 | 00:00:00 | 00:00:00 | |
| DM0DOS-11 | 2026-08-30 23:54:33 | 52.43945 | 14.98178 | 18° | 7km/h | 22091m | 7m/s | -54°C | 4.7% | 42.1hPa | 2.7V | 08:30:00 | 01:44:33 | 00:00:00 | |
| AA1-15 | 2026-08-30 23:54:28 | 52.43942 | 14.98177 | 359° | 7km/h | 22080m | 4.5m/s | -54°C | 0.9% | 42.1hPa | 2.5V | 18:12:15 | 01:44:31 | 00:00:00 | |
| EDDB2-11 | 2026-08-30 23:54:28 | 52.43940 | 14.98177 | 26° | 5km/h | 22075m | 5.4m/s | -54.0°C | 1.2% | 42.2hPa | 2.7V | 00:00:00 | 00:00:00 | 00:00:00 | |
| 13BRC | 2026-08-30 23:54:26 | 52.43940 | 14.98177 | 28° | 7km/h | 22075m | 5.4m/s | -54.0°C | 1.2% | 42.2hPa | 2.7V | 00:00:00 | 00:00:00 | 00:00:00 | |
| SONDE2-11 | 2026-08-30 23:54:25 | 52.43937 | 14.98176 | 282° | 2km/h | 22058m | 6.8m/s | -54.2°C | 1.2% | 42.3hPa | 2.7V | 00:00:00 | 00:00:00 | 00:00:00 | |
| DM0DOS-11 | 2026-08-30 23:54:23 | 52.43937 | 14.98179 | 354° | 4km/h | 22037m | 4.6m/s | -54.1°C | 4.8% | 42.5hPa | 2.7V | 08:30:00 | 01:44:23 | 00:00:00 | |
| AA1-15 | 2026-08-30 23:54:17 | 52.43931 | 14.98182 | 330° | 11km/h | 22019m | 4.9m/s | -54.2°C | 0.9% | 42.5hPa | 2.5V | 18:12:15 | 01:44:20 | 00:00:00 | |
| S3001 | 2026-08-30 23:54:15 | 52.43926 | 14.98185 | 353° | 7km/h | 22008m | 4.9m/s | -54.2°C | 1.2% | 42.6hPa | 2.5V | 00:00:00 | 00:00:00 | 00:00:00 | |
| KRY50SP-1 | 2026-08-30 23:54:10 | 52.43920 | 14.98193 | 322° | 7km/h | 21986m | 4.9m/s | -54.3°C | 1.2% | 42.7hPa | 2.5V | 00:00:00 | 00:00:00 | 00:00:00 | |
| DM0DOS-11 | 2026-08-30 23:54:09 | 52.43908 | 14.98187 | 40° | 11km/h | 21953m | 4.5m/s | -54.4°C | 4.9% | 43hPa | 2.5V | 08:30:00 | 01:44:08 | 00:00:00 | |
| AA1-15 | 2026-08-30 23:54:06 | 52.43910 | 14.98189 | 30° | 9km/h | 21958m | 7.5m/s | -54.4°C | 1% | 42.9hPa | 2.6V | 18:12:15 | 01:44:09 | 00:00:00 | |
| AA1-15 | 2026-08-30 23:53:55 | 52.43885 | 14.98164 | 338° | 16km/h | 21895m | 6.5m/s | -54.3°C | 0.9% | 43.4hPa | 2.5V | 18:12:15 | 01:43:58 | 00:00:00 | |
| DM0DOS-11 | 2026-08-30 23:53:55 | 52.43885 | 14.98164 | 338° | 16km/h | 21895m | 6.5m/s | -54.3°C | 4.8% | 43.4hPa | 2.5V | 08:30:00 | 01:43:58 | 00:00:00 | |
| SONDE2-11 | 2026-08-30 23:53:54 | 52.43877 | 14.98169 | 344° | 16km/h | 21882m | 5.7m/s | -54.3°C | 1.2% | 43.5hPa | 2.5V | 00:00:00 | 00:00:00 | 00:00:00 | |
| AA1-15 | 2026-08-30 23:53:44 | 52.43846 | 14.98174 | 354° | 11km/h | 21835m | 6.6m/s | -54.3°C | 1% | 43.8hPa | 2.5V | 18:12:15 | 01:43:47 | 00:00:00 | |
| DM0DOS-11 | 2026-08-30 23:53:43 | 52.43843 | 14.98175 | 334° | 9km/h | 21828m | 5.8m/s | -54.3°C | 4.9% | 43.8hPa | 2.5V | 08:30:00 | 01:43:46 | 00:00:00 | |
| SONDE2-12 | 2026-08-30 23:53:42 | 52.43841 | 14.98177 | 341° | 11km/h | 21823m | 5.1m/s | -54.3°C | 1.5% | 43.9hPa | 2.5V | 00:00:00 | 00:00:00 | 00:00:00 | |
| DB0DAN | 2026-08-30 23:53:40 | 52.43834 | 14.98179 | 358° | 15km/h | 21811m | 4.2m/s | -54.4°C | 1.2% | 43.96hPa | 2.5V | 00:00:00 | 00:00:00 | 00:00:00 | |
| KRY50SP-1 | 2026-08-30 23:53:36 | 52.43822 | 14.98183 | 339° | 18km/h | 21794m | 5.9m/s | -54.5°C | 1.2% | 44.1hPa | 2.5V | 00:00:00 | 00:00:00 | 00:00:00 | |
| DM0DOS-11 | 2026-08-30 23:53:35 | 52.43810 | 14.98188 | 347° | 9km/h | 21772m | 5m/s | -54.4°C | 5% | 44.2hPa | 2.5V | 08:30:00 | 01:43:36 | 00:00:00 | |
| AA1-15 | 2026-08-30 23:53:34 | 52.43810 | 14.98188 | 347° | 9km/h | 21772m | 5m/s | -54.4°C | 0.9% | 44.2hPa | 2.5V | 18:12:15 | 01:43:36 | 00:00:00 | |
| AA1-15 | 2026-08-30 23:53:23 | 52.43787 | 14.98226 | 312° | 15km/h | 21715m | 5.3m/s | -54.3°C | 1% | 44.6hPa | 2.5V | 18:12:15 | 01:43:26 | 00:00:00 | |
| 3Z3Z-3 | 2026-08-30 23:53:22 | 52.43786 | 14.98226 | 313° | 15km/h | 21715m | 5.3m/s | -54.3°C | 1.2% | 44.6hPa | 2.5V | 00:00:00 | 00:00:00 | 00:00:00 | |
| KRY50SP-1 | 2026-08-30 23:53:18 | 52.43780 | 14.98245 | 286° | 13km/h | 21694m | 4.7m/s | -54.1°C | 1.2% | 44.8hPa | 2.5V | 00:00:00 | 00:00:00 | 00:00:00 | |
| DM0DOS-11 | 2026-08-30 23:53:16 | 52.43769 | 14.98286 | 314° | 20km/h | 21652m | 6.5m/s | -53.9°C | 4.8% | 45.1hPa | 2.5V | 08:30:00 | 01:43:14 | 00:00:00 | |
| AA1-15 | 2026-08-30 23:53:12 | 52.43772 | 14.98280 | 302° | 18km/h | 21658m | 5.2m/s | -53.9°C | 0.9% | 45hPa | 2.5V | 18:12:15 | 01:43:15 | 00:00:00 | |
| SONDE2-12 | 2026-08-30 23:53:11 | 52.43765 | 14.98291 | 327° | 18km/h | 21646m | 5.6m/s | -53.9°C | 1.5% | 45.1hPa | 2.5V | 00:00:00 | 00:00:00 | 00:00:00 | |
| KRY50SP-1 | 2026-08-30 23:53:07 | 52.43757 | 14.98298 | 333° | 18km/h | 21636m | 6.2m/s | -53.9°C | 1.2% | 45.2hPa | 2.5V | 00:00:00 | 00:00:00 | 00:00:00 | |
| DAC517 | 2026-08-30 23:53:05 | 52.43751 | 14.98304 | 334° | 13km/h | 21626m | 4.3m/s | -54.0°C | 1.2% | 45.3hPa | 2.5V | 00:00:00 | 00:00:00 | 00:00:00 | |
| 13BRC | 2026-08-30 23:53:04 | 52.43748 | 14.98306 | 345° | 11km/h | 21621m | 5.2m/s | -54.0°C | 1.2% | 45.3hPa | 2.5V | 00:00:00 | 00:00:00 | 00:00:00 | |
| DM0DOS-11 | 2026-08-30 23:53:03 | 52.43740 | 14.98314 | 291° | 11km/h | 21598m | 5.3m/s | -54.1°C | 4.8% | 45.5hPa | 2.5V | 08:30:00 | 01:43:04 | 00:00:00 | |
| AA1-15 | 2026-08-30 23:53:01 | 52.43740 | 14.98314 | 291° | 11km/h | 21598m | 5.3m/s | -54.1°C | 0.9% | 45.5hPa | 2.5V | 18:12:15 | 01:43:04 | 00:00:00 | |
| EDDB2-11 | 2026-08-30 23:52:55 | 52.43723 | 14.98332 | 347° | 16km/h | 21561m | 5.7m/s | -54.1°C | 1.2% | 45.7hPa | 2.5V | 00:00:00 | 00:00:00 | 00:00:00 | |
| DM0DOS-11 | 2026-08-30 23:52:52 | 52.43710 | 14.98333 | 356° | 15km/h | 21543m | 3.9m/s | -54°C | 4.9% | 45.9hPa | 2.5V | 08:30:00 | 01:42:54 | 00:00:00 | |
| AA1-15 | 2026-08-30 23:52:50 | 52.43707 | 14.98334 | 339° | 11km/h | 21538m | 6.5m/s | -54°C | 1% | 45.9hPa | 2.5V | 18:12:15 | 01:42:53 | 00:00:00 | |
| DAC517 | 2026-08-30 23:52:47 | 52.43703 | 14.98339 | 0° | 0km/h | 21514m | 5.9m/s | -53.9°C | 1.2% | 46.1hPa | 2.5V | 00:00:00 | 00:00:00 | 00:00:00 | |
| DM0DOS-11 | 2026-08-30 23:52:45 | 52.43700 | 14.98340 | 16° | 7km/h | 21480m | 5.1m/s | -53.7°C | 4.8% | 46.3hPa | 2.5V | 08:30:00 | 01:42:43 | 00:00:00 | |
| SONDE2-12 | 2026-08-30 23:52:40 | 52.43699 | 14.98340 | 350° | 7km/h | 21475m | 5.9m/s | -53.7°C | 1.5% | 46.4hPa | 2.7V | 00:00:00 | 00:00:00 | 00:00:00 | |
| AA1-15 | 2026-08-30 23:52:39 | 52.43699 | 14.98340 | 350° | 9km/h | 21474m | 5.9m/s | -53.7°C | 1% | 46.4hPa | 2.7V | 18:12:15 | 01:42:42 | 00:00:00 | |
| KRY50SP-1 | 2026-08-30 23:52:38 | 52.43699 | 14.98340 | 351° | 9km/h | 21475m | 5.9m/s | -53.7°C | 1.2% | 46.4hPa | 2.5V | 00:00:00 | 00:00:00 | 00:00:00 | |
| DM0DOS-11 | 2026-08-30 23:52:33 | 52.43682 | 14.98343 | 46° | 7km/h | 21426m | 5.8m/s | -53.4°C | 4.7% | 46.7hPa | 2.5V | 08:30:00 | 01:42:33 | 00:00:00 | |
| AA1-15 | 2026-08-30 23:52:28 | 52.43680 | 14.98337 | 56° | 5km/h | 21409m | 4.2m/s | -53.3°C | 0.8% | 46.8hPa | 2.5V | 18:12:15 | 01:42:30 | 00:00:00 | |
| DB0DAN | 2026-08-30 23:52:25 | 52.43679 | 14.98332 | 85° | 7km/h | 21400m | 6.7m/s | -53.3°C | 1.2% | 46.89hPa | 2.5V | 00:00:00 | 00:00:00 | 00:00:00 | |
| AA1-15 | 2026-08-30 23:52:16 | 52.43661 | 14.98308 | 30° | 11km/h | 21348m | 5.9m/s | -53.3°C | 0.8% | 47.2hPa | 2.7V | 18:12:15 | 01:42:19 | 00:00:00 | |
| DM0DOS-11 | 2026-08-30 23:52:15 | 52.43647 | 14.98286 | 39° | 11km/h | 21316m | 4.5m/s | -53.2°C | 4.7% | 47.5hPa | 2.7V | 08:30:00 | 01:42:13 | 00:00:00 | |
| DB0DAN | 2026-08-30 23:52:10 | 52.43647 | 14.98286 | 40° | 11km/h | 21316m | 4.5m/s | -53.2°C | 1.2% | 47.48hPa | 2.7V | 00:00:00 | 00:00:00 | 00:00:00 | |
| SONDE2-12 | 2026-08-30 23:52:09 | 52.43642 | 14.98278 | 44° | 15km/h | 21306m | 6.4m/s | -53.1°C | 1.4% | 47.6hPa | 2.7V | 00:00:00 | 00:00:00 | 00:00:00 | |
| AA1-15 | 2026-08-30 23:52:05 | 52.43631 | 14.98264 | 28° | 18km/h | 21290m | 6.4m/s | -53.1°C | 0.8% | 47.7hPa | 2.7V | 18:12:15 | 01:42:08 | 00:00:00 | |
| DM0DOS-11 | 2026-08-30 23:52:03 | 52.43615 | 14.98242 | 49° | 18km/h | 21263m | 5.8m/s | -53.1°C | 4.6% | 47.9hPa | 2.7V | 08:30:00 | 01:42:03 | 00:00:00 | |
| EDDB2-12 | 2026-08-30 23:52:01 | 52.43618 | 14.98248 | 50° | 16km/h | 21268m | 5.0m/s | -53.1°C | 1.2% | 47.9hPa | 2.7V | 00:00:00 | 00:00:00 | 00:00:00 | |
| KRY50SP-1 | 2026-08-30 23:51:57 | 52.43609 | 14.98232 | 58° | 16km/h | 21253m | 5.2m/s | -53.1°C | 1.1% | 48.0hPa | 2.7V | 00:00:00 | 00:00:00 | 00:00:00 | |
| DB0DAN | 2026-08-30 23:51:55 | 52.43604 | 14.98210 | 69° | 20km/h | 21235m | 5.8m/s | -53.1°C | 1.1% | 48.1hPa | 2.7V | 00:00:00 | 00:00:00 | 00:00:00 | |
| AA1-15 | 2026-08-30 23:51:54 | 52.43601 | 14.98203 | 59° | 18km/h | 21229m | 5.6m/s | -53.1°C | 0.8% | 48.2hPa | 2.5V | 18:12:15 | 01:41:57 | 00:00:00 | |
| DM0DOS-11 | 2026-08-30 23:51:52 | 52.43593 | 14.98178 | 69° | 18km/h | 21207m | 4.8m/s | -53.1°C | 4.6% | 48.3hPa | 2.7V | 08:30:00 | 01:41:53 | 00:00:00 | |
| SP3WXH-11 | 2026-08-30 23:51:50 | 52.43593 | 14.98178 | 69° | 16km/h | 21207m | 4.8m/s | -53.1°C | 1.2% | 48.3hPa | 2.5V | 00:00:00 | 00:00:00 | 00:00:00 | |
| SONDE2-11 | 2026-08-30 23:51:49 | 52.43591 | 14.98171 | 68° | 16km/h | 21202m | 5.2m/s | -53.1°C | 1.1% | 48.4hPa | 2.5V | 00:00:00 | 00:00:00 | 00:00:00 | |
| AA1-15 | 2026-08-30 23:51:44 | 52.43581 | 14.98142 | 73° | 16km/h | 21177m | 5.4m/s | -53.2°C | 0.8% | 48.5hPa | 2.5V | 18:12:15 | 01:41:47 | 00:00:00 | |
| MECKS9 | 2026-08-30 23:51:43 | 52.43581 | 14.98142 | 74° | 16km/h | 21177m | 5.4m/s | -53.2°C | 1.2% | 48.6hPa | 2.7V | 00:00:00 | 00:00:00 | 00:00:00 | |
| 13BRC | 2026-08-30 23:51:42 | 52.43579 | 14.98134 | 73° | 18km/h | 21171m | 5.4m/s | -53.3°C | 1.2% | 48.6hPa | 2.7V | 00:00:00 | 00:00:00 | 00:00:00 | |
| DM0DOS-11 | 2026-08-30 23:51:41 | 52.43572 | 14.98114 | 47° | 22km/h | 21156m | 4.7m/s | -53.3°C | 4.7% | 48.7hPa | 2.7V | 08:30:00 | 01:41:43 | 00:00:00 | |
| SONDE2-12 | 2026-08-30 23:51:38 | 52.43562 | 14.98092 | 59° | 20km/h | 21141m | 4.8m/s | -53.4°C | 1.4% | 48.8hPa | 2.5V | 00:00:00 | 00:00:00 | 00:00:00 | |
| AA1-15 | 2026-08-30 23:51:33 | 52.43555 | 14.98073 | 74° | 11km/h | 21121m | 5.4m/s | -53.5°C | 0.8% | 49hPa | 2.5V | 18:12:15 | 01:41:36 | 00:00:00 | |
| 3Z3Z-3 | 2026-08-30 23:51:32 | 52.43555 | 14.98073 | 75° | 11km/h | 21121m | 5.4m/s | -53.5°C | 0% | 49.0hPa | 2.7V | 00:00:00 | 00:00:00 | 00:00:00 | |
| DM0DOS-11 | 2026-08-30 23:51:31 | 52.43554 | 14.98055 | 78° | 16km/h | 21101m | 6m/s | -53.6°C | 4.8% | 49.1hPa | 2.7V | 08:30:00 | 01:41:33 | 00:00:00 | |
| AA1-15 | 2026-08-30 23:51:23 | 52.43535 | 14.97995 | 43° | 22km/h | 21065m | 3.7m/s | -53.8°C | 0.9% | 49.4hPa | 2.5V | 18:12:15 | 01:41:26 | 00:00:00 | |
| 13BRC | 2026-08-30 23:51:22 | 52.43535 | 14.97995 | 44° | 22km/h | 21066m | 3.7m/s | -53.8°C | 1.2% | 49.4hPa | 2.7V | 00:00:00 | 00:00:00 | 00:00:00 | |
| DM0DOS-11 | 2026-08-30 23:51:21 | 52.43524 | 14.97977 | 54° | 16km/h | 21049m | 5.2m/s | -53.7°C | 4.8% | 49.5hPa | 2.7V | 08:30:00 | 01:41:23 | 00:00:00 | |
| AA1-15 | 2026-08-30 23:51:12 | 52.43506 | 14.97925 | 47° | 20km/h | 21007m | 5.3m/s | -53.6°C | 0.9% | 49.9hPa | 2.5V | 18:12:15 | 01:41:15 | 00:00:00 | |
| DM0DOS-11 | 2026-08-30 23:51:10 | 52.43498 | 14.97916 | 33° | 16km/h | 20997m | 5.4m/s | -53.6°C | 4.7% | 50hPa | 2.7V | 08:30:00 | 01:41:13 | 00:00:00 | |
| DB0DAN | 2026-08-30 23:51:10 | 52.43498 | 14.97916 | 34° | 16km/h | 20997m | 5.4m/s | -53.6°C | 1.2% | 49.96hPa | 2.7V | 00:00:00 | 00:00:00 | 00:00:00 | |
| SONDE2-12 | 2026-08-30 23:51:07 | 52.43486 | 14.97907 | 1° | 13km/h | 20974m | 5.2m/s | -53.6°C | 1.4% | 50.1hPa | 2.7V | 00:00:00 | 00:00:00 | 00:00:00 | |
| DM0DOS-11 | 2026-08-30 23:51:05 | 52.43468 | 14.97896 | 27° | 15km/h | 20942m | 4m/s | -53.8°C | 4.7% | 50.4hPa | 2.7V | 08:30:00 | 01:41:03 | 00:00:00 | |
| AA1-15 | 2026-08-30 23:51:01 | 52.43472 | 14.97899 | 34° | 15km/h | 20947m | 6.4m/s | -53.8°C | 0.8% | 50.3hPa | 2.7V | 18:12:15 | 01:41:04 | 00:00:00 | |
| EDDB2-12 | 2026-08-30 23:50:59 | 52.43465 | 14.97893 | 33° | 15km/h | 20938m | 4.8m/s | -53.8°C | 1.2% | 50.4hPa | 2.7V | 00:00:00 | 00:00:00 | 00:00:00 | |
| 3Z3Z-3 | 2026-08-30 23:50:58 | 52.43464 | 14.97893 | 34° | 15km/h | 20938m | 4.8m/s | -53.8°C | 0% | 50.4hPa | 2.7V | 00:00:00 | 00:00:00 | 00:00:00 | |
| DAC517 | 2026-08-30 23:50:57 | 52.43462 | 14.97889 | 47° | 13km/h | 20932m | 7.8m/s | -53.8°C | 1.2% | 50.5hPa | 2.7V | 00:00:00 | 00:00:00 | 00:00:00 | |
| DB0DAN | 2026-08-30 23:50:55 | 52.43453 | 14.97881 | 7° | 13km/h | 20914m | 4.7m/s | -53.8°C | 1.2% | 50.61hPa | 2.7V | 00:00:00 | 00:00:00 | 00:00:00 | |
| DM0DOS-11 | 2026-08-30 23:50:53 | 52.43438 | 14.97891 | 325° | 15km/h | 20885m | 5.6m/s | -53.9°C | 4.8% | 50.8hPa | 2.7V | 08:30:00 | 01:40:53 | 00:00:00 | |
| AA1-15 | 2026-08-30 23:50:50 | 52.43438 | 14.97891 | 326° | 15km/h | 20885m | 5.6m/s | -53.9°C | 0.9% | 50.8hPa | 2.7V | 18:12:15 | 01:40:53 | 00:00:00 | |
| SP3BTT-10 | 2026-08-30 23:50:48 | 52.43432 | 14.97897 | 320° | 9km/h | 20877m | 5.0m/s | -53.8°C | 4.8% | 50.8hPa | 2.5V | 00:00:00 | 00:00:00 | 00:00:00 | |
| DO2SHX-10 | 2026-08-30 23:50:47 | 52.43430 | 14.97900 | 326° | 5km/h | 20870m | 7.5m/s | -53.8°C | 4.8% | 50.9hPa | 2.5V | 00:00:00 | 01:40:50 | 00:00:00 | |
| DO2SHX-10 | 2026-08-30 23:50:44 | 52.43427 | 14.97903 | 339° | 5km/h | 20850m | 5.3m/s | -53.8°C | 4.8% | 51.1hPa | 2.7V | 00:00:00 | 01:40:47 | 00:00:00 | |
| DM0DOS-11 | 2026-08-30 23:50:41 | 52.43421 | 14.97911 | 299° | 13km/h | 20832m | 4.7m/s | -53.7°C | 4.8% | 51.3hPa | 2.7V | 08:30:00 | 01:40:43 | 00:00:00 | |
| AA1-15 | 2026-08-30 23:50:40 | 52.43421 | 14.97911 | 299° | 13km/h | 20832m | 4.7m/s | -53.7°C | 0.9% | 51.3hPa | 2.7V | 18:12:15 | 01:40:43 | 00:00:00 | |
| SONDE2-12 | 2026-08-30 23:50:36 | 52.43409 | 14.97945 | 285° | 15km/h | 20805m | 5.4m/s | -53.7°C | 1.4% | 51.5hPa | 2.7V | 00:00:00 | 00:00:00 | 00:00:00 | |
| DO2SHX-10 | 2026-08-30 23:50:35 | 52.43409 | 14.97945 | 286° | 16km/h | 20805m | 5.3m/s | -53.6°C | 4.7% | 51.4hPa | 2.7V | 00:00:00 | 01:40:38 | 00:00:00 | |
| KRY50SP-1 | 2026-08-30 23:50:33 | 52.43408 | 14.97951 | 285° | 15km/h | 20800m | 5.2m/s | -53.7°C | 1.2% | 51.5hPa | 2.5V | 00:00:00 | 00:00:00 | 00:00:00 | |
| DO2SHX-10 | 2026-08-30 23:50:32 | 52.43407 | 14.97961 | 280° | 7km/h | 20789m | 3.3m/s | -53.7°C | 4.8% | 51.5hPa | 2.5V | 00:00:00 | 01:40:35 | 00:00:00 | |
| DM0DOS-11 | 2026-08-30 23:50:30 | 52.43408 | 14.97969 | 239° | 7km/h | 20774m | 5.2m/s | -53.8°C | 4.7% | 51.7hPa | 2.5V | 08:30:00 | 01:40:32 | 00:00:00 | |
| AA1-15 | 2026-08-30 23:50:29 | 52.43408 | 14.97969 | 239° | 7km/h | 20774m | 5.2m/s | -53.8°C | 0.8% | 51.7hPa | 2.5V | 18:12:15 | 01:40:32 | 00:00:00 | |
| EDDB2-12 | 2026-08-30 23:50:28 | 52.43409 | 14.97972 | 262° | 5km/h | 20769m | 5.5m/s | -53.8°C | 1.2% | 51.8hPa | 2.7V | 00:00:00 | 00:00:00 | 00:00:00 | |
| KRY50SP-1 | 2026-08-30 23:50:27 | 52.43408 | 14.97971 | 264° | 7km/h | 20769m | 5.5m/s | -53.8°C | 1.2% | 51.8hPa | 2.7V | 00:00:00 | 00:00:00 | 00:00:00 | |
| DB0DAN | 2026-08-30 23:50:25 | 52.43405 | 14.97982 | 305° | 13km/h | 20754m | 5.1m/s | -53.8°C | 1.2% | 51.88hPa | 2.7V | 00:00:00 | 00:00:00 | 00:00:00 | |
| DO2SHX-10 | 2026-08-30 23:50:23 | 52.43401 | 14.97992 | 306° | 13km/h | 20743m | 5.4m/s | -53.7°C | 4.8% | 51.9hPa | 2.5V | 00:00:00 | 01:40:26 | 08:30:00 | |
| KRY50SP-1 | 2026-08-30 23:50:21 | 52.43399 | 14.97996 | 311° | 11km/h | 20738m | 5.2m/s | -53.7°C | 1.2% | 52.0hPa | 2.5V | 00:00:00 | 00:00:00 | 00:00:00 | |
| DM0DOS-11 | 2026-08-30 23:50:20 | 52.43395 | 14.98005 | 282° | 9km/h | 20722m | 5.5m/s | -53.7°C | 4.8% | 52.1hPa | 2.5V | 08:30:00 | 01:40:22 | 00:00:00 | |
| AA1-15 | 2026-08-30 23:50:19 | 52.43395 | 14.98005 | 283° | 9km/h | 20722m | 5.5m/s | -53.7°C | 0.9% | 52.1hPa | 2.5V | 18:12:15 | 01:40:22 | 00:00:00 | |
| SP6BVK | 2026-08-30 23:50:18 | 52.43395 | 14.98005 | 283° | 9km/h | 20723m | 5.5m/s | -53.7°C | 1.2% | 52.1hPa | 2.5V | 00:00:00 | 00:00:00 | 00:00:00 | |
| SP3WXH-11 | 2026-08-30 23:50:17 | 52.43396 | 14.98016 | 243° | 16km/h | 20712m | 4.7m/s | -53.7°C | 1.2% | 52.2hPa | 2.5V | 00:00:00 | 00:00:00 | 00:00:00 | |
| SONDE2-11 | 2026-08-30 23:50:16 | 52.43398 | 14.98022 | 245° | 18km/h | 20708m | 4.4m/s | -53.7°C | 1.2% | 52.3hPa | 2.5V | 00:00:00 | 00:00:00 | 00:00:00 | |
| DO2SHX-10 | 2026-08-30 23:50:15 | 52.43400 | 14.98029 | 253° | 15km/h | 20703m | 5.4m/s | -53.7°C | 4.7% | 52.2hPa | 2.5V | 00:00:00 | 01:40:18 | 00:00:00 | |
| DO2SHX-10 | 2026-08-30 23:50:12 | 52.43402 | 14.98044 | 262° | 9km/h | 20688m | 5.0m/s | -53.7°C | 4.7% | 52.3hPa | 2.5V | 00:00:00 | 01:40:15 | 00:00:00 | |
| DM0DOS-11 | 2026-08-30 23:50:10 | 52.43402 | 14.98056 | 283° | 9km/h | 20674m | 4.6m/s | -54°C | 4.8% | 52.5hPa | 2.5V | 08:30:00 | 01:40:12 | 00:00:00 | |
| AA1-15 | 2026-08-30 23:50:08 | 52.43401 | 14.98059 | 307° | 13km/h | 20668m | 6.8m/s | -54°C | 0.8% | 52.6hPa | 2.5V | 18:12:15 | 01:40:11 | 00:00:00 | |
| S3001 | 2026-08-30 23:50:06 | 52.43395 | 14.98066 | 335° | 15km/h | 20657m | 3.9m/s | -54.0°C | 1.2% | 52.6hPa | 2.5V | 00:00:00 | 00:00:00 | 00:00:00 | |
| DO2SHX-10 | 2026-08-30 23:50:05 | 52.43392 | 14.98068 | 340° | 11km/h | 20653m | 3.9m/s | -53.9°C | 4.8% | 52.7hPa | 2.5V | 00:00:00 | 01:40:08 | 00:00:00 | |
| DM0DOS-11 | 2026-08-30 23:50:04 | 52.43396 | 14.98063 | 101° | 9km/h | 20622m | 4.8m/s | -53.9°C | 4.8% | 53hPa | 2.5V | 08:30:00 | 01:40:02 | 00:00:00 | |
| AA1-15 | 2026-08-30 23:49:57 | 52.43394 | 14.98056 | 40° | 9km/h | 20611m | 5.4m/s | -53.8°C | 0.8% | 53hPa | 2.5V | 18:12:15 | 01:40:00 | 00:00:00 | |
| DO2SHX-10 | 2026-08-30 23:49:57 | 52.43394 | 14.98056 | 40° | 9km/h | 20611m | 5.4m/s | -53.8°C | 4.7% | 53.0hPa | 2.5V | 00:00:00 | 01:40:00 | 00:00:00 | |
| DO2SHX-10 | 2026-08-30 23:49:54 | 52.43386 | 14.98052 | 14° | 15km/h | 20597m | 5.6m/s | -53.7°C | 4.7% | 53.1hPa | 2.5V | 00:00:00 | 01:39:57 | 00:00:00 | |
| DM0DOS-11 | 2026-08-30 23:49:53 | 52.43376 | 14.98048 | 155° | 2km/h | 20572m | 4.5m/s | -53.9°C | 4.8% | 53.4hPa | 2.5V | 08:30:00 | 01:39:52 | 00:00:00 | |
| AA1-15 | 2026-08-30 23:49:47 | 52.43377 | 14.98045 | 101° | 7km/h | 20560m | 6m/s | -53.8°C | 0.8% | 53.5hPa | 2.5V | 18:12:15 | 01:39:50 | 00:00:00 | |
| DAC517 | 2026-08-30 23:49:44 | 52.43376 | 14.98038 | 61° | 7km/h | 20549m | 5.3m/s | -54.0°C | 1.2% | 53.6hPa | 2.5V | 00:00:00 | 00:00:00 | 00:00:00 | |
| DM0DOS-11 | 2026-08-30 23:49:43 | 52.43363 | 14.98014 | 46° | 11km/h | 20519m | 4.2m/s | -54.2°C | 4.9% | 53.8hPa | 2.5V | 08:30:00 | 01:39:42 | 00:00:00 | |
| AA1-15 | 2026-08-30 23:49:36 | 52.43361 | 14.98002 | 98° | 15km/h | 20504m | 5.9m/s | -54.2°C | 0.8% | 54hPa | 2.7V | 18:12:15 | 01:39:39 | 00:00:00 | |
| SONDE2-12 | 2026-08-30 23:49:34 | 52.43365 | 14.97984 | 119° | 13km/h | 20489m | 5.3m/s | -54.3°C | 1.5% | 54.1hPa | 2.5V | 00:00:00 | 00:00:00 | 00:00:00 | |
| DM0DOS-11 | 2026-08-30 23:49:33 | 52.43366 | 14.97962 | 61° | 18km/h | 20469m | 3.8m/s | -54.2°C | 4.9% | 54.2hPa | 2.5V | 08:30:00 | 01:39:32 | 00:00:00 | |
| AA1-15 | 2026-08-30 23:49:25 | 52.43352 | 14.97939 | 38° | 24km/h | 20447m | 5.5m/s | -54.2°C | 0.9% | 54.4hPa | 2.7V | 18:12:15 | 01:39:28 | 00:00:00 | |
| AA1-15 | 2026-08-30 23:49:15 | 52.43325 | 14.97873 | 50° | 20km/h | 20398m | 6.1m/s | -54.2°C | 0.9% | 54.9hPa | 2.7V | 18:12:15 | 01:39:18 | 00:00:00 | |
| SONDE2-11 | 2026-08-30 23:49:14 | 52.43321 | 14.97867 | 38° | 20km/h | 20393m | 5.5m/s | -54.2°C | 1.2% | 54.9hPa | 2.5V | 00:00:00 | 00:00:00 | 00:00:00 | |
| DM0DOS-11 | 2026-08-30 23:49:13 | 52.43302 | 14.97846 | 27° | 16km/h | 20367m | 6.8m/s | -54.3°C | 4.9% | 55.1hPa | 2.5V | 08:30:00 | 01:39:12 | 00:00:00 | |
| DO2SHX-10 | 2026-08-30 23:49:13 | 52.43317 | 14.97862 | 33° | 20km/h | 20387m | 5.6m/s | -54.2°C | 4.9% | 54.9hPa | 2.7V | 00:00:00 | 01:39:16 | 00:00:00 | |
| DB0DAN | 2026-08-30 23:49:10 | 52.43305 | 14.97849 | 33° | 16km/h | 20373m | 4.3m/s | -54.3°C | 1.2% | 55.07hPa | 2.7V | 00:00:00 | 00:00:00 | 00:00:00 | |
| AA1-15 | 2026-08-30 23:49:04 | 52.43283 | 14.97816 | 51° | 27km/h | 20341m | 5.8m/s | -54.4°C | 1% | 55.3hPa | 2.5V | 18:12:15 | 01:39:07 | 00:00:00 | |
| DM0DOS-11 | 2026-08-30 23:49:03 | 52.43260 | 14.97780 | 41° | 22km/h | 20315m | 5.4m/s | -54.3°C | 5% | 55.5hPa | 2.5V | 08:30:00 | 01:39:02 | 00:00:00 | |
| SONDE2-12 | 2026-08-30 23:49:02 | 52.43273 | 14.97799 | 41° | 26km/h | 20331m | 4.2m/s | -54.4°C | 1.5% | 55.4hPa | 2.7V | 00:00:00 | 00:00:00 | 00:00:00 | |
| DO2SHX-10 | 2026-08-30 23:49:00 | 52.43264 | 14.97786 | 43° | 22km/h | 20321m | 5.6m/s | -54.3°C | 5.0% | 55.4hPa | 2.7V | 00:00:00 | 01:39:03 | 00:00:00 | |
| KRY50SP-1 | 2026-08-30 23:48:59 | 52.43264 | 14.97786 | 43° | 22km/h | 20321m | 5.6m/s | -54.3°C | 1.3% | 55.5hPa | 2.7V | 00:00:00 | 00:00:00 | 00:00:00 | |
| 13BRC | 2026-08-30 23:48:57 | 52.43256 | 14.97774 | 43° | 22km/h | 20310m | 4.3m/s | -54.3°C | 1.3% | 55.6hPa | 2.7V | 00:00:00 | 00:00:00 | 00:00:00 | |
| DB0DAN | 2026-08-30 23:48:55 | 52.43241 | 14.97762 | 14° | 22km/h | 20294m | 6.4m/s | -54.2°C | 1.3% | 55.73hPa | 2.7V | 00:00:00 | 00:00:00 | 00:00:00 | |
| AA1-15 | 2026-08-30 23:48:53 | 52.43225 | 14.97753 | 24° | 22km/h | 20279m | 3.5m/s | -54.2°C | 0.9% | 55.8hPa | 2.5V | 18:12:15 | 01:38:55 | 00:00:00 | |
| DM0DOS-11 | 2026-08-30 23:48:53 | 52.43209 | 14.97740 | 30° | 26km/h | 20262m | 4.5m/s | -54.2°C | 4.9% | 56hPa | 2.5V | 08:30:00 | 01:38:52 | 00:00:00 | |
| DL1XH-west | 2026-08-30 23:48:45 | 52.43188 | 14.97713 | 32° | 26km/h | 20245m | 6.5m/s | -54.1°C | 0.9% | 56.1hPa | 2.7V | 18:12:15 | 01:38:48 | 00:00:00 | |
| SP3WXH-11 | 2026-08-30 23:48:44 | 52.43183 | 14.97708 | 25° | 24km/h | 20239m | 4.9m/s | -54.1°C | 1.2% | 56.2hPa | 2.5V | 00:00:00 | 00:00:00 | 00:00:00 | |
| DM0DOS-11 | 2026-08-30 23:48:43 | 52.43161 | 14.97694 | 37° | 15km/h | 20215m | 4.9m/s | -53.9°C | 4.8% | 56.4hPa | 2.5V | 08:30:00 | 01:38:42 | 00:00:00 | |
| AA1-15 | 2026-08-30 23:48:41 | 52.43167 | 14.97700 | 18° | 18km/h | 20225m | 5.9m/s | -54°C | 0.9% | 56.3hPa | 2.7V | 18:12:15 | 01:38:44 | 00:00:00 | |
| DO2SHX-10 | 2026-08-30 23:48:40 | 52.43164 | 14.97697 | 31° | 15km/h | 20220m | 4.9m/s | 0°C | 0% | 0hPa | 2.5V | 00:00:00 | 01:38:43 | 08:30:00 | |
| DO2SHX-10 | 2026-08-30 23:48:37 | 52.43155 | 14.97686 | 31° | 16km/h | 20205m | 5.7m/s | 0°C | 0% | 0hPa | 2.5V | 00:00:00 | 01:38:40 | 00:00:00 | |
| MECKS9 | 2026-08-30 23:48:36 | 52.43155 | 14.97687 | 32° | 16km/h | 20205m | 5.7m/s | -53.9°C | 1.2% | 56.5hPa | 2.5V | 00:00:00 | 00:00:00 | 00:00:00 | |
| SP6BVK | 2026-08-30 23:48:35 | 52.43151 | 14.97683 | 27° | 18km/h | 20198m | 6.8m/s | -54.0°C | 1.2% | 56.6hPa | 2.5V | 00:00:00 | 00:00:00 | 00:00:00 | |
| DO2SHX-10 | 2026-08-30 23:48:34 | 52.43143 | 14.97678 | 24° | 15km/h | 20188m | 6.2m/s | 0°C | 0% | 0hPa | 2.5V | 00:00:00 | 01:38:37 | 00:00:00 | |
| DM0DOS-11 | 2026-08-30 23:48:33 | 52.43128 | 14.97674 | 356° | 7km/h | 20161m | 6.2m/s | -53.7°C | 4.7% | 56.9hPa | 2.5V | 08:30:00 | 01:38:32 | 00:00:00 | |
| DL1XH-west | 2026-08-30 23:48:33 | 52.43139 | 14.97676 | 21° | 13km/h | 20183m | 4.1m/s | -53.9°C | 0.9% | 56.7hPa | 2.5V | 18:12:15 | 01:38:36 | 00:00:00 | |
| SONDE2-12 | 2026-08-30 23:48:31 | 52.43133 | 14.97673 | 359° | 13km/h | 20172m | 7.7m/s | -53.8°C | 1.4% | 56.9hPa | 2.7V | 00:00:00 | 00:00:00 | 00:00:00 | |
| AA1-15 | 2026-08-30 23:48:30 | 52.43130 | 14.97674 | 354° | 11km/h | 20166m | 4.4m/s | -53.8°C | 0.9% | 56.9hPa | 2.7V | 18:12:15 | 01:38:33 | 00:00:00 | |
| DO2SHX-10 | 2026-08-30 23:48:28 | 52.43126 | 14.97674 | 10° | 5km/h | 20156m | 4.0m/s | 0°C | 0% | 0hPa | 2.5V | 00:00:00 | 01:38:31 | 00:00:00 | |
| MECKS9 | 2026-08-30 23:48:26 | 52.43125 | 14.97673 | 22° | 5km/h | 20151m | 4.1m/s | -53.7°C | 1.2% | 57.0hPa | 2.5V | 00:00:00 | 00:00:00 | 00:00:00 | |
| DO2SHX-10 | 2026-08-30 23:48:25 | 52.43122 | 14.97670 | 32° | 9km/h | 20139m | 5.0m/s | 0°C | 0% | 0hPa | 2.5V | 00:00:00 | 01:38:28 | 00:00:00 | |
| EDDB2-12 | 2026-08-30 23:48:24 | 52.43119 | 14.97665 | 53° | 9km/h | 20128m | 4.9m/s | -53.6°C | 1.2% | 57.2hPa | 2.5V | 00:00:00 | 00:00:00 | 00:00:00 | |
| DM0DOS-11 | 2026-08-30 23:48:23 | 52.43111 | 14.97652 | 43° | 9km/h | 20109m | 4.2m/s | -53.7°C | 4.7% | 57.4hPa | 2.5V | 08:30:00 | 01:38:22 | 00:00:00 | |
| DL1XH-west | 2026-08-30 23:48:21 | 52.43115 | 14.97658 | 47° | 11km/h | 20120m | 5.3m/s | -53.6°C | 0.8% | 57.3hPa | 2.7V | 18:12:15 | 01:38:24 | 00:00:00 | |
| AA1-15 | 2026-08-30 23:48:20 | 52.43113 | 14.97655 | 43° | 11km/h | 20114m | 5.7m/s | -53.6°C | 0.8% | 57.3hPa | 2.7V | 18:12:15 | 01:38:23 | 00:00:00 | |
| DO2SHX-10 | 2026-08-30 23:48:19 | 52.43112 | 14.97652 | 44° | 9km/h | 20109m | 4.1m/s | 0°C | 0% | 0hPa | 2.5V | 00:00:00 | 01:38:22 | 00:00:00 | |
| SP3BTT-10 | 2026-08-30 23:48:18 | 52.43110 | 14.97649 | 61° | 16km/h | 20105m | 5.7m/s | -53.7°C | 4.7% | 57.4hPa | 2.5V | 00:00:00 | 00:00:00 | 00:00:00 | |
| 13BRC | 2026-08-30 23:48:17 | 52.43110 | 14.97649 | 61° | 9km/h | 20105m | 5.7m/s | -53.8°C | 1.2% | 57.4hPa | 2.5V | 00:00:00 | 00:00:00 | 00:00:00 | |
| DO2SHX-10 | 2026-08-30 23:48:16 | 52.43109 | 14.97643 | 92° | 4km/h | 20095m | 5.1m/s | 0°C | 0% | 0hPa | 2.5V | 00:00:00 | 01:38:19 | 00:00:00 | |
| EDDB2-11 | 2026-08-30 23:48:15 | 52.43109 | 14.97641 | 103° | 2km/h | 20089m | 6.2m/s | -54.1°C | 1.2% | 57.6hPa | 2.5V | 00:00:00 | 00:00:00 | 00:00:00 | |
| KRY50SP-1 | 2026-08-30 23:48:14 | 52.43110 | 14.97641 | 105° | 2km/h | 20089m | 6.2m/s | -54.1°C | 1.2% | 57.6hPa | 2.5V | 00:00:00 | 00:00:00 | 00:00:00 | |
| DM0DOS-11 | 2026-08-30 23:48:13 | 52.43119 | 14.97638 | 127° | 11km/h | 20059m | 5.6m/s | -54.1°C | 4.9% | 57.8hPa | 2.5V | 08:30:00 | 01:38:12 | 00:00:00 | |
| AA1-15 | 2026-08-30 23:48:10 | 52.43117 | 14.97641 | 148° | 11km/h | 20063m | 4.3m/s | -54.1°C | 0.9% | 57.8hPa | 2.7V | 18:12:15 | 01:38:13 | 00:00:00 | |
| DO2SHX-10 | 2026-08-30 23:48:10 | 52.43117 | 14.97641 | 149° | 11km/h | 20063m | 4.3m/s | 0°C | 0% | 0hPa | 2.5V | 00:00:00 | 01:38:13 | 00:00:00 | |
| DO2SHX-10 | 2026-08-30 23:48:07 | 52.43120 | 14.97629 | 83° | 15km/h | 20048m | 5.6m/s | 0°C | 0% | 0hPa | 2.5V | 00:00:00 | 01:38:10 | 00:00:00 | |
| MECKS9 | 2026-08-30 23:48:05 | 52.43119 | 14.97624 | 84° | 15km/h | 20043m | 5.2m/s | -54.0°C | 1.2% | 58.0hPa | 2.5V | 00:00:00 | 00:00:00 | 00:00:00 | |
| DO2SHX-10 | 2026-08-30 23:48:04 | 52.43119 | 14.97612 | 92° | 13km/h | 20033m | 3.2m/s | 0°C | 0% | 0hPa | 2.5V | 00:00:00 | 01:38:07 | 00:00:00 | |
| DM0DOS-11 | 2026-08-30 23:48:03 | 52.43119 | 14.97591 | 94° | 9km/h | 20005m | 3.9m/s | -53.9°C | 4.8% | 58.3hPa | 2.5V | 08:30:00 | 01:38:02 | 00:00:00 | |
| DL1XH-west | 2026-08-30 23:48:03 | 52.43119 | 14.97606 | 97° | 13km/h | 20029m | 5.1m/s | -54°C | 0.8% | 58.1hPa | 2.5V | 18:12:15 | 01:38:06 | 00:00:00 | |
| SONDE2-12 | 2026-08-30 23:48:00 | 52.43119 | 14.97595 | 102° | 9km/h | 20010m | 6.0m/s | -53.9°C | 1.5% | 58.3hPa | 2.5V | 00:00:00 | 00:00:00 | 00:00:00 | |
| AA1-15 | 2026-08-30 23:47:59 | 52.43120 | 14.97591 | 95° | 9km/h | 20005m | 3.9m/s | -53.9°C | 0.8% | 58.3hPa | 2.5V | 18:12:15 | 01:38:02 | 00:00:00 | |
| 13BRC | 2026-08-30 23:47:58 | 52.43120 | 14.97587 | 95° | 9km/h | 20001m | 4.3m/s | -53.9°C | 1.2% | 58.4hPa | 2.5V | 00:00:00 | 00:00:00 | 00:00:00 | |
| 3Z3Z-3 | 2026-08-30 23:47:57 | 52.43120 | 14.97587 | 95° | 9km/h | 20001m | 4.3m/s | 0°C | 0% | 58.4hPa | 2.5V | 00:00:00 | 00:00:00 | 00:00:00 | |
| DO2SHX-10 | 2026-08-30 23:47:55 | 52.43119 | 14.97578 | 86° | 7km/h | 19983m | 6.4m/s | 0°C | 0% | 0hPa | 2.5V | 00:00:00 | 01:37:58 | 00:00:00 | |
| MECKS9 | 2026-08-30 23:47:54 | 52.43119 | 14.97578 | 86° | 7km/h | 19983m | 6.5m/s | -53.9°C | 1.2% | 58.5hPa | 2.5V | 00:00:00 | 00:00:00 | 00:00:00 | |
| DM0DOS-11 | 2026-08-30 23:47:53 | 52.43120 | 14.97565 | 78° | 5km/h | 19949m | 5.2m/s | -53.8°C | 4.8% | 58.8hPa | 2.5V | 08:30:00 | 01:37:52 | 00:00:00 | |
| DL1XH-west | 2026-08-30 23:47:51 | 52.43120 | 14.97568 | 83° | 4km/h | 19962m | 7.1m/s | -53.8°C | 0.8% | 58.7hPa | 2.7V | 18:12:15 | 01:37:54 | 00:00:00 | |
| DL2RXE-15 | 2026-08-30 23:47:49 | 52.43120 | 14.97567 | 80° | 4km/h | 19955m | 6.0m/s | -53.8°C | 1.2% | 58.8hPa | 2.5V | 00:00:00 | 00:00:00 | 00:00:00 | |
| DL1XH1-15 | 2026-08-30 23:47:48 | 52.43109 | 14.97542 | 60° | 16km/h | 19918m | 3.7m/s | -53.6°C | 4.7% | 59.1hPa | 2.5V | 08:30:00 | 01:37:46 | 00:00:00 | |
| AA1-15 | 2026-08-30 23:47:48 | 52.43119 | 14.97562 | 60° | 9km/h | 19945m | 3.2m/s | -53.8°C | 0.9% | 58.9hPa | 2.5V | 18:12:15 | 01:37:51 | 00:00:00 | |
| DO2SHX-10 | 2026-08-30 23:47:48 | 52.43119 | 14.97562 | 60° | 11km/h | 19946m | 3.2m/s | 0°C | 0% | 0hPa | 2.5V | 00:00:00 | 01:37:51 | 00:00:00 | |
| 3Z3Z-3 | 2026-08-30 23:47:46 | 52.43118 | 14.97559 | 51° | 11km/h | 19941m | 5.6m/s | 0°C | 0% | 58.9hPa | 2.5V | 00:00:00 | 00:00:00 | 00:00:00 | |
| EDDB2-11 | 2026-08-30 23:47:44 | 52.43111 | 14.97547 | 57° | 13km/h | 19923m | 6.3m/s | -53.7°C | 1.2% | 59.1hPa | 2.5V | 00:00:00 | 00:00:00 | 00:00:00 | |
| DM0DOS-11 | 2026-08-30 23:47:43 | 52.43101 | 14.97522 | 52° | 13km/h | 19896m | 5.8m/s | -53.7°C | 4.7% | 59.3hPa | 2.5V | 00:00:00 | 01:37:42 | 00:00:00 | |
| DL1XH-west | 2026-08-30 23:47:41 | 52.43105 | 14.97531 | 52° | 15km/h | 19908m | 7.2m/s | -53.7°C | 0.8% | 59.2hPa | 2.7V | 18:12:15 | 01:37:44 | 00:00:00 | |
| DB0DAN | 2026-08-30 23:47:40 | 52.43103 | 14.97526 | 48° | 13km/h | 19902m | 5.4m/s | -53.7°C | 1.2% | 59.27hPa | 2.7V | 00:00:00 | 00:00:00 | 00:00:00 | |
| AA1-15 | 2026-08-30 23:47:37 | 52.43097 | 14.97514 | 52° | 13km/h | 19886m | 4.6m/s | -53.8°C | 0.8% | 59.4hPa | 2.5V | 18:12:15 | 01:37:40 | 00:00:00 | |
| KRY50SP-1 | 2026-08-30 23:47:36 | 52.43097 | 14.97514 | 53° | 13km/h | 19887m | 4.6m/s | -53.8°C | 1.2% | 59.4hPa | 2.7V | 00:00:00 | 00:00:00 | 00:00:00 | |
| 3Z3Z-3 | 2026-08-30 23:47:34 | 52.43090 | 14.97502 | 45° | 15km/h | 19871m | 4.4m/s | 0°C | 0% | 59.5hPa | 2.7V | 00:00:00 | 00:00:00 | 00:00:00 | |
| DM0DOS-11 | 2026-08-30 23:47:33 | 52.43077 | 14.97476 | 49° | 20km/h | 19842m | 5m/s | -53.9°C | 4.8% | 59.8hPa | 2.7V | 00:00:00 | 01:37:32 | 00:00:00 | |
| S3001 | 2026-08-30 23:47:31 | 52.43082 | 14.97487 | 49° | 15km/h | 19855m | 6.8m/s | -53.9°C | 1.2% | 59.7hPa | 2.7V | 00:00:00 | 00:00:00 | 00:00:00 | |
| DL1XH1-15 | 2026-08-30 23:47:30 | 52.43074 | 14.97470 | 57° | 20km/h | 19837m | 6m/s | -53.8°C | 4.8% | 59.9hPa | 2.7V | 08:30:00 | 01:37:31 | 00:00:00 | |
| DL1XH-west | 2026-08-30 23:47:30 | 52.43080 | 14.97482 | 45° | 16km/h | 19848m | 7.4m/s | -53.9°C | 0.9% | 59.8hPa | 2.5V | 18:12:15 | 01:37:33 | 00:00:00 | |
| SONDE2-12 | 2026-08-30 23:47:29 | 52.43077 | 14.97476 | 49° | 18km/h | 19842m | 5.0m/s | -53.9°C | 1.5% | 59.8hPa | 2.5V | 00:00:00 | 00:00:00 | 00:00:00 | |
| AA1-15 | 2026-08-30 23:47:26 | 52.43068 | 14.97455 | 57° | 22km/h | 19827m | 5.8m/s | -53.8°C | 0.9% | 60hPa | 2.5V | 18:12:15 | 01:37:29 | 00:00:00 | |
| DB0DAN | 2026-08-30 23:47:25 | 52.43065 | 14.97448 | 47° | 22km/h | 19821m | 6.3m/s | -53.9°C | 1.2% | 60.01hPa | 2.5V | 00:00:00 | 00:00:00 | 00:00:00 | |
| DM0DOS-11 | 2026-08-30 23:47:23 | 52.43044 | 14.97422 | 16° | 13km/h | 19789m | 4.7m/s | -53.9°C | 4.9% | 60.3hPa | 2.5V | 00:00:00 | 01:37:22 | 00:00:00 | |
| DL1XH-west | 2026-08-30 23:47:20 | 52.43047 | 14.97424 | 22° | 15km/h | 19794m | 6.1m/s | -54°C | 0.9% | 60.2hPa | 2.5V | 18:12:15 | 01:37:23 | 00:00:00 | |
| AA1-15 | 2026-08-30 23:47:16 | 52.43036 | 14.97413 | 43° | 15km/h | 19775m | 4.1m/s | -53.8°C | 0.9% | 60.5hPa | 2.7V | 18:12:15 | 01:37:19 | 00:00:00 | |
| KRY50SP-1 | 2026-08-30 23:47:15 | 52.43036 | 14.97413 | 44° | 15km/h | 19775m | 4.1m/s | -53.8°C | 1.2% | 60.5hPa | 2.5V | 00:00:00 | 00:00:00 | 00:00:00 | |
| SP6BVK | 2026-08-30 23:47:14 | 52.43029 | 14.97405 | 32° | 18km/h | 19763m | 6.3m/s | -53.8°C | 1.2% | 60.6hPa | 2.5V | 00:00:00 | 00:00:00 | 00:00:00 | |
| EDDB2-11 | 2026-08-30 23:47:13 | 52.43025 | 14.97401 | 31° | 18km/h | 19757m | 5.9m/s | -53.8°C | 1.2% | 60.6hPa | 2.5V | 00:00:00 | 00:00:00 | 00:00:00 | |
| MECKS9 | 2026-08-30 23:47:12 | 52.43025 | 14.97401 | 33° | 18km/h | 19757m | 5.9m/s | -53.8°C | 1.2% | 60.6hPa | 2.5V | 00:00:00 | 00:00:00 | 00:00:00 | |
| DB0DAN | 2026-08-30 23:47:10 | 52.43013 | 14.97390 | 17° | 18km/h | 19742m | 6.2m/s | -53.8°C | 1.2% | 60.76hPa | 2.5V | 00:00:00 | 00:00:00 | 00:00:00 | |
| DL1XH-west | 2026-08-30 23:47:09 | 52.43008 | 14.97388 | 8° | 18km/h | 19735m | 6.8m/s | -53.8°C | 0.9% | 60.9hPa | 2.5V | 18:12:15 | 01:37:12 | 00:00:00 | |
| DM0DOS-11 | 2026-08-30 23:47:08 | 52.42990 | 14.97381 | 28° | 18km/h | 19714m | 5.9m/s | -53.6°C | 4.7% | 61hPa | 2.5V | 00:00:00 | 01:37:08 | 00:00:00 | |
| AA1-15 | 2026-08-30 23:47:05 | 52.42990 | 14.97381 | 29° | 18km/h | 19715m | 5.9m/s | -53.6°C | 0.8% | 61hPa | 2.5V | 18:12:15 | 01:37:08 | 00:00:00 | |
| DL1XH-west | 2026-08-30 23:46:59 | 52.42962 | 14.97335 | 41° | 27km/h | 19682m | 5.7m/s | -53.7°C | 0.8% | 61.3hPa | 2.5V | 18:12:15 | 01:37:02 | 00:00:00 | |
| SONDE2-12 | 2026-08-30 23:46:58 | 52.42957 | 14.97329 | 29° | 27km/h | 19677m | 4.7m/s | -53.6°C | 1.5% | 61.4hPa | 2.5V | 00:00:00 | 00:00:00 | 00:00:00 | |
| DB0DAN | 2026-08-30 23:46:55 | 52.42939 | 14.97316 | 21° | 22km/h | 19662m | 4.9m/s | -53.6°C | 1.2% | 61.54hPa | 2.5V | 00:00:00 | 00:00:00 | 00:00:00 | |
| AA1-15 | 2026-08-30 23:46:54 | 52.42933 | 14.97313 | 21° | 24km/h | 19657m | 5.4m/s | -53.5°C | 0.9% | 61.6hPa | 2.5V | 18:12:15 | 01:36:57 | 00:00:00 | |
| DL1XH-west | 2026-08-30 23:46:48 | 52.42899 | 14.97290 | 33° | 20km/h | 19627m | 4.6m/s | -53.4°C | 0.8% | 61.9hPa | 2.5V | 18:12:15 | 01:36:51 | 00:00:00 | |
| AA1-15 | 2026-08-30 23:46:43 | 52.42870 | 14.97263 | 24° | 26km/h | 19602m | 6.4m/s | -53.3°C | 0.8% | 62.1hPa | 2.5V | 18:12:15 | 01:36:46 | 00:00:00 | |
| EDDB2-11 | 2026-08-30 23:46:42 | 52.42864 | 14.97259 | 23° | 18km/h | 19597m | 4.9m/s | -53.3°C | 1.1% | 62.2hPa | 2.5V | 00:00:00 | 00:00:00 | 00:00:00 | |
| KRY50SP-1 | 2026-08-30 23:46:41 | 52.42864 | 14.97259 | 25° | 20km/h | 19597m | 4.9m/s | -53.2°C | 1.1% | 62.2hPa | 2.5V | 00:00:00 | 00:00:00 | 00:00:00 | |
| SP3WXH-11 | 2026-08-30 23:46:40 | 52.42856 | 14.97254 | 21° | 15km/h | 19586m | 6.0m/s | -53.2°C | 1.2% | 62.3hPa | 2.5V | 00:00:00 | 00:00:00 | 00:00:00 | |
| SONDE2-11 | 2026-08-30 23:46:39 | 52.42852 | 14.97251 | 20° | 16km/h | 19580m | 5.9m/s | -53.2°C | 1.2% | 62.3hPa | 2.5V | 00:00:00 | 00:00:00 | 00:00:00 | |
| DM0DOS-11 | 2026-08-30 23:46:38 | 52.42839 | 14.97243 | 24° | 15km/h | 19562m | 7.2m/s | -53°C | 4.5% | 62.5hPa | 2.5V | 00:00:00 | 01:36:39 | 00:00:00 | |
| DL1XH-west | 2026-08-30 23:46:37 | 52.42843 | 14.97246 | 22° | 16km/h | 19569m | 6m/s | -53.1°C | 0.8% | 62.5hPa | 2.5V | 18:12:15 | 01:36:40 | 00:00:00 | |
| AA1-15 | 2026-08-30 23:46:32 | 52.42824 | 14.97228 | 43° | 18km/h | 19539m | 4.8m/s | -53.2°C | 0.7% | 62.7hPa | 2.7V | 18:12:15 | 01:36:35 | 00:00:00 | |
| DL1XH-west | 2026-08-30 23:46:27 | 52.42811 | 14.97197 | 52° | 18km/h | 19510m | 4m/s | -53.3°C | 0.7% | 63hPa | 2.7V | 18:12:15 | 01:36:30 | 00:00:00 | |
| AA1-15 | 2026-08-30 23:46:22 | 52.42802 | 14.97168 | 54° | 13km/h | 19482m | 5m/s | -53.6°C | 0.8% | 63.3hPa | 2.7V | 18:12:15 | 01:36:25 | 00:00:00 | |
| KRY50SP-1 | 2026-08-30 23:46:20 | 52.42800 | 14.97164 | 56° | 13km/h | 19478m | 4.1m/s | -53.6°C | 1.2% | 63.3hPa | 2.5V | 00:00:00 | 00:00:00 | 00:00:00 | |
| MECKS9 | 2026-08-30 23:46:19 | 52.42799 | 14.97160 | 68° | 11km/h | 19473m | 6.4m/s | -53.7°C | 1.2% | 63.3hPa | 2.5V | 00:00:00 | 00:00:00 | 00:00:00 | |
| DM0DOS-11 | 2026-08-30 23:46:18 | 52.42800 | 14.97125 | 109° | 15km/h | 19435m | 6.4m/s | -53.8°C | 4.7% | 63.8hPa | 2.5V | 00:00:00 | 01:36:16 | 00:00:00 | |
| DL1XH-west | 2026-08-30 23:46:17 | 52.42798 | 14.97145 | 87° | 11km/h | 19456m | 5.6m/s | -53.7°C | 0.8% | 63.5hPa | 2.7V | 18:12:15 | 01:36:20 | 00:00:00 | |
| AA1-15 | 2026-08-30 23:46:11 | 52.42802 | 14.97113 | 102° | 15km/h | 19424m | 5.1m/s | -53.8°C | 0.8% | 63.9hPa | 2.7V | 18:12:15 | 01:36:14 | 00:00:00 | |
| DL1XH-west | 2026-08-30 23:46:06 | 52.42806 | 14.97078 | 98° | 18km/h | 19397m | 6.2m/s | -53.8°C | 0.8% | 64.1hPa | 2.6V | 18:12:15 | 01:36:09 | 00:00:00 | |
| AA1-15 | 2026-08-30 23:46:01 | 52.42811 | 14.97033 | 102° | 18km/h | 19365m | 5.4m/s | -53.9°C | 0.8% | 64.5hPa | 2.5V | 18:12:15 | 01:36:03 | 00:00:00 | |
| SONDE2-12 | 2026-08-30 23:45:56 | 52.42814 | 14.97002 | 95° | 20km/h | 19344m | 4.8m/s | -54.0°C | 1.5% | 64.7hPa | 2.5V | 00:00:00 | 00:00:00 | 00:00:00 | |
| DL1XH-west | 2026-08-30 23:45:55 | 52.42814 | 14.96994 | 84° | 20km/h | 19339m | 6.3m/s | -54°C | 0.9% | 64.7hPa | 2.5V | 18:12:15 | 01:35:58 | 00:00:00 | |
| DB0DAN | 2026-08-30 23:45:55 | 52.42814 | 14.96994 | 84° | 20km/h | 19339m | 6.3m/s | -54°C | 1.3% | 64.72hPa | 2.5V | 00:00:00 | 00:00:00 | 00:00:00 | |
| AA1-15 | 2026-08-30 23:45:51 | 52.42805 | 14.96951 | 71° | 22km/h | 19311m | 5.8m/s | -53.9°C | 0.9% | 65hPa | 2.5V | 18:12:15 | 01:35:53 | 00:00:00 | |
| EDDB2-12 | 2026-08-30 23:45:49 | 52.42802 | 14.96935 | 70° | 16km/h | 19301m | 4.5m/s | -53.9°C | 1.2% | 65.1hPa | 2.5V | 00:00:00 | 00:00:00 | 00:00:00 | |
| 3Z3Z-3 | 2026-08-30 23:45:48 | 52.42804 | 14.96942 | 69° | 20km/h | 19306m | 5.3m/s | 0°C | 0% | 65.1hPa | 2.5V | 00:00:00 | 00:00:00 | 00:00:00 | |
| DM0DOS-11 | 2026-08-30 23:45:47 | 52.42800 | 14.96903 | 83° | 20km/h | 19278m | 6m/s | -53.7°C | 4.8% | 65.3hPa | 2.5V | 00:00:00 | 01:35:47 | 00:00:00 | |
| DL1XH-west | 2026-08-30 23:45:44 | 52.42800 | 14.96903 | 83° | 20km/h | 19278m | 6.1m/s | -53.7°C | 0.9% | 65.3hPa | 2.5V | 18:12:15 | 01:35:47 | 00:00:00 | |
| DB0DAN | 2026-08-30 23:45:40 | 52.42797 | 14.96876 | 87° | 16km/h | 19258m | 7.3m/s | -53.6°C | 1.2% | 65.53hPa | 2.5V | 00:00:00 | 00:00:00 | 00:00:00 | |
| AA1-15 | 2026-08-30 23:45:39 | 52.42796 | 14.96869 | 79° | 16km/h | 19253m | 4.6m/s | -53.6°C | 0.8% | 65.6hPa | 2.5V | 18:12:15 | 01:35:42 | 00:00:00 | |
| SP3WXH-11 | 2026-08-30 23:45:38 | 52.42794 | 14.96857 | 68° | 13km/h | 19242m | 4.5m/s | -53.5°C | 1.2% | 65.7hPa | 2.5V | 00:00:00 | 00:00:00 | 00:00:00 | |
| DM0DOS-11 | 2026-08-30 23:45:37 | 52.42790 | 14.96839 | 73° | 18km/h | 19225m | 4.1m/s | -53.4°C | 4.7% | 65.9hPa | 2.5V | 00:00:00 | 01:35:37 | 00:00:00 | |
| DL1XH-west | 2026-08-30 23:45:33 | 52.42789 | 14.96832 | 64° | 18km/h | 19220m | 4.5m/s | -53.4°C | 0.8% | 65.9hPa | 2.5V | 18:12:15 | 01:35:36 | 00:00:00 | |
| AA1-15 | 2026-08-30 23:45:28 | 52.42780 | 14.96803 | 93° | 16km/h | 19195m | 5.9m/s | -53.2°C | 0.8% | 66.2hPa | 2.5V | 18:12:15 | 01:35:31 | 00:00:00 | |
| DB0DAN | 2026-08-30 23:45:25 | 52.42784 | 14.96783 | 115° | 15km/h | 19182m | 5m/s | -53.1°C | 1.2% | 66.3hPa | 2.7V | 00:00:00 | 00:00:00 | 00:00:00 | |
| DM0DOS-11 | 2026-08-30 23:45:23 | 52.42786 | 14.96773 | 107° | 13km/h | 19170m | 5.9m/s | -53°C | 4.6% | 66.4hPa | 2.5V | 00:00:00 | 01:35:26 | 00:00:00 | |
| DL1XH-west | 2026-08-30 23:45:23 | 52.42787 | 14.96773 | 107° | 13km/h | 19170m | 5.9m/s | -53°C | 0.8% | 66.4hPa | 2.5V | 18:12:15 | 01:35:26 | 00:00:00 | |
| AA1-15 | 2026-08-30 23:45:17 | 52.42779 | 14.96742 | 64° | 15km/h | 19139m | 5.9m/s | -52.8°C | 0.7% | 66.8hPa | 2.7V | 18:12:15 | 01:35:20 | 00:00:00 | |
| KRY50SP-1 | 2026-08-30 23:45:13 | 52.42778 | 14.96723 | 112° | 16km/h | 19124m | 6.3m/s | -52.7°C | 1.2% | 66.9hPa | 2.5V | 00:00:00 | 00:00:00 | 00:00:00 | |
| 13BRC | 2026-08-30 23:45:12 | 52.42780 | 14.96717 | 119° | 16km/h | 19118m | 4.7m/s | -52.7°C | 1.2% | 67.0hPa | 2.5V | 00:00:00 | 00:00:00 | 00:00:00 | |
| DB0DAN | 2026-08-30 23:45:10 | 52.42785 | 14.96695 | 98° | 18km/h | 19104m | 3.8m/s | -52.7°C | 1.1% | 67.11hPa | 2.5V | 00:00:00 | 00:00:00 | 00:00:00 | |
| AA1-15 | 2026-08-30 23:45:07 | 52.42784 | 14.96675 | 73° | 15km/h | 19090m | 4.5m/s | -52.6°C | 0.7% | 67.3hPa | 2.7V | 18:12:15 | 01:35:10 | 00:00:00 | |
| DL1XH-west | 2026-08-30 23:45:04 | 52.42781 | 14.96653 | 79° | 20km/h | 19074m | 5.2m/s | -52.6°C | 0.6% | 67.5hPa | 2.5V | 18:12:15 | 01:35:07 | 00:00:00 | |
| AA1-15 | 2026-08-30 23:44:56 | 52.42777 | 14.96589 | 91° | 16km/h | 19031m | 5m/s | -52.7°C | 0.6% | 67.9hPa | 2.6V | 18:12:15 | 01:34:59 | 00:00:00 | |
| SONDE2-12 | 2026-08-30 23:44:54 | 52.42777 | 14.96575 | 93° | 18km/h | 19021m | 4.4m/s | -52.7°C | 1.4% | 68.0hPa | 2.7V | 00:00:00 | 00:00:00 | 00:00:00 | |
| DL1XH-west | 2026-08-30 23:44:53 | 52.42778 | 14.96566 | 99° | 20km/h | 19016m | 3.9m/s | -52.7°C | 0.6% | 68hPa | 2.7V | 18:12:15 | 01:34:56 | 00:00:00 | |
| AA1-15 | 2026-08-30 23:44:45 | 52.42781 | 14.96493 | 92° | 24km/h | 18974m | 5.2m/s | -52.8°C | 0.7% | 68.5hPa | 2.5V | 18:12:15 | 01:34:48 | 00:00:00 | |
| DM0DOS-11 | 2026-08-30 23:44:44 | 52.42788 | 14.96433 | 102° | 33km/h | 18949m | 5.2m/s | -52.9°C | 4.5% | 68.7hPa | 2.5V | 00:00:00 | 01:34:43 | 00:00:00 | |
| DL1XH-west | 2026-08-30 23:44:42 | 52.42784 | 14.96459 | 103° | 31km/h | 18960m | 6.7m/s | -52.9°C | 0.7% | 68.6hPa | 2.7V | 18:12:15 | 01:34:45 | 00:00:00 | |
| AA1-15 | 2026-08-30 23:44:35 | 52.42794 | 14.96366 | 96° | 29km/h | 18927m | 3.6m/s | -53°C | 0.7% | 69hPa | 2.5V | 18:12:15 | 01:34:38 | 00:00:00 | |
| DL2RXE-15 | 2026-08-30 23:44:35 | 52.42793 | 14.96366 | 96° | 29km/h | 18927m | 3.6m/s | -53.0°C | 1.2% | 69.0hPa | 2.7V | 00:00:00 | 00:00:00 | 00:00:00 | |
| 3Z3Z-3 | 2026-08-30 23:44:34 | 52.42793 | 14.96366 | 96° | 29km/h | 18927m | 3.6m/s | 0°C | 0% | 0hPa | 2.7V | 00:00:00 | 00:00:00 | 00:00:00 | |
| DM0DOS-11 | 2026-08-30 23:44:33 | 52.42795 | 14.96297 | 91° | 37km/h | 18904m | 5.2m/s | -53°C | 4.6% | 69.2hPa | 2.7V | 00:00:00 | 01:34:33 | 00:00:00 | |
| DL1XH-west | 2026-08-30 23:44:32 | 52.42795 | 14.96326 | 91° | 37km/h | 18913m | 3.8m/s | -53°C | 0.7% | 69.1hPa | 2.6V | 18:12:15 | 01:34:35 | 00:00:00 | |
| AA1-15 | 2026-08-30 23:44:24 | 52.42796 | 14.96194 | 88° | 40km/h | 18873m | 5.7m/s | -53°C | 0.7% | 69.6hPa | 2.7V | 18:12:15 | 01:34:27 | 00:00:00 | |
| SONDE2-12 | 2026-08-30 23:44:23 | 52.42796 | 14.96177 | 89° | 40km/h | 18868m | 4.9m/s | -53.0°C | 1.4% | 69.6hPa | 2.5V | 00:00:00 | 00:00:00 | 00:00:00 | |
| DL1XH-west | 2026-08-30 23:44:21 | 52.42796 | 14.96143 | 90° | 38km/h | 18860m | 3.1m/s | -53.1°C | 0.7% | 69.7hPa | 2.5V | 18:12:15 | 01:34:24 | 00:00:00 | |
| DM0DOS-11 | 2026-08-30 23:44:20 | 52.42794 | 14.96072 | 82° | 35km/h | 18834m | 4.2m/s | 0°C | 0% | 0hPa | 2.5V | 00:00:00 | 01:34:19 | 00:00:00 | |
| AA1-15 | 2026-08-30 23:44:14 | 52.42789 | 14.96032 | 75° | 35km/h | 18820m | 4.3m/s | -53.2°C | 0.7% | 70.1hPa | 2.7V | 18:12:15 | 01:34:16 | 00:00:00 | |
| DL1XH-west | 2026-08-30 23:44:11 | 52.42784 | 14.96001 | 77° | 38km/h | 18811m | 3.4m/s | -53.2°C | 0.7% | 70.2hPa | 2.5V | 18:12:15 | 01:34:14 | 00:00:00 | |
| AA1-15 | 2026-08-30 23:44:02 | 52.42770 | 14.95868 | 73° | 33km/h | 18769m | 4.9m/s | -53.5°C | 0.8% | 70.7hPa | 2.6V | 18:12:15 | 01:34:05 | 00:00:00 | |
| KRY50SP-1 | 2026-08-30 23:43:59 | 52.42764 | 14.95840 | 70° | 40km/h | 18761m | 3.7m/s | -53.6°C | 1.2% | 70.8hPa | 2.7V | 00:00:00 | 00:00:00 | 00:00:00 | |
| DB0DAN | 2026-08-30 23:43:55 | 52.42745 | 14.95757 | 70° | 46km/h | 18735m | 4.2m/s | -53.6°C | 1.2% | 71.06hPa | 2.7V | 00:00:00 | 00:00:00 | 00:00:00 | |
| SONDE2-12 | 2026-08-30 23:43:52 | 52.42733 | 14.95705 | 67° | 40km/h | 18720m | 4.2m/s | -53.8°C | 1.5% | 71.2hPa | 2.5V | 00:00:00 | 00:00:00 | 00:00:00 | |
| DL1XH-west | 2026-08-30 23:43:51 | 52.42729 | 14.95690 | 66° | 38km/h | 18715m | 3.9m/s | -53.8°C | 0.7% | 71.3hPa | 2.5V | 18:12:15 | 01:33:54 | 00:00:00 | |
| 13BRC | 2026-08-30 23:43:50 | 52.42729 | 14.95690 | 67° | 38km/h | 18716m | 3.9m/s | -53.8°C | 1.2% | 71.3hPa | 2.5V | 00:00:00 | 00:00:00 | 00:00:00 | |
| KRY50SP-1 | 2026-08-30 23:43:48 | 52.42717 | 14.95646 | 70° | 38km/h | 18702m | 3.8m/s | -54.1°C | 1.2% | 71.4hPa | 2.5V | 00:00:00 | 00:00:00 | 00:00:00 | |
| SP6BVK | 2026-08-30 23:43:47 | 52.42717 | 14.95646 | 70° | 38km/h | 18702m | 3.8m/s | -54.1°C | 1.2% | 71.4hPa | 2.5V | 00:00:00 | 00:00:00 | 00:00:00 | |
| DAC517 | 2026-08-30 23:43:46 | 52.42711 | 14.95617 | 74° | 35km/h | 18693m | 4.8m/s | -54.3°C | 1.2% | 71.6hPa | 2.5V | 00:00:00 | 00:00:00 | 00:00:00 | |
| EDDB2-12 | 2026-08-30 23:43:44 | 52.42705 | 14.95589 | 72° | 37km/h | 18684m | 4.8m/s | -54.5°C | 1.2% | 71.6hPa | 2.5V | 00:00:00 | 00:00:00 | 00:00:00 | |
| 3Z3Z-3 | 2026-08-30 23:43:43 | 52.42706 | 14.95589 | 74° | 38km/h | 18685m | 4.8m/s | 0°C | 0% | 0hPa | 2.5V | 00:00:00 | 00:00:00 | 00:00:00 | |
| DM0DOS-11 | 2026-08-30 23:43:41 | 52.42685 | 14.95529 | 48° | 44km/h | 18664m | 4.1m/s | 0°C | 0% | 0hPa | 2.5V | 00:00:00 | 01:33:43 | 00:00:00 | |
| DL1XH-west | 2026-08-30 23:43:41 | 52.42692 | 14.95543 | 55° | 44km/h | 18669m | 6m/s | -55°C | 0.9% | 71.8hPa | 2.7V | 18:12:15 | 01:33:44 | 00:00:00 | |
| DB0DAN | 2026-08-30 23:43:40 | 52.42685 | 14.95529 | 49° | 42km/h | 18664m | 4.1m/s | -55°C | 1.3% | 71.89hPa | 2.5V | 00:00:00 | 00:00:00 | 00:00:00 | |
| KRY50SP-1 | 2026-08-30 23:43:38 | 52.42669 | 14.95501 | 47° | 47km/h | 18653m | 5.8m/s | -55.2°C | 1.3% | 72.0hPa | 2.6V | 00:00:00 | 00:00:00 | 00:00:00 | |
| DL2RXE-15 | 2026-08-30 23:43:36 | 52.42652 | 14.95475 | 45° | 42km/h | 18643m | 5.9m/s | -55.2°C | 1.3% | 72.1hPa | 2.6V | 00:00:00 | 00:00:00 | 00:00:00 | |
| SP3WXH-11 | 2026-08-30 23:43:34 | 52.42635 | 14.95447 | 49° | 26km/h | 18629m | 5.0m/s | -55.3°C | 1.3% | 72.2hPa | 2.6V | 00:00:00 | 00:00:00 | 00:00:00 | |
| KRY50SP-1 | 2026-08-30 23:43:31 | 52.42631 | 14.95438 | 55° | 29km/h | 18624m | 5.3m/s | -55.4°C | 1.3% | 72.3hPa | 2.6V | 00:00:00 | 00:00:00 | 00:00:00 | |
| SP3BTT-10 | 2026-08-30 23:43:30 | 52.42621 | 14.95416 | 54° | 29km/h | 18614m | 5.3m/s | -55.4°C | 5.2% | 72.4hPa | 2.6V | 00:00:00 | 00:00:00 | 00:00:00 | |
| DL1XH-west | 2026-08-30 23:43:30 | 52.42621 | 14.95416 | 54° | 33km/h | 18614m | 5.4m/s | -55.4°C | 1% | 72.4hPa | 2.7V | 18:12:15 | 01:33:33 | 00:00:00 | |
| 13BRC | 2026-08-30 23:43:29 | 52.42621 | 14.95416 | 55° | 33km/h | 18614m | 5.4m/s | -55.4°C | 1.4% | 72.4hPa | 2.6V | 00:00:00 | 00:00:00 | 00:00:00 | |
| DB0DAN | 2026-08-30 23:43:25 | 52.42585 | 14.95360 | 36° | 44km/h | 18590m | 5.3m/s | -55.2°C | 1.4% | 72.72hPa | 2.6V | 00:00:00 | 00:00:00 | 00:00:00 | |
| SONDE2-12 | 2026-08-30 23:43:21 | 52.42551 | 14.95330 | 25° | 31km/h | 18571m | 6.4m/s | -55.1°C | 1.7% | 72.9hPa | 2.5V | 00:00:00 | 00:00:00 | 00:00:00 | |
| AA1-15 | 2026-08-30 23:43:20 | 52.42544 | 14.95325 | 24° | 29km/h | 18565m | 5.3m/s | -55.1°C | 1% | 73hPa | 2.5V | 18:12:15 | 01:33:23 | 00:00:00 | |
| DL1XH-west | 2026-08-30 23:43:19 | 52.42537 | 14.95320 | 20° | 27km/h | 18560m | 5.1m/s | -55.2°C | 0.9% | 73.1hPa | 2.5V | 18:12:15 | 01:33:22 | 00:00:00 | |
| KRY50SP-1 | 2026-08-30 23:43:14 | 52.42508 | 14.95302 | 37° | 33km/h | 18541m | 5.2m/s | -55.1°C | 1.3% | 73.3hPa | 2.7V | 00:00:00 | 00:00:00 | 00:00:00 | |
| EDDB2-12 | 2026-08-30 23:43:13 | 52.42494 | 14.95286 | 36° | 33km/h | 18532m | 4.7m/s | -55.0°C | 1.3% | 73.4hPa | 2.7V | 00:00:00 | 00:00:00 | 00:00:00 | |
| DB0DAN | 2026-08-30 23:43:10 | 52.42470 | 14.95263 | 25° | 37km/h | 18517m | 5.3m/s | -54.9°C | 1.3% | 73.56hPa | 2.7V | 00:00:00 | 00:00:00 | 00:00:00 | |
| AA1-15 | 2026-08-30 23:43:09 | 52.42461 | 14.95256 | 27° | 40km/h | 18511m | 5.8m/s | -54.9°C | 0.9% | 73.6hPa | 2.5V | 18:12:15 | 01:33:12 | 00:00:00 | |
| DL1XH-west | 2026-08-30 23:43:06 | 52.42435 | 14.95236 | 24° | 33km/h | 18499m | 5.3m/s | -54.8°C | 1% | 73.8hPa | 2.6V | 18:12:15 | 01:33:09 | 00:00:00 | |
| DM0DOS-11 | 2026-08-30 23:43:05 | 52.42403 | 14.95217 | 17° | 24km/h | 18474m | 5.1m/s | 0°C | 0% | 0hPa | 2.5V | 00:00:00 | 01:33:04 | 00:00:00 | |
| AA1-15 | 2026-08-30 23:42:59 | 52.42391 | 14.95212 | 16° | 24km/h | 18464m | 3m/s | -54.7°C | 1% | 74.2hPa | 2.6V | 18:12:15 | 01:33:02 | 00:00:00 | |
| 3Z3Z-3 | 2026-08-30 23:42:57 | 52.42385 | 14.95208 | 25° | 26km/h | 18461m | 4.4m/s | 0°C | 0% | 0hPa | 2.7V | 00:00:00 | 00:00:00 | 00:00:00 | |
| DM0DOS-11 | 2026-08-30 23:42:55 | 52.42334 | 14.95165 | 11° | 31km/h | 18426m | 5.1m/s | 0°C | 0% | 0hPa | 2.7V | 00:00:00 | 01:32:54 | 00:00:00 | |
| DL1XH-west | 2026-08-30 23:42:55 | 52.42367 | 14.95188 | 35° | 35km/h | 18447m | 4m/s | -54.6°C | 0.9% | 74.4hPa | 2.5V | 18:12:15 | 01:32:58 | 00:00:00 | |
| DB0DAN | 2026-08-30 23:42:55 | 52.42367 | 14.95188 | 35° | 33km/h | 18446m | 4m/s | -54.6°C | 1.3% | 74.37hPa | 2.5V | 00:00:00 | 00:00:00 | 00:00:00 | |
| SONDE2-12 | 2026-08-30 23:42:50 | 52.42327 | 14.95163 | 7° | 26km/h | 18421m | 5.5m/s | -54.4°C | 1.7% | 74.7hPa | 2.6V | 00:00:00 | 00:00:00 | 00:00:00 | |
| AA1-15 | 2026-08-30 23:42:48 | 52.42315 | 14.95162 | 360° | 22km/h | 18411m | 4.1m/s | -54.3°C | 0.9% | 74.8hPa | 2.6V | 18:12:15 | 01:32:51 | 00:00:00 | |
| DL1XH-west | 2026-08-30 23:42:44 | 52.42292 | 14.95166 | 2° | 22km/h | 18390m | 5.4m/s | -54.2°C | 0.9% | 75hPa | 2.7V | 18:12:15 | 01:32:47 | 00:00:00 | |
| AA1-15 | 2026-08-30 23:42:37 | 52.42256 | 14.95146 | 21° | 24km/h | 18355m | 4.1m/s | -54°C | 0.9% | 75.4hPa | 2.7V | 18:12:15 | 01:32:40 | 00:00:00 | |
| DL1XH-west | 2026-08-30 23:42:33 | 52.42228 | 14.95142 | 356° | 29km/h | 18335m | 4.1m/s | -53.8°C | 0.9% | 75.7hPa | 2.6V | 18:12:15 | 01:32:36 | 00:00:00 | |
| AA1-15 | 2026-08-30 23:42:27 | 52.42193 | 14.95141 | 355° | 15km/h | 18299m | 5.6m/s | -53.5°C | 0.8% | 76.1hPa | 2.6V | 18:12:15 | 01:32:29 | 00:00:00 | |
| DL1XH1-15 | 2026-08-30 23:42:27 | 52.42182 | 14.95140 | 358° | 15km/h | 18285m | 5.8m/s | -53.4°C | 4.7% | 76.3hPa | 2.7V | 08:30:00 | 01:32:26 | 00:00:00 | |
| DL1XH-west | 2026-08-30 23:42:23 | 52.42182 | 14.95140 | 358° | 15km/h | 18285m | 5.8m/s | -53.4°C | 0.8% | 76.3hPa | 2.7V | 18:12:15 | 01:32:26 | 00:00:00 | |
| SONDE2-12 | 2026-08-30 23:42:19 | 52.42163 | 14.95146 | 356° | 20km/h | 18264m | 5.6m/s | -53.3°C | 1.6% | 76.5hPa | 2.6V | 00:00:00 | 00:00:00 | 00:00:00 | |
| KRY50SP-1 | 2026-08-30 23:42:17 | 52.42152 | 14.95145 | 6° | 24km/h | 18255m | 4.2m/s | -53.2°C | 1.2% | 76.6hPa | 2.6V | 00:00:00 | 00:00:00 | 00:00:00 | |
| DL1XH1-15 | 2026-08-30 23:42:16 | 52.42129 | 14.95148 | 349° | 22km/h | 18235m | 5.3m/s | -53°C | 4.7% | 76.8hPa | 2.6V | 08:30:00 | 01:32:16 | 00:00:00 | |
| AA1-15 | 2026-08-30 23:42:16 | 52.42140 | 14.95145 | 352° | 24km/h | 18244m | 5.3m/s | -53.1°C | 0.9% | 76.8hPa | 2.5V | 18:12:15 | 01:32:18 | 00:00:00 | |
| DL1XH-west | 2026-08-30 23:42:12 | 52.42124 | 14.95150 | 353° | 22km/h | 18230m | 4.4m/s | -52.9°C | 0.9% | 76.9hPa | 2.7V | 18:12:15 | 01:32:15 | 00:00:00 | |
| DB0DAN | 2026-08-30 23:42:10 | 52.42114 | 14.95154 | 342° | 16km/h | 18221m | 5.5m/s | -52.9°C | 1.2% | 77.04hPa | 2.5V | 00:00:00 | 00:00:00 | 00:00:00 | |
| DL1XH1-15 | 2026-08-30 23:42:06 | 52.42083 | 14.95159 | 1° | 20km/h | 18182m | 4.9m/s | -52.6°C | 4.6% | 77.5hPa | 2.5V | 08:30:00 | 01:32:06 | 00:00:00 | |
| AA1-15 | 2026-08-30 23:42:04 | 52.42088 | 14.95159 | 6° | 18km/h | 18188m | 6.6m/s | -52.6°C | 0.8% | 77.4hPa | 2.7V | 18:12:15 | 01:32:07 | 00:00:00 | |
| DL1XH-west | 2026-08-30 23:42:01 | 52.42072 | 14.95158 | 0° | 26km/h | 18172m | 7.6m/s | -52.5°C | 0.7% | 77.6hPa | 2.5V | 18:12:15 | 01:32:04 | 00:00:00 | |
| SP3WXH-11 | 2026-08-30 23:42:01 | 52.42065 | 14.95159 | 358° | 27km/h | 18165m | 4.6m/s | -52.5°C | 1.2% | 77.7hPa | 2.5V | 00:00:00 | 00:00:00 | 00:00:00 | |
| SONDE2-11 | 2026-08-30 23:41:59 | 52.42058 | 14.95159 | 359° | 27km/h | 18161m | 4.3m/s | -52.4°C | 1.2% | 77.8hPa | 2.5V | 00:00:00 | 00:00:00 | 00:00:00 | |
| 3Z3Z-3 | 2026-08-30 23:41:58 | 52.42051 | 14.95159 | 360° | 26km/h | 18154m | 9.4m/s | 0°C | 0% | 0hPa | 2.5V | 00:00:00 | 00:00:00 | 00:00:00 | |
| DL1XH1-15 | 2026-08-30 23:41:56 | 52.42036 | 14.95156 | 30° | 9km/h | 18117m | 7.5m/s | -52.1°C | 4.6% | 78.3hPa | 2.5V | 08:30:00 | 01:31:56 | 00:00:00 | |
| DB0DAN | 2026-08-30 23:41:55 | 52.42040 | 14.95158 | 15° | 7km/h | 18132m | 7.2m/s | -52.3°C | 1.2% | 78.12hPa | 2.5V | 00:00:00 | 00:00:00 | 00:00:00 | |
| AA1-15 | 2026-08-30 23:41:54 | 52.42038 | 14.95157 | 16° | 7km/h | 18125m | 7.5m/s | -52.2°C | 0.8% | 78.2hPa | 2.5V | 18:12:15 | 01:31:57 | 00:00:00 | |
| DL1XH-west | 2026-08-30 23:41:50 | 52.42027 | 14.95148 | 38° | 16km/h | 18100m | 8.1m/s | -52°C | 0.7% | 78.5hPa | 2.7V | 18:12:15 | 01:31:53 | 00:00:00 | |
| S3001 | 2026-08-30 23:41:50 | 52.42024 | 14.95143 | 54° | 16km/h | 18091m | 8.8m/s | -51.9°C | 1.2% | 78.6hPa | 2.7V | 00:00:00 | 00:00:00 | 00:00:00 | |
| KRY50SP-1 | 2026-08-30 23:41:48 | 52.42024 | 14.95143 | 56° | 16km/h | 18092m | 8.8m/s | -51.9°C | 1.2% | 78.6hPa | 2.7V | 00:00:00 | 00:00:00 | 00:00:00 | |
| DL1XH1-15 | 2026-08-30 23:41:46 | 52.42001 | 14.95140 | 315° | 26km/h | 18049m | 5.1m/s | -51.6°C | 4.3% | 79.1hPa | 2.7V | 08:30:00 | 01:31:46 | 00:00:00 | |
| AA1-15 | 2026-08-30 23:41:43 | 52.42001 | 14.95140 | 315° | 26km/h | 18049m | 5.1m/s | -51.6°C | 0.6% | 79.1hPa | 2.7V | 18:12:15 | 01:31:46 | 00:00:00 | |
| DL1XH-west | 2026-08-30 23:41:40 | 52.41990 | 14.95152 | 36° | 13km/h | 18030m | 7m/s | -51.4°C | 0.6% | 79.3hPa | 2.5V | 18:12:15 | 01:31:43 | 00:00:00 | |
| DB0DAN | 2026-08-30 23:41:40 | 52.41990 | 14.95152 | 36° | 11km/h | 18030m | 7m/s | -51.4°C | 1.2% | 79.33hPa | 2.5V | 00:00:00 | 00:00:00 | 00:00:00 | |
| DL1XH1-15 | 2026-08-30 23:41:36 | 52.41985 | 14.95092 | 66° | 5km/h | 17986m | 6.5m/s | -51.1°C | 4.1% | 79.9hPa | 2.5V | 08:30:00 | 01:31:36 | 00:00:00 | |
| AA1-15 | 2026-08-30 23:41:32 | 52.41983 | 14.95091 | 357° | 7km/h | 17980m | 4.7m/s | -51°C | 0.5% | 80hPa | 2.6V | 18:12:15 | 01:31:35 | 00:00:00 | |
| DL1XH-west | 2026-08-30 23:41:30 | 52.41977 | 14.95092 | 356° | 16km/h | 17967m | 6.4m/s | -51.3°C | 0.5% | 80.1hPa | 2.7V | 18:12:15 | 01:31:33 | 00:00:00 | |
| SP3WXH-11 | 2026-08-30 23:41:30 | 52.41973 | 14.95092 | 9° | 16km/h | 17962m | 4.3m/s | -51.4°C | 1.1% | 80.2hPa | 2.6V | 00:00:00 | 00:00:00 | 00:00:00 | |
| SONDE2-11 | 2026-08-30 23:41:28 | 52.41969 | 14.95091 | 13° | 15km/h | 17957m | 5.5m/s | -51.4°C | 1.2% | 80.2hPa | 2.6V | 00:00:00 | 00:00:00 | 00:00:00 | |
| DB0DAN | 2026-08-30 23:41:25 | 52.41963 | 14.95081 | 103° | 13km/h | 17940m | 5.3m/s | -51.5°C | 1.1% | 80.43hPa | 2.6V | 00:00:00 | 00:00:00 | 00:00:00 | |
| AA1-15 | 2026-08-30 23:41:21 | 52.41966 | 14.95050 | 87° | 22km/h | 17912m | 7.4m/s | -51.5°C | 0.5% | 80.8hPa | 2.5V | 18:12:15 | 01:31:24 | 00:00:00 | |
| DL1XH-west | 2026-08-30 23:41:19 | 52.41965 | 14.95032 | 93° | 22km/h | 17899m | 5.9m/s | -51.6°C | 0.6% | 81hPa | 2.6V | 18:12:15 | 01:31:22 | 00:00:00 | |
| SONDE2-12 | 2026-08-30 23:41:17 | 52.41966 | 14.95015 | 86° | 20km/h | 17890m | 5.6m/s | -51.7°C | 1.4% | 81.1hPa | 2.7V | 00:00:00 | 00:00:00 | 00:00:00 | |
| AA1-15 | 2026-08-30 23:41:10 | 52.41960 | 14.94957 | 70° | 20km/h | 17855m | 4.5m/s | -51.8°C | 0.6% | 81.5hPa | 2.7V | 18:12:15 | 01:31:13 | 00:00:00 | |
| DL1XH-west | 2026-08-30 23:41:08 | 52.41957 | 14.94940 | 82° | 26km/h | 17846m | 5.6m/s | -51.8°C | 0.6% | 81.6hPa | 2.7V | 18:12:15 | 01:31:11 | 00:00:00 | |
| AA1-15 | 2026-08-30 23:40:59 | 52.41950 | 14.94829 | 80° | 33km/h | 17801m | 3.3m/s | -52.3°C | 0.7% | 82.2hPa | 2.6V | 18:12:15 | 01:31:02 | 00:00:00 | |
| DL1XH-west | 2026-08-30 23:40:58 | 52.41948 | 14.94816 | 78° | 33km/h | 17796m | 6.1m/s | -52.3°C | 0.7% | 82.2hPa | 2.6V | 18:12:15 | 01:31:01 | 00:00:00 | |
| SONDE2-11 | 2026-08-30 23:40:57 | 52.41946 | 14.94802 | 73° | 31km/h | 17789m | 6.3m/s | -52.3°C | 1.2% | 82.3hPa | 2.5V | 00:00:00 | 00:00:00 | 00:00:00 | |
| DL1XH1-15 | 2026-08-30 23:40:56 | 52.41937 | 14.94748 | 73° | 33km/h | 17769m | 6m/s | -52.3°C | 4.3% | 82.6hPa | 2.5V | 08:30:00 | 01:30:56 | 00:00:00 | |
| DL1XH-west | 2026-08-30 23:40:48 | 52.41929 | 14.94686 | 75° | 31km/h | 17745m | 5.5m/s | -52.2°C | 0.6% | 82.9hPa | 2.7V | 18:12:15 | 01:30:51 | 00:00:00 | |
| S3001 | 2026-08-30 23:40:47 | 52.41926 | 14.94674 | 69° | 33km/h | 17740m | 5.1m/s | -52.2°C | 1.2% | 82.9hPa | 2.6V | 00:00:00 | 00:00:00 | 00:00:00 | |
| DL1XH1-15 | 2026-08-30 23:40:46 | 52.41912 | 14.94609 | 67° | 47km/h | 17720m | 6.1m/s | -52.1°C | 4.2% | 83.2hPa | 2.6V | 08:30:00 | 01:30:46 | 00:00:00 | |
| SONDE2-12 | 2026-08-30 23:40:46 | 52.41923 | 14.94660 | 69° | 37km/h | 17735m | 5.5m/s | -52.1°C | 1.4% | 83.1hPa | 2.6V | 00:00:00 | 00:00:00 | 00:00:00 | |
| DL1XH-west | 2026-08-30 23:40:37 | 52.41885 | 14.94503 | 70° | 42km/h | 17693m | 5.3m/s | -52.3°C | 0.6% | 83.6hPa | 2.6V | 18:12:15 | 01:30:40 | 00:00:00 | |
| DL1XH1-15 | 2026-08-30 23:40:36 | 52.41871 | 14.94439 | 75° | 40km/h | 17672m | 3.4m/s | -52.7°C | 4.4% | 83.9hPa | 2.7V | 08:30:00 | 01:30:36 | 00:00:00 | |
| DL1XH-west | 2026-08-30 23:40:27 | 52.41856 | 14.94353 | 75° | 35km/h | 17644m | 4.1m/s | -53°C | 0.7% | 84.2hPa | 2.7V | 18:12:15 | 01:30:30 | 00:00:00 | |
| DL1XH1-15 | 2026-08-30 23:40:26 | 52.41843 | 14.94301 | 66° | 37km/h | 17626m | 5.9m/s | -53.2°C | 4.6% | 84.5hPa | 2.6V | 08:30:00 | 01:30:26 | 00:00:00 | |
| AA1-15 | 2026-08-30 23:40:26 | 52.41853 | 14.94340 | 70° | 33km/h | 17640m | 5.3m/s | -53.1°C | 0.7% | 84.3hPa | 2.7V | 18:12:15 | 01:30:29 | 00:00:00 | |
| DB0DAN | 2026-08-30 23:40:25 | 52.41850 | 14.94327 | 65° | 31km/h | 17635m | 4m/s | -53.1°C | 1.2% | 84.33hPa | 2.5V | 00:00:00 | 00:00:00 | 00:00:00 | |
| KRY50SP-1 | 2026-08-30 23:40:24 | 52.41846 | 14.94314 | 66° | 37km/h | 17631m | 4.5m/s | -53.1°C | 1.3% | 84.4hPa | 2.7V | 00:00:00 | 00:00:00 | 00:00:00 | |
| 13BRC | 2026-08-30 23:40:23 | 52.41846 | 14.94314 | 66° | 37km/h | 17631m | 4.5m/s | -53.1°C | 1.3% | 84.4hPa | 2.7V | 00:00:00 | 00:00:00 | 00:00:00 | |
| DL2RXE-15 | 2026-08-30 23:40:22 | 52.41842 | 14.94301 | 68° | 37km/h | 17626m | 5.9m/s | -53.2°C | 1.3% | 84.5hPa | 2.7V | 00:00:00 | 00:00:00 | 00:00:00 | |
| SP6BVK | 2026-08-30 23:40:21 | 52.41839 | 14.94286 | 67° | 40km/h | 17622m | 3.6m/s | -53.2°C | 1.3% | 84.5hPa | 2.7V | 00:00:00 | 00:00:00 | 00:00:00 | |
| DAC517 | 2026-08-30 23:40:18 | 52.41818 | 14.94224 | 59° | 46km/h | 17603m | 5.1m/s | -53.5°C | 1.3% | 84.8hPa | 2.7V | 00:00:00 | 00:00:00 | 00:00:00 | |
| DL1XH1-15 | 2026-08-30 23:40:16 | 52.41788 | 14.94155 | 52° | 31km/h | 17579m | 5.1m/s | -53.5°C | 4.7% | 85.1hPa | 2.7V | 08:30:00 | 01:30:16 | 00:00:00 | |
| DL1XH-west | 2026-08-30 23:40:16 | 52.41806 | 14.94193 | 56° | 44km/h | 17594m | 4.2m/s | -53.6°C | 0.8% | 84.9hPa | 2.6V | 18:12:15 | 01:30:19 | 00:00:00 | |
| AA1-15 | 2026-08-30 23:40:15 | 52.41800 | 14.94179 | 52° | 42km/h | 17589m | 6m/s | -53.5°C | 0.8% | 85hPa | 2.6V | 18:12:15 | 01:30:18 | 00:00:00 | |
| SONDE2-12 | 2026-08-30 23:40:15 | 52.41794 | 14.94166 | 52° | 35km/h | 17584m | 4.7m/s | -53.5°C | 1.6% | 85.1hPa | 2.6V | 00:00:00 | 00:00:00 | 00:00:00 | |
| DB0DAN | 2026-08-30 23:40:10 | 52.41776 | 14.94124 | 56° | 27km/h | 17565m | 4.1m/s | -53.4°C | 1.3% | 85.27hPa | 2.6V | 00:00:00 | 00:00:00 | 00:00:00 | |
| EDDB2-12 | 2026-08-30 23:40:07 | 52.41761 | 14.94093 | 52° | 37km/h | 17551m | 3.9m/s | -53.4°C | 1.3% | 85.5hPa | 2.5V | 00:00:00 | 00:00:00 | 00:00:00 | |
| DL1XH1-15 | 2026-08-30 23:40:06 | 52.41741 | 14.94041 | 58° | 37km/h | 17532m | 5.8m/s | -53.5°C | 4.6% | 85.7hPa | 2.5V | 08:30:00 | 01:30:06 | 00:00:00 | |
| DL1XH-west | 2026-08-30 23:40:05 | 52.41750 | 14.94067 | 60° | 38km/h | 17542m | 5.6m/s | -53.5°C | 0.8% | 85.6hPa | 2.7V | 18:12:15 | 01:30:08 | 00:00:00 | |
| AA1-15 | 2026-08-30 23:40:04 | 52.41746 | 14.94054 | 61° | 37km/h | 17537m | 4m/s | -53.5°C | 0.8% | 85.7hPa | 2.6V | 18:12:15 | 01:30:07 | 00:00:00 | |
| 13BRC | 2026-08-30 23:40:03 | 52.41746 | 14.94054 | 62° | 37km/h | 17537m | 4.0m/s | -53.5°C | 1.3% | 85.7hPa | 2.7V | 00:00:00 | 00:00:00 | 00:00:00 | |
| EDDB2-11 | 2026-08-30 23:39:59 | 52.41723 | 14.93985 | 62° | 26km/h | 17508m | 5.6m/s | -53.7°C | 1.3% | 86.0hPa | 2.7V | 00:00:00 | 00:00:00 | 00:00:00 | |
| SP3WXH-11 | 2026-08-30 23:39:57 | 52.41717 | 14.93966 | 66° | 26km/h | 17499m | 5.2m/s | -53.7°C | 1.3% | 86.2hPa | 2.7V | 00:00:00 | 00:00:00 | 00:00:00 | |
| DL1XH1-15 | 2026-08-30 23:39:56 | 52.41709 | 14.93930 | 67° | 35km/h | 17483m | 5.4m/s | -53.6°C | 4.8% | 86.4hPa | 2.7V | 08:30:00 | 01:29:56 | 00:00:00 | |
| DB0DAN | 2026-08-30 23:39:55 | 52.41714 | 14.93955 | 70° | 27km/h | 17493m | 5.7m/s | -53.6°C | 1.3% | 86.28hPa | 2.6V | 00:00:00 | 00:00:00 | 00:00:00 | |
| DL1XH-west | 2026-08-30 23:39:54 | 52.41712 | 14.93943 | 70° | 33km/h | 17488m | 4.7m/s | -53.6°C | 0.8% | 86.3hPa | 2.6V | 18:12:15 | 01:29:57 | 00:00:00 | |
| AA1-15 | 2026-08-30 23:39:53 | 52.41709 | 14.93930 | 68° | 35km/h | 17483m | 5.4m/s | -53.6°C | 0.9% | 86.4hPa | 2.7V | 18:12:15 | 01:29:56 | 00:00:00 | |
| KRY50SP-1 | 2026-08-30 23:39:48 | 52.41695 | 14.93867 | 74° | 46km/h | 17464m | 4.7m/s | -53.9°C | 1.3% | 86.7hPa | 2.5V | 00:00:00 | 00:00:00 | 00:00:00 | |
| DL1XH1-15 | 2026-08-30 23:39:46 | 52.41677 | 14.93776 | 72° | 31km/h | 17434m | 5.8m/s | -54°C | 4.9% | 87hPa | 2.5V | 08:30:00 | 01:29:46 | 00:00:00 | |
| S3001 | 2026-08-30 23:39:46 | 52.41682 | 14.93803 | 72° | 37km/h | 17445m | 5.7m/s | -54.1°C | 1.3% | 86.9hPa | 2.5V | 00:00:00 | 00:00:00 | 00:00:00 | |
| SONDE2-12 | 2026-08-30 23:39:44 | 52.41677 | 14.93776 | 72° | 31km/h | 17435m | 5.8m/s | -54.0°C | 1.7% | 87.0hPa | 2.5V | 00:00:00 | 00:00:00 | 00:00:00 | |
| DL1XH-west | 2026-08-30 23:39:43 | 52.41677 | 14.93776 | 72° | 31km/h | 17434m | 5.8m/s | -54°C | 1% | 87hPa | 2.5V | 18:12:15 | 01:29:46 | 00:00:00 | |
| KRY50SP-1 | 2026-08-30 23:39:43 | 52.41677 | 14.93775 | 73° | 31km/h | 17435m | 5.8m/s | -54.0°C | 1.4% | 87.0hPa | 2.6V | 00:00:00 | 00:00:00 | 00:00:00 | |
| 13BRC | 2026-08-30 23:39:42 | 52.41677 | 14.93775 | 73° | 31km/h | 17435m | 5.8m/s | -54.0°C | 1.4% | 87.0hPa | 2.6V | 00:00:00 | 00:00:00 | 00:00:00 | |
| DB0DAN | 2026-08-30 23:39:40 | 52.41669 | 14.93743 | 69° | 27km/h | 17420m | 5.1m/s | -53.9°C | 1.4% | 87.23hPa | 2.6V | 00:00:00 | 00:00:00 | 00:00:00 | |
| SP6BVK | 2026-08-30 23:39:40 | 52.41669 | 14.93743 | 70° | 29km/h | 17421m | 5.1m/s | -53.9°C | 1.4% | 87.2hPa | 2.6V | 00:00:00 | 00:00:00 | 00:00:00 | |
| KRY50SP-1 | 2026-08-30 23:39:37 | 52.41664 | 14.93719 | 73° | 35km/h | 17411m | 5.0m/s | -53.8°C | 1.3% | 87.4hPa | 2.6V | 00:00:00 | 00:00:00 | 00:00:00 | |
| DL1XH1-15 | 2026-08-30 23:39:36 | 52.41650 | 14.93640 | 76° | 44km/h | 17387m | 4.5m/s | -53.6°C | 4.7% | 87.7hPa | 2.6V | 08:30:00 | 01:29:36 | 00:00:00 | |
| DL1XH-west | 2026-08-30 23:39:33 | 52.41650 | 14.93640 | 77° | 44km/h | 17387m | 4.5m/s | -53.7°C | 0.9% | 87.7hPa | 2.6V | 18:12:15 | 01:29:36 | 00:00:00 | |
| KRY50SP-1 | 2026-08-30 23:39:31 | 52.41647 | 14.93623 | 80° | 42km/h | 17383m | 4.0m/s | -53.6°C | 1.3% | 87.7hPa | 2.7V | 00:00:00 | 00:00:00 | 00:00:00 | |
| EDDB2-11 | 2026-08-30 23:39:28 | 52.41632 | 14.93558 | 59° | 27km/h | 17358m | 5.2m/s | -53.5°C | 1.3% | 88.1hPa | 2.7V | 00:00:00 | 00:00:00 | 00:00:00 | |
| DL1XH1-15 | 2026-08-30 23:39:26 | 52.41616 | 14.93513 | 66° | 35km/h | 17339m | 4.3m/s | -53.6°C | 4.7% | 88.3hPa | 2.7V | 08:30:00 | 01:29:26 | 00:00:00 | |
| DB0DAN | 2026-08-30 23:39:25 | 52.41624 | 14.93537 | 57° | 31km/h | 17347m | 5.3m/s | -53.6°C | 1.3% | 88.23hPa | 2.7V | 00:00:00 | 00:00:00 | 00:00:00 | |
| DL1XH-west | 2026-08-30 23:39:23 | 52.41616 | 14.93513 | 67° | 35km/h | 17339m | 4.3m/s | -53.6°C | 0.8% | 88.3hPa | 2.7V | 18:12:15 | 01:29:26 | 00:00:00 | |
| AA1-15 | 2026-08-30 23:39:22 | 52.41610 | 14.93484 | 77° | 38km/h | 17328m | 4.4m/s | -53.7°C | 0.8% | 88.5hPa | 2.5V | 18:12:15 | 01:29:24 | 00:00:00 | |
| KRY50SP-1 | 2026-08-30 23:39:21 | 52.41612 | 14.93499 | 73° | 37km/h | 17334m | 6.0m/s | -53.6°C | 1.3% | 88.4hPa | 2.6V | 00:00:00 | 00:00:00 | 00:00:00 | |
| SP6BVK | 2026-08-30 23:39:18 | 52.41605 | 14.93452 | 77° | 42km/h | 17318m | 5.0m/s | -53.8°C | 1.3% | 88.6hPa | 2.6V | 00:00:00 | 00:00:00 | 00:00:00 | |
| DAC517 | 2026-08-30 23:39:17 | 52.41597 | 14.93404 | 74° | 38km/h | 17303m | 5.6m/s | -53.8°C | 1.4% | 88.8hPa | 2.6V | 00:00:00 | 00:00:00 | 00:00:00 | |
| KRY50SP-1 | 2026-08-30 23:39:16 | 52.41597 | 14.93404 | 74° | 38km/h | 17303m | 5.6m/s | -53.8°C | 1.4% | 88.8hPa | 2.6V | 00:00:00 | 00:00:00 | 00:00:00 | |
| DL1XH1-15 | 2026-08-30 23:39:15 | 52.41585 | 14.93362 | 61° | 38km/h | 17288m | 5m/s | -53.9°C | 4.9% | 89hPa | 2.6V | 08:30:00 | 01:29:16 | 00:00:00 | |
| SONDE2-12 | 2026-08-30 23:39:13 | 52.41580 | 14.93349 | 60° | 35km/h | 17283m | 6.0m/s | -54.0°C | 1.7% | 89.1hPa | 2.6V | 00:00:00 | 00:00:00 | 00:00:00 | |
| DL1XH-west | 2026-08-30 23:39:12 | 52.41580 | 14.93349 | 61° | 37km/h | 17283m | 6m/s | -54°C | 1% | 89.1hPa | 2.6V | 18:12:15 | 01:29:15 | 00:00:00 | |
| AA1-15 | 2026-08-30 23:39:11 | 52.41576 | 14.93336 | 60° | 35km/h | 17278m | 3.2m/s | -54°C | 1% | 89.2hPa | 2.7V | 18:12:15 | 01:29:14 | 00:00:00 | |
| DB0DAN | 2026-08-30 23:39:10 | 52.41571 | 14.93323 | 58° | 35km/h | 17274m | 4.3m/s | -54°C | 1.4% | 89.23hPa | 2.7V | 00:00:00 | 00:00:00 | 00:00:00 | |
| DL1XH1-15 | 2026-08-30 23:39:05 | 52.41548 | 14.93229 | 85° | 29km/h | 17239m | 4.9m/s | -53.8°C | 4.9% | 89.7hPa | 2.7V | 08:30:00 | 01:29:06 | 00:00:00 | |
| DL1XH-west | 2026-08-30 23:39:02 | 52.41547 | 14.93217 | 74° | 27km/h | 17234m | 4.8m/s | -53.8°C | 0.9% | 89.8hPa | 2.7V | 18:12:15 | 01:29:05 | 00:00:00 | |
| AA1-15 | 2026-08-30 23:39:00 | 52.41539 | 14.93196 | 47° | 31km/h | 17224m | 5.7m/s | -53.7°C | 0.8% | 89.9hPa | 2.6V | 18:12:15 | 01:29:03 | 00:00:00 | |
| DL1XH-west | 2026-08-30 23:38:52 | 52.41490 | 14.93123 | 28° | 27km/h | 17179m | 5m/s | -53.4°C | 0.9% | 90.5hPa | 2.7V | 18:12:15 | 01:28:55 | 00:00:00 | |
| AA1-15 | 2026-08-30 23:38:50 | 52.41479 | 14.93112 | 34° | 27km/h | 17168m | 6.1m/s | -53.3°C | 0.8% | 90.7hPa | 2.6V | 18:12:15 | 01:28:53 | 00:00:00 | |
| DL1XH1-15 | 2026-08-30 23:38:48 | 52.41435 | 14.93050 | 44° | 35km/h | 17133m | 4.8m/s | -53.2°C | 4.8% | 91.2hPa | 2.6V | 08:30:00 | 01:28:46 | 00:00:00 | |
| DL1XH-west | 2026-08-30 23:38:42 | 52.41424 | 14.93031 | 43° | 31km/h | 17123m | 5.2m/s | -53.2°C | 0.8% | 91.3hPa | 2.7V | 18:12:15 | 01:28:44 | 00:00:00 | |
| AA1-15 | 2026-08-30 23:38:40 | 52.41408 | 14.93006 | 44° | 31km/h | 17108m | 4.1m/s | -53°C | 0.9% | 91.5hPa | 2.6V | 18:12:15 | 01:28:41 | 00:00:00 | |
| SP6BVK | 2026-08-30 23:38:37 | 52.41408 | 14.93006 | 45° | 31km/h | 17108m | 4.1m/s | -53.0°C | 1.3% | 91.5hPa | 2.7V | 00:00:00 | 00:00:00 | 00:00:00 | |
| DL1XH1-15 | 2026-08-30 23:38:36 | 52.41375 | 14.92960 | 40° | 37km/h | 17082m | 3.2m/s | -52.8°C | 4.6% | 91.9hPa | 2.7V | 08:30:00 | 01:28:36 | 00:00:00 | |
| DL1XH-west | 2026-08-30 23:38:30 | 52.41347 | 14.92924 | 40° | 33km/h | 17061m | 6m/s | -52.7°C | 0.8% | 92.2hPa | 2.6V | 18:12:15 | 01:28:32 | 00:00:00 | |
| AA1-15 | 2026-08-30 23:38:27 | 52.41335 | 14.92907 | 43° | 29km/h | 17051m | 5.8m/s | -52.6°C | 0.8% | 92.4hPa | 2.7V | 18:12:15 | 01:28:30 | 00:00:00 | |
| DL1XH-west | 2026-08-30 23:38:18 | 52.41278 | 14.92836 | 41° | 37km/h | 17000m | 3.5m/s | -52.2°C | 0.8% | 93.1hPa | 2.6V | 18:12:15 | 01:28:20 | 00:00:00 | |
| AA1-15 | 2026-08-30 23:38:16 | 52.41271 | 14.92826 | 38° | 37km/h | 16995m | 5.5m/s | -52.2°C | 0.8% | 93.2hPa | 2.5V | 18:12:15 | 01:28:19 | 00:00:00 | |
| SONDE2-12 | 2026-08-30 23:38:11 | 52.41229 | 14.92776 | 31° | 27km/h | 16965m | 5.0m/s | -51.9°C | 1.6% | 93.6hPa | 2.7V | 00:00:00 | 00:00:00 | 00:00:00 | |
| DL1XH-west | 2026-08-30 23:38:06 | 52.41207 | 14.92747 | 42° | 31km/h | 16945m | 5.9m/s | -51.8°C | 0.7% | 93.9hPa | 2.7V | 18:12:15 | 01:28:09 | 00:00:00 | |
| AA1-15 | 2026-08-30 23:38:05 | 52.41201 | 14.92738 | 39° | 35km/h | 16939m | 5.7m/s | -51.7°C | 0.7% | 94hPa | 2.7V | 18:12:15 | 01:28:08 | 00:00:00 | |
| AA1-15 | 2026-08-30 23:37:55 | 52.41128 | 14.92665 | 29° | 35km/h | 16887m | 5.6m/s | -51.4°C | 0.6% | 94.7hPa | 2.7V | 18:12:15 | 01:27:58 | 00:00:00 | |
| DL1XH-west | 2026-08-30 23:37:45 | 52.41048 | 14.92570 | 28° | 31km/h | 16836m | 4.1m/s | -51.2°C | 0.6% | 95.5hPa | 2.5V | 18:12:15 | 01:27:48 | 00:00:00 | |
| AA1-15 | 2026-08-30 23:37:44 | 52.41041 | 14.92564 | 25° | 31km/h | 16830m | 5.1m/s | -51.2°C | 0.6% | 95.5hPa | 2.5V | 18:12:15 | 01:27:47 | 00:00:00 | |
| SONDE2-12 | 2026-08-30 23:37:40 | 52.41008 | 14.92532 | 51° | 31km/h | 16805m | 6.6m/s | -51.4°C | 1.4% | 96.0hPa | 2.6V | 00:00:00 | 00:00:00 | 00:00:00 | |
| DL1XH-west | 2026-08-30 23:37:35 | 52.40986 | 14.92478 | 52° | 40km/h | 16782m | 5.8m/s | -51.3°C | 0.5% | 96.3hPa | 2.6V | 18:12:15 | 01:27:38 | 00:00:00 | |
| AA1-15 | 2026-08-30 23:37:34 | 52.40973 | 14.92454 | 41° | 38km/h | 16772m | 5.6m/s | -51.3°C | 0.5% | 96.5hPa | 2.7V | 18:12:15 | 01:27:36 | 00:00:00 | |
| DL1XH-west | 2026-08-30 23:37:25 | 52.40917 | 14.92375 | 52° | 33km/h | 16731m | 5.4m/s | -52.2°C | 0.6% | 97hPa | 2.7V | 18:12:15 | 01:27:28 | 00:00:00 | |
| AA1-15 | 2026-08-30 23:37:22 | 52.40900 | 14.92339 | 56° | 38km/h | 16715m | 5.3m/s | -53°C | 0.7% | 97.3hPa | 2.6V | 18:12:15 | 01:27:25 | 00:00:00 | |
| DL1XH1-15 | 2026-08-30 23:37:21 | 52.40889 | 14.92310 | 56° | 42km/h | 16704m | 4.8m/s | -53.3°C | 4.7% | 97.5hPa | 2.7V | 08:30:00 | 01:27:23 | 00:00:00 | |
| SONDE2-11 | 2026-08-30 23:37:20 | 52.40889 | 14.92310 | 56° | 42km/h | 16705m | 4.8m/s | -53.3°C | 1.3% | 97.5hPa | 2.7V | 00:00:00 | 00:00:00 | 00:00:00 | |
| 13BRC | 2026-08-30 23:37:17 | 52.40875 | 14.92282 | 47° | 47km/h | 16693m | 5.1m/s | -53.3°C | 1.4% | 97.6hPa | 2.7V | 00:00:00 | 00:00:00 | 00:00:00 | |
| DL1XH1-15 | 2026-08-30 23:37:15 | 52.40802 | 14.92123 | 58° | 55km/h | 16646m | 4m/s | -53.1°C | 4.7% | 98.3hPa | 2.7V | 08:30:00 | 01:27:12 | 00:00:00 | |
| DL1XH-west | 2026-08-30 23:37:15 | 52.40848 | 14.92236 | 50° | 55km/h | 16676m | 4.7m/s | -53.2°C | 0.8% | 97.9hPa | 2.6V | 18:12:15 | 01:27:18 | 00:00:00 | |
| AA1-15 | 2026-08-30 23:37:11 | 52.40817 | 14.92161 | 57° | 55km/h | 16656m | 6m/s | -53.1°C | 0.9% | 98.2hPa | 2.6V | 18:12:15 | 01:27:14 | 00:00:00 | |
| SONDE2-12 | 2026-08-30 23:37:10 | 52.40747 | 14.91976 | 55° | 51km/h | 16603m | 4.6m/s | -52.8°C | 1.6% | 99.0hPa | 2.5V | 00:00:00 | 00:00:00 | 00:00:00 | |
| KRY50SP-1 | 2026-08-30 23:37:05 | 52.40782 | 14.92067 | 62° | 51km/h | 16628m | 6.0m/s | -53.0°C | 1.4% | 98.6hPa | 2.5V | 00:00:00 | 00:00:00 | 00:00:00 | |
| DL1XH1-15 | 2026-08-30 23:37:04 | 52.40731 | 14.91940 | 51° | 58km/h | 16592m | 5.8m/s | -52.7°C | 4.7% | 99.1hPa | 2.5V | 08:30:00 | 01:27:02 | 00:00:00 | |
| DL1XH-west | 2026-08-30 23:37:04 | 52.40769 | 14.92030 | 58° | 53km/h | 16618m | 4.3m/s | -53°C | 0.9% | 98.8hPa | 2.6V | 18:12:15 | 01:27:07 | 00:00:00 | |
| AA1-15 | 2026-08-30 23:37:00 | 52.40740 | 14.91959 | 54° | 55km/h | 16598m | 5.7m/s | -52.8°C | 0.9% | 99.1hPa | 2.7V | 18:12:15 | 01:27:03 | 00:00:00 | |
| KRY50SP-1 | 2026-08-30 23:36:55 | 52.40695 | 14.91862 | 59° | 57km/h | 16574m | 4.4m/s | -52.6°C | 1.3% | 99.4hPa | 2.6V | 00:00:00 | 00:00:00 | 00:00:00 | |
| DL1XH1-15 | 2026-08-30 23:36:54 | 52.40652 | 14.91753 | 56° | 49km/h | 16544m | 6.4m/s | -52.3°C | 4.5% | 99.9hPa | 2.6V | 08:30:00 | 01:26:52 | 00:00:00 | |
| DL1XH-west | 2026-08-30 23:36:53 | 52.40681 | 14.91825 | 59° | 51km/h | 16564m | 5.5m/s | -52.5°C | 0.8% | 99.6hPa | 2.7V | 18:12:15 | 01:26:56 | 00:00:00 | |
| AA1-15 | 2026-08-30 23:36:49 | 52.40653 | 14.91753 | 57° | 49km/h | 16544m | 6.4m/s | -52.3°C | 0.8% | 99.9hPa | 2.6V | 18:12:15 | 01:26:52 | 00:00:00 | |
| SONDE2-11 | 2026-08-30 23:36:49 | 52.40646 | 14.91736 | 57° | 49km/h | 16538m | 5.8m/s | -52.3°C | 1.3% | 100.0hPa | 2.6V | 00:00:00 | 00:00:00 | 00:00:00 | |
| DL1XH-west | 2026-08-30 23:36:43 | 52.40607 | 14.91655 | 52° | 49km/h | 16512m | 4.4m/s | -52.1°C | 0.7% | 100.4hPa | 2.6V | 18:12:15 | 01:26:46 | 00:00:00 | |
| DL1XH1-15 | 2026-08-30 23:36:41 | 52.40575 | 14.91593 | 48° | 47km/h | 16493m | 4.6m/s | -52.1°C | 4.4% | 100.7hPa | 2.6V | 08:30:00 | 01:26:42 | 00:00:00 | |
| AA1-15 | 2026-08-30 23:36:39 | 52.40575 | 14.91593 | 49° | 47km/h | 16493m | 4.6m/s | -52.1°C | 0.8% | 100.7hPa | 2.6V | 18:12:15 | 01:26:42 | 00:00:00 | |
| KRY50SP-1 | 2026-08-30 23:36:38 | 52.40568 | 14.91578 | 53° | 44km/h | 16489m | 5.5m/s | -52.1°C | 1.3% | 100.8hPa | 2.7V | 00:00:00 | 00:00:00 | 00:00:00 | |
| 13BRC | 2026-08-30 23:36:37 | 52.40561 | 14.91564 | 56° | 44km/h | 16484m | 4.6m/s | -52.1°C | 1.3% | 100.8hPa | 2.7V | 00:00:00 | 00:00:00 | 00:00:00 | |
| DL1XH1-15 | 2026-08-30 23:36:34 | 52.40504 | 14.91422 | 54° | 51km/h | 16446m | 5.7m/s | -52.2°C | 4.4% | 101.5hPa | 2.7V | 08:30:00 | 01:26:32 | 00:00:00 | |
| DL1XH-west | 2026-08-30 23:36:32 | 52.40527 | 14.91477 | 57° | 53km/h | 16459m | 5.1m/s | -52.1°C | 0.7% | 101.2hPa | 2.6V | 18:12:15 | 01:26:35 | 00:00:00 | |
| AA1-15 | 2026-08-30 23:36:28 | 52.40497 | 14.91405 | 56° | 47km/h | 16440m | 5.5m/s | -52.4°C | 0.8% | 101.5hPa | 2.7V | 18:12:15 | 01:26:31 | 00:00:00 | |
| DL1XH-west | 2026-08-30 23:36:21 | 52.40443 | 14.91287 | 54° | 57km/h | 16409m | 5.3m/s | -52.5°C | 0.8% | 102hPa | 2.7V | 18:12:15 | 01:26:24 | 00:00:00 | |
| AA1-15 | 2026-08-30 23:36:17 | 52.40407 | 14.91211 | 53° | 57km/h | 16388m | 5.5m/s | -52.5°C | 0.9% | 102.3hPa | 2.7V | 18:12:15 | 01:26:20 | 00:00:00 | |
| 13BRC | 2026-08-30 23:36:16 | 52.40399 | 14.91193 | 55° | 53km/h | 16383m | 4.8m/s | -52.5°C | 1.4% | 102.4hPa | 2.6V | 00:00:00 | 00:00:00 | 00:00:00 | |
| KRY50SP-1 | 2026-08-30 23:36:15 | 52.40392 | 14.91176 | 55° | 49km/h | 16380m | 3.3m/s | -52.5°C | 1.4% | 102.5hPa | 2.6V | 00:00:00 | 00:00:00 | 00:00:00 | |
| DL1XH1-15 | 2026-08-30 23:36:14 | 52.40337 | 14.91072 | 49° | 58km/h | 16354m | 4.8m/s | -52.4°C | 4.5% | 102.9hPa | 2.6V | 08:30:00 | 01:26:12 | 00:00:00 | |
| DL1XH-west | 2026-08-30 23:36:11 | 52.40357 | 14.91109 | 48° | 60km/h | 16363m | 4m/s | -52.4°C | 0.8% | 102.8hPa | 2.7V | 18:12:15 | 01:26:14 | 00:00:00 | |
| AA1-15 | 2026-08-30 23:36:07 | 52.40289 | 14.90986 | 45° | 58km/h | 16331m | 6m/s | -52.5°C | 0.8% | 103.3hPa | 2.7V | 18:12:15 | 01:26:07 | 00:00:00 | |
| DL1XH-west | 2026-08-30 23:36:01 | 52.40259 | 14.90930 | 50° | 60km/h | 16316m | 4.3m/s | -52.6°C | 0.8% | 103.5hPa | 2.6V | 18:12:15 | 01:26:04 | 00:00:00 | |
| AA1-15 | 2026-08-30 23:35:53 | 52.40188 | 14.90781 | 57° | 51km/h | 16280m | 5.3m/s | -52.6°C | 0.9% | 104.1hPa | 2.6V | 18:12:15 | 01:25:56 | 00:00:00 | |
| DL1XH-west | 2026-08-30 23:35:50 | 52.40164 | 14.90726 | 56° | 58km/h | 16267m | 4.8m/s | -52.6°C | 0.9% | 104.3hPa | 2.6V | 18:12:15 | 01:25:53 | 00:00:00 | |
| SP3WXH-11 | 2026-08-30 23:35:48 | 52.40148 | 14.90687 | 56° | 55km/h | 16257m | 6.0m/s | -52.7°C | 1.4% | 104.5hPa | 2.6V | 00:00:00 | 00:00:00 | 00:00:00 | |
| SONDE2-11 | 2026-08-30 23:35:47 | 52.40134 | 14.90651 | 57° | 49km/h | 16248m | 4.5m/s | -52.7°C | 1.4% | 104.6hPa | 2.6V | 00:00:00 | 00:00:00 | 00:00:00 | |
| AA1-15 | 2026-08-30 23:35:42 | 52.40109 | 14.90579 | 66° | 47km/h | 16227m | 5.1m/s | -52.7°C | 0.9% | 105hPa | 2.6V | 18:12:15 | 01:25:45 | 00:00:00 | |
| DL1XH-west | 2026-08-30 23:35:39 | 52.40093 | 14.90524 | 62° | 53km/h | 16216m | 5.3m/s | -52.8°C | 0.9% | 105.2hPa | 2.7V | 18:12:15 | 01:25:42 | 00:00:00 | |
| SONDE2-12 | 2026-08-30 23:35:36 | 52.40065 | 14.90449 | 55° | 53km/h | 16199m | 3.2m/s | -52.8°C | 1.8% | 105.5hPa | 2.6V | 00:00:00 | 00:00:00 | 00:00:00 | |
| AA1-15 | 2026-08-30 23:35:31 | 52.40033 | 14.90376 | 58° | 51km/h | 16182m | 4.8m/s | -52.8°C | 0.9% | 105.7hPa | 2.6V | 18:12:15 | 01:25:34 | 00:00:00 | |
| SP3BTT-10 | 2026-08-30 23:35:28 | 52.40015 | 14.90319 | 66° | 38km/h | 16169m | 4.0m/s | -53.1°C | 4.8% | 105.8hPa | 2.7V | 00:00:00 | 00:00:00 | 08:30:00 | |
| DB0DAN | 2026-08-30 23:35:25 | 52.39998 | 14.90260 | 62° | 53km/h | 16155m | 3.9m/s | -53.4°C | 1.5% | 106.15hPa | 2.6V | 00:00:00 | 00:00:00 | 00:00:00 | |
| AA1-15 | 2026-08-30 23:35:20 | 52.39958 | 14.90146 | 59° | 68km/h | 16134m | 5.1m/s | -53.3°C | 1.1% | 106.5hPa | 2.7V | 18:12:15 | 01:25:23 | 00:00:00 | |
| EDDB2-11 | 2026-08-30 23:35:19 | 52.39950 | 14.90123 | 59° | 64km/h | 16128m | 5.2m/s | -53.3°C | 1.5% | 106.6hPa | 2.7V | 00:00:00 | 00:00:00 | 00:00:00 | |
| SP3WXH-11 | 2026-08-30 23:35:17 | 52.39935 | 14.90078 | 64° | 58km/h | 16120m | 4.1m/s | -53.3°C | 1.5% | 106.7hPa | 2.7V | 00:00:00 | 00:00:00 | 00:00:00 | |
| SONDE2-11 | 2026-08-30 23:35:16 | 52.39923 | 14.90032 | 68° | 60km/h | 16111m | 4.2m/s | -53.3°C | 1.5% | 106.9hPa | 2.7V | 00:00:00 | 00:00:00 | 00:00:00 | |
| KRY50SP-1 | 2026-08-30 23:35:14 | 52.39923 | 14.90032 | 69° | 62km/h | 16111m | 4.2m/s | -53.3°C | 1.5% | 106.9hPa | 2.7V | 00:00:00 | 00:00:00 | 00:00:00 | |
| 13BRC | 2026-08-30 23:35:13 | 52.39911 | 14.89984 | 69° | 60km/h | 16101m | 5.1m/s | -53.3°C | 1.5% | 107.0hPa | 2.7V | 00:00:00 | 00:00:00 | 00:00:00 | |
| DB0DAN | 2026-08-30 23:35:10 | 52.39893 | 14.89916 | 64° | 60km/h | 16089m | 5.3m/s | -53.6°C | 1.5% | 107.2hPa | 2.7V | 00:00:00 | 00:00:00 | 00:00:00 | |
| AA1-15 | 2026-08-30 23:35:09 | 52.39885 | 14.89892 | 62° | 66km/h | 16084m | 4.7m/s | -53.7°C | 1.2% | 107.3hPa | 2.7V | 18:12:15 | 01:25:12 | 00:00:00 | |
| SONDE2-12 | 2026-08-30 23:35:04 | 52.39848 | 14.89779 | 65° | 55km/h | 16061m | 4.7m/s | -53.8°C | 1.9% | 107.7hPa | 2.6V | 00:00:00 | 00:00:00 | 00:00:00 | |
| AA1-15 | 2026-08-30 23:34:59 | 52.39824 | 14.89685 | 67° | 51km/h | 16039m | 4.7m/s | -53.8°C | 1.3% | 108hPa | 2.6V | 18:12:15 | 01:25:02 | 00:00:00 | |
| EDDB2-12 | 2026-08-30 23:34:57 | 52.39806 | 14.89623 | 63° | 58km/h | 16025m | 2.2m/s | -53.6°C | 1.6% | 108.3hPa | 2.6V | 00:00:00 | 00:00:00 | 00:00:00 | |
| DB0DAN | 2026-08-30 23:34:55 | 52.39799 | 14.89600 | 63° | 60km/h | 16022m | 4.4m/s | -53.6°C | 1.6% | 108.34hPa | 2.6V | 00:00:00 | 00:00:00 | 00:00:00 | |
| DL1XH-west | 2026-08-30 23:34:49 | 52.39754 | 14.89480 | 49° | 40km/h | 15993m | 5.1m/s | -53.6°C | 1.3% | 108.8hPa | 2.6V | 18:12:15 | 01:24:52 | 00:00:00 | |
| AA1-15 | 2026-08-30 23:34:48 | 52.39748 | 14.89467 | 51° | 38km/h | 15986m | 6.7m/s | -53.6°C | 1.3% | 108.9hPa | 2.6V | 18:12:15 | 01:24:51 | 00:00:00 | |
| SP3WXH-11 | 2026-08-30 23:34:46 | 52.39737 | 14.89440 | 63° | 40km/h | 15975m | 6.1m/s | -53.5°C | 1.6% | 109.1hPa | 2.6V | 00:00:00 | 00:00:00 | 00:00:00 | |
| DL1XH-west | 2026-08-30 23:34:37 | 52.39689 | 14.89298 | 52° | 38km/h | 15925m | 5.6m/s | -53.5°C | 1.2% | 110hPa | 2.6V | 18:12:15 | 01:24:40 | 00:00:00 | |
| SONDE2-12 | 2026-08-30 23:34:33 | 52.39670 | 14.89252 | 68° | 31km/h | 15904m | 5.0m/s | -53.4°C | 1.9% | 110.4hPa | 2.7V | 00:00:00 | 00:00:00 | 00:00:00 | |
| DL1XH-west | 2026-08-30 23:34:26 | 52.39648 | 14.89165 | 60° | 37km/h | 15873m | 4.5m/s | -53.3°C | 1.2% | 110.9hPa | 2.7V | 18:12:15 | 01:24:29 | 00:00:00 | |
| DB0DAN | 2026-08-30 23:34:25 | 52.39643 | 14.89153 | 57° | 35km/h | 15868m | 4.1m/s | -53.3°C | 1.6% | 111.01hPa | 2.6V | 00:00:00 | 00:00:00 | 00:00:00 | |
| AA1-15 | 2026-08-30 23:34:15 | 52.39613 | 14.89033 | 67° | 33km/h | 15825m | 4.1m/s | -53.4°C | 1.2% | 111.7hPa | 2.7V | 18:12:15 | 01:24:18 | 00:00:00 | |
| DL1XH-west | 2026-08-30 23:34:14 | 52.39610 | 14.89021 | 60° | 33km/h | 15821m | 5.6m/s | -53.4°C | 1.2% | 111.8hPa | 2.6V | 18:12:15 | 01:24:17 | 00:00:00 | |
| SONDE2-11 | 2026-08-30 23:34:14 | 52.39605 | 14.89010 | 52° | 31km/h | 15815m | 4.1m/s | -53.5°C | 1.6% | 111.9hPa | 2.7V | 00:00:00 | 00:00:00 | 00:00:00 | |
| KRY50SP-1 | 2026-08-30 23:34:12 | 52.39605 | 14.89010 | 53° | 33km/h | 15816m | 4.1m/s | -53.5°C | 1.6% | 111.9hPa | 2.7V | 00:00:00 | 00:00:00 | 00:00:00 | |
| DB0DAN | 2026-08-30 23:34:10 | 52.39592 | 14.88979 | 64° | 27km/h | 15803m | 4.3m/s | -53.6°C | 1.6% | 112.16hPa | 2.7V | 00:00:00 | 00:00:00 | 00:00:00 | |
| DL1XH-west | 2026-08-30 23:34:04 | 52.39578 | 14.88909 | 76° | 35km/h | 15776m | 3.6m/s | -53.7°C | 1.3% | 112.7hPa | 2.7V | 18:12:15 | 01:24:07 | 00:00:00 | |
| DL1XH1-15 | 2026-08-30 23:34:02 | 52.39572 | 14.88883 | 67° | 31km/h | 15766m | 4.6m/s | -53.6°C | 5.1% | 112.8hPa | 2.6V | 08:30:00 | 01:24:05 | 00:00:00 | |
| DAC517 | 2026-08-30 23:34:02 | 52.39572 | 14.88883 | 69° | 31km/h | 15767m | 4.6m/s | -53.6°C | 1.7% | 112.8hPa | 2.7V | 00:00:00 | 00:00:00 | 00:00:00 | |
| KRY50SP-1 | 2026-08-30 23:34:00 | 52.39569 | 14.88871 | 66° | 29km/h | 15763m | 3.3m/s | -53.6°C | 1.6% | 112.9hPa | 2.7V | 00:00:00 | 00:00:00 | 00:00:00 | |
| DL1XH1-15 | 2026-08-30 23:33:57 | 52.39533 | 14.88769 | 76° | 37km/h | 15721m | 6m/s | -53.5°C | 5.1% | 113.6hPa | 2.7V | 08:30:00 | 01:23:55 | 00:00:00 | |
| DB0DAN | 2026-08-30 23:33:55 | 52.39544 | 14.88806 | 53° | 31km/h | 15734m | 5.4m/s | -53.5°C | 1.6% | 113.37hPa | 2.6V | 00:00:00 | 00:00:00 | 00:00:00 | |
| DL1XH-west | 2026-08-30 23:33:53 | 52.39536 | 14.88783 | 69° | 35km/h | 15726m | 4.4m/s | -53.5°C | 1.3% | 113.5hPa | 2.7V | 18:12:15 | 01:23:56 | 00:00:00 | |
| DL2RXE-15 | 2026-08-30 23:33:51 | 52.39532 | 14.88753 | 84° | 40km/h | 15716m | 4.2m/s | -53.5°C | 1.6% | 113.7hPa | 2.6V | 00:00:00 | 00:00:00 | 00:00:00 | |
| 13BRC | 2026-08-30 23:33:50 | 52.39532 | 14.88753 | 84° | 40km/h | 15716m | 4.2m/s | -53.5°C | 1.6% | 113.7hPa | 2.6V | 00:00:00 | 00:00:00 | 00:00:00 | |
| KRY50SP-1 | 2026-08-30 23:33:49 | 52.39530 | 14.88737 | 88° | 40km/h | 15712m | 5.4m/s | -53.5°C | 1.6% | 113.8hPa | 2.6V | 00:00:00 | 00:00:00 | 00:00:00 | |
| DL1XH1-15 | 2026-08-30 23:33:47 | 52.39509 | 14.88606 | 62° | 38km/h | 15673m | 3.8m/s | -53.3°C | 4.9% | 114.4hPa | 2.6V | 08:30:00 | 01:23:45 | 00:00:00 | |
| EDDB2-11 | 2026-08-30 23:33:46 | 52.39528 | 14.88671 | 77° | 40km/h | 15693m | 5.6m/s | -53.4°C | 1.6% | 114.1hPa | 2.6V | 00:00:00 | 00:00:00 | 00:00:00 | |
| DL1XH-west | 2026-08-30 23:33:43 | 52.39515 | 14.88621 | 59° | 44km/h | 15677m | 4.3m/s | -53.3°C | 1.2% | 114.3hPa | 2.6V | 18:12:15 | 01:23:46 | 00:00:00 | |
| AA1-15 | 2026-08-30 23:33:42 | 52.39509 | 14.88606 | 62° | 38km/h | 15673m | 3.8m/s | -53.3°C | 1.2% | 114.4hPa | 2.6V | 18:12:15 | 01:23:45 | 00:00:00 | |
| DAC517 | 2026-08-30 23:33:42 | 52.39509 | 14.88606 | 63° | 38km/h | 15673m | 3.8m/s | -53.3°C | 1.6% | 114.4hPa | 2.6V | 00:00:00 | 00:00:00 | 00:00:00 | |
| KRY50SP-1 | 2026-08-30 23:33:38 | 52.39499 | 14.88566 | 78° | 33km/h | 15659m | 4.8m/s | -53.4°C | 1.6% | 114.7hPa | 2.6V | 00:00:00 | 00:00:00 | 00:00:00 | |
| DL1XH1-15 | 2026-08-30 23:33:37 | 52.39487 | 14.88462 | 69° | 49km/h | 15622m | 5.3m/s | -53.6°C | 5% | 115.3hPa | 2.6V | 08:30:00 | 01:23:35 | 00:00:00 | |
| DL1XH-west | 2026-08-30 23:33:33 | 52.39492 | 14.88480 | 73° | 46km/h | 15627m | 3.8m/s | -53.6°C | 1.3% | 115.3hPa | 2.6V | 18:12:15 | 01:23:36 | 00:00:00 | |
| AA1-15 | 2026-08-30 23:33:32 | 52.39488 | 14.88462 | 70° | 49km/h | 15622m | 5.3m/s | -53.6°C | 1.2% | 115.3hPa | 2.6V | 18:12:15 | 01:23:35 | 00:00:00 | |
| SONDE2-12 | 2026-08-30 23:33:31 | 52.39483 | 14.88443 | 71° | 47km/h | 15617m | 6.1m/s | -53.6°C | 2.0% | 115.4hPa | 2.7V | 00:00:00 | 00:00:00 | 00:00:00 | |
| 13BRC | 2026-08-30 23:33:30 | 52.39483 | 14.88443 | 72° | 49km/h | 15617m | 6.1m/s | -53.6°C | 1.7% | 115.4hPa | 2.7V | 00:00:00 | 00:00:00 | 00:00:00 | |
| KRY50SP-1 | 2026-08-30 23:33:28 | 52.39472 | 14.88379 | 77° | 57km/h | 15599m | 5.4m/s | -53.7°C | 1.7% | 115.7hPa | 2.7V | 00:00:00 | 00:00:00 | 00:00:00 | |
| SP6BVK | 2026-08-30 23:33:27 | 52.39472 | 14.88379 | 77° | 57km/h | 15599m | 5.4m/s | -53.7°C | 1.7% | 115.7hPa | 2.7V | 00:00:00 | 00:00:00 | 00:00:00 | |
| DB0DAN | 2026-08-30 23:33:25 | 52.39463 | 14.88318 | 77° | 40km/h | 15584m | 5.6m/s | -53.6°C | 1.7% | 116hPa | 2.7V | 00:00:00 | 00:00:00 | 00:00:00 | |
| DL1XH-west | 2026-08-30 23:33:23 | 52.39461 | 14.88288 | 85° | 33km/h | 15573m | 7.3m/s | -53.7°C | 1.4% | 116.2hPa | 2.6V | 18:12:15 | 01:23:26 | 00:00:00 | |
| AA1-15 | 2026-08-30 23:33:21 | 52.39460 | 14.88259 | 91° | 38km/h | 15563m | 2.3m/s | -53.8°C | 1.4% | 116.4hPa | 2.6V | 18:12:15 | 01:23:24 | 00:00:00 | |
| DF8AY | 2026-08-30 23:33:18 | 52.39458 | 14.88211 | 77° | 44km/h | 15542m | 10m/s | 0°C | 0% | 0hPa | 2.7V | 18:12:15 | 01:23:21 | 00:00:00 | |
| DL1XH1-15 | 2026-08-30 23:33:17 | 52.39444 | 14.88053 | 88° | 69km/h | 15497m | 6.7m/s | -53.6°C | 5.1% | 117.6hPa | 2.7V | 08:30:00 | 01:23:15 | 00:00:00 | |
| DL1XH-west | 2026-08-30 23:33:12 | 52.39444 | 14.88053 | 89° | 69km/h | 15498m | 6.7m/s | -53.6°C | 1.3% | 117.6hPa | 2.7V | 18:12:15 | 01:23:15 | 00:00:00 | |
| DB0DAN | 2026-08-30 23:33:10 | 52.39443 | 14.88000 | 85° | 57km/h | 15484m | 5.7m/s | -53.5°C | 1.6% | 117.82hPa | 2.6V | 00:00:00 | 00:00:00 | 00:00:00 | |
| AA1-15 | 2026-08-30 23:33:10 | 52.39443 | 14.88000 | 86° | 60km/h | 15484m | 5.7m/s | -53.5°C | 1.3% | 117.8hPa | 2.6V | 18:12:15 | 01:23:13 | 00:00:00 | |
| DF8AY | 2026-08-30 23:33:07 | 52.39438 | 14.87926 | 84° | 62km/h | 15463m | 6.4m/s | 0°C | 0% | 0hPa | 2.7V | 18:12:15 | 01:23:10 | 00:00:00 | |
| SP6BVK | 2026-08-30 23:33:06 | 52.39438 | 14.87926 | 85° | 62km/h | 15464m | 6.4m/s | -53.4°C | 1.7% | 118.2hPa | 2.7V | 00:00:00 | 00:00:00 | 00:00:00 | |
| DL1XH1-15 | 2026-08-30 23:33:05 | 52.39433 | 14.87796 | 85° | 66km/h | 15436m | 6.1m/s | -53.3°C | 5.2% | 118.7hPa | 2.7V | 08:30:00 | 01:23:05 | 00:00:00 | |
| DL1XH-west | 2026-08-30 23:33:01 | 52.39431 | 14.87768 | 84° | 69km/h | 15431m | 4m/s | -53.2°C | 1.4% | 118.8hPa | 2.7V | 18:12:15 | 01:23:04 | 00:00:00 | |
| SONDE2-12 | 2026-08-30 23:33:00 | 52.39429 | 14.87740 | 83° | 68km/h | 15426m | 5.8m/s | -53.2°C | 2.1% | 118.9hPa | 2.6V | 00:00:00 | 00:00:00 | 00:00:00 | |
| AA1-15 | 2026-08-30 23:32:59 | 52.39427 | 14.87712 | 82° | 68km/h | 15421m | 5.3m/s | -53.2°C | 1.4% | 119hPa | 2.6V | 18:12:15 | 01:23:02 | 00:00:00 | |
| DF8AY | 2026-08-30 23:32:56 | 52.39419 | 14.87629 | 81° | 66km/h | 15406m | 5.2m/s | 0°C | 0% | 0hPa | 2.7V | 18:12:15 | 01:22:59 | 00:00:00 | |
| DB0DAN | 2026-08-30 23:32:55 | 52.39416 | 14.87602 | 82° | 60km/h | 15400m | 5.7m/s | -53.1°C | 1.7% | 119.38hPa | 2.7V | 00:00:00 | 00:00:00 | 00:00:00 | |
| KRY50SP-1 | 2026-08-30 23:32:52 | 52.39412 | 14.87552 | 83° | 60km/h | 15391m | 4.2m/s | -53.0°C | 1.7% | 119.5hPa | 2.7V | 00:00:00 | 00:00:00 | 00:00:00 | |
| DL1XH1-15 | 2026-08-30 23:32:51 | 52.39404 | 14.87474 | 78° | 68km/h | 15377m | 3.6m/s | -53°C | 5.1% | 119.8hPa | 2.7V | 08:30:00 | 01:22:53 | 00:00:00 | |
| DL1XH-west | 2026-08-30 23:32:51 | 52.39407 | 14.87501 | 79° | 66km/h | 15381m | 5m/s | -53°C | 1.4% | 119.7hPa | 2.7V | 18:12:15 | 01:22:54 | 00:00:00 | |
| AA1-15 | 2026-08-30 23:32:48 | 52.39397 | 14.87418 | 81° | 69km/h | 15366m | 6.2m/s | -53°C | 1.4% | 120hPa | 2.6V | 18:12:15 | 01:22:51 | 00:00:00 | |
| KRY50SP-1 | 2026-08-30 23:32:47 | 52.39394 | 14.87390 | 82° | 71km/h | 15360m | 5.5m/s | -53.0°C | 1.7% | 120.1hPa | 2.7V | 00:00:00 | 00:00:00 | 00:00:00 | |
| DL1XH1-15 | 2026-08-30 23:32:45 | 52.39379 | 14.87186 | 80° | 69km/h | 15323m | 4.2m/s | -53°C | 5.1% | 120.8hPa | 2.7V | 08:30:00 | 01:22:43 | 00:00:00 | |
| DF8AY | 2026-08-30 23:32:42 | 52.39383 | 14.87242 | 84° | 68km/h | 15334m | 4.2m/s | 0°C | 0% | 0hPa | 2.6V | 18:12:15 | 01:22:45 | 00:00:00 | |
| DB0DAN | 2026-08-30 23:32:40 | 52.39379 | 14.87186 | 80° | 66km/h | 15323m | 4.2m/s | -53°C | 1.8% | 120.76hPa | 2.7V | 00:00:00 | 00:00:00 | 00:00:00 | |
| DL1XH-west | 2026-08-30 23:32:40 | 52.39379 | 14.87186 | 80° | 69km/h | 15323m | 4.2m/s | -53°C | 1.5% | 120.8hPa | 2.7V | 18:12:15 | 01:22:43 | 00:00:00 | |
| AA1-15 | 2026-08-30 23:32:37 | 52.39370 | 14.87099 | 82° | 73km/h | 15310m | 4.7m/s | -53.1°C | 1.6% | 121hPa | 2.6V | 18:12:15 | 01:22:40 | 00:00:00 | |
| DF8AY | 2026-08-30 23:32:31 | 52.39351 | 14.86921 | 79° | 69km/h | 15279m | 5m/s | 0°C | 0% | 0hPa | 2.6V | 18:12:15 | 01:22:34 | 00:00:00 | |
| DL1XH-west | 2026-08-30 23:32:30 | 52.39348 | 14.86893 | 78° | 71km/h | 15275m | 4.2m/s | -53.4°C | 1.8% | 121.7hPa | 2.6V | 18:12:15 | 01:22:33 | 00:00:00 | |
| DL1XH1-15 | 2026-08-30 23:32:29 | 52.39344 | 14.86864 | 77° | 71km/h | 15269m | 6.7m/s | -53.4°C | 5.4% | 121.8hPa | 2.7V | 08:30:00 | 01:22:32 | 00:00:00 | |
| AA1-15 | 2026-08-30 23:32:27 | 52.39336 | 14.86803 | 78° | 78km/h | 15259m | 3.7m/s | -53.5°C | 1.8% | 122hPa | 2.6V | 18:12:15 | 01:22:30 | 00:00:00 | |
| DB0DAN | 2026-08-30 23:32:25 | 52.39329 | 14.86739 | 83° | 77km/h | 15248m | 5m/s | -53.6°C | 2% | 122.21hPa | 2.6V | 00:00:00 | 00:00:00 | 00:00:00 | |
| DL1XH-west | 2026-08-30 23:32:20 | 52.39312 | 14.86576 | 76° | 78km/h | 15223m | 5.2m/s | -53.7°C | 2% | 122.7hPa | 2.6V | 18:12:15 | 01:22:23 | 00:00:00 | |
| AA1-15 | 2026-08-30 23:32:16 | 52.39282 | 14.86423 | 70° | 80km/h | 15197m | 5.2m/s | -53.7°C | 2.1% | 123.2hPa | 2.6V | 18:12:15 | 01:22:18 | 00:00:00 | |
| KRY50SP-1 | 2026-08-30 23:32:14 | 52.39282 | 14.86423 | 71° | 80km/h | 15197m | 5.2m/s | -53.7°C | 2.1% | 123.2hPa | 2.6V | 00:00:00 | 00:00:00 | 00:00:00 | |
| EDDB2-11 | 2026-08-30 23:32:13 | 52.39269 | 14.86360 | 71° | 80km/h | 15186m | 4.7m/s | -53.7°C | 2.2% | 123.4hPa | 2.6V | 00:00:00 | 00:00:00 | 00:00:00 | |
| DL2RXE-15 | 2026-08-30 23:32:12 | 52.39269 | 14.86360 | 72° | 80km/h | 15186m | 4.7m/s | -53.7°C | 2.2% | 123.4hPa | 2.6V | 00:00:00 | 00:00:00 | 00:00:00 | |
| DL1XH1-15 | 2026-08-30 23:32:11 | 52.39239 | 14.86226 | 69° | 89km/h | 15166m | 4.9m/s | -53.6°C | 5.8% | 123.8hPa | 2.6V | 08:30:00 | 01:22:12 | 00:00:00 | |
| DB0DAN | 2026-08-30 23:32:10 | 52.39247 | 14.86261 | 69° | 86km/h | 15170m | 3.9m/s | -53.6°C | 2.2% | 123.73hPa | 2.6V | 00:00:00 | 00:00:00 | 00:00:00 | |
| DL1XH-west | 2026-08-30 23:32:09 | 52.39239 | 14.86226 | 70° | 89km/h | 15166m | 4.9m/s | -53.6°C | 2.2% | 123.8hPa | 2.6V | 18:12:15 | 01:22:12 | 00:00:00 | |
| KRY50SP-1 | 2026-08-30 23:32:08 | 52.39239 | 14.86226 | 71° | 89km/h | 15166m | 4.9m/s | -53.6°C | 2.2% | 123.8hPa | 2.6V | 00:00:00 | 00:00:00 | 00:00:00 | |
| 13BRC | 2026-08-30 23:32:07 | 52.39231 | 14.86192 | 71° | 88km/h | 15160m | 5.5m/s | -53.6°C | 2.2% | 123.9hPa | 2.6V | 00:00:00 | 00:00:00 | 00:00:00 | |
| SP6BVK | 2026-08-30 23:32:05 | 52.39207 | 14.86090 | 68° | 88km/h | 15145m | 4.2m/s | -53.7°C | 2.2% | 124.1hPa | 2.6V | 00:00:00 | 00:00:00 | 00:00:00 | |
| DL1XH1-15 | 2026-08-30 23:32:04 | 52.39156 | 14.85893 | 65° | 86km/h | 15113m | 4.9m/s | -53.7°C | 5.9% | 124.8hPa | 2.6V | 08:30:00 | 01:22:02 | 00:00:00 | |
| AA1-15 | 2026-08-30 23:32:04 | 52.39198 | 14.86057 | 67° | 88km/h | 15140m | 5.8m/s | -53.7°C | 2.1% | 124.3hPa | 2.6V | 18:12:15 | 01:22:07 | 00:00:00 | |
| DL1XH-west | 2026-08-30 23:31:59 | 52.39156 | 14.85893 | 65° | 86km/h | 15113m | 4.9m/s | -53.7°C | 2.2% | 124.8hPa | 2.6V | 18:12:15 | 01:22:02 | 00:00:00 | |
| SONDE2-12 | 2026-08-30 23:31:58 | 52.39147 | 14.85861 | 66° | 84km/h | 15107m | 6.2m/s | -53.7°C | 2.8% | 124.9hPa | 2.6V | 00:00:00 | 00:00:00 | 00:00:00 | |
| AA1-15 | 2026-08-30 23:31:53 | 52.39105 | 14.85711 | 65° | 80km/h | 15082m | 6.4m/s | -53.8°C | 2.2% | 125.4hPa | 2.6V | 18:12:15 | 01:21:56 | 00:00:00 | |
| DL1XH1-15 | 2026-08-30 23:31:51 | 52.39074 | 14.85589 | 65° | 82km/h | 15060m | 4.6m/s | -53.7°C | 5.9% | 125.8hPa | 2.7V | 08:30:00 | 01:21:52 | 00:00:00 | |
| DL1XH-west | 2026-08-30 23:31:49 | 52.39074 | 14.85589 | 66° | 82km/h | 15061m | 4.6m/s | -53.7°C | 2.3% | 125.8hPa | 2.7V | 18:12:15 | 01:21:52 | 00:00:00 | |
| 13BRC | 2026-08-30 23:31:47 | 52.39055 | 14.85528 | 62° | 86km/h | 15054m | 1.6m/s | -53.6°C | 2.2% | 126.0hPa | 2.7V | 00:00:00 | 00:00:00 | 00:00:00 | |
| DL1XH1-15 | 2026-08-30 23:31:45 | 52.38981 | 14.85309 | 62° | 71km/h | 15015m | 4.8m/s | -53.5°C | 5.7% | 126.8hPa | 2.7V | 08:30:00 | 01:21:42 | 00:00:00 | |
| AA1-15 | 2026-08-30 23:31:42 | 52.39007 | 14.85387 | 61° | 75km/h | 15029m | 4.4m/s | -53.5°C | 2.2% | 126.5hPa | 2.6V | 18:12:15 | 01:21:45 | 00:00:00 | |
| DL1XH-west | 2026-08-30 23:31:38 | 52.38972 | 14.85283 | 62° | 73km/h | 15009m | 6.6m/s | -53.5°C | 2.2% | 126.9hPa | 2.7V | 18:12:15 | 01:21:41 | 00:00:00 | |
| DAC517 | 2026-08-30 23:31:37 | 52.38944 | 14.85199 | 61° | 77km/h | 14994m | 5.8m/s | -53.5°C | 2.2% | 127.2hPa | 2.7V | 00:00:00 | 00:00:00 | 00:00:00 | |
| DL1XH1-15 | 2026-08-30 23:31:32 | 52.38877 | 14.85020 | 59° | 68km/h | 14960m | 5.7m/s | -53.5°C | 5.7% | 127.8hPa | 2.7V | 08:30:00 | 01:21:31 | 00:00:00 | |
| AA1-15 | 2026-08-30 23:31:32 | 52.38915 | 14.85121 | 58° | 73km/h | 14979m | 5.9m/s | -53.5°C | 2.1% | 127.5hPa | 2.6V | 18:12:15 | 01:21:35 | 00:00:00 | |
| DL1XH-west | 2026-08-30 23:31:27 | 52.38870 | 14.84997 | 62° | 64km/h | 14955m | 4.6m/s | -53.6°C | 2.1% | 128hPa | 2.7V | 18:12:15 | 01:21:30 | 00:00:00 | |
| AA1-15 | 2026-08-30 23:31:22 | 52.38819 | 14.84847 | 58° | 71km/h | 14925m | 3.6m/s | -53.6°C | 2% | 128.5hPa | 2.6V | 18:12:15 | 01:21:24 | 00:00:00 | |
| DL1XH1-15 | 2026-08-30 23:31:22 | 52.38794 | 14.84775 | 63° | 64km/h | 14910m | 3.9m/s | -53.6°C | 5.6% | 128.8hPa | 2.7V | 08:30:00 | 01:21:21 | 00:00:00 | |
| DL1XH-west | 2026-08-30 23:31:17 | 52.38786 | 14.84751 | 62° | 64km/h | 14905m | 5.4m/s | -53.6°C | 1.9% | 128.9hPa | 2.6V | 18:12:15 | 01:21:20 | 00:00:00 | |
| AA1-15 | 2026-08-30 23:31:10 | 52.38728 | 14.84587 | 60° | 68km/h | 14870m | 6.2m/s | -53.7°C | 1.9% | 129.6hPa | 2.6V | 18:12:15 | 01:21:13 | 00:00:00 | |
| DL1XH1-15 | 2026-08-30 23:31:09 | 52.38709 | 14.84541 | 55° | 68km/h | 14861m | 4.4m/s | -53.7°C | 5.5% | 129.8hPa | 2.7V | 08:30:00 | 01:21:11 | 00:00:00 | |
| DL1XH-west | 2026-08-30 23:31:07 | 52.38700 | 14.84518 | 56° | 66km/h | 14856m | 6.4m/s | -53.8°C | 1.8% | 129.9hPa | 2.7V | 18:12:15 | 01:21:10 | 00:00:00 | |
| 13BRC | 2026-08-30 23:31:07 | 52.38700 | 14.84518 | 57° | 66km/h | 14856m | 6.4m/s | -53.8°C | 2.0% | 129.9hPa | 2.6V | 00:00:00 | 00:00:00 | 00:00:00 | |
| KRY50SP-1 | 2026-08-30 23:31:03 | 52.38673 | 14.84452 | 57° | 66km/h | 14840m | 6.2m/s | -53.9°C | 2.0% | 130.2hPa | 2.6V | 00:00:00 | 00:00:00 | 00:00:00 | |
| SP6BVK | 2026-08-30 23:31:02 | 52.38663 | 14.84429 | 57° | 68km/h | 14836m | 2.9m/s | -53.9°C | 2.0% | 130.4hPa | 2.6V | 00:00:00 | 00:00:00 | 00:00:00 | |
| DL1XH1-15 | 2026-08-30 23:31:01 | 52.38618 | 14.84306 | 59° | 69km/h | 14810m | 3.7m/s | -54°C | 0% | 130.9hPa | 2.6V | 08:30:00 | 01:21:01 | 00:00:00 | |
| AA1-15 | 2026-08-30 23:30:59 | 52.38627 | 14.84330 | 60° | 71km/h | 14815m | 5.8m/s | -54°C | 1.7% | 130.8hPa | 2.6V | 18:12:15 | 01:21:02 | 00:00:00 | |
| DL1XH-west | 2026-08-30 23:30:56 | 52.38601 | 14.84257 | 61° | 66km/h | 14801m | 5.7m/s | -53.9°C | 1.7% | 131hPa | 2.7V | 18:12:15 | 01:20:59 | 00:00:00 | |
| KRY50SP-1 | 2026-08-30 23:30:53 | 52.38577 | 14.84188 | 56° | 62km/h | 14786m | 5.4m/s | -53.8°C | 1.9% | 131.4hPa | 2.7V | 00:00:00 | 00:00:00 | 00:00:00 | |
| DL1XH1-15 | 2026-08-30 23:30:49 | 52.38532 | 14.84089 | 56° | 60km/h | 14761m | 3.8m/s | -53.6°C | 0% | 131.9hPa | 2.7V | 08:30:00 | 01:20:51 | 00:00:00 | |
| AA1-15 | 2026-08-30 23:30:48 | 52.38532 | 14.84089 | 56° | 60km/h | 14762m | 3.8m/s | -53.6°C | 1.5% | 131.9hPa | 2.7V | 18:12:15 | 01:20:51 | 00:00:00 | |
| DL1XH-west | 2026-08-30 23:30:46 | 52.38514 | 14.84046 | 55° | 68km/h | 14753m | 3.8m/s | -53.6°C | 1.6% | 132.1hPa | 2.7V | 18:12:15 | 01:20:49 | 00:00:00 | |
| 13BRC | 2026-08-30 23:30:45 | 52.38514 | 14.84046 | 56° | 68km/h | 14753m | 3.8m/s | -53.6°C | 1.9% | 132.1hPa | 2.7V | 00:00:00 | 00:00:00 | 00:00:00 | |
| SP6BVK | 2026-08-30 23:30:43 | 52.38486 | 14.83975 | 60° | 68km/h | 14737m | 5.4m/s | -53.5°C | 1.8% | 132.3hPa | 2.7V | 00:00:00 | 00:00:00 | 00:00:00 | |
| KRY50SP-1 | 2026-08-30 23:30:42 | 52.38486 | 14.83975 | 60° | 68km/h | 14737m | 5.4m/s | -53.5°C | 1.8% | 132.3hPa | 2.7V | 00:00:00 | 00:00:00 | 00:00:00 | |
| DL1XH1-15 | 2026-08-30 23:30:41 | 52.38431 | 14.83837 | 58° | 60km/h | 14707m | 5.1m/s | -53.4°C | 0% | 133hPa | 2.7V | 08:30:00 | 01:20:40 | 00:00:00 | |
| AA1-15 | 2026-08-30 23:30:37 | 52.38431 | 14.83837 | 59° | 60km/h | 14707m | 5.1m/s | -53.4°C | 1.5% | 133hPa | 2.7V | 18:12:15 | 01:20:40 | 00:00:00 | |
| DL1XH-west | 2026-08-30 23:30:36 | 52.38423 | 14.83815 | 59° | 60km/h | 14702m | 5.3m/s | -53.4°C | 1.5% | 133.1hPa | 2.7V | 18:12:15 | 01:20:39 | 00:00:00 | |
| DAC517 | 2026-08-30 23:30:32 | 52.38399 | 14.83750 | 60° | 62km/h | 14688m | 5.1m/s | -53.4°C | 1.8% | 133.4hPa | 2.6V | 00:00:00 | 00:00:00 | 00:00:00 | |
| DL1XH1-15 | 2026-08-30 23:30:29 | 52.38353 | 14.83618 | 67° | 68km/h | 14658m | 4.2m/s | -53.5°C | 0% | 0hPa | 2.6V | 08:30:00 | 01:20:30 | 00:00:00 | |
| AA1-15 | 2026-08-30 23:30:26 | 52.38346 | 14.83592 | 66° | 68km/h | 14653m | 5.4m/s | -53.5°C | 1.5% | 134.1hPa | 2.6V | 18:12:15 | 01:20:29 | 00:00:00 | |
| DL1XH-west | 2026-08-30 23:30:25 | 52.38339 | 14.83566 | 64° | 69km/h | 14647m | 6m/s | -53.5°C | 1.5% | 134.2hPa | 2.6V | 18:12:15 | 01:20:28 | 00:00:00 | |
| DL1XH1-15 | 2026-08-30 23:30:21 | 52.38283 | 14.83370 | 70° | 62km/h | 14607m | 5.5m/s | -53.8°C | 0% | 0hPa | 2.7V | 08:30:00 | 01:20:20 | 00:00:00 | |
| AA1-15 | 2026-08-30 23:30:16 | 52.38273 | 14.83322 | 70° | 64km/h | 14595m | 6.1m/s | -53.8°C | 1.7% | 135.3hPa | 2.6V | 18:12:15 | 01:20:18 | 00:00:00 | |
| DL1XH-west | 2026-08-30 23:30:14 | 52.38267 | 14.83297 | 68° | 68km/h | 14590m | 4m/s | -53.8°C | 1.6% | 135.3hPa | 2.6V | 18:12:15 | 01:20:17 | 00:00:00 | |
| DB0DAN | 2026-08-30 23:30:10 | 52.38239 | 14.83184 | 68° | 77km/h | 14569m | 5.8m/s | -53.8°C | 1.9% | 135.78hPa | 2.6V | 00:00:00 | 00:00:00 | 00:00:00 | |
| EDDB2-11 | 2026-08-30 23:30:09 | 52.38231 | 14.83153 | 65° | 80km/h | 14563m | 5.7m/s | -53.9°C | 1.9% | 135.9hPa | 2.6V | 00:00:00 | 00:00:00 | 00:00:00 | |
| DL1XH1-15 | 2026-08-30 23:30:05 | 52.38186 | 14.82996 | 64° | 80km/h | 14539m | 6.4m/s | -53.9°C | 0% | 0hPa | 2.6V | 08:30:00 | 01:20:07 | 00:00:00 | |
| AA1-15 | 2026-08-30 23:30:05 | 52.38195 | 14.83027 | 65° | 84km/h | 14544m | 3.7m/s | -53.9°C | 1.7% | 136.3hPa | 2.7V | 18:12:15 | 01:20:08 | 00:00:00 | |
| DL1XH-west | 2026-08-30 23:30:04 | 52.38186 | 14.82996 | 64° | 80km/h | 14539m | 6.4m/s | -53.9°C | 1.7% | 136.4hPa | 2.6V | 18:12:15 | 01:20:07 | 00:00:00 | |
| SP6BVK | 2026-08-30 23:30:01 | 52.38162 | 14.82911 | 68° | 73km/h | 14523m | 5.6m/s | -53.9°C | 1.9% | 136.8hPa | 2.6V | 00:00:00 | 00:00:00 | 00:00:00 | |
| KRY50SP-1 | 2026-08-30 23:29:59 | 52.38155 | 14.82884 | 69° | 71km/h | 14519m | 3.0m/s | -54.0°C | 2.0% | 136.9hPa | 2.6V | 00:00:00 | 00:00:00 | 00:00:00 | |
| SP3BTT-10 | 2026-08-30 23:29:58 | 52.38142 | 14.82830 | 68° | 73km/h | 14509m | 6.4m/s | -54.1°C | 5.5% | 137.0hPa | 2.6V | 00:00:00 | 00:00:00 | 00:00:00 | |
| DB0DAN | 2026-08-30 23:29:55 | 52.38119 | 14.82748 | 67° | 75km/h | 14493m | 5.1m/s | -54.2°C | 2.1% | 137.4hPa | 2.6V | 00:00:00 | 00:00:00 | 00:00:00 | |
| DL1XH1-15 | 2026-08-30 23:29:55 | 52.38110 | 14.82718 | 65° | 80km/h | 14490m | 2.5m/s | 0°C | 0% | 0hPa | 2.7V | 08:30:00 | 01:19:57 | 00:00:00 | |
| AA1-15 | 2026-08-30 23:29:55 | 52.38119 | 14.82748 | 67° | 78km/h | 14493m | 5.1m/s | -54.2°C | 1.8% | 137.4hPa | 2.6V | 18:12:15 | 01:19:58 | 00:00:00 | |
| DL1XH-west | 2026-08-30 23:29:54 | 52.38110 | 14.82718 | 65° | 80km/h | 14490m | 2.5m/s | -54.2°C | 1.8% | 137.5hPa | 2.7V | 18:12:15 | 01:19:57 | 00:00:00 | |
| EDDB2-12 | 2026-08-30 23:29:46 | 52.38039 | 14.82510 | 63° | 71km/h | 14452m | 5.2m/s | -54.0°C | 2.1% | 138.3hPa | 2.6V | 00:00:00 | 00:00:00 | 00:00:00 | |
| DL1XH1-15 | 2026-08-30 23:29:45 | 52.38022 | 14.82455 | 62° | 75km/h | 14443m | 5.8m/s | 0°C | 0% | 0hPa | 2.6V | 00:00:00 | 01:19:47 | 00:00:00 | |
| AA1-15 | 2026-08-30 23:29:45 | 52.38031 | 14.82483 | 63° | 75km/h | 14448m | 3.8m/s | -54°C | 1.9% | 138.4hPa | 2.6V | 18:12:15 | 01:19:48 | 00:00:00 | |
| DL1XH-west | 2026-08-30 23:29:44 | 52.38022 | 14.82455 | 63° | 75km/h | 14443m | 5.8m/s | -54°C | 1.9% | 138.5hPa | 2.6V | 18:12:15 | 01:19:47 | 00:00:00 | |
| KRY50SP-1 | 2026-08-30 23:29:42 | 52.38013 | 14.82428 | 64° | 73km/h | 14438m | 4.3m/s | -54.0°C | 2.0% | 138.6hPa | 2.6V | 00:00:00 | 00:00:00 | 00:00:00 | |
| DB0DAN | 2026-08-30 23:29:40 | 52.37989 | 14.82346 | 66° | 69km/h | 14423m | 3.4m/s | -54°C | 2.1% | 138.99hPa | 2.6V | 00:00:00 | 00:00:00 | 00:00:00 | |
| AA1-15 | 2026-08-30 23:29:34 | 52.37943 | 14.82186 | 67° | 71km/h | 14397m | 4.7m/s | -53.9°C | 1.9% | 139.5hPa | 2.6V | 18:12:15 | 01:19:37 | 00:00:00 | |
| DL1XH-west | 2026-08-30 23:29:33 | 52.37936 | 14.82158 | 70° | 73km/h | 14393m | 3.5m/s | -53.9°C | 1.8% | 139.7hPa | 2.7V | 18:12:15 | 01:19:36 | 00:00:00 | |
| KRY50SP-1 | 2026-08-30 23:29:32 | 52.37929 | 14.82130 | 69° | 75km/h | 14388m | 5.3m/s | -53.9°C | 2.1% | 139.7hPa | 2.7V | 00:00:00 | 00:00:00 | 00:00:00 | |
| DAC517 | 2026-08-30 23:29:29 | 52.37914 | 14.82073 | 67° | 77km/h | 14379m | 4.9m/s | -53.9°C | 2.0% | 140.0hPa | 2.7V | 00:00:00 | 00:00:00 | 00:00:00 | |
| DB0DAN | 2026-08-30 23:29:25 | 52.37876 | 14.81924 | 66° | 75km/h | 14355m | 4m/s | -53.8°C | 2.1% | 140.47hPa | 2.7V | 00:00:00 | 00:00:00 | 00:00:00 | |
| AA1-15 | 2026-08-30 23:29:23 | 52.37861 | 14.81865 | 70° | 77km/h | 14346m | 4.7m/s | -53.8°C | 1.8% | 140.7hPa | 2.6V | 18:12:15 | 01:19:26 | 00:00:00 | |
| DL1XH-west | 2026-08-30 23:29:22 | 52.37855 | 14.81835 | 71° | 77km/h | 14342m | 3.5m/s | -53.8°C | 1.9% | 140.8hPa | 2.6V | 18:12:15 | 01:19:25 | 00:00:00 | |
| AA1-15 | 2026-08-30 23:29:12 | 52.37784 | 14.81573 | 66° | 71km/h | 14295m | 3.1m/s | -53.7°C | 1.9% | 141.8hPa | 2.6V | 18:12:15 | 01:19:15 | 00:00:00 | |
| DB0DAN | 2026-08-30 23:29:10 | 52.37769 | 14.81519 | 64° | 69km/h | 14286m | 4.6m/s | -53.6°C | 2.1% | 141.98hPa | 2.8V | 00:00:00 | 00:00:00 | 00:00:00 | |
| AA1-15 | 2026-08-30 23:29:01 | 52.37710 | 14.81277 | 70° | 75km/h | 14244m | 5.2m/s | -53.3°C | 1.8% | 142.9hPa | 2.6V | 18:12:15 | 01:19:04 | 00:00:00 | |
| SONCRA | 2026-08-30 23:29:01 | 52.37704 | 14.81249 | 69° | 73km/h | 14240m | 2.9m/s | -53.2°C | 2.0% | 143.0hPa | 2.7V | 00:00:00 | 00:00:00 | 00:00:00 | |
| KRY50SP-1 | 2026-08-30 23:28:59 | 52.37697 | 14.81220 | 69° | 75km/h | 14236m | 5.1m/s | -53.2°C | 2.0% | 143.1hPa | 2.7V | 00:00:00 | 00:00:00 | 00:00:00 | |
| SP6BVK | 2026-08-30 23:28:58 | 52.37697 | 14.81220 | 69° | 75km/h | 14236m | 5.1m/s | -53.2°C | 2.0% | 143.1hPa | 2.7V | 00:00:00 | 00:00:00 | 00:00:00 | |
| DB0DAN | 2026-08-30 23:28:55 | 52.37663 | 14.81103 | 67° | 77km/h | 14215m | 5.6m/s | -53.2°C | 2% | 143.55hPa | 2.7V | 00:00:00 | 00:00:00 | 00:00:00 | |
| SONDE2-12 | 2026-08-30 23:28:52 | 52.37644 | 14.81013 | 73° | 73km/h | 14200m | 6.2m/s | -53.2°C | 2.4% | 143.9hPa | 2.6V | 00:00:00 | 00:00:00 | 00:00:00 | |
| AA1-15 | 2026-08-30 23:28:50 | 52.37634 | 14.80956 | 75° | 71km/h | 14191m | 5m/s | -53.2°C | 1.7% | 144.1hPa | 2.6V | 18:12:15 | 01:18:53 | 00:00:00 | |
| DL1XH-west | 2026-08-30 23:28:46 | 52.37611 | 14.80837 | 70° | 78km/h | 14172m | 4.7m/s | -53.4°C | 1.9% | 144.5hPa | 2.6V | 18:12:15 | 01:18:49 | 00:00:00 | |
| AA1-15 | 2026-08-30 23:28:39 | 52.37564 | 14.80610 | 74° | 86km/h | 14138m | 5.2m/s | -53.5°C | 1.9% | 145.2hPa | 2.7V | 18:12:15 | 01:18:42 | 00:00:00 | |
| DL1XH-west | 2026-08-30 23:28:32 | 52.37521 | 14.80371 | 71° | 88km/h | 14106m | 2.5m/s | -53.6°C | 1.9% | 146hPa | 2.7V | 18:12:15 | 01:18:35 | 00:00:00 | |
| AA1-15 | 2026-08-30 23:28:28 | 52.37491 | 14.80239 | 69° | 84km/h | 14088m | 5.2m/s | -53.6°C | 2% | 146.4hPa | 2.8V | 18:12:15 | 01:18:31 | 00:00:00 | |
| DAC517 | 2026-08-30 23:28:28 | 52.37491 | 14.80239 | 70° | 84km/h | 14088m | 5.2m/s | -53.6°C | 2.2% | 146.4hPa | 2.7V | 00:00:00 | 00:00:00 | 00:00:00 | |
| KRY50SP-1 | 2026-08-30 23:28:27 | 52.37483 | 14.80206 | 70° | 88km/h | 14084m | 4.6m/s | -53.6°C | 2.2% | 146.5hPa | 2.7V | 00:00:00 | 00:00:00 | 00:00:00 | |
| DL1XH1-15 | 2026-08-30 23:28:25 | 52.37430 | 14.79975 | 67° | 86km/h | 14053m | 2.3m/s | 0°C | 0% | 0hPa | 2.7V | 00:00:00 | 01:18:23 | 00:00:00 | |
| SONDE2-12 | 2026-08-30 23:28:21 | 52.37438 | 14.80008 | 69° | 84km/h | 14057m | 5.1m/s | -53.5°C | 2.7% | 147.1hPa | 2.6V | 00:00:00 | 00:00:00 | 00:00:00 | |
| AA1-15 | 2026-08-30 23:28:18 | 52.37413 | 14.79911 | 65° | 84km/h | 14045m | 5.3m/s | -53.5°C | 2% | 147.4hPa | 2.6V | 18:12:15 | 01:18:21 | 00:00:00 | |
| DL1XH-west | 2026-08-30 23:28:17 | 52.37404 | 14.79880 | 64° | 86km/h | 14041m | 3.9m/s | -53.5°C | 2% | 147.5hPa | 2.6V | 18:12:15 | 01:18:20 | 00:00:00 | |
| DL1XH-west | 2026-08-30 23:28:07 | 52.37321 | 14.79574 | 73° | 77km/h | 13997m | 3.8m/s | -53.3°C | 2.1% | 148.5hPa | 2.7V | 18:12:15 | 01:18:10 | 00:00:00 | |
| DL1XH-west | 2026-08-30 23:27:56 | 52.37237 | 14.79247 | 69° | 69km/h | 13945m | 6m/s | -52.9°C | 2.1% | 149.7hPa | 2.7V | 18:12:15 | 01:17:59 | 00:00:00 | |
| DL1XH1-15 | 2026-08-30 23:27:55 | 52.37221 | 14.79164 | 73° | 73km/h | 13928m | 7.5m/s | 0°C | 0% | 0hPa | 2.8V | 00:00:00 | 01:17:56 | 00:00:00 | |
| SONDE2-12 | 2026-08-30 23:27:50 | 52.37202 | 14.79074 | 66° | 77km/h | 13910m | 4.4m/s | -52.8°C | 2.7% | 150.5hPa | 2.6V | 00:00:00 | 00:00:00 | 00:00:00 | |
| DL1XH-west | 2026-08-30 23:27:46 | 52.37171 | 14.78964 | 67° | 69km/h | 13889m | 5.3m/s | -52.7°C | 2.1% | 151hPa | 2.6V | 18:12:15 | 01:17:49 | 00:00:00 | |
| AA1-15 | 2026-08-30 23:27:45 | 52.37164 | 14.78938 | 71° | 69km/h | 13883m | 5.9m/s | -52.7°C | 2.1% | 151.1hPa | 2.6V | 18:12:15 | 01:17:48 | 00:00:00 | |
| KRY50SP-1 | 2026-08-30 23:27:44 | 52.37159 | 14.78910 | 76° | 69km/h | 13877m | 6.1m/s | -52.7°C | 2.3% | 151.2hPa | 2.6V | 00:00:00 | 00:00:00 | 00:00:00 | |
| 13BRC | 2026-08-30 23:27:42 | 52.37155 | 14.78882 | 77° | 69km/h | 13872m | 2.9m/s | -52.7°C | 2.3% | 151.4hPa | 2.6V | 00:00:00 | 00:00:00 | 00:00:00 | |
| DB0DAN | 2026-08-30 23:27:40 | 52.37140 | 14.78802 | 69° | 64km/h | 13858m | 3.7m/s | -52.6°C | 2.3% | 151.69hPa | 2.6V | 00:00:00 | 00:00:00 | 00:00:00 | |
| DL1XH-west | 2026-08-30 23:27:35 | 52.37105 | 14.78675 | 65° | 71km/h | 13835m | 6.7m/s | -52.4°C | 2.1% | 152.3hPa | 2.6V | 18:12:15 | 01:17:38 | 00:00:00 | |
| AA1-15 | 2026-08-30 23:27:34 | 52.37097 | 14.78648 | 67° | 71km/h | 13826m | 9.6m/s | -52.4°C | 2.1% | 152.4hPa | 2.6V | 18:12:15 | 01:17:37 | 00:00:00 | |
| EDDB2-11 | 2026-08-30 23:27:34 | 52.37097 | 14.78648 | 67° | 71km/h | 13826m | 9.6m/s | -52.4°C | 2.2% | 152.4hPa | 2.8V | 00:00:00 | 00:00:00 | 00:00:00 | |
| KRY50SP-1 | 2026-08-30 23:27:33 | 52.37091 | 14.78621 | 70° | 71km/h | 13818m | 6.2m/s | -52.4°C | 2.3% | 152.6hPa | 2.8V | 00:00:00 | 00:00:00 | 00:00:00 | |
| SP3WXH-11 | 2026-08-30 23:27:32 | 52.37078 | 14.78566 | 71° | 69km/h | 13809m | 7.7m/s | -52.4°C | 2.3% | 152.8hPa | 2.8V | 00:00:00 | 00:00:00 | 00:00:00 | |
| DL2RXE-15 | 2026-08-30 23:27:30 | 52.37073 | 14.78538 | 74° | 73km/h | 13803m | 4.3m/s | -52.4°C | 2.3% | 153.0hPa | 2.8V | 00:00:00 | 00:00:00 | 00:00:00 | |
| DB0DAN | 2026-08-30 23:27:25 | 52.37046 | 14.78398 | 70° | 69km/h | 13772m | 1.1m/s | -52.5°C | 2.3% | 153.75hPa | 2.8V | 00:00:00 | 00:00:00 | 00:00:00 | |
| DL1XH-west | 2026-08-30 23:27:25 | 52.37046 | 14.78398 | 70° | 71km/h | 13772m | 1.1m/s | -52.5°C | 2.3% | 153.8hPa | 2.8V | 18:12:15 | 01:17:28 | 00:00:00 | |
| AA1-15 | 2026-08-30 23:27:23 | 52.37033 | 14.78340 | 70° | 78km/h | 13762m | 5.2m/s | -52.4°C | 2.3% | 154.1hPa | 2.6V | 18:12:15 | 01:17:26 | 00:00:00 | |
| SONDE2-12 | 2026-08-30 23:27:19 | 52.37005 | 14.78216 | 69° | 77km/h | 13741m | 3.6m/s | -52.5°C | 2.9% | 154.5hPa | 2.7V | 00:00:00 | 00:00:00 | 00:00:00 | |
| DL1XH-west | 2026-08-30 23:27:15 | 52.36978 | 14.78102 | 67° | 73km/h | 13722m | 3.8m/s | 0°C | 0% | 155hPa | 2.7V | 18:12:15 | 01:17:18 | 00:00:00 | |
| AA1-15 | 2026-08-30 23:27:12 | 52.36958 | 14.78018 | 69° | 73km/h | 13706m | 5.8m/s | -52.6°C | 2.3% | 155.4hPa | 2.6V | 18:12:15 | 01:17:15 | 00:00:00 | |
| DB0DAN | 2026-08-30 23:27:10 | 52.36943 | 14.77960 | 66° | 73km/h | 13694m | 6.3m/s | -52.6°C | 2.4% | 155.64hPa | 2.8V | 00:00:00 | 00:00:00 | 00:00:00 | |
| DL1XH-west | 2026-08-30 23:27:04 | 52.36900 | 14.77782 | 78° | 80km/h | 13664m | 3.3m/s | 0°C | 0% | 0hPa | 2.8V | 18:12:15 | 01:17:07 | 00:00:00 | |
| AA1-15 | 2026-08-30 23:27:01 | 52.36888 | 14.77687 | 77° | 75km/h | 13649m | 3.6m/s | -52.9°C | 2.5% | 156.8hPa | 2.6V | 18:12:15 | 01:17:04 | 00:00:00 | |
| SP3WXH-11 | 2026-08-30 23:27:01 | 52.36884 | 14.77658 | 76° | 73km/h | 13644m | 6.7m/s | -52.9°C | 2.5% | 156.8hPa | 2.6V | 00:00:00 | 00:00:00 | 00:00:00 | |
| SONDE2-11 | 2026-08-30 23:26:59 | 52.36874 | 14.77598 | 74° | 77km/h | 13631m | 4.1m/s | -53.0°C | 2.5% | 157.1hPa | 2.6V | 00:00:00 | 00:00:00 | 00:00:00 | |
| SONCRA | 2026-08-30 23:26:56 | 52.36863 | 14.77533 | 73° | 88km/h | 13619m | 4.1m/s | -53.1°C | 2.5% | 157.4hPa | 2.6V | 00:00:00 | 00:00:00 | 00:00:00 | |
| DB0DAN | 2026-08-30 23:26:55 | 52.36856 | 14.77497 | 73° | 88km/h | 13615m | 3.6m/s | -53.1°C | 2.5% | 157.51hPa | 2.6V | 00:00:00 | 00:00:00 | 00:00:00 | |
| DL1XH-west | 2026-08-30 23:26:53 | 52.36842 | 14.77424 | 74° | 93km/h | 13603m | 5.6m/s | 0°C | 0% | 0hPa | 2.8V | 18:12:15 | 01:16:56 | 00:00:00 | |
| AA1-15 | 2026-08-30 23:26:50 | 52.36824 | 14.77316 | 72° | 86km/h | 13589m | 4.8m/s | -53°C | 2.5% | 158.2hPa | 2.6V | 18:12:15 | 01:16:53 | 00:00:00 | |
| SONDE2-12 | 2026-08-30 23:26:48 | 52.36809 | 14.77251 | 69° | 82km/h | 13580m | 6.8m/s | -53.0°C | 3.0% | 158.4hPa | 2.8V | 00:00:00 | 00:00:00 | 00:00:00 | |
| DF8AY | 2026-08-30 23:26:42 | 52.36761 | 14.77058 | 67° | 88km/h | 13550m | 3.2m/s | -53°C | 2.6% | 159.2hPa | 2.8V | 18:12:15 | 01:16:45 | 00:00:00 | |
| DB0DAN | 2026-08-30 23:26:40 | 52.36745 | 14.76992 | 71° | 80km/h | 13541m | 4.4m/s | -53.1°C | 2.6% | 159.39hPa | 2.6V | 00:00:00 | 00:00:00 | 00:00:00 | |
| AA1-15 | 2026-08-30 23:26:39 | 52.36739 | 14.76959 | 72° | 80km/h | 13537m | 4.3m/s | -53.1°C | 2.7% | 159.5hPa | 2.8V | 18:12:15 | 01:16:42 | 00:00:00 | |
| DL1XH-west | 2026-08-30 23:26:36 | 52.36718 | 14.76868 | 68° | 78km/h | 13524m | 3.6m/s | 0°C | 0% | 0hPa | 2.6V | 18:12:15 | 01:16:39 | 00:00:00 | |
| DF8AY | 2026-08-30 23:26:31 | 52.36680 | 14.76713 | 69° | 78km/h | 13500m | 5.6m/s | 0°C | 0% | 160.4hPa | 2.6V | 18:12:15 | 01:16:34 | 00:00:00 | |
| AA1-15 | 2026-08-30 23:26:28 | 52.36657 | 14.76621 | 68° | 82km/h | 13486m | 3.3m/s | -52.9°C | 2.6% | 160.8hPa | 2.8V | 18:12:15 | 01:16:31 | 00:00:00 | |
| DB0DAN | 2026-08-30 23:26:25 | 52.36634 | 14.76530 | 67° | 77km/h | 13471m | 4.6m/s | -53°C | 2.6% | 161.14hPa | 2.6V | 00:00:00 | 00:00:00 | 00:00:00 | |
| DF8AY | 2026-08-30 23:26:19 | 52.36586 | 14.76336 | 69° | 89km/h | 13444m | 4.9m/s | 0°C | 0% | 161.8hPa | 2.6V | 18:12:15 | 01:16:22 | 00:00:00 | |
| SONDE2-12 | 2026-08-30 23:26:17 | 52.36560 | 14.76231 | 68° | 89km/h | 13429m | 5.3m/s | -53.0°C | 3.3% | 162.2hPa | 2.8V | 00:00:00 | 00:00:00 | 00:00:00 | |
| DF8AY | 2026-08-30 23:26:09 | 52.36516 | 14.75995 | 74° | 86km/h | 13395m | 4.3m/s | 0°C | 0% | 163.1hPa | 2.8V | 18:12:15 | 01:16:12 | 00:00:00 | |
| AA1-15 | 2026-08-30 23:26:06 | 52.36494 | 14.75891 | 69° | 93km/h | 13381m | 3.4m/s | -53°C | 2.9% | 163.4hPa | 2.6V | 18:12:15 | 01:16:09 | 00:00:00 | |
| DF8AY | 2026-08-30 23:25:59 | 52.36397 | 14.75441 | 70° | 91km/h | 13330m | 5m/s | 0°C | 0% | 164.7hPa | 2.6V | 18:12:15 | 01:15:57 | 00:00:00 | |
| SONDE2-11 | 2026-08-30 23:25:57 | 52.36413 | 14.75513 | 71° | 93km/h | 13338m | 5.0m/s | -52.7°C | 2.7% | 164.5hPa | 2.8V | 00:00:00 | 00:00:00 | 00:00:00 | |
| SONCRA | 2026-08-30 23:25:54 | 52.36397 | 14.75441 | 69° | 89km/h | 13330m | 5.0m/s | -52.7°C | 2.8% | 164.7hPa | 2.8V | 00:00:00 | 00:00:00 | 00:00:00 | |
| DF8AY | 2026-08-30 23:25:49 | 52.36318 | 14.75083 | 70° | 93km/h | 13286m | 3.7m/s | 0°C | 0% | 165.9hPa | 2.8V | 18:12:15 | 01:15:47 | 00:00:00 | |
| AA1-15 | 2026-08-30 23:25:47 | 52.36340 | 14.75192 | 72° | 93km/h | 13298m | 3.9m/s | -52.8°C | 3.2% | 165.5hPa | 2.6V | 18:12:15 | 01:15:50 | 00:00:00 | |
| SONDE2-12 | 2026-08-30 23:25:46 | 52.36325 | 14.75119 | 70° | 91km/h | 13290m | 5.1m/s | -52.8°C | 3.5% | 165.8hPa | 2.6V | 00:00:00 | 00:00:00 | 00:00:00 | |
| AA1-15 | 2026-08-30 23:25:36 | 52.36247 | 14.74753 | 71° | 88km/h | 13247m | 3.5m/s | -53.1°C | 3.5% | 166.8hPa | 2.6V | 18:12:15 | 01:15:38 | 00:00:00 | |
| DF8AY | 2026-08-30 23:25:32 | 52.36224 | 14.74655 | 68° | 84km/h | 13233m | 3.7m/s | 0°C | 0% | 167.2hPa | 2.8V | 18:12:15 | 01:15:35 | 00:00:00 | |
| AA1-15 | 2026-08-30 23:25:24 | 52.36158 | 14.74384 | 69° | 89km/h | 13198m | 2.9m/s | -53.3°C | 3.9% | 168.2hPa | 2.6V | 18:12:15 | 01:15:27 | 00:00:00 | |
| DF8AY | 2026-08-30 23:25:21 | 52.36133 | 14.74282 | 67° | 88km/h | 13185m | 4.5m/s | 0°C | 0% | 168.5hPa | 2.8V | 18:12:15 | 01:15:24 | 00:00:00 | |
| SONDE2-12 | 2026-08-30 23:25:15 | 52.36069 | 14.74058 | 65° | 84km/h | 13154m | 3.2m/s | -53.3°C | 4.5% | 169.3hPa | 2.8V | 00:00:00 | 00:00:00 | 00:00:00 | |
| AA1-15 | 2026-08-30 23:25:14 | 52.36069 | 14.74058 | 65° | 84km/h | 13153m | 3.2m/s | -53.3°C | 4.4% | 169.3hPa | 2.8V | 18:12:15 | 01:15:17 | 00:00:00 | |
| DL1XH-west | 2026-08-30 23:25:05 | 52.35988 | 14.73760 | 65° | 88km/h | 13113m | 4.9m/s | 0°C | 0% | 0hPa | 2.6V | 18:12:15 | 01:15:08 | 00:00:00 | |
| DF8AY | 2026-08-30 23:25:00 | 52.35940 | 14.73595 | 65° | 88km/h | 13091m | 5.5m/s | 0°C | 0% | 171hPa | 2.6V | 18:12:15 | 01:15:03 | 00:00:00 | |
| AA1-15 | 2026-08-30 23:24:57 | 52.35914 | 14.73489 | 69° | 97km/h | 13077m | 5.8m/s | -53.4°C | 5.1% | 171.4hPa | 2.8V | 18:12:15 | 01:15:00 | 00:00:00 | |
| SP3WXH-11 | 2026-08-30 23:24:57 | 52.35905 | 14.73452 | 68° | 97km/h | 13071m | 5.0m/s | -53.4°C | 4.1% | 171.5hPa | 2.6V | 00:00:00 | 00:00:00 | 00:00:00 | |
| DB0DAN | 2026-08-30 23:24:55 | 52.35896 | 14.73415 | 68° | 91km/h | 13068m | 2.9m/s | -53.4°C | 4.1% | 171.6hPa | 2.6V | 00:00:00 | 00:00:00 | 00:00:00 | |
| DL1XH-west | 2026-08-30 23:24:53 | 52.35878 | 14.73344 | 69° | 89km/h | 13059m | 5.7m/s | 0°C | 0% | 0hPa | 2.6V | 18:12:15 | 01:14:56 | 00:00:00 | |
| DF8AY | 2026-08-30 23:24:48 | 52.35840 | 14.73191 | 68° | 75km/h | 13034m | 6.3m/s | 0°C | 0% | 172.5hPa | 2.6V | 18:12:15 | 01:14:51 | 00:00:00 | |
| AA1-15 | 2026-08-30 23:24:46 | 52.35826 | 14.73133 | 68° | 77km/h | 13024m | 6.6m/s | -53.2°C | 5.8% | 172.8hPa | 2.8V | 18:12:15 | 01:14:49 | 00:00:00 | |
| S3001 | 2026-08-30 23:24:45 | 52.35818 | 14.73103 | 65° | 80km/h | 13019m | 5.6m/s | -53.3°C | 4.5% | 172.9hPa | 2.6V | 00:00:00 | 00:00:00 | 00:00:00 | |
| SONDE2-12 | 2026-08-30 23:24:44 | 52.35800 | 14.73039 | 65° | 88km/h | 13009m | 6.1m/s | -53.3°C | 5.6% | 173.2hPa | 2.6V | 00:00:00 | 00:00:00 | 00:00:00 | |
| DL1XH-west | 2026-08-30 23:24:42 | 52.35791 | 14.73005 | 68° | 91km/h | 13003m | 5.2m/s | 0°C | 0% | 0hPa | 2.6V | 18:12:15 | 01:14:45 | 00:00:00 | |
| DB0DAN | 2026-08-30 23:24:40 | 52.35774 | 14.72935 | 69° | 84km/h | 12992m | 7.1m/s | -53.6°C | 4.7% | 173.71hPa | 2.8V | 00:00:00 | 00:00:00 | 00:00:00 | |
| DF8AY | 2026-08-30 23:24:37 | 52.35751 | 14.72836 | 69° | 80km/h | 12973m | 10m/s | 0°C | 0% | 174.2hPa | 2.6V | 18:12:15 | 01:14:40 | 00:00:00 | |
| AA1-15 | 2026-08-30 23:24:35 | 52.35737 | 14.72776 | 68° | 78km/h | 12960m | 4.1m/s | -54.2°C | 6.9% | 174.5hPa | 2.8V | 18:12:15 | 01:14:38 | 00:00:00 | |
| DL1XH-west | 2026-08-30 23:24:31 | 52.35705 | 14.72651 | 67° | 86km/h | 12935m | 6.2m/s | 0°C | 0% | 0hPa | 2.8V | 18:12:15 | 01:14:34 | 00:00:00 | |
| DF8AY | 2026-08-30 23:24:27 | 52.35671 | 14.72512 | 69° | 93km/h | 12912m | 9m/s | 0°C | 0% | 0hPa | 2.8V | 18:12:15 | 01:14:30 | 00:00:00 | |
| DB0DAN | 2026-08-30 23:24:25 | 52.35655 | 14.72441 | 72° | 84km/h | 12900m | 2.1m/s | -54.5°C | 6.1% | 176.17hPa | 2.6V | 00:00:00 | 00:00:00 | 00:00:00 | |
| AA1-15 | 2026-08-30 23:24:24 | 52.35648 | 14.72407 | 71° | 86km/h | 12895m | 8.1m/s | -54.5°C | 8% | 176.2hPa | 2.6V | 18:12:15 | 01:14:27 | 00:00:00 | |
| DF8AY | 2026-08-30 23:24:17 | 52.35602 | 14.72168 | 73° | 93km/h | 12851m | 8m/s | 0°C | 0% | 0hPa | 2.8V | 18:12:15 | 01:14:20 | 00:00:00 | |
| AA1-15 | 2026-08-30 23:24:13 | 52.35576 | 14.72015 | 76° | 97km/h | 12824m | 6.3m/s | -54.8°C | 8.9% | 178.2hPa | 2.6V | 18:12:15 | 01:14:16 | 00:00:00 | |
| SONDE2-12 | 2026-08-30 23:24:13 | 52.35570 | 14.71976 | 76° | 97km/h | 12818m | 4.9m/s | -54.8°C | 8.1% | 178.3hPa | 2.8V | 00:00:00 | 00:00:00 | 00:00:00 | |
| DL2RXE-15 | 2026-08-30 23:24:12 | 52.35576 | 14.72015 | 77° | 97km/h | 12824m | 6.3m/s | -54.8°C | 6.6% | 178.2hPa | 2.8V | 00:00:00 | 00:00:00 | 00:00:00 | |
| DB0DAN | 2026-08-30 23:24:10 | 52.35560 | 14.71899 | 79° | 91km/h | 12804m | 5.8m/s | -54.8°C | 6.6% | 178.74hPa | 2.8V | 00:00:00 | 00:00:00 | 00:00:00 | |
| DF8AY | 2026-08-30 23:24:06 | 52.35543 | 14.71747 | 81° | 91km/h | 12781m | 3.2m/s | 0°C | 0% | 0hPa | 2.6V | 18:12:15 | 01:14:09 | 00:00:00 | |
| EDDB2-12 | 2026-08-30 23:24:05 | 52.35536 | 14.71672 | 80° | 91km/h | 12768m | 5.9m/s | -54.9°C | 6.7% | 179.8hPa | 2.6V | 00:00:00 | 00:00:00 | 00:00:00 | |
| EDDB2-11 | 2026-08-30 23:23:57 | 52.35495 | 14.71379 | 76° | 86km/h | 12725m | 7.0m/s | -55.0°C | 6.8% | 181.0hPa | 2.6V | 00:00:00 | 00:00:00 | 00:00:00 | |
| DB0DAN | 2026-08-30 23:23:55 | 52.35490 | 14.71344 | 78° | 86km/h | 12718m | 6.6m/s | -55.1°C | 6.9% | 181.18hPa | 2.6V | 00:00:00 | 00:00:00 | 00:00:00 | |
| AA1-15 | 2026-08-30 23:23:55 | 52.35490 | 14.71344 | 78° | 89km/h | 12718m | 6.6m/s | -55.1°C | 9.1% | 181.2hPa | 2.6V | 18:12:15 | 01:13:58 | 00:00:00 | |
| SP3WXH-11 | 2026-08-30 23:23:54 | 52.35485 | 14.71307 | 77° | 91km/h | 12711m | 7.3m/s | -55.1°C | 6.9% | 181.4hPa | 2.8V | 00:00:00 | 00:00:00 | 00:00:00 | |
| SONDE2-11 | 2026-08-30 23:23:52 | 52.35475 | 14.71231 | 79° | 97km/h | 12698m | 5.7m/s | -55.0°C | 6.9% | 181.8hPa | 2.8V | 00:00:00 | 00:00:00 | 00:00:00 | |
| SONCRA | 2026-08-30 23:23:50 | 52.35461 | 14.71111 | 78° | 99km/h | 12676m | 6.7m/s | -55.0°C | 6.8% | 182.4hPa | 2.8V | 00:00:00 | 00:00:00 | 00:00:00 | |
| AA1-15 | 2026-08-30 23:23:44 | 52.35437 | 14.70918 | 80° | 91km/h | 12645m | 6.2m/s | -55.1°C | 8.8% | 183.2hPa | 2.8V | 18:12:15 | 01:13:47 | 00:00:00 | |
| SONDE2-12 | 2026-08-30 23:23:42 | 52.35426 | 14.70802 | 80° | 99km/h | 12624m | 7.2m/s | -55.2°C | 8.3% | 183.8hPa | 2.6V | 00:00:00 | 00:00:00 | 00:00:00 | |
| DB0DAN | 2026-08-30 23:23:40 | 52.35421 | 14.70761 | 78° | 99km/h | 12618m | 4m/s | -55.2°C | 6.8% | 184hPa | 2.6V | 00:00:00 | 00:00:00 | 00:00:00 | |
| AA1-15 | 2026-08-30 23:23:33 | 52.35377 | 14.70466 | 76° | 102km/h | 12582m | 6m/s | -55.1°C | 8.8% | 185.1hPa | 2.6V | 18:12:15 | 01:13:36 | 00:00:00 | |
| DF8AY | 2026-08-30 23:23:31 | 52.35366 | 14.70384 | 78° | 102km/h | 12573m | 4.7m/s | 0°C | 0% | 0hPa | 2.8V | 18:12:15 | 01:13:34 | 00:00:00 | |
| AA1-15 | 2026-08-30 23:23:22 | 52.35315 | 14.70009 | 77° | 100km/h | 12531m | 5.3m/s | -55.1°C | 8.9% | 186.6hPa | 2.8V | 18:12:15 | 01:13:25 | 00:00:00 | |
| DF8AY | 2026-08-30 23:23:18 | 52.35288 | 14.69845 | 75° | 106km/h | 12514m | 4.9m/s | 0°C | 0% | 0hPa | 2.6V | 18:12:15 | 01:13:21 | 00:00:00 | |
| SONDE2-12 | 2026-08-30 23:23:10 | 52.35236 | 14.69496 | 77° | 106km/h | 12478m | 5.1m/s | -54.8°C | 8.5% | 188.2hPa | 2.6V | 00:00:00 | 00:00:00 | 00:00:00 | |
| KRY50SP-1 | 2026-08-30 23:23:09 | 52.35236 | 14.69496 | 79° | 108km/h | 12478m | 5.1m/s | -54.8°C | 6.9% | 188.2hPa | 2.6V | 00:00:00 | 00:00:00 | 00:00:00 | |
| DAC517 | 2026-08-30 23:23:07 | 52.35219 | 14.69368 | 79° | 106km/h | 12463m | 4.5m/s | -54.8°C | 7.0% | 188.6hPa | 2.6V | 00:00:00 | 00:00:00 | 00:00:00 | |
| SP6BVK | 2026-08-30 23:23:04 | 52.35209 | 14.69285 | 80° | 102km/h | 12454m | 6.3m/s | -54.8°C | 6.9% | 188.8hPa | 2.6V | 00:00:00 | 00:00:00 | 00:00:00 | |
| KRY50SP-1 | 2026-08-30 23:23:03 | 52.35203 | 14.69243 | 79° | 104km/h | 12449m | 4.4m/s | -54.7°C | 6.9% | 189.0hPa | 2.6V | 00:00:00 | 00:00:00 | 00:00:00 | |
| DL2RXE-15 | 2026-08-30 23:23:02 | 52.35198 | 14.69201 | 78° | 106km/h | 12444m | 5.1m/s | -54.7°C | 6.9% | 189.2hPa | 2.6V | 00:00:00 | 00:00:00 | 00:00:00 | |
| EDDB2-11 | 2026-08-30 23:22:54 | 52.35127 | 14.68816 | 75° | 102km/h | 12399m | 5.1m/s | -54.7°C | 7.0% | 190.5hPa | 2.6V | 00:00:00 | 00:00:00 | 00:00:00 | |
| SP3WXH-11 | 2026-08-30 23:22:52 | 52.35114 | 14.68732 | 76° | 104km/h | 12388m | 6.6m/s | -54.7°C | 7.1% | 190.8hPa | 2.6V | 00:00:00 | 00:00:00 | 00:00:00 | |
| SONDE2-11 | 2026-08-30 23:22:50 | 52.35102 | 14.68645 | 76° | 111km/h | 12378m | 3.2m/s | -54.7°C | 7.4% | 191.2hPa | 2.6V | 00:00:00 | 00:00:00 | 00:00:00 | |
| KRY50SP-1 | 2026-08-30 23:22:48 | 52.35089 | 14.68556 | 78° | 108km/h | 12368m | 5.4m/s | -54.7°C | 7.4% | 191.4hPa | 2.6V | 00:00:00 | 00:00:00 | 00:00:00 | |
| DAC517 | 2026-08-30 23:22:46 | 52.35076 | 14.68471 | 76° | 102km/h | 12359m | 5.1m/s | -54.7°C | 7.4% | 191.7hPa | 2.6V | 00:00:00 | 00:00:00 | 00:00:00 | |
| SP6BVK | 2026-08-30 23:22:44 | 52.35069 | 14.68431 | 75° | 102km/h | 12353m | 7.9m/s | -54.7°C | 7.4% | 191.9hPa | 2.6V | 00:00:00 | 00:00:00 | 00:00:00 | |
| KRY50SP-1 | 2026-08-30 23:22:42 | 52.35054 | 14.68347 | 75° | 108km/h | 12340m | 7.4m/s | -54.6°C | 7.6% | 192.3hPa | 2.6V | 00:00:00 | 00:00:00 | 00:00:00 | |
| DB0DAN | 2026-08-30 23:22:40 | 52.35030 | 14.68215 | 74° | 108km/h | 12323m | 8.1m/s | -54.5°C | 7.6% | 192.79hPa | 2.6V | 00:00:00 | 00:00:00 | 00:00:00 | |
| AA1-15 | 2026-08-30 23:22:40 | 52.35030 | 14.68215 | 74° | 113km/h | 12323m | 8.1m/s | -54.5°C | 10.1% | 192.8hPa | 2.6V | 18:12:15 | 01:12:43 | 00:00:00 | |
| SONDE2-12 | 2026-08-30 23:22:39 | 52.35023 | 14.68170 | 73° | 110km/h | 12316m | 7.8m/s | -54.5°C | 9.4% | 192.9hPa | 2.6V | 00:00:00 | 00:00:00 | 00:00:00 | |
| AA1-15 | 2026-08-30 23:22:29 | 52.34956 | 14.67731 | 75° | 115km/h | 12249m | 6.3m/s | -54.6°C | 11.2% | 195hPa | 2.6V | 18:12:15 | 01:12:32 | 00:00:00 | |
| DB0DAN | 2026-08-30 23:22:25 | 52.34926 | 14.67557 | 74° | 97km/h | 12225m | 7.6m/s | -54.6°C | 8.5% | 195.73hPa | 2.6V | 00:00:00 | 00:00:00 | 00:00:00 | |
| AA1-15 | 2026-08-30 23:22:18 | 52.34881 | 14.67273 | 78° | 111km/h | 12180m | 9.4m/s | -54.7°C | 13% | 197.1hPa | 2.6V | 18:12:15 | 01:12:21 | 00:00:00 | |
| SONCRA | 2026-08-30 23:22:16 | 52.34867 | 14.67181 | 75° | 117km/h | 12167m | 5.9m/s | -54.7°C | 9.7% | 197.5hPa | 2.8V | 00:00:00 | 00:00:00 | 00:00:00 | |
| KRY50SP-1 | 2026-08-30 23:22:14 | 52.34860 | 14.67134 | 77° | 117km/h | 12161m | 6.8m/s | -54.8°C | 10.0% | 197.7hPa | 2.8V | 00:00:00 | 00:00:00 | 00:00:00 | |
| 13BRC | 2026-08-30 23:22:13 | 52.34853 | 14.67087 | 77° | 113km/h | 12154m | 6.5m/s | -54.9°C | 10.3% | 198.0hPa | 2.8V | 00:00:00 | 00:00:00 | 00:00:00 | |
| DL2RXE-15 | 2026-08-30 23:22:12 | 52.34846 | 14.67043 | 77° | 108km/h | 12149m | 3.8m/s | -54.9°C | 10.5% | 198.1hPa | 2.8V | 00:00:00 | 00:00:00 | 00:00:00 | |
| DB0DAN | 2026-08-30 23:22:10 | 52.34826 | 14.66919 | 73° | 97km/h | 12130m | 5m/s | -55°C | 11% | 198.68hPa | 2.8V | 00:00:00 | 00:00:00 | 00:00:00 | |
| AA1-15 | 2026-08-30 23:22:08 | 52.34811 | 14.66840 | 73° | 100km/h | 12115m | 6m/s | -55°C | 15.6% | 199.1hPa | 2.6V | 18:12:15 | 01:12:11 | 00:00:00 | |
| SONDE2-12 | 2026-08-30 23:22:08 | 52.34811 | 14.66840 | 72° | 99km/h | 12115m | 6.0m/s | -55.0°C | 14.1% | 199.1hPa | 2.8V | 00:00:00 | 00:00:00 | 00:00:00 | |
| DAC517 | 2026-08-30 23:22:05 | 52.34787 | 14.66717 | 74° | 110km/h | 12098m | 7.4m/s | -55.1°C | 11.8% | 199.7hPa | 2.8V | 00:00:00 | 00:00:00 | 00:00:00 | |
| SP6BVK | 2026-08-30 23:22:03 | 52.34779 | 14.66673 | 75° | 113km/h | 12092m | 4.2m/s | -55.2°C | 12.0% | 199.9hPa | 2.8V | 00:00:00 | 00:00:00 | 00:00:00 | |
| EDDB2-12 | 2026-08-30 23:22:00 | 52.34750 | 14.66498 | 73° | 102km/h | 12065m | 4.8m/s | -55.3°C | 13.7% | 200.7hPa | 2.8V | 00:00:00 | 00:00:00 | 00:00:00 | |
| KRY50SP-1 | 2026-08-30 23:21:58 | 52.34742 | 14.66457 | 72° | 100km/h | 12062m | 2.4m/s | -55.3°C | 13.9% | 200.9hPa | 2.8V | 00:00:00 | 00:00:00 | 00:00:00 | |
| DB0DAN | 2026-08-30 23:21:55 | 52.34709 | 14.66301 | 70° | 97km/h | 12039m | 5.3m/s | -55.5°C | 15% | 201.53hPa | 2.8V | 00:00:00 | 00:00:00 | 00:00:00 | |
| AA1-15 | 2026-08-30 23:21:55 | 52.34709 | 14.66301 | 70° | 102km/h | 12040m | 5.3m/s | -55.5°C | 20.1% | 201.5hPa | 2.8V | 18:12:15 | 01:11:58 | 00:00:00 | |
| EDDB2-11 | 2026-08-30 23:21:53 | 52.34682 | 14.66180 | 70° | 106km/h | 12020m | 8.9m/s | -55.6°C | 16.0% | 202.1hPa | 2.6V | 00:00:00 | 00:00:00 | 00:00:00 | |
| SP3WXH-11 | 2026-08-30 23:21:50 | 52.34665 | 14.66094 | 73° | 108km/h | 12010m | 2.1m/s | -55.8°C | 16.9% | 202.5hPa | 2.6V | 00:00:00 | 00:00:00 | 00:00:00 | |
| SONDE2-11 | 2026-08-30 23:21:48 | 52.34651 | 14.66008 | 75° | 104km/h | 11998m | 4.7m/s | -56.0°C | 17.7% | 202.9hPa | 2.6V | 00:00:00 | 00:00:00 | 00:00:00 | |
| SONCRA | 2026-08-30 23:21:45 | 52.34629 | 14.65886 | 72° | 100km/h | 11976m | 9.9m/s | -56.1°C | 19.0% | 203.6hPa | 2.6V | 00:00:00 | 00:00:00 | 00:00:00 | |
| AA1-15 | 2026-08-30 23:21:44 | 52.34621 | 14.65847 | 70° | 99km/h | 11968m | 5.6m/s | -56.1°C | 25% | 203.8hPa | 2.6V | 18:12:15 | 01:11:47 | 00:00:00 | |
| DF8AY | 2026-08-30 23:21:40 | 52.34586 | 14.65693 | 70° | 100km/h | 11947m | 6.4m/s | -56.1°C | 26.7% | 204.5hPa | 2.6V | 18:12:15 | 01:11:43 | 00:00:00 | |
| DB0DAN | 2026-08-30 23:21:40 | 52.34586 | 14.65693 | 70° | 95km/h | 11947m | 6.4m/s | -56.1°C | 20.8% | 204.51hPa | 2.6V | 00:00:00 | 00:00:00 | 00:00:00 | |
| SONDE2-12 | 2026-08-30 23:21:37 | 52.34562 | 14.65571 | 74° | 104km/h | 11927m | 7.0m/s | -56.1°C | 26.9% | 205.1hPa | 2.6V | 00:00:00 | 00:00:00 | 00:00:00 | |
| AA1-15 | 2026-08-30 23:21:33 | 52.34532 | 14.65408 | 72° | 99km/h | 11903m | 6.7m/s | -56.1°C | 30.2% | 205.9hPa | 2.6V | 18:12:15 | 01:11:36 | 00:00:00 | |
| KRY50SP-1 | 2026-08-30 23:21:31 | 52.34517 | 14.65332 | 72° | 99km/h | 11891m | 5.1m/s | -56.2°C | 24.5% | 206.3hPa | 2.8V | 00:00:00 | 00:00:00 | 00:00:00 | |
| EDDB2-12 | 2026-08-30 23:21:29 | 52.34501 | 14.65256 | 70° | 97km/h | 11879m | 6.8m/s | -56.1°C | 25.5% | 206.7hPa | 2.8V | 00:00:00 | 00:00:00 | 00:00:00 | |
| DB0DAN | 2026-08-30 23:21:25 | 52.34468 | 14.65102 | 72° | 95km/h | 11857m | 5.1m/s | -56.3°C | 27.9% | 207.46hPa | 2.8V | 00:00:00 | 00:00:00 | 00:00:00 | |
| DF8AY | 2026-08-30 23:21:22 | 52.34444 | 14.64986 | 71° | 100km/h | 11839m | 3.7m/s | -56.5°C | 37.4% | 208.1hPa | 2.6V | 18:12:15 | 01:11:25 | 00:00:00 | |
| AA1-15 | 2026-08-30 23:21:12 | 52.34356 | 14.64589 | 70° | 106km/h | 11783m | 4.1m/s | -57.1°C | 43.1% | 209.9hPa | 2.8V | 18:12:15 | 01:11:15 | 00:00:00 | |
| SONDE2-12 | 2026-08-30 23:21:06 | 52.34308 | 14.64339 | 73° | 102km/h | 11745m | 6.3m/s | -57.2°C | 48.4% | 211.2hPa | 2.6V | 00:00:00 | 00:00:00 | 00:00:00 | |
| AA1-15 | 2026-08-30 23:21:01 | 52.34267 | 14.64130 | 70° | 110km/h | 11708m | 6.6m/s | -57.4°C | 46.9% | 212.3hPa | 2.6V | 18:12:15 | 01:11:04 | 00:00:00 | |
| DF8AY | 2026-08-30 23:20:56 | 52.34217 | 14.63917 | 69° | 110km/h | 11679m | 7.8m/s | -57.3°C | 48.4% | 213.3hPa | 2.8V | 18:12:15 | 01:10:59 | 00:00:00 | |
| AA1-15 | 2026-08-30 23:20:50 | 52.34157 | 14.63666 | 71° | 102km/h | 11641m | 7.3m/s | -57.2°C | 50.7% | 214.5hPa | 2.8V | 18:12:15 | 01:10:53 | 00:00:00 | |
| DF8AY | 2026-08-30 23:20:45 | 52.34117 | 14.63452 | 73° | 111km/h | 11606m | 5.4m/s | -57°C | 53.2% | 215.8hPa | 2.6V | 18:12:15 | 01:10:48 | 00:00:00 | |
| SONCRA | 2026-08-30 23:20:43 | 52.34101 | 14.63365 | 74° | 106km/h | 11592m | 6.7m/s | -56.9°C | 47.9% | 216.2hPa | 2.6V | 00:00:00 | 00:00:00 | 00:00:00 | |
| DB0DAN | 2026-08-30 23:20:40 | 52.34078 | 14.63239 | 70° | 102km/h | 11570m | 8.2m/s | -56.9°C | 50% | 216.97hPa | 2.6V | 00:00:00 | 00:00:00 | 00:00:00 | |
| AA1-15 | 2026-08-30 23:20:39 | 52.34068 | 14.63198 | 69° | 108km/h | 11563m | 6.2m/s | -57°C | 57.1% | 217.2hPa | 2.6V | 18:12:15 | 01:10:42 | 00:00:00 | |
| DF8AY | 2026-08-30 23:20:35 | 52.34024 | 14.63025 | 69° | 117km/h | 11538m | 4.3m/s | -57°C | 59.2% | 218.1hPa | 2.8V | 18:12:15 | 01:10:38 | 00:00:00 | |
| AA1-15 | 2026-08-30 23:20:28 | 52.33963 | 14.62709 | 72° | 110km/h | 11499m | 4.6m/s | -56.9°C | 64.6% | 219.5hPa | 2.6V | 18:12:15 | 01:10:31 | 00:00:00 | |
| DB0DAN | 2026-08-30 23:20:25 | 52.33935 | 14.62578 | 71° | 108km/h | 11482m | 6.9m/s | -56.9°C | 64.6% | 220.04hPa | 2.8V | 00:00:00 | 00:00:00 | 00:00:00 | |
| DF8AY | 2026-08-30 23:20:24 | 52.33926 | 14.62534 | 71° | 113km/h | 11477m | 4.9m/s | -56.9°C | 68.8% | 220.2hPa | 2.8V | 18:12:15 | 01:10:27 | 00:00:00 | |
| AA1-15 | 2026-08-30 23:20:17 | 52.33859 | 14.62237 | 69° | 108km/h | 11435m | 5.8m/s | -57.1°C | 69.7% | 221.7hPa | 2.8V | 18:12:15 | 01:10:20 | 00:00:00 | |
| DF8AY | 2026-08-30 23:20:13 | 52.33820 | 14.62073 | 67° | 108km/h | 11413m | 6.4m/s | -57°C | 67.4% | 222.5hPa | 2.8V | 18:12:15 | 01:10:16 | 00:00:00 | |
| KRY50SP-1 | 2026-08-30 23:20:12 | 52.33819 | 14.62073 | 68° | 108km/h | 11413m | 6.4m/s | -57.0°C | 64.5% | 222.5hPa | 2.6V | 00:00:00 | 00:00:00 | 00:00:00 | |
| DB0DAN | 2026-08-30 23:20:10 | 52.33786 | 14.61954 | 64° | 100km/h | 11396m | 6.8m/s | -56.9°C | 62% | 223.13hPa | 2.6V | 00:00:00 | 00:00:00 | 00:00:00 | |
| AA1-15 | 2026-08-30 23:20:06 | 52.33747 | 14.61798 | 70° | 104km/h | 11368m | 4.6m/s | -56.7°C | 63.7% | 224hPa | 2.8V | 18:12:15 | 01:10:09 | 00:00:00 | |
| DF8AY | 2026-08-30 23:20:04 | 52.33722 | 14.61679 | 71° | 100km/h | 11353m | 5.2m/s | -56.5°C | 62.8% | 224.6hPa | 2.8V | 18:12:15 | 01:10:06 | 00:00:00 | |
| EDDB2-12 | 2026-08-30 23:19:56 | 52.33650 | 14.61371 | 68° | 124km/h | 11310m | 4.7m/s | -56.3°C | 61.4% | 226.1hPa | 2.6V | 00:00:00 | 00:00:00 | 00:00:00 | |
| DB0DAN | 2026-08-30 23:19:55 | 52.33639 | 14.61323 | 70° | 115km/h | 11306m | 2.8m/s | -56.2°C | 61% | 226.23hPa | 2.6V | 00:00:00 | 00:00:00 | 00:00:00 | |
| AA1-15 | 2026-08-30 23:19:55 | 52.33639 | 14.61323 | 70° | 122km/h | 11306m | 2.8m/s | -56.2°C | 62.6% | 226.2hPa | 2.6V | 18:12:15 | 01:09:58 | 00:00:00 | |
| DF8AY | 2026-08-30 23:19:52 | 52.33609 | 14.61186 | 72° | 115km/h | 11288m | 10.7m/s | -56°C | 62.3% | 226.9hPa | 2.8V | 18:12:15 | 01:09:55 | 00:00:00 | |
| EDDB2-11 | 2026-08-30 23:19:48 | 52.33573 | 14.61005 | 71° | 113km/h | 11251m | 6.3m/s | -55.7°C | 60.2% | 228.2hPa | 2.7V | 00:00:00 | 00:00:00 | 00:00:00 | |
| SP3WXH-11 | 2026-08-30 23:19:46 | 52.33554 | 14.60920 | 67° | 104km/h | 11240m | 4.0m/s | -55.6°C | 60.6% | 228.6hPa | 2.7V | 00:00:00 | 00:00:00 | 00:00:00 | |
| AA1-15 | 2026-08-30 23:19:44 | 52.33534 | 14.60841 | 67° | 102km/h | 11231m | 5.3m/s | -55.5°C | 61.9% | 228.9hPa | 2.7V | 18:12:15 | 01:09:47 | 00:00:00 | |
| DF8AY | 2026-08-30 23:19:42 | 52.33513 | 14.60761 | 69° | 108km/h | 11221m | 4.9m/s | -55.4°C | 62.3% | 229.3hPa | 2.8V | 18:12:15 | 01:09:45 | 00:00:00 | |
| DB0DAN | 2026-08-30 23:19:40 | 52.33494 | 14.60676 | 71° | 104km/h | 11210m | 5.5m/s | -55.3°C | 60% | 229.7hPa | 2.8V | 00:00:00 | 00:00:00 | 00:00:00 | |
| AA1-15 | 2026-08-30 23:19:33 | 52.33430 | 14.60361 | 71° | 106km/h | 11172m | 6.4m/s | -55°C | 61.4% | 231hPa | 2.8V | 18:12:15 | 01:09:36 | 00:00:00 | |
| DF8AY | 2026-08-30 23:19:31 | 52.33411 | 14.60280 | 68° | 102km/h | 11159m | 4.8m/s | -54.9°C | 61.3% | 231.4hPa | 2.7V | 18:12:15 | 01:09:34 | 00:00:00 | |
| 13BRC | 2026-08-30 23:19:30 | 52.33411 | 14.60280 | 69° | 102km/h | 11159m | 4.8m/s | -54.9°C | 58.5% | 231.4hPa | 2.8V | 00:00:00 | 00:00:00 | 00:00:00 | |
| DB0DAN | 2026-08-30 23:19:25 | 52.33358 | 14.60035 | 73° | 102km/h | 11130m | 7.9m/s | -54.6°C | 57.7% | 232.59hPa | 2.8V | 00:00:00 | 00:00:00 | 00:00:00 | |
| AA1-15 | 2026-08-30 23:19:22 | 52.33334 | 14.59910 | 71° | 106km/h | 11114m | 6.5m/s | -54.4°C | 61% | 233.3hPa | 2.6V | 18:12:15 | 01:09:25 | 00:00:00 | |
| DF8AY | 2026-08-30 23:19:20 | 52.33314 | 14.59829 | 66° | 108km/h | 11101m | 5.7m/s | -54.3°C | 61.1% | 233.7hPa | 2.8V | 18:12:15 | 01:09:23 | 00:00:00 | |
| AA1-15 | 2026-08-30 23:19:11 | 52.33222 | 14.59439 | 71° | 113km/h | 11049m | 5.7m/s | -53.8°C | 61.9% | 235.7hPa | 2.6V | 18:12:15 | 01:09:14 | 00:00:00 | |
| DF8AY | 2026-08-30 23:19:10 | 52.33213 | 14.59395 | 71° | 113km/h | 11042m | 8.5m/s | -53.7°C | 61.7% | 235.8hPa | 2.6V | 18:12:15 | 01:09:13 | 00:00:00 | |
| DB0DAN | 2026-08-30 23:19:10 | 52.33213 | 14.59395 | 71° | 108km/h | 11042m | 8.5m/s | -53.7°C | 58% | 235.84hPa | 2.6V | 00:00:00 | 00:00:00 | 00:00:00 | |
| SONDE2-12 | 2026-08-30 23:19:02 | 52.33133 | 14.59061 | 66° | 100km/h | 10993m | 4.9m/s | -53.3°C | 72.3% | 237.7hPa | 2.8V | 00:00:00 | 00:00:00 | 00:00:00 | |
| AA1-15 | 2026-08-30 23:19:01 | 52.33123 | 14.59021 | 68° | 106km/h | 10988m | 4.7m/s | -53.3°C | 62.2% | 237.8hPa | 2.8V | 18:12:15 | 01:09:04 | 00:00:00 | |
| DF8AY | 2026-08-30 23:19:00 | 52.33113 | 14.58979 | 68° | 113km/h | 10984m | 4m/s | -53.2°C | 62.2% | 238hPa | 2.8V | 18:12:15 | 01:09:03 | 00:00:00 | |
| KRY50SP-1 | 2026-08-30 23:18:59 | 52.33113 | 14.58979 | 69° | 113km/h | 10984m | 4.0m/s | -53.2°C | 59.4% | 238.0hPa | 2.8V | 00:00:00 | 00:00:00 | 00:00:00 | |
| DB0DAN | 2026-08-30 23:18:55 | 52.33062 | 14.58745 | 72° | 113km/h | 10956m | 6.7m/s | -53°C | 59.5% | 239.03hPa | 2.8V | 00:00:00 | 00:00:00 | 00:00:00 | |
| AA1-15 | 2026-08-30 23:18:50 | 52.33018 | 14.58536 | 69° | 108km/h | 10932m | 5.9m/s | -52.7°C | 62% | 240hPa | 2.7V | 18:12:15 | 01:08:53 | 00:00:00 | |
| DF8AY | 2026-08-30 23:18:49 | 52.33008 | 14.58494 | 69° | 110km/h | 10926m | 7.1m/s | -52.7°C | 62.4% | 240.2hPa | 2.8V | 18:12:15 | 01:08:52 | 00:00:00 | |
| EDDB2-11 | 2026-08-30 23:18:46 | 52.32977 | 14.58362 | 70° | 115km/h | 10910m | 6.9m/s | -52.5°C | 61.8% | 240.8hPa | 2.8V | 00:00:00 | 00:00:00 | 00:00:00 | |
| DF8AY | 2026-08-30 23:18:39 | 52.32903 | 14.58035 | 68° | 117km/h | 10862m | 8m/s | -52.2°C | 64% | 242.5hPa | 2.8V | 18:12:15 | 01:08:42 | 00:00:00 | |
| SONDE2-12 | 2026-08-30 23:18:31 | 52.32813 | 14.57712 | 70° | 106km/h | 10807m | 7.9m/s | -51.7°C | 74.1% | 244.6hPa | 2.8V | 00:00:00 | 00:00:00 | 00:00:00 | |
| AA1-15 | 2026-08-30 23:18:28 | 52.32786 | 14.57582 | 72° | 113km/h | 10786m | 5.3m/s | -51.5°C | 63.9% | 245.4hPa | 2.8V | 18:12:15 | 01:08:31 | 00:00:00 | |
| DF8AY | 2026-08-30 23:18:18 | 52.32679 | 14.57165 | 63° | 100km/h | 10730m | 6m/s | -51.1°C | 64.7% | 247.4hPa | 2.7V | 18:12:15 | 01:08:21 | 00:00:00 | |
| AA1-15 | 2026-08-30 23:18:17 | 52.32668 | 14.57128 | 65° | 100km/h | 10726m | 3.7m/s | -51.1°C | 65% | 247.7hPa | 2.8V | 18:12:15 | 01:08:20 | 00:00:00 | |
| DAC517 | 2026-08-30 23:18:16 | 52.32658 | 14.57089 | 70° | 100km/h | 10721m | 6.2m/s | -51.1°C | 64.1% | 247.9hPa | 2.8V | 00:00:00 | 00:00:00 | 00:00:00 | |
| EDDB2-11 | 2026-08-30 23:18:15 | 52.32649 | 14.57050 | 69° | 102km/h | 10715m | 2.6m/s | -51.0°C | 63.5% | 248.1hPa | 2.8V | 00:00:00 | 00:00:00 | 00:00:00 | |
| SP6BVK | 2026-08-30 23:18:14 | 52.32649 | 14.57050 | 70° | 104km/h | 10716m | 2.6m/s | -51.0°C | 63.6% | 248.1hPa | 2.8V | 00:00:00 | 00:00:00 | 00:00:00 | |
| SP3WXH-11 | 2026-08-30 23:18:13 | 52.32630 | 14.56968 | 68° | 108km/h | 10699m | 8.9m/s | -50.9°C | 63.7% | 248.7hPa | 2.8V | 00:00:00 | 00:00:00 | 00:00:00 | |
| DB0DAN | 2026-08-30 23:18:10 | 52.32599 | 14.56838 | 68° | 111km/h | 10677m | 4.9m/s | -50.7°C | 65.1% | 249.47hPa | 2.8V | 00:00:00 | 00:00:00 | 00:00:00 | |
| DF8AY | 2026-08-30 23:18:08 | 52.32577 | 14.56749 | 69° | 117km/h | 10666m | 4.8m/s | -50.6°C | 66.5% | 250hPa | 2.7V | 18:12:15 | 01:08:11 | 00:00:00 | |
| AA1-15 | 2026-08-30 23:18:07 | 52.32556 | 14.56661 | 70° | 111km/h | 10656m | 7.2m/s | -50.5°C | 66.5% | 250.3hPa | 2.8V | 18:12:15 | 01:08:09 | 00:00:00 | |
| SONDE2-12 | 2026-08-30 23:18:00 | 52.32500 | 14.56416 | 69° | 100km/h | 10610m | 4.7m/s | -50.2°C | 75.8% | 252.1hPa | 2.8V | 00:00:00 | 00:00:00 | 00:00:00 | |
| DF8AY | 2026-08-30 23:17:57 | 52.32472 | 14.56296 | 69° | 106km/h | 10595m | 5.7m/s | -50°C | 65.4% | 252.7hPa | 2.8V | 18:12:15 | 01:08:00 | 00:00:00 | |
| AA1-15 | 2026-08-30 23:17:56 | 52.32462 | 14.56255 | 68° | 108km/h | 10589m | 6m/s | -50°C | 65.3% | 252.9hPa | 2.7V | 18:12:15 | 01:07:59 | 00:00:00 | |
| DB0DAN | 2026-08-30 23:17:55 | 52.32452 | 14.56214 | 70° | 102km/h | 10584m | 3.5m/s | -49.9°C | 63.1% | 253.1hPa | 2.7V | 00:00:00 | 00:00:00 | 00:00:00 | |
| DF8AY | 2026-08-30 23:17:46 | 52.32379 | 14.55850 | 72° | 108km/h | 10543m | 4.5m/s | -49.5°C | 64.9% | 254.7hPa | 2.8V | 18:12:15 | 01:07:49 | 00:00:00 | |
| EDDB2-11 | 2026-08-30 23:17:44 | 52.32362 | 14.55766 | 71° | 104km/h | 10531m | 6.5m/s | -49.4°C | 62.0% | 255.2hPa | 2.8V | 00:00:00 | 00:00:00 | 00:00:00 | |
| DB0DAN | 2026-08-30 23:17:40 | 52.32327 | 14.55612 | 68° | 91km/h | 10505m | 4.4m/s | -49.2°C | 63.1% | 256.21hPa | 2.8V | 00:00:00 | 00:00:00 | 00:00:00 | |
| DF8AY | 2026-08-30 23:17:36 | 52.32292 | 14.55464 | 70° | 104km/h | 10485m | 7m/s | -49°C | 64.3% | 256.9hPa | 2.8V | 18:12:15 | 01:07:39 | 00:00:00 | |
| AA1-15 | 2026-08-30 23:17:32 | 52.32255 | 14.55291 | 72° | 113km/h | 10461m | 7.9m/s | -48.9°C | 63.3% | 257.8hPa | 2.7V | 18:12:15 | 01:07:35 | 00:00:00 | |
| SONDE2-12 | 2026-08-30 23:17:29 | 52.32227 | 14.55165 | 68° | 102km/h | 10441m | 7.7m/s | -48.8°C | 73.5% | 258.6hPa | 2.7V | 00:00:00 | 00:00:00 | 00:00:00 | |
| 13BRC | 2026-08-30 23:17:27 | 52.32217 | 14.55126 | 70° | 99km/h | 10434m | 5.6m/s | -48.8°C | 62.8% | 258.9hPa | 2.7V | 00:00:00 | 00:00:00 | 00:00:00 | |
| DB0DAN | 2026-08-30 23:17:25 | 52.32193 | 14.55017 | 69° | 84km/h | 10418m | 5.3m/s | -48.6°C | 63% | 259.49hPa | 2.7V | 00:00:00 | 00:00:00 | 00:00:00 | |
| DF8AY | 2026-08-30 23:17:25 | 52.32193 | 14.55017 | 69° | 88km/h | 10418m | 5.3m/s | -48.6°C | 64% | 259.5hPa | 2.7V | 18:12:15 | 01:07:28 | 00:00:00 | |
| AA1-15 | 2026-08-30 23:17:21 | 52.32158 | 14.54888 | 66° | 89km/h | 10397m | 6.6m/s | -48.4°C | 65% | 260.3hPa | 2.8V | 18:12:15 | 01:07:24 | 00:00:00 | |
| DF8AY | 2026-08-30 23:17:14 | 52.32093 | 14.54625 | 69° | 99km/h | 10347m | 6m/s | -48°C | 64.1% | 262.4hPa | 2.7V | 18:12:15 | 01:07:17 | 00:00:00 | |
| EDDB2-11 | 2026-08-30 23:17:13 | 52.32084 | 14.54587 | 67° | 99km/h | 10340m | 7.3m/s | -48.0°C | 61.5% | 262.6hPa | 2.8V | 00:00:00 | 00:00:00 | 00:00:00 | |
| SP6BVK | 2026-08-30 23:17:12 | 52.32084 | 14.54587 | 69° | 99km/h | 10340m | 7.3m/s | -48.0°C | 61.6% | 262.6hPa | 2.8V | 00:00:00 | 00:00:00 | 00:00:00 | |
| DB0DAN | 2026-08-30 23:17:10 | 52.32055 | 14.54480 | 66° | 84km/h | 10324m | 4.2m/s | -47.9°C | 62.4% | 263.31hPa | 2.8V | 00:00:00 | 00:00:00 | 00:00:00 | |
| AA1-15 | 2026-08-30 23:17:10 | 52.32055 | 14.54480 | 66° | 88km/h | 10324m | 4.2m/s | -47.9°C | 64.2% | 263.3hPa | 2.8V | 18:12:15 | 01:07:13 | 00:00:00 | |
| DF8AY | 2026-08-30 23:17:03 | 52.31996 | 14.54244 | 65° | 93km/h | 10289m | 5.9m/s | 0°C | 0% | 264.8hPa | 2.7V | 18:12:15 | 01:07:06 | 00:00:00 | |
| AA1-15 | 2026-08-30 23:16:59 | 52.31957 | 14.54103 | 65° | 93km/h | 10266m | 6.1m/s | -47.4°C | 63.6% | 265.7hPa | 2.8V | 18:12:15 | 01:07:02 | 00:00:00 | |
| SONDE2-12 | 2026-08-30 23:16:58 | 52.31948 | 14.54068 | 66° | 89km/h | 10260m | 5.0m/s | -47.4°C | 75.5% | 266.0hPa | 2.8V | 00:00:00 | 00:00:00 | 00:00:00 | |
| DF8AY | 2026-08-30 23:16:58 | 52.31905 | 14.53889 | 70° | 95km/h | 10237m | 6.4m/s | 0°C | 0% | 0hPa | 2.8V | 18:12:15 | 01:06:56 | 00:00:00 | |
| AA1-15 | 2026-08-30 23:16:49 | 52.31871 | 14.53755 | 64° | 86km/h | 10214m | 5.7m/s | -47°C | 64.8% | 267.8hPa | 2.8V | 18:12:15 | 01:06:52 | 00:00:00 | |
| DF8AY | 2026-08-30 23:16:43 | 52.31819 | 14.53556 | 71° | 95km/h | 10179m | 6.3m/s | 0°C | 0% | 0hPa | 2.8V | 18:12:15 | 01:06:46 | 00:00:00 | |
| DB0DAN | 2026-08-30 23:16:40 | 52.31799 | 14.53448 | 74° | 84km/h | 10163m | 4.7m/s | -46.6°C | 63.5% | 269.91hPa | 2.8V | 00:00:00 | 00:00:00 | 00:00:00 | |
| DF8AY | 2026-08-30 23:16:33 | 52.31747 | 14.53218 | 69° | 86km/h | 10127m | 3.7m/s | 0°C | 0% | 0hPa | 2.7V | 18:12:15 | 01:06:36 | 00:00:00 | |
| AA1-15 | 2026-08-30 23:16:27 | 52.31710 | 14.53013 | 78° | 84km/h | 10092m | 5.9m/s | -45.9°C | 64.9% | 272.8hPa | 2.7V | 18:12:15 | 01:06:30 | 00:00:00 | |
| DB0DAN | 2026-08-30 23:16:25 | 52.31700 | 14.52945 | 72° | 82km/h | 10083m | 2.4m/s | -45.8°C | 66.3% | 273.22hPa | 2.8V | 00:00:00 | 00:00:00 | 00:00:00 | |
| DF8AY | 2026-08-30 23:16:23 | 52.31685 | 14.52877 | 69° | 88km/h | 10072m | 5.7m/s | 0°C | 0% | 0hPa | 2.8V | 18:12:15 | 01:06:26 | 00:00:00 | |
| AA1-15 | 2026-08-30 23:16:15 | 52.31617 | 14.52617 | 74° | 86km/h | 10029m | 6.2m/s | -45.3°C | 66.2% | 275.5hPa | 2.7V | 18:12:15 | 01:06:18 | 00:00:00 | |
| KRY50SP-1 | 2026-08-30 23:16:12 | 52.31608 | 14.52551 | 80° | 80km/h | 10013m | 7.7m/s | -45.2°C | 63.8% | 276.0hPa | 2.8V | 00:00:00 | 00:00:00 | 00:00:00 | |
| DB0DAN | 2026-08-30 23:16:10 | 52.31591 | 14.52454 | 69° | 80km/h | 9994m | 6.4m/s | -45°C | 64.9% | 276.76hPa | 2.8V | 00:00:00 | 00:00:00 | 00:00:00 | |
| SONDE2-12 | 2026-08-30 23:15:56 | 52.31497 | 14.51980 | 74° | 91km/h | 9920m | 6.2m/s | -44.3°C | 76.1% | 279.9hPa | 2.7V | 00:00:00 | 00:00:00 | 00:00:00 | |
| DB0DAN | 2026-08-30 23:15:55 | 52.31490 | 14.51943 | 71° | 89km/h | 9914m | 4.7m/s | -44.3°C | 64.9% | 280.11hPa | 2.7V | 00:00:00 | 00:00:00 | 00:00:00 | |
| EDDB2-12 | 2026-08-30 23:15:48 | 52.31443 | 14.51694 | 71° | 86km/h | 9874m | 4.6m/s | -43.9°C | 66.0% | 281.9hPa | 2.8V | 00:00:00 | 00:00:00 | 00:00:00 | |
| DAC517 | 2026-08-30 23:15:46 | 52.31436 | 14.51660 | 73° | 88km/h | 9869m | 7.7m/s | -43.8°C | 64.5% | 282.1hPa | 2.8V | 00:00:00 | 00:00:00 | 00:00:00 | |
| 13BRC | 2026-08-30 23:15:45 | 52.31430 | 14.51626 | 75° | 88km/h | 9861m | 7.2m/s | -43.8°C | 64.7% | 282.4hPa | 2.8V | 00:00:00 | 00:00:00 | 00:00:00 | |
| DB0DAN | 2026-08-30 23:15:40 | 52.31394 | 14.51427 | 72° | 75km/h | 9822m | 3.2m/s | -43.4°C | 66.6% | 284.03hPa | 2.8V | 00:00:00 | 00:00:00 | 00:00:00 | |
| AA1-15 | 2026-08-30 23:15:37 | 52.31375 | 14.51327 | 73° | 91km/h | 9808m | 4.5m/s | -43.3°C | 66.5% | 284.5hPa | 2.7V | 18:12:15 | 01:05:40 | 00:00:00 | |
| AA1-15 | 2026-08-30 23:15:26 | 52.31286 | 14.50930 | 72° | 82km/h | 9752m | 4.8m/s | -42.8°C | 64.8% | 287hPa | 2.8V | 18:12:15 | 01:05:29 | 00:00:00 | |
| DB0DAN | 2026-08-30 23:15:25 | 52.31280 | 14.50898 | 74° | 80km/h | 9748m | 3.9m/s | -42.8°C | 65.6% | 287.16hPa | 2.8V | 00:00:00 | 00:00:00 | 00:00:00 | |
| SONDE2-12 | 2026-08-30 23:15:25 | 52.31280 | 14.50898 | 73° | 82km/h | 9748m | 3.9m/s | -42.8°C | 76.6% | 287.2hPa | 2.8V | 00:00:00 | 00:00:00 | 00:00:00 | |
| AA1-15 | 2026-08-30 23:15:15 | 52.31212 | 14.50524 | 72° | 95km/h | 9697m | 9.9m/s | -42.3°C | 67.1% | 289.4hPa | 2.8V | 18:12:15 | 01:05:18 | 00:00:00 | |
| DB0DAN | 2026-08-30 23:15:10 | 52.31175 | 14.50331 | 71° | 88km/h | 9658m | 5m/s | -42°C | 68.9% | 290.92hPa | 2.7V | 00:00:00 | 00:00:00 | 00:00:00 | |
| AA1-15 | 2026-08-30 23:14:56 | 52.31073 | 14.49835 | 73° | 93km/h | 9577m | 6.7m/s | -41.2°C | 67% | 294.5hPa | 2.7V | 18:12:15 | 01:04:59 | 00:00:00 | |
| DB0DAN | 2026-08-30 23:14:55 | 52.31066 | 14.49799 | 71° | 86km/h | 9570m | 7.3m/s | -41.2°C | 68.6% | 294.78hPa | 2.8V | 00:00:00 | 00:00:00 | 00:00:00 | |
| SONDE2-12 | 2026-08-30 23:14:54 | 52.31058 | 14.49765 | 68° | 86km/h | 9563m | 5.7m/s | -41.1°C | 80.3% | 295.0hPa | 2.8V | 00:00:00 | 00:00:00 | 00:00:00 | |
| AA1-15 | 2026-08-30 23:14:45 | 52.30983 | 14.49452 | 69° | 91km/h | 9506m | 4.7m/s | -40.6°C | 68.1% | 297.5hPa | 2.8V | 18:12:15 | 01:04:48 | 00:00:00 | |
| 13BRC | 2026-08-30 23:14:43 | 52.30975 | 14.49418 | 71° | 88km/h | 9499m | 8.4m/s | -40.6°C | 67.3% | 297.8hPa | 2.8V | 00:00:00 | 00:00:00 | 00:00:00 | |
| DB0DAN | 2026-08-30 23:14:40 | 52.30947 | 14.49285 | 72° | 84km/h | 9476m | 3.4m/s | -40.4°C | 68.5% | 298.88hPa | 2.8V | 00:00:00 | 00:00:00 | 00:00:00 | |
| EDDB2-11 | 2026-08-30 23:14:38 | 52.30932 | 14.49214 | 70° | 91km/h | 9465m | 5.8m/s | -40.3°C | 67.7% | 299.3hPa | 2.8V | 00:00:00 | 00:00:00 | 00:00:00 | |
| SP3WXH-11 | 2026-08-30 23:14:36 | 52.30915 | 14.49143 | 68° | 95km/h | 9453m | 5.9m/s | -40.2°C | 67.5% | 299.8hPa | 2.8V | 00:00:00 | 00:00:00 | 00:00:00 | |
| SONDE2-11 | 2026-08-30 23:14:33 | 52.30888 | 14.49031 | 68° | 95km/h | 9436m | 4.9m/s | -40.0°C | 67.9% | 300.6hPa | 2.8V | 00:00:00 | 00:00:00 | 00:00:00 | |
| KRY50SP-1 | 2026-08-30 23:14:32 | 52.30888 | 14.49031 | 70° | 95km/h | 9436m | 4.9m/s | -40.0°C | 68.0% | 300.6hPa | 2.8V | 00:00:00 | 00:00:00 | 00:00:00 | |
| SP6BVK | 2026-08-30 23:14:27 | 52.30837 | 14.48854 | 64° | 97km/h | 9409m | 4.8m/s | -39.8°C | 69.5% | 301.7hPa | 2.8V | 00:00:00 | 00:00:00 | 00:00:00 | |
| DB0DAN | 2026-08-30 23:14:25 | 52.30810 | 14.48743 | 71° | 93km/h | 9394m | 5.4m/s | -39.6°C | 68.1% | 302.39hPa | 2.8V | 00:00:00 | 00:00:00 | 00:00:00 | |
| SONDE2-12 | 2026-08-30 23:14:23 | 52.30793 | 14.48667 | 68° | 97km/h | 9379m | 7.3m/s | -39.5°C | 78.1% | 303.1hPa | 2.8V | 00:00:00 | 00:00:00 | 00:00:00 | |
| AA1-15 | 2026-08-30 23:14:20 | 52.30753 | 14.48521 | 67° | 99km/h | 9355m | 7.2m/s | -39.3°C | 67.3% | 304.2hPa | 2.8V | 18:12:15 | 01:04:22 | 00:00:00 | |
| DAC517 | 2026-08-30 23:14:19 | 52.30764 | 14.48558 | 66° | 97km/h | 9362m | 6.0m/s | -39.3°C | 67.5% | 303.9hPa | 2.8V | 00:00:00 | 00:00:00 | 00:00:00 | |
| KRY50SP-1 | 2026-08-30 23:14:16 | 52.30735 | 14.48449 | 71° | 91km/h | 9344m | 5.3m/s | -39.2°C | 68.0% | 304.7hPa | 2.8V | 00:00:00 | 00:00:00 | 00:00:00 | |
| EDDB2-12 | 2026-08-30 23:14:15 | 52.30721 | 14.48376 | 73° | 91km/h | 9333m | 5.2m/s | -39.1°C | 67.7% | 305.2hPa | 2.8V | 00:00:00 | 00:00:00 | 00:00:00 | |
| DB0DAN | 2026-08-30 23:14:10 | 52.30682 | 14.48196 | 66° | 88km/h | 9304m | 6.2m/s | -38.8°C | 68.3% | 306.48hPa | 2.8V | 00:00:00 | 00:00:00 | 00:00:00 | |
| AA1-15 | 2026-08-30 23:14:08 | 52.30660 | 14.48128 | 61° | 91km/h | 9294m | 5m/s | -38.8°C | 67.9% | 307hPa | 2.7V | 18:12:15 | 01:04:11 | 00:00:00 | |
| AA1-15 | 2026-08-30 23:13:57 | 52.30564 | 14.47750 | 68° | 93km/h | 9231m | 5.5m/s | -38.5°C | 69.5% | 309.9hPa | 2.8V | 18:12:15 | 01:04:00 | 00:00:00 | |
| DB0DAN | 2026-08-30 23:13:55 | 52.30546 | 14.47679 | 66° | 89km/h | 9221m | 4.3m/s | -38.4°C | 70.9% | 310.46hPa | 2.7V | 00:00:00 | 00:00:00 | 00:00:00 | |
| SONDE2-12 | 2026-08-30 23:13:52 | 52.30516 | 14.47581 | 60° | 80km/h | 9202m | 4.7m/s | -38.2°C | 80.1% | 311.1hPa | 2.7V | 00:00:00 | 00:00:00 | 00:00:00 | |
| MECKS9 | 2026-08-30 23:13:48 | 52.30480 | 14.47493 | 57° | 88km/h | 9181m | 7.5m/s | -38.1°C | 0% | 312.1hPa | 2.7V | 00:00:00 | 00:00:00 | 00:00:00 | |
| SP6BVK | 2026-08-30 23:13:46 | 52.30458 | 14.47434 | 63° | 82km/h | 9168m | 6.5m/s | -38.0°C | 69.5% | 312.7hPa | 2.7V | 00:00:00 | 00:00:00 | 00:00:00 | |
| EDDB2-12 | 2026-08-30 23:13:44 | 52.30423 | 14.47308 | 66° | 86km/h | 9145m | 4.2m/s | -37.9°C | 69.6% | 313.8hPa | 2.7V | 00:00:00 | 00:00:00 | 00:00:00 | |
| DB0DAN | 2026-08-30 23:13:40 | 52.30394 | 14.47212 | 60° | 80km/h | 9130m | 4.8m/s | -37.8°C | 70.3% | 314.48hPa | 2.7V | 00:00:00 | 00:00:00 | 00:00:00 | |
| SP3BTT-10 | 2026-08-30 23:13:37 | 52.30362 | 14.47126 | 59° | 69km/h | 9111m | 4.9m/s | -37.6°C | 84.1% | 315.1hPa | 2.7V | 00:00:00 | 00:00:00 | 00:00:00 | |
| EDDB2-11 | 2026-08-30 23:13:36 | 52.30352 | 14.47100 | 57° | 77km/h | 9106m | 5.3m/s | -37.6°C | 71.1% | 315.4hPa | 2.7V | 00:00:00 | 00:00:00 | 00:00:00 | |
| SP3WXH-11 | 2026-08-30 23:13:34 | 52.30329 | 14.47044 | 56° | 84km/h | 9095m | 4.8m/s | -37.5°C | -1.0% | 316.0hPa | 2.7V | 00:00:00 | 00:00:00 | 00:00:00 | |
| SONDE2-11 | 2026-08-30 23:13:31 | 52.30293 | 14.46955 | 56° | 88km/h | 9081m | 5.0m/s | -37.4°C | 69.8% | 316.6hPa | 2.7V | 00:00:00 | 00:00:00 | 00:00:00 | |
| DB0DAN | 2026-08-30 23:13:25 | 52.30219 | 14.46777 | 60° | 73km/h | 9046m | 7.5m/s | -37.1°C | 69.1% | 318.16hPa | 2.7V | 00:00:00 | 00:00:00 | 00:00:00 | |
| SONDE2-12 | 2026-08-30 23:13:21 | 52.30185 | 14.46668 | 60° | 77km/h | 9022m | 2.1m/s | -36.9°C | 81.8% | 319.4hPa | 2.7V | 00:00:00 | 00:00:00 | 00:00:00 | |
| 13BRC | 2026-08-30 23:13:20 | 52.30185 | 14.46668 | 61° | 77km/h | 9022m | 2.1m/s | -36.9°C | 71.7% | 319.4hPa | 2.7V | 00:00:00 | 00:00:00 | 00:00:00 | |
| MECKS9 | 2026-08-30 23:13:16 | 52.30140 | 14.46564 | 53° | 78km/h | 9000m | 5.6m/s | 0°C | 0% | 320.4hPa | 2.7V | 00:00:00 | 00:00:00 | 00:00:00 | |
| DL2RXE-15 | 2026-08-30 23:13:13 | 52.30099 | 14.46482 | 54° | 93km/h | 8986m | 3.2m/s | -36.7°C | 0% | 321.1hPa | 2.7V | 00:00:00 | 00:00:00 | 00:00:00 | |
| DB0DAN | 2026-08-30 23:13:10 | 52.30050 | 14.46366 | 60° | 69km/h | 8967m | 6.2m/s | -36.5°C | 69.9% | 321.9hPa | 2.7V | 00:00:00 | 00:00:00 | 00:00:00 | |
| AA1-15 | 2026-08-30 23:13:08 | 52.30033 | 14.46316 | 63° | 66km/h | 8952m | 6m/s | -36.4°C | 69.7% | 322.5hPa | 2.9V | 18:12:15 | 01:03:11 | 00:00:00 | |
| AA1-15 | 2026-08-30 23:12:56 | 52.29912 | 14.46016 | 59° | 64km/h | 8885m | 6.7m/s | -35.9°C | 69.6% | 325.7hPa | 2.9V | 18:12:15 | 01:02:59 | 00:00:00 | |
| SONDE2-12 | 2026-08-30 23:12:50 | 52.29858 | 14.45872 | 55° | 77km/h | 8848m | 7.4m/s | -35.7°C | 80.5% | 327.5hPa | 2.9V | 00:00:00 | 00:00:00 | 00:00:00 | |
| AA1-15 | 2026-08-30 23:12:45 | 52.29802 | 14.45744 | 56° | 71km/h | 8814m | 10m/s | -35.4°C | 70% | 329hPa | 2.9V | 18:12:15 | 01:02:48 | 00:00:00 | |
| DL2RXE-15 | 2026-08-30 23:12:44 | 52.29802 | 14.45744 | 57° | 71km/h | 8814m | 10.0m/s | -35.4°C | 0% | 0hPa | 2.8V | 00:00:00 | 00:00:00 | 00:00:00 | |
| DB0DAN | 2026-08-30 23:12:40 | 52.29760 | 14.45629 | 56° | 60km/h | 8777m | 6.7m/s | -35.2°C | 71.9% | 330.72hPa | 2.8V | 00:00:00 | 00:00:00 | 00:00:00 | |
| AA1-15 | 2026-08-30 23:12:35 | 52.29721 | 14.45514 | 65° | 68km/h | 8748m | 9.4m/s | -34.9°C | 70.6% | 332.1hPa | 2.9V | 18:12:15 | 01:02:38 | 00:00:00 | |
| DAC517 | 2026-08-30 23:12:34 | 52.29713 | 14.45489 | 60° | 69km/h | 8741m | 6.4m/s | -34.9°C | 70.5% | 332.5hPa | 2.9V | 00:00:00 | 00:00:00 | 00:00:00 | |
| SONDE2-11 | 2026-08-30 23:12:29 | 52.29661 | 14.45375 | 48° | 64km/h | 8713m | 4.7m/s | -34.7°C | 70.9% | 333.8hPa | 2.9V | 00:00:00 | 00:00:00 | 00:00:00 | |
| KRY50SP-1 | 2026-08-30 23:12:28 | 52.29661 | 14.45375 | 49° | 64km/h | 8713m | 4.7m/s | -34.7°C | 71.0% | 333.8hPa | 2.9V | 00:00:00 | 00:00:00 | 00:00:00 | |
| DB0DAN | 2026-08-30 23:12:25 | 52.29624 | 14.45286 | 65° | 62km/h | 8695m | 6.9m/s | -34.5°C | 71.4% | 334.8hPa | 2.9V | 00:00:00 | 00:00:00 | 00:00:00 | |
| AA1-15 | 2026-08-30 23:12:24 | 52.29618 | 14.45262 | 70° | 60km/h | 8686m | 11.1m/s | -34.4°C | 70.6% | 335hPa | 2.8V | 18:12:15 | 01:02:27 | 00:00:00 | |
| SONDE2-12 | 2026-08-30 23:12:19 | 52.29584 | 14.45134 | 57° | 71km/h | 8658m | 4.5m/s | -34.2°C | 81.9% | 336.4hPa | 2.9V | 00:00:00 | 00:00:00 | 00:00:00 | |
| AA1-15 | 2026-08-30 23:12:13 | 52.29526 | 14.44991 | 59° | 66km/h | 8625m | 8m/s | -34.1°C | 71.3% | 338.1hPa | 2.9V | 18:12:15 | 01:02:16 | 00:00:00 | |
| DB0DAN | 2026-08-30 23:12:10 | 52.29501 | 14.44918 | 62° | 68km/h | 8605m | 3.7m/s | -34°C | 74.2% | 339.04hPa | 2.9V | 00:00:00 | 00:00:00 | 00:00:00 | |
| AA1-15 | 2026-08-30 23:12:02 | 52.29441 | 14.44715 | 71° | 68km/h | 8565m | 5.8m/s | -33.7°C | 72.5% | 341.1hPa | 2.9V | 18:12:15 | 01:02:05 | 00:00:00 | |
| SONDE2-11 | 2026-08-30 23:11:58 | 52.29420 | 14.44604 | 74° | 69km/h | 8544m | 6.5m/s | -33.5°C | 72.8% | 342.2hPa | 2.9V | 00:00:00 | 00:00:00 | 00:00:00 | |
| DB0DAN | 2026-08-30 23:11:55 | 52.29405 | 14.44527 | 67° | 62km/h | 8526m | 4.1m/s | -33.3°C | 73.6% | 342.97hPa | 2.9V | 00:00:00 | 00:00:00 | 00:00:00 | |
| SONDE2-12 | 2026-08-30 23:11:48 | 52.29353 | 14.44332 | 67° | 75km/h | 8490m | 6.3m/s | -33.0°C | 81.8% | 344.8hPa | 2.9V | 00:00:00 | 00:00:00 | 00:00:00 | |
| KRY50SP-1 | 2026-08-30 23:11:45 | 52.29338 | 14.44273 | 68° | 77km/h | 8477m | 6.8m/s | -32.9°C | 74.0% | 345.4hPa | 2.9V | 00:00:00 | 00:00:00 | 00:00:00 | |
| SP6BVK | 2026-08-30 23:11:44 | 52.29330 | 14.44245 | 68° | 73km/h | 8472m | 3.9m/s | -32.9°C | 73.9% | 345.6hPa | 2.9V | 00:00:00 | 00:00:00 | 00:00:00 | |
| DB0DAN | 2026-08-30 23:11:40 | 52.29297 | 14.44122 | 67° | 62km/h | 8446m | 4.7m/s | -32.7°C | 74.1% | 346.82hPa | 2.9V | 00:00:00 | 00:00:00 | 00:00:00 | |
| AA1-15 | 2026-08-30 23:11:36 | 52.29269 | 14.44015 | 68° | 73km/h | 8424m | 5.9m/s | -32.5°C | 72.6% | 347.9hPa | 2.9V | 18:12:15 | 01:01:39 | 00:00:00 | |
| KRY50SP-1 | 2026-08-30 23:11:34 | 52.29262 | 14.43987 | 70° | 75km/h | 8417m | 7.7m/s | -32.4°C | 74.3% | 348.1hPa | 2.9V | 00:00:00 | 00:00:00 | 00:00:00 | |
| DAC517 | 2026-08-30 23:11:32 | 52.29228 | 14.43853 | 66° | 71km/h | 8387m | 6.7m/s | -32.2°C | 74.2% | 349.6hPa | 2.9V | 00:00:00 | 00:00:00 | 00:00:00 | |
| KRY50SP-1 | 2026-08-30 23:11:28 | 52.29220 | 14.43825 | 65° | 75km/h | 8381m | 5.2m/s | -32.2°C | 74.3% | 349.8hPa | 2.9V | 00:00:00 | 00:00:00 | 00:00:00 | |
| DB0DAN | 2026-08-30 23:11:25 | 52.29189 | 14.43711 | 67° | 75km/h | 8362m | 5.6m/s | -32°C | 73.9% | 350.88hPa | 2.9V | 00:00:00 | 00:00:00 | 00:00:00 | |
| AA1-15 | 2026-08-30 23:11:25 | 52.29189 | 14.43711 | 67° | 78km/h | 8361m | 5.6m/s | -32°C | 74.3% | 350.9hPa | 2.9V | 18:12:15 | 01:01:28 | 00:00:00 | |
| SONDE2-12 | 2026-08-30 23:11:17 | 52.29125 | 14.43451 | 71° | 73km/h | 8318m | 4.7m/s | -31.7°C | 83.9% | 353.3hPa | 2.9V | 00:00:00 | 00:00:00 | 00:00:00 | |
| DB0DAN | 2026-08-30 23:11:10 | 52.29090 | 14.43266 | 71° | 75km/h | 8291m | 4.9m/s | -31.5°C | 74.4% | 354.59hPa | 2.9V | 00:00:00 | 00:00:00 | 00:00:00 | |
| DAC517 | 2026-08-30 23:11:08 | 52.29084 | 14.43235 | 72° | 78km/h | 8285m | 6.5m/s | -31.5°C | 73.8% | 354.9hPa | 2.7V | 00:00:00 | 00:00:00 | 00:00:00 | |
| DL2RXE-15 | 2026-08-30 23:11:07 | 52.29077 | 14.43204 | 72° | 77km/h | 8279m | 7.3m/s | -31.4°C | 0% | 0hPa | 2.7V | 00:00:00 | 00:00:00 | 00:00:00 | |
| KRY50SP-1 | 2026-08-30 23:11:06 | 52.29071 | 14.43175 | 70° | 77km/h | 8271m | 8.9m/s | -31.4°C | 74.0% | 355.6hPa | 2.7V | 00:00:00 | 00:00:00 | 00:00:00 | |
| SP6BVK | 2026-08-30 23:11:03 | 52.29049 | 14.43085 | 72° | 78km/h | 8253m | 7.2m/s | -31.3°C | 75.1% | 356.5hPa | 2.7V | 00:00:00 | 00:00:00 | 00:00:00 | |
| SONDE2-12 | 2026-08-30 23:10:46 | 52.28918 | 14.42500 | 72° | 77km/h | 8147m | 4.8m/s | -30.5°C | 85.4% | 361.8hPa | 2.7V | 00:00:00 | 00:00:00 | 00:00:00 | |
| KRY50SP-1 | 2026-08-30 23:10:44 | 52.28918 | 14.42500 | 73° | 78km/h | 8147m | 4.8m/s | -30.5°C | 76.6% | 361.8hPa | 2.7V | 00:00:00 | 00:00:00 | 00:00:00 | |
| SP6BVK | 2026-08-30 23:10:43 | 52.28912 | 14.42469 | 74° | 80km/h | 8142m | 4.5m/s | -30.4°C | 76.7% | 361.9hPa | 2.7V | 00:00:00 | 00:00:00 | 00:00:00 | |
| DB0DAN | 2026-08-30 23:10:40 | 52.28888 | 14.42347 | 73° | 73km/h | 8123m | 4.5m/s | -30.3°C | 77% | 362.94hPa | 2.7V | 00:00:00 | 00:00:00 | 00:00:00 | |
| AA1-15 | 2026-08-30 23:10:37 | 52.28868 | 14.42253 | 72° | 82km/h | 8108m | 6.1m/s | -30.1°C | 75.6% | 363.7hPa | 2.9V | 18:12:15 | 01:00:40 | 00:00:00 | |
| AA1-15 | 2026-08-30 23:10:26 | 52.28794 | 14.41891 | 66° | 84km/h | 8045m | 2.9m/s | -29.7°C | 75.2% | 366.9hPa | 2.9V | 18:12:15 | 01:00:29 | 00:00:00 | |
| DB0DAN | 2026-08-30 23:10:25 | 52.28786 | 14.41860 | 68° | 78km/h | 8042m | 4.1m/s | -29.6°C | 77.2% | 367.12hPa | 2.9V | 00:00:00 | 00:00:00 | 00:00:00 | |
| SONDE2-12 | 2026-08-30 23:10:15 | 52.28706 | 14.41499 | 67° | 78km/h | 7991m | 5.1m/s | -29.3°C | 87.2% | 369.8hPa | 2.9V | 00:00:00 | 00:00:00 | 00:00:00 | |
| 13BRC | 2026-08-30 23:10:14 | 52.28714 | 14.41530 | 69° | 80km/h | 7996m | 5.9m/s | -29.3°C | 78.4% | 369.6hPa | 2.9V | 00:00:00 | 00:00:00 | 00:00:00 | |
| DB0DAN | 2026-08-30 23:10:10 | 52.28674 | 14.41380 | 66° | 78km/h | 7970m | 3.8m/s | -29.1°C | 78.7% | 370.83hPa | 2.9V | 00:00:00 | 00:00:00 | 00:00:00 | |
| AA1-15 | 2026-08-30 23:10:02 | 52.28617 | 14.41129 | 71° | 86km/h | 7928m | 5.5m/s | -28.8°C | 78.3% | 373hPa | 2.9V | 18:12:15 | 01:00:05 | 00:00:00 | |
| SP6BVK | 2026-08-30 23:10:02 | 52.28623 | 14.41161 | 72° | 82km/h | 7934m | 5.6m/s | -28.8°C | 79.4% | 372.7hPa | 2.9V | 00:00:00 | 00:00:00 | 00:00:00 | |
| EDDB2-11 | 2026-08-30 23:09:59 | 52.28588 | 14.40996 | 71° | 84km/h | 7908m | 5.2m/s | -28.6°C | 78.1% | 374.1hPa | 2.9V | 00:00:00 | 00:00:00 | 00:00:00 | |
| DL2RXE-15 | 2026-08-30 23:09:57 | 52.28588 | 14.40996 | 72° | 86km/h | 7908m | 5.2m/s | -28.6°C | 0% | 374.1hPa | 2.9V | 00:00:00 | 00:00:00 | 00:00:00 | |
| DB0DAN | 2026-08-30 23:09:55 | 52.28569 | 14.40899 | 74° | 75km/h | 7891m | 5.1m/s | -28.5°C | 77.9% | 374.98hPa | 2.9V | 00:00:00 | 00:00:00 | 00:00:00 | |
| SONDE2-11 | 2026-08-30 23:09:54 | 52.28564 | 14.40868 | 73° | 77km/h | 7886m | 5.5m/s | -28.4°C | 77.5% | 375.2hPa | 2.7V | 00:00:00 | 00:00:00 | 00:00:00 | |
| SONDE2-12 | 2026-08-30 23:09:44 | 52.28493 | 14.40523 | 66° | 84km/h | 7831m | 7.6m/s | -28.0°C | 85.8% | 378.0hPa | 2.7V | 00:00:00 | 00:00:00 | 00:00:00 | |
| DB0DAN | 2026-08-30 23:09:40 | 52.28474 | 14.40431 | 75° | 73km/h | 7811m | 6.3m/s | -27.9°C | 78.5% | 379.03hPa | 2.7V | 00:00:00 | 00:00:00 | 00:00:00 | |
| EDDB2-12 | 2026-08-30 23:09:35 | 52.28448 | 14.40279 | 71° | 75km/h | 7784m | 7.3m/s | -27.7°C | 77.2% | 380.5hPa | 2.9V | 00:00:00 | 00:00:00 | 00:00:00 | |
| 13BRC | 2026-08-30 23:09:34 | 52.28441 | 14.40249 | 71° | 77km/h | 7777m | 6.5m/s | -27.6°C | 77.2% | 380.8hPa | 2.9V | 00:00:00 | 00:00:00 | 00:00:00 | |
| KRY50SP-1 | 2026-08-30 23:09:30 | 52.28420 | 14.40155 | 71° | 88km/h | 7762m | 3.8m/s | -27.4°C | 78.2% | 381.8hPa | 2.9V | 00:00:00 | 00:00:00 | 00:00:00 | |
| DL2RXE-15 | 2026-08-30 23:09:28 | 52.28403 | 14.40087 | 69° | 89km/h | 7754m | 5.4m/s | -27.4°C | 0% | 0hPa | 2.9V | 00:00:00 | 00:00:00 | 00:00:00 | |
| DB0DAN | 2026-08-30 23:09:25 | 52.28373 | 14.39941 | 77° | 93km/h | 7737m | 3.4m/s | -27.2°C | 78% | 383.26hPa | 2.9V | 00:00:00 | 00:00:00 | 00:00:00 | |
| AA1-15 | 2026-08-30 23:09:22 | 52.28361 | 14.39831 | 78° | 82km/h | 7722m | 6.4m/s | -27.1°C | 78.2% | 384hPa | 2.9V | 18:12:15 | 00:59:25 | 00:00:00 | |
| SONDE2-12 | 2026-08-30 23:09:13 | 52.28291 | 14.39497 | 75° | 86km/h | 7667m | 3.2m/s | -26.7°C | 85.7% | 386.9hPa | 2.9V | 00:00:00 | 00:00:00 | 00:00:00 | |
| 13BRC | 2026-08-30 23:09:12 | 52.28298 | 14.39533 | 74° | 95km/h | 7672m | 6.1m/s | -26.8°C | 77.1% | 386.7hPa | 2.9V | 00:00:00 | 00:00:00 | 00:00:00 | |
| DB0DAN | 2026-08-30 23:09:10 | 52.28280 | 14.39430 | 77° | 77km/h | 7657m | 4.3m/s | -26.7°C | 77.4% | 387.48hPa | 2.9V | 00:00:00 | 00:00:00 | 00:00:00 | |
| KRY50SP-1 | 2026-08-30 23:09:09 | 52.28280 | 14.39430 | 78° | 80km/h | 7657m | 4.3m/s | -26.7°C | 77.5% | 387.5hPa | 2.9V | 00:00:00 | 00:00:00 | 00:00:00 | |
| DL2RXE-15 | 2026-08-30 23:09:08 | 52.28275 | 14.39397 | 76° | 82km/h | 7652m | 5.2m/s | -26.6°C | 0% | 0hPa | 2.9V | 00:00:00 | 00:00:00 | 00:00:00 | |
| KRY50SP-1 | 2026-08-30 23:09:04 | 52.28255 | 14.39266 | 80° | 86km/h | 7628m | 6.8m/s | -27.0°C | 75.2% | 389.0hPa | 2.9V | 00:00:00 | 00:00:00 | 00:00:00 | |
| EDDB2-11 | 2026-08-30 23:08:57 | 52.28195 | 14.38964 | 65° | 95km/h | 7577m | 8.4m/s | -28.0°C | 64.3% | 391.6hPa | 2.9V | 00:00:00 | 00:00:00 | 00:00:00 | |
| DB0DAN | 2026-08-30 23:08:55 | 52.28185 | 14.38928 | 66° | 88km/h | 7570m | 7m/s | -28.1°C | 62.1% | 392.03hPa | 2.9V | 00:00:00 | 00:00:00 | 00:00:00 | |
| SONDE2-11 | 2026-08-30 23:08:52 | 52.28155 | 14.38831 | 58° | 86km/h | 7551m | 6.5m/s | -28.0°C | 60.0% | 393.1hPa | 2.9V | 00:00:00 | 00:00:00 | 00:00:00 | |
| SONDE2-12 | 2026-08-30 23:08:42 | 52.28015 | 14.38494 | 62° | 95km/h | 7492m | 5.0m/s | -27.4°C | 66.5% | 396.6hPa | 2.9V | 00:00:00 | 00:00:00 | 00:00:00 | |
| DB0DAN | 2026-08-30 23:08:40 | 52.28004 | 14.38459 | 63° | 91km/h | 7486m | 5.9m/s | -27.3°C | 59.7% | 396.84hPa | 2.9V | 00:00:00 | 00:00:00 | 00:00:00 | |
| AA1-15 | 2026-08-30 23:08:36 | 52.27949 | 14.38294 | 63° | 80km/h | 7459m | 4.3m/s | -27.1°C | 59% | 398.3hPa | 2.9V | 18:12:15 | 00:58:38 | 00:00:00 | |
| EDDB2-12 | 2026-08-30 23:08:33 | 52.27930 | 14.38239 | 58° | 73km/h | 7449m | 4.4m/s | -27.0°C | 61.0% | 398.9hPa | 2.9V | 00:00:00 | 00:00:00 | 00:00:00 | |
| 13BRC | 2026-08-30 23:08:31 | 52.27920 | 14.38214 | 55° | 73km/h | 7445m | 4.0m/s | -27.0°C | 61.3% | 399.0hPa | 2.9V | 00:00:00 | 00:00:00 | 00:00:00 | |
| KRY50SP-1 | 2026-08-30 23:08:30 | 52.27909 | 14.38189 | 56° | 77km/h | 7441m | 4.2m/s | -26.9°C | 60.4% | 399.2hPa | 2.9V | 00:00:00 | 00:00:00 | 00:00:00 | |
| DB0DAN | 2026-08-30 23:08:25 | 52.27843 | 14.38000 | 57° | 88km/h | 7405m | 5.6m/s | -26.6°C | 55.9% | 401.29hPa | 2.9V | 00:00:00 | 00:00:00 | 00:00:00 | |
| AA1-15 | 2026-08-30 23:08:25 | 52.27843 | 14.38000 | 57° | 93km/h | 7405m | 5.6m/s | -26.6°C | 56% | 401.3hPa | 2.9V | 18:12:15 | 00:58:28 | 00:00:00 | |
| AA1-15 | 2026-08-30 23:08:13 | 52.27699 | 14.37650 | 60° | 78km/h | 7333m | 6.8m/s | -25.9°C | 51.3% | 405.2hPa | 2.9V | 18:12:15 | 00:58:16 | 00:00:00 | |
| DB0DAN | 2026-08-30 23:08:10 | 52.27663 | 14.37563 | 56° | 86km/h | 7314m | 5.4m/s | -25.7°C | 49.3% | 406.43hPa | 2.9V | 00:00:00 | 00:00:00 | 00:00:00 | |
| KRY50SP-1 | 2026-08-30 23:08:08 | 52.27650 | 14.37530 | 59° | 97km/h | 7308m | 6.7m/s | -25.6°C | 49.6% | 406.7hPa | 2.7V | 00:00:00 | 00:00:00 | 00:00:00 | |
| KRY50SP-1 | 2026-08-30 23:08:03 | 52.27588 | 14.37353 | 58° | 99km/h | 7279m | 5.5m/s | -25.3°C | 48.1% | 408.3hPa | 2.7V | 00:00:00 | 00:00:00 | 00:00:00 | |
| EDDB2-12 | 2026-08-30 23:08:02 | 52.27561 | 14.37291 | 56° | 84km/h | 7267m | 6.3m/s | -25.2°C | 48.1% | 409.0hPa | 2.7V | 00:00:00 | 00:00:00 | 00:00:00 | |
| DAC517 | 2026-08-30 23:08:01 | 52.27540 | 14.37236 | 58° | 73km/h | 7255m | 6.7m/s | -25.1°C | 45.8% | 409.6hPa | 2.7V | 00:00:00 | 00:00:00 | 00:00:00 | |
| KRY50SP-1 | 2026-08-30 23:07:58 | 52.27530 | 14.37212 | 55° | 71km/h | 7248m | 7.2m/s | -25.1°C | 45.5% | 410.0hPa | 2.7V | 00:00:00 | 00:00:00 | 00:00:00 | |
| DB0DAN | 2026-08-30 23:07:55 | 52.27481 | 14.37102 | 59° | 88km/h | 7224m | 6.7m/s | -24.9°C | 44.6% | 411.25hPa | 2.7V | 00:00:00 | 00:00:00 | 00:00:00 | |
| EDDB2-11 | 2026-08-30 23:07:55 | 52.27470 | 14.37068 | 63° | 91km/h | 7217m | 6.9m/s | -24.8°C | 45.0% | 411.7hPa | 2.9V | 00:00:00 | 00:00:00 | 00:00:00 | |
| MECKS9 | 2026-08-30 23:07:54 | 52.27481 | 14.37101 | 60° | 93km/h | 7224m | 6.7m/s | 0°C | 0% | 411.3hPa | 2.9V | 00:00:00 | 00:00:00 | 00:00:00 | |
| KRY50SP-1 | 2026-08-30 23:07:53 | 52.27469 | 14.37068 | 64° | 91km/h | 7217m | 6.9m/s | -24.8°C | 45.0% | 411.7hPa | 2.9V | 00:00:00 | 00:00:00 | 00:00:00 | |
| DL2RXE-15 | 2026-08-30 23:07:51 | 52.27451 | 14.37001 | 68° | 84km/h | 7204m | 7.3m/s | -24.6°C | 0% | 0hPa | 2.9V | 00:00:00 | 00:00:00 | 00:00:00 | |
| SP3BTT-10 | 2026-08-30 23:07:50 | 52.27433 | 14.36942 | 60° | 77km/h | 7189m | 7.1m/s | -24.5°C | 48.0% | 413.1hPa | 2.9V | 00:00:00 | 00:00:00 | 00:00:00 | |
| KRY50SP-1 | 2026-08-30 23:07:47 | 52.27412 | 14.36892 | 54° | 73km/h | 7176m | 6.1m/s | -24.4°C | 40.1% | 414.0hPa | 2.9V | 00:00:00 | 00:00:00 | 00:00:00 | |
| AA1-15 | 2026-08-30 23:07:30 | 52.27253 | 14.36362 | 69° | 78km/h | 7070m | 5.5m/s | -23.6°C | 38.7% | 420hPa | 2.9V | 18:12:15 | 00:57:33 | 00:00:00 | |
| DB0DAN | 2026-08-30 23:07:25 | 52.27205 | 14.36213 | 59° | 75km/h | 7041m | 6m/s | -23.3°C | 35% | 421.82hPa | 2.9V | 00:00:00 | 00:00:00 | 00:00:00 | |
| AA1-15 | 2026-08-30 23:07:19 | 52.27156 | 14.36052 | 70° | 75km/h | 7011m | 5m/s | -23.1°C | 35.7% | 423.5hPa | 2.9V | 18:12:15 | 00:57:22 | 00:00:00 | |
| SONDE2-11 | 2026-08-30 23:07:19 | 52.27156 | 14.36052 | 70° | 73km/h | 7011m | 5.0m/s | -23.1°C | 34.2% | 423.5hPa | 2.9V | 00:00:00 | 00:00:00 | 00:00:00 | |
| KRY50SP-1 | 2026-08-30 23:07:15 | 52.27137 | 14.35964 | 69° | 78km/h | 6997m | 4.6m/s | -23.0°C | 34.3% | 424.3hPa | 2.9V | 00:00:00 | 00:00:00 | 00:00:00 | |
| DB0DAN | 2026-08-30 23:07:10 | 52.27088 | 14.35805 | 55° | 58km/h | 6961m | 7.1m/s | -22.6°C | 34.3% | 426.24hPa | 2.9V | 00:00:00 | 00:00:00 | 00:00:00 | |
| AA1-15 | 2026-08-30 23:07:09 | 52.27068 | 14.35764 | 51° | 69km/h | 6948m | 4.6m/s | -22.6°C | 38% | 427.1hPa | 2.9V | 18:12:15 | 00:57:11 | 00:00:00 | |
| AA1-15 | 2026-08-30 23:06:57 | 52.26966 | 14.35472 | 57° | 69km/h | 6884m | 5.3m/s | -22.1°C | 44.2% | 430.9hPa | 2.9V | 18:12:15 | 00:57:00 | 00:00:00 | |
| DB0DAN | 2026-08-30 23:06:55 | 52.26946 | 14.35425 | 54° | 66km/h | 6874m | 4.7m/s | -22°C | 42.9% | 431.58hPa | 2.9V | 00:00:00 | 00:00:00 | 00:00:00 | |
| AA1-15 | 2026-08-30 23:06:47 | 52.26886 | 14.35237 | 69° | 66km/h | 6832m | 5.9m/s | -21.7°C | 43.3% | 434hPa | 2.9V | 18:12:15 | 00:56:50 | 00:00:00 | |
| DL2RXE-15 | 2026-08-30 23:06:43 | 52.26871 | 14.35169 | 72° | 57km/h | 6817m | 5.0m/s | -21.6°C | 0% | 0hPa | 2.9V | 00:00:00 | 00:00:00 | 00:00:00 | |
| KRY50SP-1 | 2026-08-30 23:06:42 | 52.26866 | 14.35147 | 72° | 57km/h | 6811m | 6.1m/s | -21.6°C | 41.5% | 435.2hPa | 2.9V | 00:00:00 | 00:00:00 | 00:00:00 | |
| DB0DAN | 2026-08-30 23:06:40 | 52.26850 | 14.35081 | 66° | 55km/h | 6796m | 5.6m/s | -21.4°C | 41% | 436.15hPa | 2.9V | 00:00:00 | 00:00:00 | 00:00:00 | |
| SONDE2-12 | 2026-08-30 23:06:37 | 52.26834 | 14.35012 | 73° | 62km/h | 6780m | 5.5m/s | -21.3°C | 44.1% | 437.1hPa | 2.9V | 00:00:00 | 00:00:00 | 00:00:00 | |
| AA1-15 | 2026-08-30 23:06:36 | 52.26829 | 14.34988 | 73° | 60km/h | 6774m | 4.9m/s | -21.2°C | 41.9% | 437.4hPa | 2.9V | 18:12:15 | 00:56:39 | 00:00:00 | |
| 13BRC | 2026-08-30 23:06:29 | 52.26799 | 14.34856 | 77° | 62km/h | 6738m | 5.7m/s | -20.9°C | 39.0% | 439.5hPa | 2.9V | 00:00:00 | 00:00:00 | 00:00:00 | |
| KRY50SP-1 | 2026-08-30 23:06:27 | 52.26792 | 14.34804 | 81° | 66km/h | 6728m | 4.2m/s | -20.8°C | 38.3% | 440.1hPa | 2.9V | 00:00:00 | 00:00:00 | 00:00:00 | |
| DB0DAN | 2026-08-30 23:06:25 | 52.26779 | 14.34727 | 66° | 62km/h | 6714m | 5.5m/s | -20.7°C | 37.7% | 440.94hPa | 2.9V | 00:00:00 | 00:00:00 | 00:00:00 | |
| KRY50SP-1 | 2026-08-30 23:06:21 | 52.26757 | 14.34656 | 63° | 66km/h | 6698m | 5.6m/s | -20.5°C | 36.3% | 441.9hPa | 2.9V | 00:00:00 | 00:00:00 | 00:00:00 | |
| SP3BTT-10 | 2026-08-30 23:06:20 | 52.26742 | 14.34608 | 65° | 64km/h | 6688m | 3.4m/s | -20.4°C | 39.3% | 442.5hPa | 2.9V | 00:00:00 | 00:00:00 | 08:30:00 | |
| DL2RXE-15 | 2026-08-30 23:06:16 | 52.26723 | 14.34540 | 71° | 55km/h | 6673m | 5.1m/s | 0°C | 0% | 0hPa | 2.9V | 00:00:00 | 00:00:00 | 00:00:00 | |
| DB0DAN | 2026-08-30 23:06:10 | 52.26689 | 14.34382 | 65° | 57km/h | 6640m | 5.6m/s | -20°C | 31.3% | 445.51hPa | 2.9V | 00:00:00 | 00:00:00 | 00:00:00 | |
| SONDE2-12 | 2026-08-30 23:06:06 | 52.26658 | 14.34305 | 57° | 55km/h | 6621m | 5.4m/s | -19.8°C | 33.0% | 446.7hPa | 2.9V | 00:00:00 | 00:00:00 | 00:00:00 | |
| EDDB2-12 | 2026-08-30 23:05:58 | 52.26604 | 14.34107 | 58° | 66km/h | 6580m | 5.7m/s | -19.4°C | 28.5% | 449.1hPa | 2.9V | 00:00:00 | 00:00:00 | 00:00:00 | |
| DB0DAN | 2026-08-30 23:05:55 | 52.26577 | 14.34036 | 59° | 64km/h | 6567m | 3.6m/s | -19.3°C | 28.8% | 449.99hPa | 2.9V | 00:00:00 | 00:00:00 | 00:00:00 | |
| EDDB2-11 | 2026-08-30 23:05:50 | 52.26540 | 14.33920 | 66° | 68km/h | 6539m | 7.1m/s | -19.0°C | 26.3% | 451.6hPa | 2.9V | 00:00:00 | 00:00:00 | 00:00:00 | |
| SONDE2-11 | 2026-08-30 23:05:46 | 52.26515 | 14.33827 | 70° | 51km/h | 6511m | 7.6m/s | -18.7°C | 24.4% | 453.2hPa | 2.9V | 00:00:00 | 00:00:00 | 00:00:00 | |
| KRY50SP-1 | 2026-08-30 23:05:43 | 52.26507 | 14.33786 | 73° | 55km/h | 6495m | 8.5m/s | -18.6°C | 26.0% | 454.2hPa | 2.9V | 00:00:00 | 00:00:00 | 00:00:00 | |
| DB0DAN | 2026-08-30 23:05:40 | 52.26489 | 14.33691 | 77° | 64km/h | 6470m | 6.8m/s | -18.3°C | 24.5% | 455.75hPa | 2.9V | 00:00:00 | 00:00:00 | 00:00:00 | |
| SONDE2-12 | 2026-08-30 23:05:35 | 52.26461 | 14.33563 | 60° | 62km/h | 6443m | 4.8m/s | -18.1°C | 23.5% | 457.5hPa | 2.9V | 00:00:00 | 00:00:00 | 00:00:00 | |
| AA1-15 | 2026-08-30 23:05:28 | 52.26416 | 14.33420 | 73° | 60km/h | 6413m | 4.7m/s | -17.8°C | 17.4% | 459.4hPa | 2.9V | 18:12:15 | 00:55:31 | 00:00:00 | |
| 13BRC | 2026-08-30 23:05:27 | 52.26416 | 14.33420 | 74° | 60km/h | 6413m | 4.7m/s | -17.8°C | 16.1% | 459.4hPa | 2.9V | 00:00:00 | 00:00:00 | 00:00:00 | |
| DB0DAN | 2026-08-30 23:05:25 | 52.26397 | 14.33344 | 60° | 64km/h | 6396m | 6.1m/s | -17.6°C | 11.5% | 460.41hPa | 2.9V | 00:00:00 | 00:00:00 | 00:00:00 | |
| KRY50SP-1 | 2026-08-30 23:05:21 | 52.26370 | 14.33280 | 55° | 55km/h | 6378m | 5.4m/s | -17.5°C | 11.1% | 461.5hPa | 2.8V | 00:00:00 | 00:00:00 | 00:00:00 | |
| SP3BTT-10 | 2026-08-30 23:05:20 | 52.26356 | 14.33245 | 63° | 62km/h | 6369m | 4.8m/s | -17.3°C | 12.3% | 462.0hPa | 2.8V | 00:00:00 | 00:00:00 | 00:00:00 | |
| EDDB2-11 | 2026-08-30 23:05:19 | 52.26351 | 14.33227 | 65° | 47km/h | 6364m | 4.8m/s | -17.4°C | 10.9% | 462.4hPa | 2.8V | 00:00:00 | 00:00:00 | 00:00:00 | |
| KRY50SP-1 | 2026-08-30 23:05:16 | 52.26341 | 14.33189 | 67° | 53km/h | 6352m | 6.2m/s | -17.2°C | 10.8% | 463.1hPa | 2.8V | 00:00:00 | 00:00:00 | 00:00:00 | |
| SONDE2-11 | 2026-08-30 23:05:15 | 52.26326 | 14.33129 | 69° | 51km/h | 6330m | 8.0m/s | -17.1°C | 10.7% | 464.4hPa | 2.8V | 00:00:00 | 00:00:00 | 00:00:00 | |
| DB0DAN | 2026-08-30 23:05:10 | 52.26304 | 14.33041 | 64° | 60km/h | 6303m | 9.5m/s | -16.8°C | 10.4% | 465.96hPa | 2.8V | 00:00:00 | 00:00:00 | 00:00:00 | |
| AA1-15 | 2026-08-30 23:05:10 | 52.26304 | 14.33041 | 64° | 62km/h | 6303m | 9.5m/s | -16.8°C | 11.7% | 466hPa | 2.8V | 18:12:15 | 00:55:13 | 00:00:00 | |
| SONDE2-12 | 2026-08-30 23:05:04 | 52.26258 | 14.32879 | 68° | 64km/h | 6271m | 3.3m/s | -16.5°C | 11.0% | 468.1hPa | 2.9V | 00:00:00 | 00:00:00 | 00:00:00 | |
| AA1-15 | 2026-08-30 23:04:58 | 52.26226 | 14.32745 | 69° | 62km/h | 6244m | 4.2m/s | -16.3°C | 11% | 0hPa | 2.9V | 18:12:15 | 00:55:01 | 00:00:00 | |
| EDDB2-12 | 2026-08-30 23:04:56 | 52.26212 | 14.32695 | 64° | 69km/h | 6237m | 5.7m/s | -16.2°C | 10.5% | 470.2hPa | 2.9V | 00:00:00 | 00:00:00 | 00:00:00 | |
| DB0DAN | 2026-08-30 23:04:55 | 52.26204 | 14.32669 | 61° | 66km/h | 6230m | 6.8m/s | -16.1°C | 10.4% | 470.61hPa | 2.9V | 00:00:00 | 00:00:00 | 00:00:00 | |
| AA1-15 | 2026-08-30 23:04:48 | 52.26140 | 14.32467 | 64° | 68km/h | 6182m | 6.1m/s | -15.8°C | 12.2% | 0hPa | 2.9V | 18:12:15 | 00:54:50 | 00:00:00 | |
| 13BRC | 2026-08-30 23:04:45 | 52.26132 | 14.32442 | 67° | 68km/h | 6176m | 5.8m/s | -15.8°C | 11.4% | 474.0hPa | 2.8V | 00:00:00 | 00:00:00 | 00:00:00 | |
| SONDE2-11 | 2026-08-30 23:04:44 | 52.26111 | 14.32372 | 59° | 60km/h | 6158m | 7.9m/s | -15.6°C | 11.5% | 475.0hPa | 2.8V | 00:00:00 | 00:00:00 | 00:00:00 | |
| KRY50SP-1 | 2026-08-30 23:04:42 | 52.26111 | 14.32372 | 61° | 60km/h | 6159m | 7.9m/s | -15.6°C | 0% | 0hPa | 2.8V | 00:00:00 | 00:00:00 | 00:00:00 | |
| DB0DAN | 2026-08-30 23:04:40 | 52.26087 | 14.32304 | 61° | 64km/h | 6141m | 1.2m/s | -15.5°C | 11% | 476.17hPa | 2.8V | 00:00:00 | 00:00:00 | 00:00:00 | |
| AA1-15 | 2026-08-30 23:04:37 | 52.26065 | 14.32233 | 70° | 60km/h | 6122m | 5.3m/s | -15.4°C | 11.1% | 0hPa | 2.9V | 18:12:15 | 00:54:40 | 00:00:00 | |
| SONDE2-12 | 2026-08-30 23:04:33 | 52.26043 | 14.32140 | 66° | 57km/h | 6099m | 4.3m/s | -15.2°C | 10.9% | 478.8hPa | 2.9V | 00:00:00 | 00:00:00 | 00:00:00 | |
| AA1-15 | 2026-08-30 23:04:27 | 52.26003 | 14.32003 | 67° | 68km/h | 6070m | 4m/s | 0°C | 0% | 0hPa | 2.9V | 18:12:15 | 00:54:30 | 00:00:00 | |
| DB0DAN | 2026-08-30 23:04:25 | 52.25990 | 14.31951 | 66° | 66km/h | 6062m | 5.2m/s | -15°C | 9.7% | 481.05hPa | 2.9V | 00:00:00 | 00:00:00 | 00:00:00 | |
| AA1-15 | 2026-08-30 23:04:17 | 52.25916 | 14.31748 | 66° | 58km/h | 6020m | 5.2m/s | 0°C | 0% | 0hPa | 2.9V | 18:12:15 | 00:54:19 | 00:00:00 | |
| KRY50SP-1 | 2026-08-30 23:04:17 | 52.25923 | 14.31769 | 64° | 58km/h | 6025m | 5.1m/s | 0°C | 0% | 0hPa | 2.9V | 00:00:00 | 00:00:00 | 00:00:00 | |
| DB0DAN | 2026-08-30 23:04:10 | 52.25878 | 14.31605 | 63° | 55km/h | 5984m | 4.7m/s | -14.4°C | 10.7% | 486hPa | 2.9V | 00:00:00 | 00:00:00 | 00:00:00 | |
| AA1-15 | 2026-08-30 23:04:05 | 52.25842 | 14.31495 | 63° | 64km/h | 5957m | 5.7m/s | 0°C | 0% | 0hPa | 2.9V | 18:12:15 | 00:54:08 | 00:00:00 | |
| 13BRC | 2026-08-30 23:04:04 | 52.25842 | 14.31495 | 64° | 62km/h | 5957m | 5.7m/s | -14.2°C | 10.7% | 487.8hPa | 2.9V | 00:00:00 | 00:00:00 | 00:00:00 | |
| S3001 | 2026-08-30 23:04:03 | 52.25807 | 14.31401 | 57° | 66km/h | 5938m | 4.8m/s | -14.0°C | 13.3% | 489.1hPa | 2.9V | 00:00:00 | 00:00:00 | 00:00:00 | |
| DAC517 | 2026-08-30 23:04:02 | 52.25816 | 14.31424 | 59° | 68km/h | 5943m | 5.4m/s | -14.1°C | 13.0% | 488.7hPa | 2.9V | 00:00:00 | 00:00:00 | 00:00:00 | |
| KRY50SP-1 | 2026-08-30 23:04:00 | 52.25807 | 14.31401 | 59° | 68km/h | 5938m | 4.8m/s | 0°C | 0% | 0hPa | 2.9V | 00:00:00 | 00:00:00 | 00:00:00 | |
| DB0DAN | 2026-08-30 23:03:55 | 52.25750 | 14.31255 | 59° | 62km/h | 5907m | 3.5m/s | -13.8°C | 14.2% | 491.09hPa | 2.9V | 00:00:00 | 00:00:00 | 00:00:00 | |
| AA1-15 | 2026-08-30 23:03:54 | 52.25742 | 14.31233 | 61° | 62km/h | 5903m | 5.7m/s | 0°C | 0% | 0hPa | 2.8V | 18:12:15 | 00:53:57 | 00:00:00 | |
| EDDB2-11 | 2026-08-30 23:03:46 | 52.25688 | 14.31061 | 59° | 60km/h | 5864m | 5.3m/s | -13.5°C | 12.8% | 493.9hPa | 2.9V | 00:00:00 | 00:00:00 | 00:00:00 | |
| AA1-15 | 2026-08-30 23:03:44 | 52.25670 | 14.31017 | 56° | 66km/h | 5857m | 1.1m/s | 0°C | 0% | 0hPa | 2.9V | 18:12:15 | 00:53:47 | 00:00:00 | |
| AA1-15 | 2026-08-30 23:03:32 | 52.25567 | 14.30721 | 67° | 69km/h | 5795m | 4.6m/s | 0°C | 0% | 0hPa | 2.9V | 18:12:15 | 00:53:35 | 00:00:00 | |
| SONDE2-12 | 2026-08-30 23:03:31 | 52.25560 | 14.30695 | 66° | 68km/h | 5790m | 4.9m/s | -12.9°C | 12.1% | 498.8hPa | 2.9V | 00:00:00 | 00:00:00 | 00:00:00 | |
| DL2RXE-15 | 2026-08-30 23:03:30 | 52.25560 | 14.30695 | 68° | 68km/h | 5790m | 4.9m/s | 0°C | 0% | 0hPa | 2.9V | 00:00:00 | 00:00:00 | 00:00:00 | |
| SP6BVK | 2026-08-30 23:03:28 | 52.25546 | 14.30643 | 70° | 69km/h | 5782m | 3.5m/s | 0°C | 0% | 0hPa | 2.9V | 00:00:00 | 00:00:00 | 00:00:00 | |
| DB0DAN | 2026-08-30 23:03:25 | 52.25522 | 14.30540 | 63° | 60km/h | 5765m | 5.1m/s | -12.7°C | 11.2% | 500.49hPa | 2.9V | 00:00:00 | 00:00:00 | 00:00:00 | |
| EDDB2-12 | 2026-08-30 23:03:23 | 52.25505 | 14.30497 | 54° | 62km/h | 5755m | 5.6m/s | -12.6°C | 10.8% | 500.9hPa | 2.9V | 00:00:00 | 00:00:00 | 00:00:00 | |
| 13BRC | 2026-08-30 23:03:22 | 52.25505 | 14.30497 | 56° | 64km/h | 5755m | 5.6m/s | -12.6°C | 10.8% | 500.9hPa | 2.9V | 00:00:00 | 00:00:00 | 00:00:00 | |
| SP3BTT-10 | 2026-08-30 23:03:20 | 52.25477 | 14.30428 | 63° | 64km/h | 5735m | 6.8m/s | -12.4°C | 11.3% | 502.2hPa | 2.9V | 00:00:00 | 00:00:00 | 00:00:00 | |
| EDDB2-11 | 2026-08-30 23:03:15 | 52.25447 | 14.30308 | 70° | 64km/h | 5709m | 4.3m/s | -12.2°C | 10.2% | 504.1hPa | 2.9V | 00:00:00 | 00:00:00 | 00:00:00 | |
| DB0DAN | 2026-08-30 23:03:10 | 52.25409 | 14.30177 | 60° | 68km/h | 5687m | 5.5m/s | -12°C | 10.1% | 505.48hPa | 2.9V | 00:00:00 | 00:00:00 | 00:00:00 | |
| AA1-15 | 2026-08-30 23:03:08 | 52.25392 | 14.30125 | 66° | 73km/h | 5676m | 5.9m/s | 0°C | 0% | 0hPa | 2.9V | 18:12:15 | 00:53:11 | 00:00:00 | |
| SONDE2-12 | 2026-08-30 23:03:00 | 52.25323 | 14.29935 | 52° | 71km/h | 5636m | 3.4m/s | -11.6°C | 7.2% | 509.0hPa | 2.9V | 00:00:00 | 00:00:00 | 00:00:00 | |
| AA1-15 | 2026-08-30 23:02:57 | 52.25294 | 14.29863 | 59° | 64km/h | 5622m | 6.8m/s | 0°C | 0% | 0hPa | 2.9V | 18:12:15 | 00:53:00 | 00:00:00 | |
| DB0DAN | 2026-08-30 23:02:55 | 52.25279 | 14.29821 | 57° | 53km/h | 5609m | 6.9m/s | -11.4°C | 6.6% | 510.66hPa | 2.9V | 00:00:00 | 00:00:00 | 00:00:00 | |
| EDDB2-12 | 2026-08-30 23:02:52 | 52.25255 | 14.29756 | 62° | 68km/h | 5586m | 6.5m/s | -11.2°C | 7.2% | 512.1hPa | 2.9V | 00:00:00 | 00:00:00 | 00:00:00 | |
| SP3BTT-10 | 2026-08-30 23:02:50 | 52.25239 | 14.29704 | 62° | 64km/h | 5575m | 5.3m/s | -11.1°C | 8.1% | 512.8hPa | 2.9V | 00:00:00 | 00:00:00 | 00:00:00 | |
| EDDB2-11 | 2026-08-30 23:02:44 | 52.25184 | 14.29549 | 57° | 62km/h | 5550m | 4.9m/s | -10.9°C | 8.3% | 514.6hPa | 2.9V | 00:00:00 | 00:00:00 | 00:00:00 | |
| SP6BVK | 2026-08-30 23:02:43 | 52.25184 | 14.29549 | 59° | 64km/h | 5550m | 4.9m/s | 0°C | 0% | 0hPa | 2.9V | 00:00:00 | 00:00:00 | 00:00:00 | |
| DB0DAN | 2026-08-30 23:02:40 | 52.25155 | 14.29461 | 65° | 60km/h | 5528m | 4.9m/s | -10.8°C | 8.5% | 516.01hPa | 2.9V | 00:00:00 | 00:00:00 | 00:00:00 | |
| SONDE2-12 | 2026-08-30 23:02:29 | 52.25079 | 14.29192 | 55° | 64km/h | 5476m | 6.1m/s | -10.3°C | 12.3% | 519.6hPa | 2.9V | 00:00:00 | 00:00:00 | 00:00:00 | |
| DB0DAN | 2026-08-30 23:02:25 | 52.25046 | 14.29110 | 62° | 51km/h | 5455m | 5.7m/s | -10.1°C | 11.8% | 520.87hPa | 2.9V | 00:00:00 | 00:00:00 | 00:00:00 | |
| AA1-15 | 2026-08-30 23:02:16 | 52.24974 | 14.28916 | 59° | 64km/h | 5405m | 5.7m/s | 0°C | 0% | 0hPa | 2.9V | 18:12:15 | 00:52:19 | 00:00:00 | |
| EDDB2-11 | 2026-08-30 23:02:13 | 52.24946 | 14.28851 | 53° | 64km/h | 5391m | 5.0m/s | -9.5°C | 12.6% | 525.3hPa | 2.9V | 00:00:00 | 00:00:00 | 00:00:00 | |
| DB0DAN | 2026-08-30 23:02:10 | 52.24918 | 14.28786 | 54° | 64km/h | 5379m | 4.2m/s | -9.4°C | 12.8% | 526.17hPa | 2.9V | 00:00:00 | 00:00:00 | 00:00:00 | |
| AA1-15 | 2026-08-30 23:02:06 | 52.24866 | 14.28671 | 54° | 68km/h | 5354m | 5m/s | 0°C | 0% | 0hPa | 2.9V | 18:12:15 | 00:52:08 | 00:00:00 | |
| SONDE2-12 | 2026-08-30 23:01:58 | 52.24808 | 14.28526 | 60° | 57km/h | 5321m | 4.7m/s | -8.9°C | 14.1% | 530.1hPa | 2.9V | 00:00:00 | 00:00:00 | 00:00:00 | |
| DB0DAN | 2026-08-30 23:01:55 | 52.24787 | 14.28460 | 64° | 62km/h | 5310m | 3.7m/s | -8.9°C | 13.5% | 530.99hPa | 2.9V | 00:00:00 | 00:00:00 | 00:00:00 | |
| EDDB2-12 | 2026-08-30 23:01:50 | 52.24747 | 14.28347 | 60° | 57km/h | 5284m | 7.3m/s | -8.6°C | 8.4% | 532.8hPa | 2.9V | 00:00:00 | 00:00:00 | 00:00:00 | |
| DL2RXE-15 | 2026-08-30 23:01:44 | 52.24714 | 14.28238 | 68° | 66km/h | 5246m | 7.6m/s | -8.3°C | 0% | 0hPa | 2.9V | 00:00:00 | 00:00:00 | 00:00:00 | |
| DB0DAN | 2026-08-30 23:01:40 | 52.24678 | 14.28112 | 66° | 60km/h | 5211m | 7.3m/s | -8°C | 7.9% | 537.76hPa | 2.9V | 00:00:00 | 00:00:00 | 00:00:00 | |
| SONDE2-12 | 2026-08-30 23:01:27 | 52.24601 | 14.27815 | 64° | 68km/h | 5145m | 4.6m/s | -7.6°C | 8.3% | 542.2hPa | 2.9V | 00:00:00 | 00:00:00 | 00:00:00 | |
| DB0DAN | 2026-08-30 23:01:25 | 52.24586 | 14.27766 | 62° | 60km/h | 5137m | 3.7m/s | -7.5°C | 8% | 542.79hPa | 2.9V | 00:00:00 | 00:00:00 | 00:00:00 | |
| EDDB2-12 | 2026-08-30 23:01:19 | 52.24548 | 14.27649 | 62° | 57km/h | 5105m | 6.9m/s | -7.5°C | 7.9% | 545.0hPa | 2.9V | 00:00:00 | 00:00:00 | 00:00:00 | |
| SP3BTT-10 | 2026-08-30 23:01:17 | 52.24533 | 14.27606 | 62° | 55km/h | 5093m | 5.3m/s | -7.4°C | 8.3% | 545.9hPa | 2.9V | 00:00:00 | 00:00:00 | 08:30:00 | |
| AA1-15 | 2026-08-30 23:00:57 | 52.24407 | 14.27194 | 56° | 53km/h | 4989m | 4.9m/s | 0°C | 0% | 0hPa | 2.9V | 18:12:15 | 00:51:00 | 00:00:00 | |
| SONDE2-12 | 2026-08-30 23:00:56 | 52.24399 | 14.27176 | 54° | 51km/h | 4984m | 5.0m/s | -6.8°C | 10.3% | 553.7hPa | 2.9V | 00:00:00 | 00:00:00 | 00:00:00 | |
| EDDB2-12 | 2026-08-30 23:00:48 | 52.24340 | 14.27018 | 56° | 55km/h | 4947m | 4.4m/s | -6.5°C | 9.3% | 556.4hPa | 2.9V | 00:00:00 | 00:00:00 | 00:00:00 | |
| SP3BTT-10 | 2026-08-30 23:00:47 | 52.24332 | 14.26999 | 58° | 49km/h | 4942m | 4.7m/s | -6.4°C | 9.9% | 556.6hPa | 2.9V | 00:00:00 | 00:00:00 | 00:00:00 | |
| DB0DAN | 2026-08-30 23:00:40 | 52.24307 | 14.26883 | 75° | 42km/h | 4910m | 5.1m/s | -6.2°C | 8.6% | 558.9hPa | 2.9V | 00:00:00 | 00:00:00 | 00:00:00 | |
| EDDB2-11 | 2026-08-30 23:00:40 | 52.24307 | 14.26883 | 74° | 42km/h | 4910m | 5.1m/s | -6.2°C | 8.6% | 558.9hPa | 2.9V | 00:00:00 | 00:00:00 | 00:00:00 | |
| DAC517 | 2026-08-30 23:00:38 | 52.24296 | 14.26832 | 65° | 46km/h | 4891m | 6.1m/s | -6.1°C | 8.6% | 560.2hPa | 2.9V | 00:00:00 | 00:00:00 | 00:00:00 | |
| 13BRC | 2026-08-30 23:00:36 | 52.24296 | 14.26832 | 65° | 46km/h | 4891m | 6.1m/s | -6.1°C | 8.6% | 560.2hPa | 2.9V | 00:00:00 | 00:00:00 | 00:00:00 | |
| SONDE2-11 | 2026-08-30 23:00:35 | 52.24284 | 14.26799 | 57° | 46km/h | 4881m | 5.2m/s | -6.0°C | 8.8% | 560.9hPa | 2.9V | 00:00:00 | 00:00:00 | 00:00:00 | |
| DB0DAN | 2026-08-30 23:00:25 | 52.24215 | 14.26637 | 63° | 55km/h | 4835m | 5.1m/s | -5.7°C | 8.4% | 564.28hPa | 2.9V | 00:00:00 | 00:00:00 | 00:00:00 | |
| SONDE2-12 | 2026-08-30 23:00:25 | 52.24215 | 14.26637 | 63° | 57km/h | 4835m | 5.1m/s | -5.7°C | 8.7% | 564.3hPa | 2.9V | 00:00:00 | 00:00:00 | 00:00:00 | |
| EDDB2-12 | 2026-08-30 23:00:18 | 52.24170 | 14.26514 | 56° | 46km/h | 4790m | 4.0m/s | -5.6°C | 7.5% | 567.5hPa | 2.9V | 00:00:00 | 00:00:00 | 00:00:00 | |
| 13BRC | 2026-08-30 23:00:17 | 52.24170 | 14.26514 | 57° | 46km/h | 4790m | 4.0m/s | -5.6°C | 7.5% | 567.5hPa | 2.9V | 00:00:00 | 00:00:00 | 00:00:00 | |
| DB0DAN | 2026-08-30 23:00:10 | 52.24128 | 14.26372 | 72° | 53km/h | 4754m | 5m/s | -5.4°C | 7.1% | 570.21hPa | 2.9V | 00:00:00 | 00:00:00 | 00:00:00 | |
| SONDE2-12 | 2026-08-30 22:59:54 | 52.24059 | 14.26081 | 60° | 40km/h | 4669m | 7.1m/s | -5.2°C | 9.5% | 576.4hPa | 2.9V | 00:00:00 | 00:00:00 | 00:00:00 | |
| EDDB2-12 | 2026-08-30 22:59:46 | 52.24005 | 14.25936 | 62° | 57km/h | 4616m | 6.2m/s | -5.1°C | 15.9% | 580.3hPa | 2.9V | 00:00:00 | 00:00:00 | 00:00:00 | |
| DB0DAN | 2026-08-30 22:59:40 | 52.23972 | 14.25826 | 60° | 57km/h | 4589m | 4.4m/s | -4.9°C | 15.3% | 582.31hPa | 2.9V | 00:00:00 | 00:00:00 | 00:00:00 | |
| EDDB2-11 | 2026-08-30 22:59:38 | 52.23959 | 14.25786 | 63° | 53km/h | 4578m | 6.2m/s | -4.8°C | 14.4% | 583.1hPa | 2.9V | 00:00:00 | 00:00:00 | 00:00:00 | |
| DAC517 | 2026-08-30 22:59:35 | 52.23945 | 14.25730 | 77° | 47km/h | 4562m | 5.1m/s | -4.6°C | 12.5% | 584.2hPa | 2.9V | 00:00:00 | 00:00:00 | 00:00:00 | |
| 13BRC | 2026-08-30 22:59:34 | 52.23945 | 14.25730 | 77° | 47km/h | 4562m | 5.1m/s | -4.6°C | 12.5% | 584.2hPa | 2.9V | 00:00:00 | 00:00:00 | 00:00:00 | |
| SONDE2-11 | 2026-08-30 22:59:33 | 52.23940 | 14.25691 | 79° | 46km/h | 4553m | 4.5m/s | -4.6°C | 12.4% | 584.9hPa | 2.9V | 00:00:00 | 00:00:00 | 00:00:00 | |
| DB0DAN | 2026-08-30 22:59:25 | 52.23895 | 14.25552 | 66° | 46km/h | 4512m | 3.9m/s | -4.3°C | 13% | 588.03hPa | 2.9V | 00:00:00 | 00:00:00 | 00:00:00 | |
| SONDE2-12 | 2026-08-30 22:59:23 | 52.23887 | 14.25516 | 74° | 47km/h | 4502m | 4.2m/s | -4.3°C | 13.7% | 588.8hPa | 2.9V | 00:00:00 | 00:00:00 | 00:00:00 | |
| DL2RXE-15 | 2026-08-30 22:59:18 | 52.23865 | 14.25424 | 67° | 46km/h | 4479m | 7.0m/s | -4.2°C | 0% | 0hPa | 2.9V | 00:00:00 | 00:00:00 | 00:00:00 | |
| 13BRC | 2026-08-30 22:59:14 | 52.23853 | 14.25377 | 69° | 42km/h | 4462m | 3.8m/s | -4.1°C | 14.5% | 591.7hPa | 2.9V | 00:00:00 | 00:00:00 | 00:00:00 | |
| DAC517 | 2026-08-30 22:59:13 | 52.23848 | 14.25360 | 66° | 44km/h | 4459m | 3.6m/s | -4.1°C | 14.9% | 592.0hPa | 2.9V | 00:00:00 | 00:00:00 | 00:00:00 | |
| DB0DAN | 2026-08-30 22:59:10 | 52.23824 | 14.25301 | 54° | 40km/h | 4439m | 6.7m/s | -3.9°C | 16.4% | 593.49hPa | 2.9V | 00:00:00 | 00:00:00 | 00:00:00 | |
| EDDB2-11 | 2026-08-30 22:59:07 | 52.23808 | 14.25252 | 68° | 47km/h | 4421m | 6.5m/s | -3.8°C | 19.1% | 594.8hPa | 2.9V | 00:00:00 | 00:00:00 | 00:00:00 | |
| SP3BTT-10 | 2026-08-30 22:59:04 | 52.23790 | 14.25189 | 64° | 49km/h | 4404m | 6.1m/s | -3.7°C | 21.8% | 596.1hPa | 2.9V | 00:00:00 | 00:00:00 | 00:00:00 | |
| SONDE2-11 | 2026-08-30 22:59:02 | 52.23778 | 14.25148 | 63° | 51km/h | 4392m | 6.3m/s | -3.6°C | 20.8% | 597.0hPa | 2.9V | 00:00:00 | 00:00:00 | 00:00:00 | |
| DB0DAN | 2026-08-30 22:58:55 | 52.23749 | 14.25044 | 51° | 38km/h | 4357m | 3.8m/s | -3.4°C | 20.6% | 599.78hPa | 2.9V | 00:00:00 | 00:00:00 | 00:00:00 | |
| SONDE2-12 | 2026-08-30 22:58:52 | 52.23727 | 14.25006 | 49° | 40km/h | 4340m | 8.0m/s | -3.2°C | 21.2% | 601.0hPa | 2.9V | 00:00:00 | 00:00:00 | 00:00:00 | |
| DL2RXE-15 | 2026-08-30 22:58:48 | 52.23708 | 14.24965 | 57° | 47km/h | 4322m | 5.9m/s | 0°C | 0% | 0hPa | 2.9V | 00:00:00 | 00:00:00 | 00:00:00 | |
| EDDB2-12 | 2026-08-30 22:58:44 | 52.23671 | 14.24858 | 56° | 46km/h | 4292m | 3.5m/s | -2.9°C | 20.8% | 604.6hPa | 2.9V | 00:00:00 | 00:00:00 | 00:00:00 | |
| SONDE2-12 | 2026-08-30 22:58:21 | 52.23548 | 14.24489 | 58° | 44km/h | 4169m | 7.5m/s | -1.9°C | 19.7% | 613.8hPa | 2.9V | 00:00:00 | 00:00:00 | 00:00:00 | |
| DB0DAN | 2026-08-30 22:58:10 | 52.23473 | 14.24288 | 58° | 42km/h | 4116m | 4.4m/s | -1.4°C | 19.9% | 618.12hPa | 2.9V | 00:00:00 | 00:00:00 | 00:00:00 | |
| EDDB2-11 | 2026-08-30 22:58:05 | 52.23451 | 14.24217 | 57° | 47km/h | 4089m | 5.9m/s | -1.2°C | 19.7% | 620.3hPa | 2.9V | 00:00:00 | 00:00:00 | 00:00:00 | |
| SONDE2-11 | 2026-08-30 22:58:00 | 52.23409 | 14.24130 | 49° | 49km/h | 4058m | 4.4m/s | -0.9°C | 19.5% | 622.6hPa | 2.9V | 00:00:00 | 00:00:00 | 00:00:00 | |
| DB0DAN | 2026-08-30 22:57:55 | 52.23375 | 14.24056 | 60° | 42km/h | 4035m | 6.4m/s | -0.7°C | 19.2% | 624.62hPa | 2.9V | 00:00:00 | 00:00:00 | 00:00:00 | |
| SONDE2-12 | 2026-08-30 22:57:50 | 52.23353 | 14.23970 | 76° | 40km/h | 4007m | 5.7m/s | -0.5°C | 19.4% | 626.7hPa | 2.9V | 00:00:00 | 00:00:00 | 00:00:00 | |
| SP3BTT-10 | 2026-08-30 22:57:49 | 52.23351 | 14.23955 | 78° | 42km/h | 4003m | 3.8m/s | 0°C | 0% | 0hPa | 2.9V | 00:00:00 | 00:00:00 | 00:00:00 | |
| DB0DAN | 2026-08-30 22:57:40 | 52.23314 | 14.23807 | 70° | 37km/h | 3953m | 2.7m/s | -0.3°C | 20.5% | 630.85hPa | 2.9V | 00:00:00 | 00:00:00 | 00:00:00 | |
| DL2RXE-15 | 2026-08-30 22:57:35 | 52.23301 | 14.23752 | 66° | 35km/h | 3938m | 3.0m/s | -0.1°C | 0% | 0hPa | 2.9V | 00:00:00 | 00:00:00 | 00:00:00 | |
| EDDB2-11 | 2026-08-30 22:57:34 | 52.23291 | 14.23726 | 56° | 40km/h | 3931m | 4.2m/s | -0.1°C | 20.2% | 632.7hPa | 2.9V | 00:00:00 | 00:00:00 | 00:00:00 | |
| 13BRC | 2026-08-30 22:57:31 | 52.23278 | 14.23696 | 57° | 44km/h | 3922m | 6.8m/s | 0.0°C | 20.1% | 633.5hPa | 2.9V | 00:00:00 | 00:00:00 | 00:00:00 | |
| DAC517 | 2026-08-30 22:57:30 | 52.23273 | 14.23680 | 64° | 46km/h | 3915m | 7.2m/s | 0.1°C | 20.0% | 634.0hPa | 2.9V | 00:00:00 | 00:00:00 | 00:00:00 | |
| SONDE2-11 | 2026-08-30 22:57:29 | 52.23262 | 14.23645 | 65° | 49km/h | 3904m | 6.6m/s | 0.2°C | 19.9% | 634.8hPa | 2.9V | 00:00:00 | 00:00:00 | 00:00:00 | |
| DB0DAN | 2026-08-30 22:57:25 | 52.23240 | 14.23579 | 59° | 35km/h | 3878m | 6.1m/s | 0.3°C | 20.1% | 636.87hPa | 2.9V | 00:00:00 | 00:00:00 | 00:00:00 | |
| S3001 | 2026-08-30 22:57:20 | 52.23208 | 14.23485 | 62° | 53km/h | 3848m | 6.4m/s | 0.5°C | -1.0% | -1.0hPa | 2.9V | 00:00:00 | 00:00:00 | 00:00:00 | |
| SP3BTT-10 | 2026-08-30 22:57:19 | 52.23208 | 14.23484 | 63° | 51km/h | 3848m | 6.3m/s | 0°C | 0% | 0hPa | 2.9V | 00:00:00 | 00:00:00 | 00:00:00 | |
| DB0DAN | 2026-08-30 22:57:10 | 52.23167 | 14.23336 | 65° | 33km/h | 3808m | 3.8m/s | 0.7°C | 20.1% | 642.45hPa | 2.9V | 00:00:00 | 00:00:00 | 00:00:00 | |
| DL2RXE-15 | 2026-08-30 22:57:07 | 52.23158 | 14.23306 | 66° | 42km/h | 3800m | 5.0m/s | 0°C | 0% | 0hPa | 2.9V | 00:00:00 | 00:00:00 | 00:00:00 | |
| DAC517 | 2026-08-30 22:57:04 | 52.23136 | 14.23241 | 56° | 49km/h | 3773m | 6.5m/s | 1.0°C | 17.5% | 645.2hPa | 2.9V | 00:00:00 | 00:00:00 | 00:00:00 | |
| EDDB2-11 | 2026-08-30 22:57:03 | 52.23129 | 14.23223 | 57° | 53km/h | 3767m | 4.9m/s | 1.0°C | 17.1% | 645.7hPa | 2.9V | 00:00:00 | 00:00:00 | 00:00:00 | |
| SONDE2-11 | 2026-08-30 22:56:58 | 52.23094 | 14.23128 | 56° | 47km/h | 3746m | 5.7m/s | 1.1°C | 16.0% | 647.5hPa | 2.9V | 00:00:00 | 00:00:00 | 00:00:00 | |
| DB0DAN | 2026-08-30 22:56:55 | 52.23073 | 14.23085 | 52° | 40km/h | 3731m | 4m/s | 1.2°C | 15.6% | 648.74hPa | 2.9V | 00:00:00 | 00:00:00 | 00:00:00 | |
| SONDE2-12 | 2026-08-30 22:56:48 | 52.23032 | 14.22948 | 51° | 49km/h | 3689m | 4.9m/s | 1.5°C | 14.2% | 652.0hPa | 2.9V | 00:00:00 | 00:00:00 | 00:00:00 | |
| DL2RXE-15 | 2026-08-30 22:56:47 | 52.23039 | 14.22965 | 59° | 49km/h | 3695m | 6.6m/s | 1.4°C | 0% | 0hPa | 2.9V | 00:00:00 | 00:00:00 | 00:00:00 | |
| DAC517 | 2026-08-30 22:56:42 | 52.23002 | 14.22876 | 63° | 57km/h | 3672m | 4.0m/s | 1.6°C | 0% | 653.6hPa | 2.9V | 00:00:00 | 00:00:00 | 00:00:00 | |
| DB0DAN | 2026-08-30 22:56:40 | 52.22984 | 14.22819 | 61° | 46km/h | 3660m | 5m/s | 1.7°C | 12.9% | 654.51hPa | 2.9V | 00:00:00 | 00:00:00 | 00:00:00 | |
| EDDB2-12 | 2026-08-30 22:56:39 | 52.22978 | 14.22802 | 58° | 47km/h | 3653m | 7.5m/s | 1.8°C | 12.8% | 655.0hPa | 2.9V | 00:00:00 | 00:00:00 | 00:00:00 | |
| SP3BTT-10 | 2026-08-30 22:56:35 | 52.22954 | 14.22739 | 65° | 42km/h | 3628m | 4.2m/s | 0°C | 0% | 0hPa | 2.9V | 00:00:00 | 00:00:00 | 00:00:00 | |
| EDDB2-11 | 2026-08-30 22:56:32 | 52.22941 | 14.22694 | 57° | 42km/h | 3610m | 7.4m/s | 2.1°C | 11.5% | 658.4hPa | 2.9V | 00:00:00 | 00:00:00 | 00:00:00 | |
| 13BRC | 2026-08-30 22:56:30 | 52.22934 | 14.22679 | 54° | 47km/h | 3604m | 6.3m/s | 2.1°C | 11.6% | 659.0hPa | 2.9V | 00:00:00 | 00:00:00 | 00:00:00 | |
| DB0DAN | 2026-08-30 22:56:25 | 52.22896 | 14.22576 | 66° | 47km/h | 3566m | 6.6m/s | 2.4°C | 11.6% | 662.13hPa | 2.9V | 00:00:00 | 00:00:00 | 00:00:00 | |
| SONDE2-12 | 2026-08-30 22:56:17 | 52.22845 | 14.22434 | 53° | 44km/h | 3520m | 5.6m/s | 2.6°C | 14.3% | 665.8hPa | 2.9V | 00:00:00 | 00:00:00 | 00:00:00 | |
| DL2RXE-15 | 2026-08-30 22:56:12 | 52.22826 | 14.22394 | 61° | 35km/h | 3502m | 5.4m/s | 0°C | 0% | 0hPa | 2.9V | 00:00:00 | 00:00:00 | 00:00:00 | |
| DB0DAN | 2026-08-30 22:56:10 | 52.22816 | 14.22353 | 68° | 35km/h | 3487m | 6.8m/s | 2.9°C | 13.1% | 668.63hPa | 2.9V | 00:00:00 | 00:00:00 | 00:00:00 | |
| SP3BTT-10 | 2026-08-30 22:56:05 | 52.22784 | 14.22275 | 57° | 40km/h | 3456m | 6.5m/s | 0°C | 0% | 0hPa | 2.9V | 00:00:00 | 00:00:00 | 00:00:00 | |
| EDDB2-11 | 2026-08-30 22:56:01 | 52.22766 | 14.22223 | 64° | 35km/h | 3434m | 5.0m/s | 3.3°C | 12.3% | 673.0hPa | 2.9V | 00:00:00 | 00:00:00 | 00:00:00 | |
| SONDE2-11 | 2026-08-30 22:55:56 | 52.22736 | 14.22141 | 56° | 47km/h | 3416m | 4.9m/s | 3.4°C | 12.6% | 674.8hPa | 2.9V | 00:00:00 | 00:00:00 | 00:00:00 | |
| DB0DAN | 2026-08-30 22:55:55 | 52.22730 | 14.22125 | 61° | 42km/h | 3411m | 3.6m/s | 3.4°C | 13.2% | 675.11hPa | 2.9V | 00:00:00 | 00:00:00 | 00:00:00 | |
| SONDE2-12 | 2026-08-30 22:55:46 | 52.22664 | 14.21982 | 62° | 40km/h | 3359m | 4.2m/s | 3.8°C | 12.4% | 679.4hPa | 2.9V | 00:00:00 | 00:00:00 | 00:00:00 | |
| DB0DAN | 2026-08-30 22:55:40 | 52.22652 | 14.21909 | 73° | 35km/h | 3333m | 5m/s | 4°C | 11.5% | 681.52hPa | 2.9V | 00:00:00 | 00:00:00 | 00:00:00 | |
| DAC517 | 2026-08-30 22:55:40 | 52.22649 | 14.21895 | 65° | 37km/h | 3328m | 4.6m/s | 0°C | 0% | 681.9hPa | 2.9V | 00:00:00 | 00:00:00 | 00:00:00 | |
| EDDB2-12 | 2026-08-30 22:55:39 | 52.22638 | 14.21868 | 53° | 42km/h | 3318m | 5.0m/s | 4.0°C | 11.8% | 682.7hPa | 2.9V | 00:00:00 | 00:00:00 | 00:00:00 | |
| EDDB2-11 | 2026-08-30 22:55:30 | 52.22605 | 14.21754 | 73° | 37km/h | 3277m | 4.2m/s | 4.3°C | 11.8% | 686.2hPa | 2.9V | 00:00:00 | 00:00:00 | 00:00:00 | |
| 13BRC | 2026-08-30 22:55:28 | 52.22605 | 14.21753 | 74° | 38km/h | 3277m | 4.2m/s | 4.3°C | 11.8% | 686.2hPa | 2.9V | 00:00:00 | 00:00:00 | 00:00:00 | |
| DB0DAN | 2026-08-30 22:55:25 | 52.22591 | 14.21682 | 77° | 47km/h | 3260m | 6.5m/s | 4.4°C | 11.9% | 687.58hPa | 2.9V | 00:00:00 | 00:00:00 | 00:00:00 | |
| SONDE2-12 | 2026-08-30 22:55:15 | 52.22553 | 14.21545 | 83° | 38km/h | 3203m | 3.9m/s | 4.6°C | 14.4% | 692.5hPa | 2.9V | 00:00:00 | 00:00:00 | 00:00:00 | |
| DB0DAN | 2026-08-30 22:55:10 | 52.22545 | 14.21473 | 75° | 42km/h | 3182m | 4.3m/s | 4.7°C | 14.2% | 694.32hPa | 2.9V | 00:00:00 | 00:00:00 | 00:00:00 | |
| EDDB2-12 | 2026-08-30 22:55:06 | 52.22533 | 14.21413 | 71° | 31km/h | 3163m | 5.1m/s | 4.8°C | 14.3% | 695.9hPa | 2.9V | 00:00:00 | 00:00:00 | 00:00:00 | |
| DL2RXE-15 | 2026-08-30 22:55:03 | 52.22528 | 14.21392 | 68° | 26km/h | 3155m | 3.6m/s | 0°C | 0% | 0hPa | 2.9V | 00:00:00 | 00:00:00 | 00:00:00 | |
| EDDB2-11 | 2026-08-30 22:54:59 | 52.22507 | 14.21309 | 81° | 42km/h | 3128m | 4.7m/s | 4.9°C | 13.7% | 698.7hPa | 2.9V | 00:00:00 | 00:00:00 | 00:00:00 | |
| DB0DAN | 2026-08-30 22:54:55 | 52.22504 | 14.21264 | 81° | 27km/h | 3111m | 4.4m/s | 5°C | 13.2% | 700.09hPa | 2.9V | 00:00:00 | 00:00:00 | 00:00:00 | |
| SONDE2-11 | 2026-08-30 22:54:54 | 52.22499 | 14.21242 | 62° | 27km/h | 3103m | 5.1m/s | 5.1°C | 13.2% | 700.7hPa | 2.9V | 00:00:00 | 00:00:00 | 00:00:00 | |
| SONDE2-12 | 2026-08-30 22:54:44 | 52.22457 | 14.21067 | 67° | 51km/h | 3060m | 6.3m/s | 5.1°C | 14.0% | 704.4hPa | 2.9V | 00:00:00 | 00:00:00 | 00:00:00 | |
| DB0DAN | 2026-08-30 22:54:40 | 52.22441 | 14.21009 | 64° | 46km/h | 3043m | 4.2m/s | 5°C | 14.4% | 705.97hPa | 2.9V | 00:00:00 | 00:00:00 | 00:00:00 | |
| DAC517 | 2026-08-30 22:54:35 | 52.22419 | 14.20935 | 70° | 35km/h | 3019m | 5.1m/s | 0°C | 0% | 708.1hPa | 2.9V | 00:00:00 | 00:00:00 | 00:00:00 | |
| DB0DAN | 2026-08-30 22:54:25 | 52.22389 | 14.20793 | 59° | 40km/h | 2977m | 6m/s | 5.4°C | 16.5% | 711.86hPa | 2.9V | 00:00:00 | 00:00:00 | 00:00:00 | |
| SONDE2-12 | 2026-08-30 22:54:12 | 52.22347 | 14.20603 | 69° | 38km/h | 2909m | 7.3m/s | 5.2°C | 17.4% | 718.0hPa | 2.9V | 00:00:00 | 00:00:00 | 00:00:00 | |
| DB0DAN | 2026-08-30 22:54:10 | 52.22340 | 14.20574 | 75° | 37km/h | 2896m | 7m/s | 5.2°C | 18.3% | 719.33hPa | 2.9V | 00:00:00 | 00:00:00 | 00:00:00 | |
| 13BRC | 2026-08-30 22:54:05 | 52.22329 | 14.20509 | 72° | 38km/h | 2874m | 5.0m/s | 5.2°C | 19.4% | 721.2hPa | 2.9V | 00:00:00 | 00:00:00 | 00:00:00 | |
| SP3BTT-10 | 2026-08-30 22:54:04 | 52.22323 | 14.20479 | 75° | 40km/h | 2862m | 5.4m/s | 0°C | 0% | 0hPa | 2.9V | 00:00:00 | 00:00:00 | 00:00:00 | |
| EDDB2-11 | 2026-08-30 22:53:57 | 52.22302 | 14.20348 | 81° | 46km/h | 2822m | 4.2m/s | 5.2°C | 18.8% | 725.6hPa | 2.9V | 00:00:00 | 00:00:00 | 00:00:00 | |
| DB0DAN | 2026-08-30 22:53:55 | 52.22300 | 14.20330 | 82° | 42km/h | 2818m | 5m/s | 5.2°C | 18.8% | 726.06hPa | 2.9V | 00:00:00 | 00:00:00 | 00:00:00 | |
| SONDE2-11 | 2026-08-30 22:53:52 | 52.22294 | 14.20275 | 59° | 29km/h | 2799m | 4.0m/s | 5.3°C | 18.8% | 727.7hPa | 2.9V | 00:00:00 | 00:00:00 | 00:00:00 | |
| SONDE2-12 | 2026-08-30 22:53:41 | 52.22247 | 14.20142 | 66° | 44km/h | 2753m | 3.4m/s | 5.3°C | 21.7% | 731.8hPa | 2.9V | 00:00:00 | 00:00:00 | 00:00:00 | |
| DB0DAN | 2026-08-30 22:53:40 | 52.22243 | 14.20124 | 72° | 44km/h | 2751m | 2m/s | 5.3°C | 21.6% | 732.07hPa | 2.9V | 00:00:00 | 00:00:00 | 00:00:00 | |
| SP3BTT-10 | 2026-08-30 22:53:34 | 52.22235 | 14.20030 | 88° | 38km/h | 2729m | 4.0m/s | 0°C | 0% | 0hPa | 2.9V | 00:00:00 | 00:00:00 | 00:00:00 | |
| DAC517 | 2026-08-30 22:53:33 | 52.22235 | 14.20016 | 88° | 33km/h | 2726m | 4.3m/s | 0°C | 0% | 0hPa | 2.9V | 00:00:00 | 00:00:00 | 00:00:00 | |
| EDDB2-11 | 2026-08-30 22:53:26 | 52.22221 | 14.19896 | 76° | 33km/h | 2681m | 5.9m/s | 5.3°C | 27.4% | 738.4hPa | 2.9V | 00:00:00 | 00:00:00 | 00:00:00 | |
| 13BRC | 2026-08-30 22:53:23 | 52.22219 | 14.19883 | 76° | 33km/h | 2675m | 5.3m/s | 5.4°C | 27.5% | 738.9hPa | 2.9V | 00:00:00 | 00:00:00 | 00:00:00 | |
| SONDE2-11 | 2026-08-30 22:53:21 | 52.22210 | 14.19828 | 80° | 29km/h | 2655m | 3.2m/s | 5.3°C | 29.2% | 740.7hPa | 2.9V | 00:00:00 | 00:00:00 | 00:00:00 | |
| DB0DAN | 2026-08-30 22:53:10 | 52.22185 | 14.19698 | 68° | 33km/h | 2602m | 6m/s | 0°C | 0% | 745.6hPa | 2.9V | 00:00:00 | 00:00:00 | 00:00:00 | |
| DAC517 | 2026-08-30 22:53:05 | 52.22173 | 14.19630 | 64° | 31km/h | 2582m | 3.9m/s | 0°C | 0% | 0hPa | 2.9V | 00:00:00 | 00:00:00 | 00:00:00 | |
| EDDB2-12 | 2026-08-30 22:53:02 | 52.22159 | 14.19589 | 61° | 44km/h | 2565m | 4.9m/s | 5.0°C | 41.4% | 748.9hPa | 2.9V | 00:00:00 | 00:00:00 | 00:00:00 | |
| DB0DAN | 2026-08-30 22:52:55 | 52.22139 | 14.19476 | 76° | 33km/h | 2523m | 6.8m/s | 0°C | 0% | 0hPa | 2.9V | 00:00:00 | 00:00:00 | 00:00:00 | |
| EDDB2-11 | 2026-08-30 22:52:55 | 52.22136 | 14.19462 | 71° | 37km/h | 2517m | 5.0m/s | 4.3°C | 62.9% | 753.2hPa | 2.9V | 00:00:00 | 00:00:00 | 00:00:00 | |
| SONDE2-11 | 2026-08-30 22:52:50 | 52.22121 | 14.19380 | 73° | 44km/h | 2491m | 4.2m/s | 3.5°C | 85.6% | 755.9hPa | 2.9V | 00:00:00 | 00:00:00 | 00:00:00 | |
| SP3BTT-10 | 2026-08-30 22:52:49 | 52.22121 | 14.19380 | 74° | 49km/h | 2491m | 4.1m/s | 0°C | 0% | 0hPa | 2.9V | 00:00:00 | 00:00:00 | 00:00:00 | |
| 13BRC | 2026-08-30 22:52:43 | 52.22092 | 14.19270 | 56° | 44km/h | 2457m | 4.6m/s | 3.7°C | 92.2% | 758.8hPa | 2.9V | 00:00:00 | 00:00:00 | 00:00:00 | |
| DB0DAN | 2026-08-30 22:52:40 | 52.22072 | 14.19222 | 60° | 47km/h | 2442m | 4.1m/s | 0°C | 0% | 0hPa | 2.9V | 00:00:00 | 00:00:00 | 00:00:00 | |
| SONDE2-12 | 2026-08-30 22:52:39 | 52.22066 | 14.19204 | 64° | 47km/h | 2438m | 5.2m/s | 3.8°C | 97.1% | 760.7hPa | 0V | 00:00:00 | 00:00:00 | 00:00:00 | |
| EDDB2-12 | 2026-08-30 22:52:31 | 52.22021 | 14.19054 | 55° | 53km/h | 2405m | 4.4m/s | 4.1°C | 94.1% | 764.0hPa | 0V | 00:00:00 | 00:00:00 | 00:00:00 | |
| SONDE2-12 | 2026-08-30 22:52:08 | 52.21872 | 14.18639 | 69° | 55km/h | 2293m | 4.9m/s | 4.9°C | 91.7% | 774.4hPa | 0V | 00:00:00 | 00:00:00 | 00:00:00 | |
| DAC517 | 2026-08-30 22:52:04 | 52.21846 | 14.18557 | 57° | 62km/h | 2271m | 4.7m/s | 0°C | 0% | 0hPa | 0V | 00:00:00 | 00:00:00 | 00:00:00 | |
| EDDB2-12 | 2026-08-30 22:52:00 | 52.21809 | 14.18481 | 49° | 51km/h | 2247m | 5.4m/s | 5.2°C | 92.7% | 778.7hPa | 0V | 00:00:00 | 00:00:00 | 00:00:00 | |
| EDDB2-11 | 2026-08-30 22:51:53 | 52.21747 | 14.18333 | 69° | 58km/h | 2201m | 5.5m/s | 5.6°C | 94.1% | 783.0hPa | 0V | 00:00:00 | 00:00:00 | 00:00:00 | |
| SONDE2-11 | 2026-08-30 22:51:48 | 52.21725 | 14.18230 | 68° | 53km/h | 2177m | 5.5m/s | 5.8°C | 93.0% | 785.3hPa | 0V | 00:00:00 | 00:00:00 | 00:00:00 | |
| SONDE2-12 | 2026-08-30 22:51:37 | 52.21659 | 14.18029 | 56° | 64km/h | 2129m | 3.3m/s | 6.2°C | 89.8% | 790.0hPa | 0V | 00:00:00 | 00:00:00 | 00:00:00 | |
| SP3BTT-10 | 2026-08-30 22:51:33 | 52.21624 | 14.17936 | 61° | 60km/h | 2115m | 3.8m/s | 0°C | 0% | 0hPa | 0V | 00:00:00 | 00:00:00 | 00:00:00 | |
| EDDB2-12 | 2026-08-30 22:51:29 | 52.21601 | 14.17860 | 72° | 46km/h | 2094m | 5.8m/s | 6.5°C | 85.9% | 793.2hPa | 0V | 00:00:00 | 00:00:00 | 00:00:00 | |
| SONDE2-12 | 2026-08-30 22:51:06 | 52.21480 | 14.17339 | 59° | 60km/h | 1983m | 5.1m/s | 7.3°C | 91.0% | 804.0hPa | 0V | 00:00:00 | 00:00:00 | 00:00:00 | |
| SP3BTT-10 | 2026-08-30 22:51:03 | 52.21456 | 14.17273 | 65° | 49km/h | 1966m | 4.2m/s | 0°C | 0% | 0hPa | 0V | 00:00:00 | 00:00:00 | 00:00:00 | |
| EDDB2-12 | 2026-08-30 22:50:58 | 52.21436 | 14.17170 | 73° | 55km/h | 1939m | 5.1m/s | 7.7°C | 89.4% | 808.2hPa | 0V | 00:00:00 | 00:00:00 | 00:00:00 | |
| EDDB2-11 | 2026-08-30 22:50:51 | 52.21382 | 14.17009 | 66° | 64km/h | 1903m | 5.1m/s | 8.0°C | 91.8% | 811.9hPa | 0V | 00:00:00 | 00:00:00 | 00:00:00 | |
| SONDE2-11 | 2026-08-30 22:50:45 | 52.21362 | 14.16875 | 80° | 62km/h | 1877m | 4.7m/s | 8.2°C | 91.7% | 814.5hPa | 0V | 00:00:00 | 00:00:00 | 00:00:00 | |
| SONDE2-12 | 2026-08-30 22:50:35 | 52.21322 | 14.16641 | 74° | 53km/h | 1820m | 5.6m/s | 8.8°C | 87.3% | 820.0hPa | 0V | 00:00:00 | 00:00:00 | 00:00:00 | |
| EDDB2-12 | 2026-08-30 22:50:27 | 52.21290 | 14.16486 | 69° | 47km/h | 1781m | 3.9m/s | 9.1°C | 80.5% | 823.8hPa | 0V | 00:00:00 | 00:00:00 | 00:00:00 | |
| SONDE2-12 | 2026-08-30 22:50:07 | 52.21199 | 14.16020 | 68° | 58km/h | 1669m | 4.8m/s | 10.1°C | 74.8% | 834.9hPa | 0V | 00:00:00 | 00:00:00 | 00:00:00 | |
| EDDB2-12 | 2026-08-30 22:49:57 | 52.21164 | 14.15829 | 70° | 55km/h | 1631m | 6.5m/s | 10.4°C | 72.1% | 839.0hPa | 0V | 00:00:00 | 00:00:00 | 00:00:00 | |
| EDDB2-11 | 2026-08-30 22:49:48 | 52.21144 | 14.15636 | 75° | 55km/h | 1584m | 6.0m/s | 10.8°C | 70.0% | 843.5hPa | 0V | 00:00:00 | 00:00:00 | 00:00:00 | |
| SONDE2-12 | 2026-08-30 22:49:35 | 52.21071 | 14.15341 | 61° | 47km/h | 1503m | 7.4m/s | 11.3°C | 69.4% | 851.9hPa | 0V | 00:00:00 | 00:00:00 | 00:00:00 | |
| EDDB2-12 | 2026-08-30 22:49:25 | 52.21036 | 14.15189 | 74° | 40km/h | 1453m | 7.7m/s | 11.7°C | 68.5% | 857.0hPa | 0V | 00:00:00 | 00:00:00 | 00:00:00 | |
| EDDB2-11 | 2026-08-30 22:49:17 | 52.21021 | 14.15044 | 80° | 44km/h | 1401m | 7.4m/s | 12.1°C | 67.9% | 862.4hPa | 0V | 00:00:00 | 00:00:00 | 00:00:00 | |
| SONDE2-11 | 2026-08-30 22:49:12 | 52.21016 | 14.14940 | 86° | 44km/h | 1370m | 3.6m/s | 12.1°C | 72.9% | 865.7hPa | 0V | 00:00:00 | 00:00:00 | 00:00:00 | |
| EDDB2-12 | 2026-08-30 22:48:54 | 52.20993 | 14.14599 | 71° | 40km/h | 1279m | 2.9m/s | 12.9°C | 71.4% | 874.8hPa | 0V | 00:00:00 | 00:00:00 | 00:00:00 | |
| EDDB2-11 | 2026-08-30 22:48:46 | 52.20983 | 14.14476 | 83° | 33km/h | 1240m | 6.0m/s | 13.2°C | 68.3% | 878.9hPa | 0V | 00:00:00 | 00:00:00 | 00:00:00 | |
| SONDE2-12 | 2026-08-30 22:48:31 | 52.20968 | 14.14208 | 86° | 37km/h | 1156m | 4.4m/s | 13.9°C | 65.4% | 887.8hPa | 0V | 00:00:00 | 00:00:00 | 00:00:00 | |
| EDDB2-12 | 2026-08-30 22:48:23 | 52.20963 | 14.14086 | 73° | 33km/h | 1113m | 5.0m/s | 14.3°C | 62.1% | 892.5hPa | 0V | 00:00:00 | 00:00:00 | 00:00:00 | |
| EDDB2-11 | 2026-08-30 22:48:15 | 52.20969 | 14.13950 | 106° | 46km/h | 1073m | 5.7m/s | 14.7°C | 59.7% | 896.6hPa | 0V | 00:00:00 | 00:00:00 | 00:00:00 | |
| SONDE2-11 | 2026-08-30 22:48:10 | 52.20972 | 14.13853 | 82° | 44km/h | 1046m | 4.3m/s | 14.9°C | 58.9% | 899.5hPa | 0V | 00:00:00 | 00:00:00 | 00:00:00 | |
| EDDB2-12 | 2026-08-30 22:47:52 | 52.20983 | 14.13545 | 85° | 31km/h | 962m | 4.5m/s | 15.6°C | 58.9% | 908.4hPa | 0V | 00:00:00 | 00:00:00 | 00:00:00 | |
| EDDB2-11 | 2026-08-30 22:47:44 | 52.20987 | 14.13437 | 100° | 20km/h | 925m | 4.4m/s | 15.9°C | 59.2% | 912.4hPa | 0V | 00:00:00 | 00:00:00 | 00:00:00 | |
| SONDE2-11 | 2026-08-30 22:47:39 | 52.20986 | 14.13397 | 69° | 26km/h | 904m | 3.3m/s | 16.1°C | 58.4% | 914.7hPa | 0V | 00:00:00 | 00:00:00 | 00:00:00 | |
| SONDE2-12 | 2026-08-30 22:47:29 | 52.20975 | 14.13266 | 102° | 27km/h | 860m | 5.1m/s | 16.4°C | -1.0% | -1.0hPa | 0V | 00:00:00 | 00:00:00 | 00:00:00 | |
| EDDB2-12 | 2026-08-30 22:47:22 | 52.20977 | 14.13168 | 85° | 33km/h | 821m | 5.8m/s | 16.6°C | 59.0% | 923.7hPa | 0V | 00:00:00 | 00:00:00 | 00:00:00 | |
| EDDB2-11 | 2026-08-30 22:47:13 | 52.20982 | 14.13067 | 83° | 29km/h | 779m | 3.2m/s | 16.7°C | 62.2% | 928.1hPa | 0V | 00:00:00 | 00:00:00 | 00:00:00 | |
| SONDE2-11 | 2026-08-30 22:47:08 | 52.20986 | 14.12987 | 106° | 42km/h | 758m | 4.6m/s | 16.7°C | 64.4% | 930.5hPa | 0V | 00:00:00 | 00:00:00 | 00:00:00 | |
| EDDB2-12 | 2026-08-30 22:46:50 | 52.21017 | 14.12783 | 97° | 31km/h | 668m | 5.0m/s | 17.2°C | 65.4% | 940.4hPa | 0V | 00:00:00 | 00:00:00 | 00:00:00 | |
| EDDB2-11 | 2026-08-30 22:46:42 | 52.21017 | 14.12711 | 100° | 24km/h | 620m | 6.1m/s | 17.5°C | 64.5% | 945.9hPa | 0V | 00:00:00 | 00:00:00 | 00:00:00 | |
| SONDE2-11 | 2026-08-30 22:46:37 | 52.21023 | 14.12675 | 66° | 16km/h | 594m | 5.0m/s | 17.7°C | 64.1% | 948.8hPa | 0V | 00:00:00 | 00:00:00 | 00:00:00 | |
| EDDB2-12 | 2026-08-30 22:46:19 | 52.21018 | 14.12507 | 82° | 35km/h | 500m | 5.7m/s | 18.5°C | 62.1% | 959.4hPa | 0V | 00:00:00 | 00:00:00 | 00:00:00 | |
| EDDB2-11 | 2026-08-30 22:46:11 | 52.21027 | 14.12454 | 100° | 27km/h | 466m | 6.3m/s | 18.7°C | 61.7% | 963.2hPa | 0V | 00:00:00 | 00:00:00 | 00:00:00 | |
| SONDE2-11 | 2026-08-30 22:46:06 | 52.21024 | 14.12381 | 62° | 31km/h | 437m | 6.5m/s | 19.0°C | 60.4% | 966.3hPa | 0V | 00:00:00 | 00:00:00 | 00:00:00 | |
| EDDB2-12 | 2026-08-30 22:45:48 | 52.21023 | 14.12198 | 140° | 5km/h | 344m | 5.2m/s | 19.8°C | -1.0% | 977.3hPa | 0V | 00:00:00 | 00:00:00 | 00:00:00 | |
| EDDB2-11 | 2026-08-30 22:45:42 | 52.21028 | 14.12151 | 32° | 20km/h | 309m | 5.9m/s | 0°C | -1.0% | 981.0hPa | 0V | 00:00:00 | 00:00:00 | 00:00:00 | |
| SONDE2-11 | 2026-08-30 22:45:35 | 52.21022 | 14.12145 | 355° | 0km/h | 288m | 3.9m/s | 0°C | -1.0% | 983.4hPa | 0V | 00:00:00 | 00:00:00 | 00:00:00 | |
| EDDB2-12 | 2026-08-30 22:45:17 | 52.20970 | 14.12043 | 6° | 16km/h | 200m | 5.8m/s | 0°C | -1.0% | -1.0hPa | 0V | 00:00:00 | 00:00:00 | 00:00:00 |